<?xml version="1.0" encoding="UTF-8" standalone="no" ?>
<gpx xmlns="http://www.topografix.com/GPX/1/1" xmlns:xsi="http://www.w3.org/2001/XMLSchema-instance" xsi:schemaLocation="http://www.topografix.com/GPX/1/1 http://www.topografix.com/GPX/1/1/gpx.xsd" version="1.1" creator="VisuGPX - https://www.visugpx.com">
  <metadata>
    <name>Edirne-Mostar</name>
  </metadata>
  <trk>
    <name><![CDATA[Tour d'Europe: étape 664]]></name>
    <extensions>
      <line xmlns="http://www.topografix.com/GPX/gpx_style/0/2">
        <color>000088</color>
        <width>4</width>
      </line>
    </extensions>
    <trkseg>
      <trkpt lat="41.99589" lon="21.42541">
        <ele>321.714643</ele>
        <time>2022-04-23T07:24:37.605Z</time>
      </trkpt>
      <trkpt lat="41.99598" lon="21.42587">
        <ele>321.714643</ele>
        <time>2022-04-23T07:48:27.519Z</time>
      </trkpt>
      <trkpt lat="41.99599" lon="21.426">
        <ele>321.714643</ele>
        <time>2022-04-23T07:48:31.507Z</time>
      </trkpt>
      <trkpt lat="41.99594" lon="21.42611">
        <ele>321.714643</ele>
        <time>2022-04-23T07:48:37.497Z</time>
      </trkpt>
      <trkpt lat="41.99585" lon="21.42613">
        <ele>321.714643</ele>
        <time>2022-04-23T07:48:42.567Z</time>
      </trkpt>
      <trkpt lat="41.99575" lon="21.42612">
        <ele>321.714643</ele>
        <time>2022-04-23T07:48:46.569Z</time>
      </trkpt>
      <trkpt lat="41.99565" lon="21.42617">
        <ele>321.714643</ele>
        <time>2022-04-23T07:48:51.524Z</time>
      </trkpt>
      <trkpt lat="41.99556" lon="21.42613">
        <ele>321.585602</ele>
        <time>2022-04-23T07:48:55.523Z</time>
      </trkpt>
      <trkpt lat="41.9955" lon="21.42602">
        <ele>321.303545</ele>
        <time>2022-04-23T07:48:58.509Z</time>
      </trkpt>
      <trkpt lat="41.9955" lon="21.42588">
        <ele>320.989337</ele>
        <time>2022-04-23T07:49:02.590Z</time>
      </trkpt>
      <trkpt lat="41.99552" lon="21.42576">
        <ele>320.718866</ele>
        <time>2022-04-23T07:49:05.512Z</time>
      </trkpt>
      <trkpt lat="41.99553" lon="21.42561">
        <ele>320.376465</ele>
        <time>2022-04-23T07:49:09.516Z</time>
      </trkpt>
      <trkpt lat="41.99554" lon="21.42546">
        <ele>320.04653</ele>
        <time>2022-04-23T07:49:13.538Z</time>
      </trkpt>
      <trkpt lat="41.9955" lon="21.42509">
        <ele>319.242698</ele>
        <time>2022-04-23T07:49:48.512Z</time>
      </trkpt>
      <trkpt lat="41.99547" lon="21.42495">
        <ele>318.920566</ele>
        <time>2022-04-23T07:49:51.503Z</time>
      </trkpt>
      <trkpt lat="41.99542" lon="21.42481">
        <ele>318.570712</ele>
        <time>2022-04-23T07:49:54.531Z</time>
      </trkpt>
      <trkpt lat="41.9954" lon="21.42469">
        <ele>318.296311</ele>
        <time>2022-04-23T07:49:57.501Z</time>
      </trkpt>
      <trkpt lat="41.99539" lon="21.42455">
        <ele>317.986044</ele>
        <time>2022-04-23T07:50:00.506Z</time>
      </trkpt>
      <trkpt lat="41.99537" lon="21.42441">
        <ele>317.689599</ele>
        <time>2022-04-23T07:50:03.560Z</time>
      </trkpt>
      <trkpt lat="41.99536" lon="21.42427">
        <ele>317.374978</ele>
        <time>2022-04-23T07:50:06.538Z</time>
      </trkpt>
      <trkpt lat="41.99533" lon="21.42411">
        <ele>317.010755</ele>
        <time>2022-04-23T07:50:09.552Z</time>
      </trkpt>
      <trkpt lat="41.99531" lon="21.42399">
        <ele>316.743421</ele>
        <time>2022-04-23T07:50:11.509Z</time>
      </trkpt>
      <trkpt lat="41.99529" lon="21.42384">
        <ele>316.399292</ele>
        <time>2022-04-23T07:50:14.506Z</time>
      </trkpt>
      <trkpt lat="41.99528" lon="21.42367">
        <ele>315.813837</ele>
        <time>2022-04-23T07:50:17.523Z</time>
      </trkpt>
      <trkpt lat="41.99527" lon="21.42351">
        <ele>315.210827</ele>
        <time>2022-04-23T07:50:20.525Z</time>
      </trkpt>
      <trkpt lat="41.99525" lon="21.42336">
        <ele>314.670725</ele>
        <time>2022-04-23T07:50:23.499Z</time>
      </trkpt>
      <trkpt lat="41.99521" lon="21.42318">
        <ele>314.024498</ele>
        <time>2022-04-23T07:50:26.517Z</time>
      </trkpt>
      <trkpt lat="41.99518" lon="21.42302">
        <ele>313.422509</ele>
        <time>2022-04-23T07:50:29.576Z</time>
      </trkpt>
      <trkpt lat="41.99516" lon="21.42285">
        <ele>312.804271</ele>
        <time>2022-04-23T07:50:32.510Z</time>
      </trkpt>
      <trkpt lat="41.99514" lon="21.42273">
        <ele>312.355102</ele>
        <time>2022-04-23T07:50:34.521Z</time>
      </trkpt>
      <trkpt lat="41.99512" lon="21.42259">
        <ele>311.847555</ele>
        <time>2022-04-23T07:50:36.514Z</time>
      </trkpt>
      <trkpt lat="41.99511" lon="21.42246">
        <ele>311.377271</ele>
        <time>2022-04-23T07:50:38.507Z</time>
      </trkpt>
      <trkpt lat="41.99511" lon="21.42233">
        <ele>310.937189</ele>
        <time>2022-04-23T07:50:40.555Z</time>
      </trkpt>
      <trkpt lat="41.99509" lon="21.42219">
        <ele>310.392705</ele>
        <time>2022-04-23T07:50:43.503Z</time>
      </trkpt>
      <trkpt lat="41.99505" lon="21.42201">
        <ele>309.733534</ele>
        <time>2022-04-23T07:50:46.552Z</time>
      </trkpt>
      <trkpt lat="41.99501" lon="21.42184">
        <ele>309.104522</ele>
        <time>2022-04-23T07:50:49.505Z</time>
      </trkpt>
      <trkpt lat="41.995" lon="21.42168">
        <ele>308.525089</ele>
        <time>2022-04-23T07:50:52.511Z</time>
      </trkpt>
      <trkpt lat="41.99499" lon="21.42154">
        <ele>308.021874</ele>
        <time>2022-04-23T07:50:54.518Z</time>
      </trkpt>
      <trkpt lat="41.99497" lon="21.42137">
        <ele>307.884856</ele>
        <time>2022-04-23T07:50:57.578Z</time>
      </trkpt>
      <trkpt lat="41.99495" lon="21.42123">
        <ele>308.09517</ele>
        <time>2022-04-23T07:50:59.521Z</time>
      </trkpt>
      <trkpt lat="41.99493" lon="21.42111">
        <ele>308.2752</ele>
        <time>2022-04-23T07:51:01.518Z</time>
      </trkpt>
      <trkpt lat="41.99492" lon="21.42098">
        <ele>308.460555</ele>
        <time>2022-04-23T07:51:03.514Z</time>
      </trkpt>
      <trkpt lat="41.99491" lon="21.42086">
        <ele>308.642043</ele>
        <time>2022-04-23T07:51:05.505Z</time>
      </trkpt>
      <trkpt lat="41.99488" lon="21.42071">
        <ele>308.866004</ele>
        <time>2022-04-23T07:51:08.503Z</time>
      </trkpt>
      <trkpt lat="41.99483" lon="21.42054">
        <ele>309.128969</ele>
        <time>2022-04-23T07:51:11.497Z</time>
      </trkpt>
      <trkpt lat="41.99479" lon="21.42042">
        <ele>309.332171</ele>
        <time>2022-04-23T07:51:13.546Z</time>
      </trkpt>
      <trkpt lat="41.99475" lon="21.4203">
        <ele>309.518054</ele>
        <time>2022-04-23T07:51:15.500Z</time>
      </trkpt>
      <trkpt lat="41.99472" lon="21.42016">
        <ele>309.739693</ele>
        <time>2022-04-23T07:51:18.546Z</time>
      </trkpt>
      <trkpt lat="41.9947" lon="21.41999">
        <ele>309.987274</ele>
        <time>2022-04-23T07:51:21.500Z</time>
      </trkpt>
      <trkpt lat="41.99467" lon="21.41984">
        <ele>310.211778</ele>
        <time>2022-04-23T07:51:24.525Z</time>
      </trkpt>
      <trkpt lat="41.99464" lon="21.41967">
        <ele>310.471018</ele>
        <time>2022-04-23T07:51:27.500Z</time>
      </trkpt>
      <trkpt lat="41.99462" lon="21.41956">
        <ele>310.649692</ele>
        <time>2022-04-23T07:51:29.506Z</time>
      </trkpt>
      <trkpt lat="41.99458" lon="21.41944">
        <ele>310.840891</ele>
        <time>2022-04-23T07:51:31.517Z</time>
      </trkpt>
      <trkpt lat="41.99454" lon="21.41928">
        <ele>311.082451</ele>
        <time>2022-04-23T07:51:34.502Z</time>
      </trkpt>
      <trkpt lat="41.99449" lon="21.41916">
        <ele>311.295357</ele>
        <time>2022-04-23T07:51:37.536Z</time>
      </trkpt>
      <trkpt lat="41.99447" lon="21.419">
        <ele>310.862058</ele>
        <time>2022-04-23T07:51:40.512Z</time>
      </trkpt>
      <trkpt lat="41.9945" lon="21.41882">
        <ele>310.296151</ele>
        <time>2022-04-23T07:51:43.513Z</time>
      </trkpt>
      <trkpt lat="41.99453" lon="21.41867">
        <ele>309.835889</ele>
        <time>2022-04-23T07:51:45.514Z</time>
      </trkpt>
      <trkpt lat="41.99454" lon="21.41852">
        <ele>309.391327</ele>
        <time>2022-04-23T07:51:47.538Z</time>
      </trkpt>
      <trkpt lat="41.99451" lon="21.41838">
        <ele>308.941078</ele>
        <time>2022-04-23T07:51:49.515Z</time>
      </trkpt>
      <trkpt lat="41.9945" lon="21.41824">
        <ele>308.535084</ele>
        <time>2022-04-23T07:51:51.533Z</time>
      </trkpt>
      <trkpt lat="41.99451" lon="21.41811">
        <ele>308.131462</ele>
        <time>2022-04-23T07:51:53.512Z</time>
      </trkpt>
      <trkpt lat="41.99453" lon="21.41798">
        <ele>307.74386</ele>
        <time>2022-04-23T07:51:55.641Z</time>
      </trkpt>
      <trkpt lat="41.99455" lon="21.41786">
        <ele>307.36992</ele>
        <time>2022-04-23T07:51:57.525Z</time>
      </trkpt>
      <trkpt lat="41.99457" lon="21.41773">
        <ele>306.976423</ele>
        <time>2022-04-23T07:51:59.551Z</time>
      </trkpt>
      <trkpt lat="41.9946" lon="21.41758">
        <ele>306.50392</ele>
        <time>2022-04-23T07:52:02.523Z</time>
      </trkpt>
      <trkpt lat="41.99463" lon="21.41741">
        <ele>305.978954</ele>
        <time>2022-04-23T07:52:05.515Z</time>
      </trkpt>
      <trkpt lat="41.99466" lon="21.41729">
        <ele>305.606008</ele>
        <time>2022-04-23T07:52:07.561Z</time>
      </trkpt>
      <trkpt lat="41.99468" lon="21.41716">
        <ele>305.224197</ele>
        <time>2022-04-23T07:52:09.578Z</time>
      </trkpt>
      <trkpt lat="41.9947" lon="21.41703">
        <ele>304.826113</ele>
        <time>2022-04-23T07:52:11.535Z</time>
      </trkpt>
      <trkpt lat="41.99473" lon="21.41686">
        <ele>304.304098</ele>
        <time>2022-04-23T07:52:14.518Z</time>
      </trkpt>
      <trkpt lat="41.99475" lon="21.4167">
        <ele>304.064213</ele>
        <time>2022-04-23T07:52:17.519Z</time>
      </trkpt>
      <trkpt lat="41.99477" lon="21.41657">
        <ele>304.04641</ele>
        <time>2022-04-23T07:52:19.544Z</time>
      </trkpt>
      <trkpt lat="41.99478" lon="21.41644">
        <ele>304.027522</ele>
        <time>2022-04-23T07:52:21.517Z</time>
      </trkpt>
      <trkpt lat="41.99478" lon="21.4163">
        <ele>304.007609</ele>
        <time>2022-04-23T07:52:23.506Z</time>
      </trkpt>
      <trkpt lat="41.99481" lon="21.41617">
        <ele>303.988245</ele>
        <time>2022-04-23T07:52:25.511Z</time>
      </trkpt>
      <trkpt lat="41.99483" lon="21.41605">
        <ele>303.970529</ele>
        <time>2022-04-23T07:52:27.542Z</time>
      </trkpt>
      <trkpt lat="41.99487" lon="21.4159">
        <ele>303.947031</ele>
        <time>2022-04-23T07:52:30.573Z</time>
      </trkpt>
      <trkpt lat="41.99491" lon="21.41572">
        <ele>303.921568</ele>
        <time>2022-04-23T07:52:33.528Z</time>
      </trkpt>
      <trkpt lat="41.99493" lon="21.41561">
        <ele>303.904099</ele>
        <time>2022-04-23T07:52:35.527Z</time>
      </trkpt>
      <trkpt lat="41.99496" lon="21.41546">
        <ele>303.881757</ele>
        <time>2022-04-23T07:52:38.536Z</time>
      </trkpt>
      <trkpt lat="41.995" lon="21.41533">
        <ele>303.86207</ele>
        <time>2022-04-23T07:52:41.504Z</time>
      </trkpt>
      <trkpt lat="41.99501" lon="21.41515">
        <ele>303.836037</ele>
        <time>2022-04-23T07:52:44.523Z</time>
      </trkpt>
      <trkpt lat="41.99503" lon="21.41502">
        <ele>303.818233</ele>
        <time>2022-04-23T07:52:46.558Z</time>
      </trkpt>
      <trkpt lat="41.99505" lon="21.4149">
        <ele>303.80001</ele>
        <time>2022-04-23T07:52:48.521Z</time>
      </trkpt>
      <trkpt lat="41.99509" lon="21.41473">
        <ele>303.774314</ele>
        <time>2022-04-23T07:52:51.516Z</time>
      </trkpt>
      <trkpt lat="41.99512" lon="21.41456">
        <ele>303.750283</ele>
        <time>2022-04-23T07:52:54.510Z</time>
      </trkpt>
      <trkpt lat="41.99513" lon="21.41438">
        <ele>303.765435</ele>
        <time>2022-04-23T07:52:57.557Z</time>
      </trkpt>
      <trkpt lat="41.99514" lon="21.41425">
        <ele>303.844393</ele>
        <time>2022-04-23T07:52:59.518Z</time>
      </trkpt>
      <trkpt lat="41.99515" lon="21.41412">
        <ele>303.919732</ele>
        <time>2022-04-23T07:53:01.503Z</time>
      </trkpt>
      <trkpt lat="41.99515" lon="21.41399">
        <ele>303.997365</ele>
        <time>2022-04-23T07:53:03.527Z</time>
      </trkpt>
      <trkpt lat="41.99516" lon="21.41387">
        <ele>304.072354</ele>
        <time>2022-04-23T07:53:05.523Z</time>
      </trkpt>
      <trkpt lat="41.99518" lon="21.4137">
        <ele>304.179182</ele>
        <time>2022-04-23T07:53:08.520Z</time>
      </trkpt>
      <trkpt lat="41.99519" lon="21.41357">
        <ele>304.254873</ele>
        <time>2022-04-23T07:53:10.522Z</time>
      </trkpt>
      <trkpt lat="41.99521" lon="21.41339">
        <ele>304.364604</ele>
        <time>2022-04-23T07:53:13.535Z</time>
      </trkpt>
      <trkpt lat="41.99523" lon="21.41327">
        <ele>304.440054</ele>
        <time>2022-04-23T07:53:15.518Z</time>
      </trkpt>
      <trkpt lat="41.99526" lon="21.41311">
        <ele>304.54173</ele>
        <time>2022-04-23T07:53:18.561Z</time>
      </trkpt>
      <trkpt lat="41.99528" lon="21.41295">
        <ele>304.638436</ele>
        <time>2022-04-23T07:53:21.523Z</time>
      </trkpt>
      <trkpt lat="41.9953" lon="21.41279">
        <ele>304.735033</ele>
        <time>2022-04-23T07:53:24.486Z</time>
      </trkpt>
      <trkpt lat="41.99532" lon="21.41263">
        <ele>304.83412</ele>
        <time>2022-04-23T07:53:27.529Z</time>
      </trkpt>
      <trkpt lat="41.99535" lon="21.41248">
        <ele>304.925917</ele>
        <time>2022-04-23T07:53:30.506Z</time>
      </trkpt>
      <trkpt lat="41.99537" lon="21.41233">
        <ele>305.017565</ele>
        <time>2022-04-23T07:53:34.557Z</time>
      </trkpt>
      <trkpt lat="41.99538" lon="21.41221">
        <ele>305.093965</ele>
        <time>2022-04-23T07:53:39.526Z</time>
      </trkpt>
      <trkpt lat="41.99541" lon="21.41202">
        <ele>305.214539</ele>
        <time>2022-04-23T07:54:16.515Z</time>
      </trkpt>
      <trkpt lat="41.99543" lon="21.41188">
        <ele>305.303042</ele>
        <time>2022-04-23T07:54:19.563Z</time>
      </trkpt>
      <trkpt lat="41.99545" lon="21.41174">
        <ele>305.398928</ele>
        <time>2022-04-23T07:54:22.516Z</time>
      </trkpt>
      <trkpt lat="41.99546" lon="21.41157">
        <ele>305.509425</ele>
        <time>2022-04-23T07:54:25.501Z</time>
      </trkpt>
      <trkpt lat="41.99548" lon="21.41141">
        <ele>305.616749</ele>
        <time>2022-04-23T07:54:28.509Z</time>
      </trkpt>
      <trkpt lat="41.9955" lon="21.41124">
        <ele>305.727945</ele>
        <time>2022-04-23T07:54:31.511Z</time>
      </trkpt>
      <trkpt lat="41.99553" lon="21.41109">
        <ele>305.832102</ele>
        <time>2022-04-23T07:54:34.525Z</time>
      </trkpt>
      <trkpt lat="41.99556" lon="21.41094">
        <ele>305.932248</ele>
        <time>2022-04-23T07:54:37.523Z</time>
      </trkpt>
      <trkpt lat="41.99559" lon="21.41078">
        <ele>306.041112</ele>
        <time>2022-04-23T07:54:40.556Z</time>
      </trkpt>
      <trkpt lat="41.99561" lon="21.4106">
        <ele>306.159402</ele>
        <time>2022-04-23T07:54:43.506Z</time>
      </trkpt>
      <trkpt lat="41.99563" lon="21.41047">
        <ele>306.246265</ele>
        <time>2022-04-23T07:54:45.551Z</time>
      </trkpt>
      <trkpt lat="41.99565" lon="21.41034">
        <ele>306.333607</ele>
        <time>2022-04-23T07:54:47.533Z</time>
      </trkpt>
      <trkpt lat="41.99567" lon="21.41021">
        <ele>306.420304</ele>
        <time>2022-04-23T07:54:49.525Z</time>
      </trkpt>
      <trkpt lat="41.99569" lon="21.41008">
        <ele>306.5067</ele>
        <time>2022-04-23T07:54:51.513Z</time>
      </trkpt>
      <trkpt lat="41.9957" lon="21.40995">
        <ele>306.593038</ele>
        <time>2022-04-23T07:54:53.504Z</time>
      </trkpt>
      <trkpt lat="41.9957" lon="21.40982">
        <ele>306.681586</ele>
        <time>2022-04-23T07:54:55.513Z</time>
      </trkpt>
      <trkpt lat="41.99571" lon="21.40968">
        <ele>306.77249</ele>
        <time>2022-04-23T07:54:57.540Z</time>
      </trkpt>
      <trkpt lat="41.99572" lon="21.40955">
        <ele>306.778406</ele>
        <time>2022-04-23T07:54:59.514Z</time>
      </trkpt>
      <trkpt lat="41.99573" lon="21.40942">
        <ele>306.773072</ele>
        <time>2022-04-23T07:55:01.515Z</time>
      </trkpt>
      <trkpt lat="41.99574" lon="21.40929">
        <ele>306.767719</ele>
        <time>2022-04-23T07:55:03.550Z</time>
      </trkpt>
      <trkpt lat="41.99576" lon="21.40917">
        <ele>306.762417</ele>
        <time>2022-04-23T07:55:05.539Z</time>
      </trkpt>
      <trkpt lat="41.99579" lon="21.40905">
        <ele>306.757427</ele>
        <time>2022-04-23T07:55:07.566Z</time>
      </trkpt>
      <trkpt lat="41.99582" lon="21.40888">
        <ele>306.750188</ele>
        <time>2022-04-23T07:55:10.521Z</time>
      </trkpt>
      <trkpt lat="41.99584" lon="21.40876">
        <ele>306.745207</ele>
        <time>2022-04-23T07:55:12.518Z</time>
      </trkpt>
      <trkpt lat="41.99586" lon="21.40859">
        <ele>306.737859</ele>
        <time>2022-04-23T07:55:15.525Z</time>
      </trkpt>
      <trkpt lat="41.99588" lon="21.40842">
        <ele>306.730837</ele>
        <time>2022-04-23T07:55:18.542Z</time>
      </trkpt>
      <trkpt lat="41.99592" lon="21.40826">
        <ele>306.723967</ele>
        <time>2022-04-23T07:55:21.506Z</time>
      </trkpt>
      <trkpt lat="41.99594" lon="21.40808">
        <ele>306.716316</ele>
        <time>2022-04-23T07:55:24.535Z</time>
      </trkpt>
      <trkpt lat="41.99596" lon="21.40795">
        <ele>306.710841</ele>
        <time>2022-04-23T07:55:26.525Z</time>
      </trkpt>
      <trkpt lat="41.99598" lon="21.40782">
        <ele>306.705403</ele>
        <time>2022-04-23T07:55:28.501Z</time>
      </trkpt>
      <trkpt lat="41.996" lon="21.40769">
        <ele>306.699752</ele>
        <time>2022-04-23T07:55:30.529Z</time>
      </trkpt>
      <trkpt lat="41.99601" lon="21.40757">
        <ele>306.694721</ele>
        <time>2022-04-23T07:55:32.535Z</time>
      </trkpt>
      <trkpt lat="41.99604" lon="21.40745">
        <ele>306.68958</ele>
        <time>2022-04-23T07:55:34.504Z</time>
      </trkpt>
      <trkpt lat="41.99606" lon="21.40731">
        <ele>306.684072</ele>
        <time>2022-04-23T07:55:36.541Z</time>
      </trkpt>
      <trkpt lat="41.99607" lon="21.40719">
        <ele>306.75121</ele>
        <time>2022-04-23T07:55:38.547Z</time>
      </trkpt>
      <trkpt lat="41.99608" lon="21.40701">
        <ele>306.860403</ele>
        <time>2022-04-23T07:55:41.522Z</time>
      </trkpt>
      <trkpt lat="41.99609" lon="21.40685">
        <ele>306.962281</ele>
        <time>2022-04-23T07:55:44.518Z</time>
      </trkpt>
      <trkpt lat="41.99611" lon="21.40669">
        <ele>307.061327</ele>
        <time>2022-04-23T07:55:47.538Z</time>
      </trkpt>
      <trkpt lat="41.99614" lon="21.40653">
        <ele>307.162793</ele>
        <time>2022-04-23T07:55:50.502Z</time>
      </trkpt>
      <trkpt lat="41.99618" lon="21.40636">
        <ele>307.272535</ele>
        <time>2022-04-23T07:55:53.525Z</time>
      </trkpt>
      <trkpt lat="41.99621" lon="21.4062">
        <ele>307.378243</ele>
        <time>2022-04-23T07:55:56.537Z</time>
      </trkpt>
      <trkpt lat="41.99623" lon="21.40602">
        <ele>307.488423</ele>
        <time>2022-04-23T07:55:59.533Z</time>
      </trkpt>
      <trkpt lat="41.99625" lon="21.40584">
        <ele>307.600328</ele>
        <time>2022-04-23T07:56:02.553Z</time>
      </trkpt>
      <trkpt lat="41.99627" lon="21.40572">
        <ele>307.677726</ele>
        <time>2022-04-23T07:56:04.502Z</time>
      </trkpt>
      <trkpt lat="41.9963" lon="21.4056">
        <ele>307.757182</ele>
        <time>2022-04-23T07:56:06.506Z</time>
      </trkpt>
      <trkpt lat="41.99632" lon="21.40548">
        <ele>307.833571</ele>
        <time>2022-04-23T07:56:08.504Z</time>
      </trkpt>
      <trkpt lat="41.99635" lon="21.40536">
        <ele>307.90982</ele>
        <time>2022-04-23T07:56:10.497Z</time>
      </trkpt>
      <trkpt lat="41.99638" lon="21.40519">
        <ele>308.021119</ele>
        <time>2022-04-23T07:56:13.534Z</time>
      </trkpt>
      <trkpt lat="41.99641" lon="21.40501">
        <ele>308.132895</ele>
        <time>2022-04-23T07:56:16.523Z</time>
      </trkpt>
      <trkpt lat="41.99644" lon="21.40484">
        <ele>308.03029</ele>
        <time>2022-04-23T07:56:19.509Z</time>
      </trkpt>
      <trkpt lat="41.99646" lon="21.40472">
        <ele>307.835616</ele>
        <time>2022-04-23T07:56:21.554Z</time>
      </trkpt>
      <trkpt lat="41.99648" lon="21.40459">
        <ele>307.638375</ele>
        <time>2022-04-23T07:56:23.524Z</time>
      </trkpt>
      <trkpt lat="41.99651" lon="21.40442">
        <ele>307.359412</ele>
        <time>2022-04-23T07:56:26.553Z</time>
      </trkpt>
      <trkpt lat="41.99652" lon="21.40429">
        <ele>307.158035</ele>
        <time>2022-04-23T07:56:28.503Z</time>
      </trkpt>
      <trkpt lat="41.99654" lon="21.40415">
        <ele>306.938448</ele>
        <time>2022-04-23T07:56:30.553Z</time>
      </trkpt>
      <trkpt lat="41.99656" lon="21.40399">
        <ele>306.693901</ele>
        <time>2022-04-23T07:56:32.517Z</time>
      </trkpt>
      <trkpt lat="41.99658" lon="21.40383">
        <ele>306.438627</ele>
        <time>2022-04-23T07:56:34.514Z</time>
      </trkpt>
      <trkpt lat="41.9966" lon="21.40366">
        <ele>306.159688</ele>
        <time>2022-04-23T07:56:36.506Z</time>
      </trkpt>
      <trkpt lat="41.99663" lon="21.40349">
        <ele>305.896402</ele>
        <time>2022-04-23T07:56:38.531Z</time>
      </trkpt>
      <trkpt lat="41.99664" lon="21.40333">
        <ele>305.651064</ele>
        <time>2022-04-23T07:56:40.505Z</time>
      </trkpt>
      <trkpt lat="41.99665" lon="21.40318">
        <ele>305.415215</ele>
        <time>2022-04-23T07:56:42.513Z</time>
      </trkpt>
      <trkpt lat="41.99667" lon="21.40304">
        <ele>305.185968</ele>
        <time>2022-04-23T07:56:44.483Z</time>
      </trkpt>
      <trkpt lat="41.99669" lon="21.40289">
        <ele>304.958398</ele>
        <time>2022-04-23T07:56:46.530Z</time>
      </trkpt>
      <trkpt lat="41.9967" lon="21.40276">
        <ele>304.755432</ele>
        <time>2022-04-23T07:56:48.535Z</time>
      </trkpt>
      <trkpt lat="41.9967" lon="21.40263">
        <ele>304.548647</ele>
        <time>2022-04-23T07:56:50.518Z</time>
      </trkpt>
      <trkpt lat="41.99672" lon="21.40249">
        <ele>304.331944</ele>
        <time>2022-04-23T07:56:52.505Z</time>
      </trkpt>
      <trkpt lat="41.99674" lon="21.40235">
        <ele>304.119746</ele>
        <time>2022-04-23T07:56:54.504Z</time>
      </trkpt>
      <trkpt lat="41.99676" lon="21.40222">
        <ele>303.911265</ele>
        <time>2022-04-23T07:56:56.517Z</time>
      </trkpt>
      <trkpt lat="41.99677" lon="21.40209">
        <ele>303.708245</ele>
        <time>2022-04-23T07:56:58.496Z</time>
      </trkpt>
      <trkpt lat="41.99679" lon="21.40196">
        <ele>303.50643</ele>
        <time>2022-04-23T07:57:00.507Z</time>
      </trkpt>
      <trkpt lat="41.9968" lon="21.40183">
        <ele>303.313956</ele>
        <time>2022-04-23T07:57:02.499Z</time>
      </trkpt>
      <trkpt lat="41.99682" lon="21.4017">
        <ele>303.115605</ele>
        <time>2022-04-23T07:57:04.499Z</time>
      </trkpt>
      <trkpt lat="41.99684" lon="21.40158">
        <ele>302.918304</ele>
        <time>2022-04-23T07:57:06.514Z</time>
      </trkpt>
      <trkpt lat="41.99686" lon="21.40145">
        <ele>302.718718</ele>
        <time>2022-04-23T07:57:08.512Z</time>
      </trkpt>
      <trkpt lat="41.99688" lon="21.40132">
        <ele>302.515249</ele>
        <time>2022-04-23T07:57:10.498Z</time>
      </trkpt>
      <trkpt lat="41.99691" lon="21.40114">
        <ele>302.244177</ele>
        <time>2022-04-23T07:57:13.509Z</time>
      </trkpt>
      <trkpt lat="41.99693" lon="21.40097">
        <ele>301.977277</ele>
        <time>2022-04-23T07:57:16.523Z</time>
      </trkpt>
      <trkpt lat="41.99696" lon="21.4008">
        <ele>301.705764</ele>
        <time>2022-04-23T07:57:19.518Z</time>
      </trkpt>
      <trkpt lat="41.99698" lon="21.40062">
        <ele>301.440027</ele>
        <time>2022-04-23T07:57:22.511Z</time>
      </trkpt>
      <trkpt lat="41.997" lon="21.40045">
        <ele>301.164107</ele>
        <time>2022-04-23T07:57:25.516Z</time>
      </trkpt>
      <trkpt lat="41.99702" lon="21.40032">
        <ele>300.972825</ele>
        <time>2022-04-23T07:57:27.516Z</time>
      </trkpt>
      <trkpt lat="41.99704" lon="21.4002">
        <ele>300.787197</ele>
        <time>2022-04-23T07:57:29.540Z</time>
      </trkpt>
      <trkpt lat="41.99706" lon="21.40008">
        <ele>300.913552</ele>
        <time>2022-04-23T07:57:31.504Z</time>
      </trkpt>
      <trkpt lat="41.99708" lon="21.3999">
        <ele>301.269454</ele>
        <time>2022-04-23T07:57:34.509Z</time>
      </trkpt>
      <trkpt lat="41.9971" lon="21.39978">
        <ele>301.512979</ele>
        <time>2022-04-23T07:57:36.520Z</time>
      </trkpt>
      <trkpt lat="41.99712" lon="21.39966">
        <ele>301.756757</ele>
        <time>2022-04-23T07:57:38.504Z</time>
      </trkpt>
      <trkpt lat="41.99714" lon="21.39948">
        <ele>302.118951</ele>
        <time>2022-04-23T07:57:41.522Z</time>
      </trkpt>
      <trkpt lat="41.99716" lon="21.39935">
        <ele>302.373647</ele>
        <time>2022-04-23T07:57:43.505Z</time>
      </trkpt>
      <trkpt lat="41.99718" lon="21.39923">
        <ele>302.609979</ele>
        <time>2022-04-23T07:57:45.515Z</time>
      </trkpt>
      <trkpt lat="41.9972" lon="21.39911">
        <ele>302.855432</ele>
        <time>2022-04-23T07:57:47.502Z</time>
      </trkpt>
      <trkpt lat="41.99721" lon="21.39899">
        <ele>303.096103</ele>
        <time>2022-04-23T07:57:49.515Z</time>
      </trkpt>
      <trkpt lat="41.99723" lon="21.39887">
        <ele>303.336775</ele>
        <time>2022-04-23T07:57:51.533Z</time>
      </trkpt>
      <trkpt lat="41.99725" lon="21.39874">
        <ele>303.582724</ele>
        <time>2022-04-23T07:57:53.507Z</time>
      </trkpt>
      <trkpt lat="41.99728" lon="21.39858">
        <ele>303.926493</ele>
        <time>2022-04-23T07:57:56.506Z</time>
      </trkpt>
      <trkpt lat="41.9973" lon="21.39845">
        <ele>304.171035</ele>
        <time>2022-04-23T07:57:58.506Z</time>
      </trkpt>
      <trkpt lat="41.99732" lon="21.39833">
        <ele>304.413136</ele>
        <time>2022-04-23T07:58:00.520Z</time>
      </trkpt>
      <trkpt lat="41.99732" lon="21.39821">
        <ele>304.655617</ele>
        <time>2022-04-23T07:58:02.557Z</time>
      </trkpt>
      <trkpt lat="41.99734" lon="21.39809">
        <ele>304.895794</ele>
        <time>2022-04-23T07:58:04.528Z</time>
      </trkpt>
      <trkpt lat="41.99738" lon="21.39791">
        <ele>305.254464</ele>
        <time>2022-04-23T07:58:07.505Z</time>
      </trkpt>
      <trkpt lat="41.9974" lon="21.39779">
        <ele>305.48423</ele>
        <time>2022-04-23T07:58:09.513Z</time>
      </trkpt>
      <trkpt lat="41.99741" lon="21.3976">
        <ele>305.495163</ele>
        <time>2022-04-23T07:58:12.505Z</time>
      </trkpt>
      <trkpt lat="41.99741" lon="21.39748">
        <ele>305.502584</ele>
        <time>2022-04-23T07:58:14.516Z</time>
      </trkpt>
      <trkpt lat="41.99744" lon="21.39731">
        <ele>305.512767</ele>
        <time>2022-04-23T07:58:17.524Z</time>
      </trkpt>
      <trkpt lat="41.99746" lon="21.39719">
        <ele>305.519931</ele>
        <time>2022-04-23T07:58:19.533Z</time>
      </trkpt>
      <trkpt lat="41.99748" lon="21.39707">
        <ele>305.527243</ele>
        <time>2022-04-23T07:58:21.498Z</time>
      </trkpt>
      <trkpt lat="41.99751" lon="21.39694">
        <ele>305.534667</ele>
        <time>2022-04-23T07:58:23.489Z</time>
      </trkpt>
      <trkpt lat="41.99753" lon="21.39676">
        <ele>305.545248</ele>
        <time>2022-04-23T07:58:26.511Z</time>
      </trkpt>
      <trkpt lat="41.99754" lon="21.39664">
        <ele>305.552839</ele>
        <time>2022-04-23T07:58:28.513Z</time>
      </trkpt>
      <trkpt lat="41.99756" lon="21.39646">
        <ele>305.56343</ele>
        <time>2022-04-23T07:58:31.535Z</time>
      </trkpt>
      <trkpt lat="41.99757" lon="21.39633">
        <ele>305.571099</ele>
        <time>2022-04-23T07:58:33.519Z</time>
      </trkpt>
      <trkpt lat="41.9976" lon="21.39616">
        <ele>305.581357</ele>
        <time>2022-04-23T07:58:36.483Z</time>
      </trkpt>
      <trkpt lat="41.99763" lon="21.39604">
        <ele>305.5885</ele>
        <time>2022-04-23T07:58:38.512Z</time>
      </trkpt>
      <trkpt lat="41.99764" lon="21.3959">
        <ele>305.596355</ele>
        <time>2022-04-23T07:58:40.504Z</time>
      </trkpt>
      <trkpt lat="41.99766" lon="21.39578">
        <ele>305.603947</ele>
        <time>2022-04-23T07:58:42.511Z</time>
      </trkpt>
      <trkpt lat="41.99767" lon="21.39564">
        <ele>305.611992</ele>
        <time>2022-04-23T07:58:44.518Z</time>
      </trkpt>
      <trkpt lat="41.99768" lon="21.39551">
        <ele>305.619699</ele>
        <time>2022-04-23T07:58:46.520Z</time>
      </trkpt>
      <trkpt lat="41.99769" lon="21.39537">
        <ele>305.74932</ele>
        <time>2022-04-23T07:58:48.516Z</time>
      </trkpt>
      <trkpt lat="41.99771" lon="21.39524">
        <ele>306.130929</ele>
        <time>2022-04-23T07:58:50.520Z</time>
      </trkpt>
      <trkpt lat="41.99772" lon="21.39512">
        <ele>306.499773</ele>
        <time>2022-04-23T07:58:52.516Z</time>
      </trkpt>
      <trkpt lat="41.99774" lon="21.39495">
        <ele>306.997965</ele>
        <time>2022-04-23T07:58:55.502Z</time>
      </trkpt>
      <trkpt lat="41.99777" lon="21.39477">
        <ele>307.513523</ele>
        <time>2022-04-23T07:58:58.556Z</time>
      </trkpt>
      <trkpt lat="41.99778" lon="21.39464">
        <ele>307.891803</ele>
        <time>2022-04-23T07:59:00.518Z</time>
      </trkpt>
      <trkpt lat="41.99779" lon="21.39452">
        <ele>308.262998</ele>
        <time>2022-04-23T07:59:02.487Z</time>
      </trkpt>
      <trkpt lat="41.99782" lon="21.39434">
        <ele>308.769797</ele>
        <time>2022-04-23T07:59:05.490Z</time>
      </trkpt>
      <trkpt lat="41.99786" lon="21.39417">
        <ele>309.29914</ele>
        <time>2022-04-23T07:59:08.514Z</time>
      </trkpt>
      <trkpt lat="41.9979" lon="21.394">
        <ele>309.820198</ele>
        <time>2022-04-23T07:59:11.523Z</time>
      </trkpt>
      <trkpt lat="41.99791" lon="21.39382">
        <ele>310.337244</ele>
        <time>2022-04-23T07:59:14.501Z</time>
      </trkpt>
      <trkpt lat="41.99792" lon="21.39369">
        <ele>310.706476</ele>
        <time>2022-04-23T07:59:16.496Z</time>
      </trkpt>
      <trkpt lat="41.99794" lon="21.39357">
        <ele>311.077119</ele>
        <time>2022-04-23T07:59:18.509Z</time>
      </trkpt>
      <trkpt lat="41.99795" lon="21.39344">
        <ele>311.447763</ele>
        <time>2022-04-23T07:59:20.503Z</time>
      </trkpt>
      <trkpt lat="41.99796" lon="21.39332">
        <ele>311.79895</ele>
        <time>2022-04-23T07:59:22.522Z</time>
      </trkpt>
      <trkpt lat="41.99798" lon="21.39319">
        <ele>312.163502</ele>
        <time>2022-04-23T07:59:24.496Z</time>
      </trkpt>
      <trkpt lat="41.998" lon="21.39307">
        <ele>312.521056</ele>
        <time>2022-04-23T07:59:26.550Z</time>
      </trkpt>
      <trkpt lat="41.99803" lon="21.3929">
        <ele>312.493075</ele>
        <time>2022-04-23T07:59:29.503Z</time>
      </trkpt>
      <trkpt lat="41.99806" lon="21.39277">
        <ele>312.373951</ele>
        <time>2022-04-23T07:59:31.529Z</time>
      </trkpt>
      <trkpt lat="41.99808" lon="21.39264">
        <ele>312.262574</ele>
        <time>2022-04-23T07:59:33.503Z</time>
      </trkpt>
      <trkpt lat="41.99809" lon="21.39251">
        <ele>312.146284</ele>
        <time>2022-04-23T07:59:35.500Z</time>
      </trkpt>
      <trkpt lat="41.99812" lon="21.39239">
        <ele>312.034635</ele>
        <time>2022-04-23T07:59:37.500Z</time>
      </trkpt>
      <trkpt lat="41.99814" lon="21.39227">
        <ele>311.926103</ele>
        <time>2022-04-23T07:59:39.534Z</time>
      </trkpt>
      <trkpt lat="41.99816" lon="21.39209">
        <ele>311.767319</ele>
        <time>2022-04-23T07:59:42.543Z</time>
      </trkpt>
      <trkpt lat="41.99818" lon="21.39194">
        <ele>311.625863</ele>
        <time>2022-04-23T07:59:45.513Z</time>
      </trkpt>
      <trkpt lat="41.9982" lon="21.3918">
        <ele>311.502072</ele>
        <time>2022-04-23T07:59:49.520Z</time>
      </trkpt>
      <trkpt lat="41.99823" lon="21.39167">
        <ele>311.384187</ele>
        <time>2022-04-23T07:59:55.514Z</time>
      </trkpt>
      <trkpt lat="41.99826" lon="21.39152">
        <ele>311.249886</ele>
        <time>2022-04-23T08:00:03.504Z</time>
      </trkpt>
      <trkpt lat="41.99828" lon="21.39139">
        <ele>311.127301</ele>
        <time>2022-04-23T08:00:06.516Z</time>
      </trkpt>
      <trkpt lat="41.99831" lon="21.39121">
        <ele>310.970185</ele>
        <time>2022-04-23T08:00:09.510Z</time>
      </trkpt>
      <trkpt lat="41.99831" lon="21.39109">
        <ele>310.860232</ele>
        <time>2022-04-23T08:00:11.491Z</time>
      </trkpt>
      <trkpt lat="41.99833" lon="21.39097">
        <ele>310.753508</ele>
        <time>2022-04-23T08:00:13.495Z</time>
      </trkpt>
      <trkpt lat="41.99836" lon="21.3908">
        <ele>310.593878</ele>
        <time>2022-04-23T08:00:16.514Z</time>
      </trkpt>
      <trkpt lat="41.99839" lon="21.39067">
        <ele>310.477209</ele>
        <time>2022-04-23T08:00:18.507Z</time>
      </trkpt>
      <trkpt lat="41.9984" lon="21.39054">
        <ele>310.317994</ele>
        <time>2022-04-23T08:00:20.542Z</time>
      </trkpt>
      <trkpt lat="41.99842" lon="21.3904">
        <ele>310.15452</ele>
        <time>2022-04-23T08:00:22.516Z</time>
      </trkpt>
      <trkpt lat="41.99843" lon="21.39026">
        <ele>309.984883</ele>
        <time>2022-04-23T08:00:24.504Z</time>
      </trkpt>
      <trkpt lat="41.99845" lon="21.39013">
        <ele>309.818305</ele>
        <time>2022-04-23T08:00:26.545Z</time>
      </trkpt>
      <trkpt lat="41.99846" lon="21.39">
        <ele>309.660528</ele>
        <time>2022-04-23T08:00:28.523Z</time>
      </trkpt>
      <trkpt lat="41.99847" lon="21.38987">
        <ele>309.511951</ele>
        <time>2022-04-23T08:00:30.512Z</time>
      </trkpt>
      <trkpt lat="41.99848" lon="21.38975">
        <ele>309.362365</ele>
        <time>2022-04-23T08:00:32.505Z</time>
      </trkpt>
      <trkpt lat="41.99849" lon="21.38959">
        <ele>309.166341</ele>
        <time>2022-04-23T08:00:35.508Z</time>
      </trkpt>
      <trkpt lat="41.99848" lon="21.38944">
        <ele>308.983637</ele>
        <time>2022-04-23T08:00:38.504Z</time>
      </trkpt>
      <trkpt lat="41.99847" lon="21.38931">
        <ele>308.832265</ele>
        <time>2022-04-23T08:00:42.540Z</time>
      </trkpt>
      <trkpt lat="41.99848" lon="21.38915">
        <ele>308.64314</ele>
        <time>2022-04-23T08:01:33.549Z</time>
      </trkpt>
      <trkpt lat="41.99847" lon="21.38899">
        <ele>308.452282</ele>
        <time>2022-04-23T08:01:37.524Z</time>
      </trkpt>
      <trkpt lat="41.99847" lon="21.38883">
        <ele>308.255571</ele>
        <time>2022-04-23T08:01:40.510Z</time>
      </trkpt>
      <trkpt lat="41.99847" lon="21.38868">
        <ele>308.080288</ele>
        <time>2022-04-23T08:01:43.522Z</time>
      </trkpt>
      <trkpt lat="41.99848" lon="21.38856">
        <ele>307.931357</ele>
        <time>2022-04-23T08:01:45.505Z</time>
      </trkpt>
      <trkpt lat="41.9985" lon="21.38839">
        <ele>307.726828</ele>
        <time>2022-04-23T08:01:48.542Z</time>
      </trkpt>
      <trkpt lat="41.99851" lon="21.38822">
        <ele>307.614583</ele>
        <time>2022-04-23T08:01:51.517Z</time>
      </trkpt>
      <trkpt lat="41.99852" lon="21.38806">
        <ele>307.714152</ele>
        <time>2022-04-23T08:01:54.516Z</time>
      </trkpt>
      <trkpt lat="41.99854" lon="21.3879">
        <ele>307.813721</ele>
        <time>2022-04-23T08:01:57.534Z</time>
      </trkpt>
      <trkpt lat="41.99856" lon="21.38775">
        <ele>307.910682</ele>
        <time>2022-04-23T08:02:00.514Z</time>
      </trkpt>
      <trkpt lat="41.99859" lon="21.38759">
        <ele>308.009751</ele>
        <time>2022-04-23T08:02:03.521Z</time>
      </trkpt>
      <trkpt lat="41.99862" lon="21.38743">
        <ele>308.110284</ele>
        <time>2022-04-23T08:02:06.553Z</time>
      </trkpt>
      <trkpt lat="41.99865" lon="21.38728">
        <ele>308.207132</ele>
        <time>2022-04-23T08:02:09.514Z</time>
      </trkpt>
      <trkpt lat="41.99868" lon="21.38712">
        <ele>308.30548</ele>
        <time>2022-04-23T08:02:12.534Z</time>
      </trkpt>
      <trkpt lat="41.99871" lon="21.38697">
        <ele>308.400691</ele>
        <time>2022-04-23T08:02:15.502Z</time>
      </trkpt>
      <trkpt lat="41.99873" lon="21.38683">
        <ele>308.487441</ele>
        <time>2022-04-23T08:02:18.508Z</time>
      </trkpt>
      <trkpt lat="41.99875" lon="21.38668">
        <ele>308.579915</ele>
        <time>2022-04-23T08:02:21.505Z</time>
      </trkpt>
      <trkpt lat="41.99878" lon="21.38653">
        <ele>308.676314</ele>
        <time>2022-04-23T08:02:24.513Z</time>
      </trkpt>
      <trkpt lat="41.99882" lon="21.38638">
        <ele>308.770973</ele>
        <time>2022-04-23T08:02:27.502Z</time>
      </trkpt>
      <trkpt lat="41.99884" lon="21.38623">
        <ele>308.865364</ele>
        <time>2022-04-23T08:02:30.510Z</time>
      </trkpt>
      <trkpt lat="41.99887" lon="21.38608">
        <ele>308.959205</ele>
        <time>2022-04-23T08:02:33.520Z</time>
      </trkpt>
      <trkpt lat="41.99889" lon="21.38593">
        <ele>309.054513</ele>
        <time>2022-04-23T08:02:36.514Z</time>
      </trkpt>
      <trkpt lat="41.99891" lon="21.38578">
        <ele>309.341714</ele>
        <time>2022-04-23T08:02:39.505Z</time>
      </trkpt>
      <trkpt lat="41.99894" lon="21.38563">
        <ele>309.669087</ele>
        <time>2022-04-23T08:02:42.513Z</time>
      </trkpt>
      <trkpt lat="41.99897" lon="21.38547">
        <ele>309.999121</ele>
        <time>2022-04-23T08:02:45.497Z</time>
      </trkpt>
      <trkpt lat="41.999" lon="21.38532">
        <ele>310.330728</ele>
        <time>2022-04-23T08:02:48.502Z</time>
      </trkpt>
      <trkpt lat="41.99903" lon="21.38517">
        <ele>310.644022</ele>
        <time>2022-04-23T08:02:51.548Z</time>
      </trkpt>
      <trkpt lat="41.99906" lon="21.38503">
        <ele>310.943495</ele>
        <time>2022-04-23T08:02:54.516Z</time>
      </trkpt>
      <trkpt lat="41.99909" lon="21.38489">
        <ele>311.258433</ele>
        <time>2022-04-23T08:02:57.516Z</time>
      </trkpt>
      <trkpt lat="41.99912" lon="21.38473">
        <ele>311.601186</ele>
        <time>2022-04-23T08:03:00.514Z</time>
      </trkpt>
      <trkpt lat="41.99914" lon="21.38457">
        <ele>311.938042</ele>
        <time>2022-04-23T08:03:03.509Z</time>
      </trkpt>
      <trkpt lat="41.99916" lon="21.3844">
        <ele>312.276734</ele>
        <time>2022-04-23T08:03:06.491Z</time>
      </trkpt>
      <trkpt lat="41.99918" lon="21.38425">
        <ele>312.602714</ele>
        <time>2022-04-23T08:03:09.518Z</time>
      </trkpt>
      <trkpt lat="41.99921" lon="21.38411">
        <ele>312.906163</ele>
        <time>2022-04-23T08:03:12.498Z</time>
      </trkpt>
      <trkpt lat="41.99924" lon="21.38396">
        <ele>313.221465</ele>
        <time>2022-04-23T08:03:15.505Z</time>
      </trkpt>
      <trkpt lat="41.99926" lon="21.38382">
        <ele>313.524059</ele>
        <time>2022-04-23T08:03:18.502Z</time>
      </trkpt>
      <trkpt lat="41.99928" lon="21.38367">
        <ele>313.839496</ele>
        <time>2022-04-23T08:03:21.509Z</time>
      </trkpt>
      <trkpt lat="41.99932" lon="21.3835">
        <ele>314.284669</ele>
        <time>2022-04-23T08:03:24.570Z</time>
      </trkpt>
      <trkpt lat="41.99935" lon="21.38334">
        <ele>314.907525</ele>
        <time>2022-04-23T08:03:27.514Z</time>
      </trkpt>
      <trkpt lat="41.99936" lon="21.38318">
        <ele>315.527091</ele>
        <time>2022-04-23T08:03:30.506Z</time>
      </trkpt>
      <trkpt lat="41.99938" lon="21.38302">
        <ele>316.116764</ele>
        <time>2022-04-23T08:03:33.501Z</time>
      </trkpt>
      <trkpt lat="41.9994" lon="21.38289">
        <ele>316.613081</ele>
        <time>2022-04-23T08:03:36.516Z</time>
      </trkpt>
      <trkpt lat="41.99943" lon="21.38277">
        <ele>317.10322</ele>
        <time>2022-04-23T08:03:39.487Z</time>
      </trkpt>
      <trkpt lat="41.99945" lon="21.38264">
        <ele>317.597501</ele>
        <time>2022-04-23T08:03:42.518Z</time>
      </trkpt>
      <trkpt lat="41.99947" lon="21.38251">
        <ele>318.096147</ele>
        <time>2022-04-23T08:03:45.508Z</time>
      </trkpt>
      <trkpt lat="41.9995" lon="21.38236">
        <ele>318.65557</ele>
        <time>2022-04-23T08:03:48.500Z</time>
      </trkpt>
      <trkpt lat="41.99953" lon="21.38222">
        <ele>319.211294</ele>
        <time>2022-04-23T08:03:51.526Z</time>
      </trkpt>
      <trkpt lat="41.99956" lon="21.38208">
        <ele>319.742728</ele>
        <time>2022-04-23T08:03:54.496Z</time>
      </trkpt>
      <trkpt lat="41.99958" lon="21.38195">
        <ele>320.242711</ele>
        <time>2022-04-23T08:03:57.514Z</time>
      </trkpt>
      <trkpt lat="41.99961" lon="21.38181">
        <ele>320.775089</ele>
        <time>2022-04-23T08:04:00.500Z</time>
      </trkpt>
      <trkpt lat="41.99962" lon="21.38168">
        <ele>321.254833</ele>
        <time>2022-04-23T08:04:03.506Z</time>
      </trkpt>
      <trkpt lat="41.99964" lon="21.38155">
        <ele>321.757007</ele>
        <time>2022-04-23T08:04:06.519Z</time>
      </trkpt>
      <trkpt lat="41.99966" lon="21.38143">
        <ele>322.241243</ele>
        <time>2022-04-23T08:04:09.515Z</time>
      </trkpt>
      <trkpt lat="41.99968" lon="21.3813">
        <ele>322.720479</ele>
        <time>2022-04-23T08:04:12.492Z</time>
      </trkpt>
      <trkpt lat="41.99969" lon="21.38117">
        <ele>323.058439</ele>
        <time>2022-04-23T08:04:16.515Z</time>
      </trkpt>
      <trkpt lat="41.99974" lon="21.38104">
        <ele>322.814279</ele>
        <time>2022-04-23T08:04:22.546Z</time>
      </trkpt>
      <trkpt lat="41.99979" lon="21.3809">
        <ele>322.57491</ele>
        <time>2022-04-23T08:04:25.530Z</time>
      </trkpt>
      <trkpt lat="41.99982" lon="21.38077">
        <ele>322.343935</ele>
        <time>2022-04-23T08:04:28.515Z</time>
      </trkpt>
      <trkpt lat="41.99986" lon="21.38064">
        <ele>322.116638</ele>
        <time>2022-04-23T08:04:31.515Z</time>
      </trkpt>
      <trkpt lat="41.99989" lon="21.3805">
        <ele>321.886654</ele>
        <time>2022-04-23T08:04:34.506Z</time>
      </trkpt>
      <trkpt lat="41.99992" lon="21.38035">
        <ele>321.635491</ele>
        <time>2022-04-23T08:04:37.518Z</time>
      </trkpt>
      <trkpt lat="41.99995" lon="21.38021">
        <ele>321.394011</ele>
        <time>2022-04-23T08:04:40.519Z</time>
      </trkpt>
      <trkpt lat="41.99997" lon="21.38008">
        <ele>321.184415</ele>
        <time>2022-04-23T08:04:43.515Z</time>
      </trkpt>
      <trkpt lat="42" lon="21.37996">
        <ele>320.986505</ele>
        <time>2022-04-23T08:04:46.503Z</time>
      </trkpt>
      <trkpt lat="42.00004" lon="21.37983">
        <ele>320.754724</ele>
        <time>2022-04-23T08:04:49.534Z</time>
      </trkpt>
      <trkpt lat="42.00008" lon="21.37969">
        <ele>320.511682</ele>
        <time>2022-04-23T08:04:52.509Z</time>
      </trkpt>
      <trkpt lat="42.00013" lon="21.37954">
        <ele>320.250521</ele>
        <time>2022-04-23T08:04:55.513Z</time>
      </trkpt>
      <trkpt lat="42.00018" lon="21.37939">
        <ele>319.983669</ele>
        <time>2022-04-23T08:04:58.510Z</time>
      </trkpt>
      <trkpt lat="42.00025" lon="21.37925">
        <ele>319.713486</ele>
        <time>2022-04-23T08:05:01.497Z</time>
      </trkpt>
      <trkpt lat="42.00031" lon="21.37912">
        <ele>319.455488</ele>
        <time>2022-04-23T08:05:04.520Z</time>
      </trkpt>
      <trkpt lat="42.00039" lon="21.37899">
        <ele>319.189781</ele>
        <time>2022-04-23T08:05:07.516Z</time>
      </trkpt>
      <trkpt lat="42.00046" lon="21.37886">
        <ele>318.958316</ele>
        <time>2022-04-23T08:05:10.520Z</time>
      </trkpt>
      <trkpt lat="42.00054" lon="21.37872">
        <ele>318.698877</ele>
        <time>2022-04-23T08:05:13.604Z</time>
      </trkpt>
      <trkpt lat="42.0006" lon="21.37862">
        <ele>318.518594</ele>
        <time>2022-04-23T08:05:15.505Z</time>
      </trkpt>
      <trkpt lat="42.00066" lon="21.37852">
        <ele>318.332439</ele>
        <time>2022-04-23T08:05:17.520Z</time>
      </trkpt>
      <trkpt lat="42.00072" lon="21.37841">
        <ele>318.139316</ele>
        <time>2022-04-23T08:05:19.515Z</time>
      </trkpt>
      <trkpt lat="42.00078" lon="21.37831">
        <ele>317.947131</ele>
        <time>2022-04-23T08:05:21.514Z</time>
      </trkpt>
      <trkpt lat="42.00084" lon="21.37821">
        <ele>317.757555</ele>
        <time>2022-04-23T08:05:23.512Z</time>
      </trkpt>
      <trkpt lat="42.0009" lon="21.37811">
        <ele>317.569056</ele>
        <time>2022-04-23T08:05:25.524Z</time>
      </trkpt>
      <trkpt lat="42.00096" lon="21.37801">
        <ele>317.388651</ele>
        <time>2022-04-23T08:05:27.515Z</time>
      </trkpt>
      <trkpt lat="42.00102" lon="21.37792">
        <ele>317.209494</ele>
        <time>2022-04-23T08:05:29.513Z</time>
      </trkpt>
      <trkpt lat="42.00109" lon="21.37783">
        <ele>317.024901</ele>
        <time>2022-04-23T08:05:31.555Z</time>
      </trkpt>
      <trkpt lat="42.00114" lon="21.37774">
        <ele>316.849909</ele>
        <time>2022-04-23T08:05:33.513Z</time>
      </trkpt>
      <trkpt lat="42.00123" lon="21.3776">
        <ele>316.588785</ele>
        <time>2022-04-23T08:05:36.509Z</time>
      </trkpt>
      <trkpt lat="42.00129" lon="21.37751">
        <ele>316.41142</ele>
        <time>2022-04-23T08:05:38.514Z</time>
      </trkpt>
      <trkpt lat="42.00136" lon="21.37742">
        <ele>316.22987</ele>
        <time>2022-04-23T08:05:40.501Z</time>
      </trkpt>
      <trkpt lat="42.00142" lon="21.37733">
        <ele>316.053591</ele>
        <time>2022-04-23T08:05:42.513Z</time>
      </trkpt>
      <trkpt lat="42.00148" lon="21.37723">
        <ele>315.863767</ele>
        <time>2022-04-23T08:05:44.514Z</time>
      </trkpt>
      <trkpt lat="42.00154" lon="21.37713">
        <ele>315.686922</ele>
        <time>2022-04-23T08:05:46.524Z</time>
      </trkpt>
      <trkpt lat="42.0016" lon="21.37703">
        <ele>315.808288</ele>
        <time>2022-04-23T08:05:48.514Z</time>
      </trkpt>
      <trkpt lat="42.00166" lon="21.37694">
        <ele>315.931247</ele>
        <time>2022-04-23T08:05:50.507Z</time>
      </trkpt>
      <trkpt lat="42.00172" lon="21.37684">
        <ele>316.049991</ele>
        <time>2022-04-23T08:05:52.497Z</time>
      </trkpt>
      <trkpt lat="42.00178" lon="21.37675">
        <ele>316.168811</ele>
        <time>2022-04-23T08:05:54.493Z</time>
      </trkpt>
      <trkpt lat="42.00183" lon="21.37666">
        <ele>316.286737</ele>
        <time>2022-04-23T08:05:56.503Z</time>
      </trkpt>
      <trkpt lat="42.00189" lon="21.37655">
        <ele>316.411629</ele>
        <time>2022-04-23T08:05:58.520Z</time>
      </trkpt>
      <trkpt lat="42.00195" lon="21.37645">
        <ele>316.531854</ele>
        <time>2022-04-23T08:06:00.501Z</time>
      </trkpt>
      <trkpt lat="42.00201" lon="21.37635">
        <ele>316.657673</ele>
        <time>2022-04-23T08:06:02.515Z</time>
      </trkpt>
      <trkpt lat="42.00208" lon="21.37626">
        <ele>316.786405</ele>
        <time>2022-04-23T08:06:04.513Z</time>
      </trkpt>
      <trkpt lat="42.00214" lon="21.37617">
        <ele>316.911466</ele>
        <time>2022-04-23T08:06:06.521Z</time>
      </trkpt>
      <trkpt lat="42.00221" lon="21.37608">
        <ele>317.03493</ele>
        <time>2022-04-23T08:06:08.532Z</time>
      </trkpt>
      <trkpt lat="42.00228" lon="21.37598">
        <ele>317.167574</ele>
        <time>2022-04-23T08:06:10.523Z</time>
      </trkpt>
      <trkpt lat="42.00235" lon="21.37588">
        <ele>317.302782</ele>
        <time>2022-04-23T08:06:12.510Z</time>
      </trkpt>
      <trkpt lat="42.00242" lon="21.37577">
        <ele>317.443368</ele>
        <time>2022-04-23T08:06:14.488Z</time>
      </trkpt>
      <trkpt lat="42.00249" lon="21.37565">
        <ele>317.591694</ele>
        <time>2022-04-23T08:06:16.531Z</time>
      </trkpt>
      <trkpt lat="42.00256" lon="21.37552">
        <ele>317.746249</ele>
        <time>2022-04-23T08:06:18.496Z</time>
      </trkpt>
      <trkpt lat="42.00263" lon="21.3754">
        <ele>317.890699</ele>
        <time>2022-04-23T08:06:20.523Z</time>
      </trkpt>
      <trkpt lat="42.00269" lon="21.3753">
        <ele>318.02108</ele>
        <time>2022-04-23T08:06:22.493Z</time>
      </trkpt>
      <trkpt lat="42.00275" lon="21.37519">
        <ele>318.181254</ele>
        <time>2022-04-23T08:06:24.517Z</time>
      </trkpt>
      <trkpt lat="42.00282" lon="21.37509">
        <ele>318.338582</ele>
        <time>2022-04-23T08:06:26.494Z</time>
      </trkpt>
      <trkpt lat="42.00289" lon="21.375">
        <ele>318.503315</ele>
        <time>2022-04-23T08:06:28.514Z</time>
      </trkpt>
      <trkpt lat="42.00296" lon="21.3749">
        <ele>318.667103</ele>
        <time>2022-04-23T08:06:30.511Z</time>
      </trkpt>
      <trkpt lat="42.00303" lon="21.3748">
        <ele>318.833745</ele>
        <time>2022-04-23T08:06:32.501Z</time>
      </trkpt>
      <trkpt lat="42.0031" lon="21.37471">
        <ele>318.99214</ele>
        <time>2022-04-23T08:06:34.503Z</time>
      </trkpt>
      <trkpt lat="42.00317" lon="21.37461">
        <ele>319.155008</ele>
        <time>2022-04-23T08:06:36.525Z</time>
      </trkpt>
      <trkpt lat="42.00323" lon="21.3745">
        <ele>319.320748</ele>
        <time>2022-04-23T08:06:38.542Z</time>
      </trkpt>
      <trkpt lat="42.00329" lon="21.37437">
        <ele>319.496234</ele>
        <time>2022-04-23T08:06:40.513Z</time>
      </trkpt>
      <trkpt lat="42.00334" lon="21.37425">
        <ele>319.674344</ele>
        <time>2022-04-23T08:06:42.506Z</time>
      </trkpt>
      <trkpt lat="42.0034" lon="21.37413">
        <ele>319.848155</ele>
        <time>2022-04-23T08:06:44.513Z</time>
      </trkpt>
      <trkpt lat="42.00348" lon="21.37402">
        <ele>320.031058</ele>
        <time>2022-04-23T08:06:46.523Z</time>
      </trkpt>
      <trkpt lat="42.00356" lon="21.37391">
        <ele>320.211653</ele>
        <time>2022-04-23T08:06:48.521Z</time>
      </trkpt>
      <trkpt lat="42.00363" lon="21.37381">
        <ele>320.379427</ele>
        <time>2022-04-23T08:06:50.499Z</time>
      </trkpt>
      <trkpt lat="42.0037" lon="21.37371">
        <ele>320.547141</ele>
        <time>2022-04-23T08:06:52.497Z</time>
      </trkpt>
      <trkpt lat="42.00377" lon="21.3736">
        <ele>320.716658</ele>
        <time>2022-04-23T08:06:54.546Z</time>
      </trkpt>
      <trkpt lat="42.00384" lon="21.37351">
        <ele>320.870216</ele>
        <time>2022-04-23T08:06:56.536Z</time>
      </trkpt>
      <trkpt lat="42.00391" lon="21.37343">
        <ele>321.137879</ele>
        <time>2022-04-23T08:06:58.508Z</time>
      </trkpt>
      <trkpt lat="42.00397" lon="21.37334">
        <ele>321.512216</ele>
        <time>2022-04-23T08:07:00.489Z</time>
      </trkpt>
      <trkpt lat="42.00404" lon="21.37325">
        <ele>321.885799</ele>
        <time>2022-04-23T08:07:02.522Z</time>
      </trkpt>
      <trkpt lat="42.0041" lon="21.37316">
        <ele>322.260311</ele>
        <time>2022-04-23T08:07:04.510Z</time>
      </trkpt>
      <trkpt lat="42.00416" lon="21.37307">
        <ele>322.635798</ele>
        <time>2022-04-23T08:07:06.513Z</time>
      </trkpt>
      <trkpt lat="42.00421" lon="21.37297">
        <ele>323.013117</ele>
        <time>2022-04-23T08:07:08.506Z</time>
      </trkpt>
      <trkpt lat="42.00426" lon="21.37286">
        <ele>323.395916</ele>
        <time>2022-04-23T08:07:10.496Z</time>
      </trkpt>
      <trkpt lat="42.0043" lon="21.37275">
        <ele>323.79064</ele>
        <time>2022-04-23T08:07:12.499Z</time>
      </trkpt>
      <trkpt lat="42.00435" lon="21.37264">
        <ele>324.189359</ele>
        <time>2022-04-23T08:07:14.503Z</time>
      </trkpt>
      <trkpt lat="42.0044" lon="21.37253">
        <ele>324.56736</ele>
        <time>2022-04-23T08:07:16.497Z</time>
      </trkpt>
      <trkpt lat="42.00447" lon="21.37243">
        <ele>324.965498</ele>
        <time>2022-04-23T08:07:18.511Z</time>
      </trkpt>
      <trkpt lat="42.00452" lon="21.37233">
        <ele>325.367378</ele>
        <time>2022-04-23T08:07:20.599Z</time>
      </trkpt>
      <trkpt lat="42.00458" lon="21.37222">
        <ele>325.752209</ele>
        <time>2022-04-23T08:07:22.508Z</time>
      </trkpt>
      <trkpt lat="42.00463" lon="21.37212">
        <ele>326.136789</ele>
        <time>2022-04-23T08:07:24.544Z</time>
      </trkpt>
      <trkpt lat="42.0047" lon="21.37203">
        <ele>326.516193</ele>
        <time>2022-04-23T08:07:26.505Z</time>
      </trkpt>
      <trkpt lat="42.00476" lon="21.37194">
        <ele>326.896661</ele>
        <time>2022-04-23T08:07:28.506Z</time>
      </trkpt>
      <trkpt lat="42.00482" lon="21.37184">
        <ele>327.281801</ele>
        <time>2022-04-23T08:07:30.492Z</time>
      </trkpt>
      <trkpt lat="42.0049" lon="21.37177">
        <ele>327.675344</ele>
        <time>2022-04-23T08:07:32.501Z</time>
      </trkpt>
      <trkpt lat="42.00497" lon="21.3717">
        <ele>328.05368</ele>
        <time>2022-04-23T08:07:34.510Z</time>
      </trkpt>
      <trkpt lat="42.00504" lon="21.3716">
        <ele>328.417465</ele>
        <time>2022-04-23T08:07:36.523Z</time>
      </trkpt>
      <trkpt lat="42.0051" lon="21.3715">
        <ele>328.689998</ele>
        <time>2022-04-23T08:07:38.502Z</time>
      </trkpt>
      <trkpt lat="42.00517" lon="21.3714">
        <ele>328.971438</ele>
        <time>2022-04-23T08:07:40.516Z</time>
      </trkpt>
      <trkpt lat="42.00523" lon="21.3713">
        <ele>329.235649</ele>
        <time>2022-04-23T08:07:42.516Z</time>
      </trkpt>
      <trkpt lat="42.00533" lon="21.37118">
        <ele>329.610058</ele>
        <time>2022-04-23T08:07:45.506Z</time>
      </trkpt>
      <trkpt lat="42.00542" lon="21.37104">
        <ele>329.995709</ele>
        <time>2022-04-23T08:07:48.513Z</time>
      </trkpt>
      <trkpt lat="42.00548" lon="21.37093">
        <ele>330.257995</ele>
        <time>2022-04-23T08:07:50.509Z</time>
      </trkpt>
      <trkpt lat="42.00553" lon="21.37082">
        <ele>330.530237</ele>
        <time>2022-04-23T08:07:52.505Z</time>
      </trkpt>
      <trkpt lat="42.00558" lon="21.3707">
        <ele>330.816728</ele>
        <time>2022-04-23T08:07:54.505Z</time>
      </trkpt>
      <trkpt lat="42.00564" lon="21.37059">
        <ele>331.100326</ele>
        <time>2022-04-23T08:07:56.522Z</time>
      </trkpt>
      <trkpt lat="42.00569" lon="21.37048">
        <ele>331.371574</ele>
        <time>2022-04-23T08:07:58.513Z</time>
      </trkpt>
      <trkpt lat="42.00578" lon="21.37035">
        <ele>331.730155</ele>
        <time>2022-04-23T08:08:01.518Z</time>
      </trkpt>
      <trkpt lat="42.00587" lon="21.37022">
        <ele>332.102365</ele>
        <time>2022-04-23T08:08:04.508Z</time>
      </trkpt>
      <trkpt lat="42.00593" lon="21.37013">
        <ele>332.35174</ele>
        <time>2022-04-23T08:08:06.495Z</time>
      </trkpt>
      <trkpt lat="42.00602" lon="21.37">
        <ele>332.718274</ele>
        <time>2022-04-23T08:08:09.513Z</time>
      </trkpt>
      <trkpt lat="42.0061" lon="21.36987">
        <ele>333.071491</ele>
        <time>2022-04-23T08:08:12.529Z</time>
      </trkpt>
      <trkpt lat="42.00619" lon="21.36973">
        <ele>333.159899</ele>
        <time>2022-04-23T08:08:15.525Z</time>
      </trkpt>
      <trkpt lat="42.00624" lon="21.36964">
        <ele>332.734572</ele>
        <time>2022-04-23T08:08:17.505Z</time>
      </trkpt>
      <trkpt lat="42.00632" lon="21.36949">
        <ele>332.10593</ele>
        <time>2022-04-23T08:08:20.508Z</time>
      </trkpt>
      <trkpt lat="42.00636" lon="21.36938">
        <ele>331.672862</ele>
        <time>2022-04-23T08:08:22.529Z</time>
      </trkpt>
      <trkpt lat="42.00641" lon="21.36928">
        <ele>331.246212</ele>
        <time>2022-04-23T08:08:24.553Z</time>
      </trkpt>
      <trkpt lat="42.00648" lon="21.36912">
        <ele>330.612702</ele>
        <time>2022-04-23T08:08:27.504Z</time>
      </trkpt>
      <trkpt lat="42.00652" lon="21.36902">
        <ele>330.181249</ele>
        <time>2022-04-23T08:08:29.514Z</time>
      </trkpt>
      <trkpt lat="42.00659" lon="21.36887">
        <ele>329.576581</ele>
        <time>2022-04-23T08:08:32.512Z</time>
      </trkpt>
      <trkpt lat="42.00665" lon="21.36872">
        <ele>328.961078</ele>
        <time>2022-04-23T08:08:35.555Z</time>
      </trkpt>
      <trkpt lat="42.0067" lon="21.36856">
        <ele>328.351465</ele>
        <time>2022-04-23T08:08:38.498Z</time>
      </trkpt>
      <trkpt lat="42.00675" lon="21.36841">
        <ele>327.780946</ele>
        <time>2022-04-23T08:08:41.558Z</time>
      </trkpt>
      <trkpt lat="42.0068" lon="21.36824">
        <ele>327.169075</ele>
        <time>2022-04-23T08:08:44.498Z</time>
      </trkpt>
      <trkpt lat="42.00685" lon="21.3681">
        <ele>326.593631</ele>
        <time>2022-04-23T08:08:47.528Z</time>
      </trkpt>
      <trkpt lat="42.0069" lon="21.36798">
        <ele>326.115219</ele>
        <time>2022-04-23T08:08:50.509Z</time>
      </trkpt>
      <trkpt lat="42.00694" lon="21.36784">
        <ele>325.59868</ele>
        <time>2022-04-23T08:08:55.530Z</time>
      </trkpt>
      <trkpt lat="42.00712" lon="21.36754">
        <ele>324.396636</ele>
        <time>2022-04-23T08:09:34.489Z</time>
      </trkpt>
      <trkpt lat="42.00721" lon="21.36746">
        <ele>323.984581</ele>
        <time>2022-04-23T08:09:37.544Z</time>
      </trkpt>
      <trkpt lat="42.00727" lon="21.36733">
        <ele>323.57947</ele>
        <time>2022-04-23T08:09:40.522Z</time>
      </trkpt>
      <trkpt lat="42.00726" lon="21.36717">
        <ele>323.151764</ele>
        <time>2022-04-23T08:09:43.507Z</time>
      </trkpt>
      <trkpt lat="42.00726" lon="21.36701">
        <ele>322.719426</ele>
        <time>2022-04-23T08:09:46.492Z</time>
      </trkpt>
      <trkpt lat="42.00726" lon="21.36688">
        <ele>322.378579</ele>
        <time>2022-04-23T08:09:48.609Z</time>
      </trkpt>
      <trkpt lat="42.00726" lon="21.36676">
        <ele>322.04829</ele>
        <time>2022-04-23T08:09:50.519Z</time>
      </trkpt>
      <trkpt lat="42.00726" lon="21.36658">
        <ele>321.573239</ele>
        <time>2022-04-23T08:09:53.535Z</time>
      </trkpt>
      <trkpt lat="42.00727" lon="21.36642">
        <ele>321.137724</ele>
        <time>2022-04-23T08:09:56.509Z</time>
      </trkpt>
      <trkpt lat="42.00728" lon="21.36626">
        <ele>320.701984</ele>
        <time>2022-04-23T08:09:59.516Z</time>
      </trkpt>
      <trkpt lat="42.00728" lon="21.3661">
        <ele>320.274278</ele>
        <time>2022-04-23T08:10:02.506Z</time>
      </trkpt>
      <trkpt lat="42.00729" lon="21.36596">
        <ele>319.908635</ele>
        <time>2022-04-23T08:10:05.517Z</time>
      </trkpt>
      <trkpt lat="42.00731" lon="21.36584">
        <ele>319.564688</ele>
        <time>2022-04-23T08:10:08.511Z</time>
      </trkpt>
      <trkpt lat="42.00736" lon="21.3657">
        <ele>319.164655</ele>
        <time>2022-04-23T08:10:11.566Z</time>
      </trkpt>
      <trkpt lat="42.00739" lon="21.36555">
        <ele>318.752175</ele>
        <time>2022-04-23T08:10:14.505Z</time>
      </trkpt>
      <trkpt lat="42.00736" lon="21.36543">
        <ele>318.395959</ele>
        <time>2022-04-23T08:10:16.512Z</time>
      </trkpt>
      <trkpt lat="42.00731" lon="21.36531">
        <ele>318.384662</ele>
        <time>2022-04-23T08:10:18.533Z</time>
      </trkpt>
      <trkpt lat="42.00725" lon="21.36517">
        <ele>318.440489</ele>
        <time>2022-04-23T08:10:21.509Z</time>
      </trkpt>
      <trkpt lat="42.00724" lon="21.36502">
        <ele>318.494064</ele>
        <time>2022-04-23T08:10:24.504Z</time>
      </trkpt>
      <trkpt lat="42.00722" lon="21.36487">
        <ele>318.547725</ele>
        <time>2022-04-23T08:10:27.507Z</time>
      </trkpt>
      <trkpt lat="42.0072" lon="21.36473">
        <ele>318.600378</ele>
        <time>2022-04-23T08:10:30.503Z</time>
      </trkpt>
      <trkpt lat="42.00715" lon="21.36458">
        <ele>318.65636</ele>
        <time>2022-04-23T08:10:33.511Z</time>
      </trkpt>
      <trkpt lat="42.0071" lon="21.36444">
        <ele>318.71117</ele>
        <time>2022-04-23T08:10:36.547Z</time>
      </trkpt>
      <trkpt lat="42.00705" lon="21.36427">
        <ele>318.775014</ele>
        <time>2022-04-23T08:10:39.518Z</time>
      </trkpt>
      <trkpt lat="42.007" lon="21.36416">
        <ele>318.82</ele>
        <time>2022-04-23T08:10:41.518Z</time>
      </trkpt>
      <trkpt lat="42.00696" lon="21.36404">
        <ele>318.867665</ele>
        <time>2022-04-23T08:10:43.507Z</time>
      </trkpt>
      <trkpt lat="42.00692" lon="21.36391">
        <ele>318.916053</ele>
        <time>2022-04-23T08:10:45.527Z</time>
      </trkpt>
      <trkpt lat="42.00689" lon="21.36378">
        <ele>318.963941</ele>
        <time>2022-04-23T08:10:47.545Z</time>
      </trkpt>
      <trkpt lat="42.00687" lon="21.36365">
        <ele>319.010593</ele>
        <time>2022-04-23T08:10:49.507Z</time>
      </trkpt>
      <trkpt lat="42.00685" lon="21.36353">
        <ele>319.055604</ele>
        <time>2022-04-23T08:10:51.498Z</time>
      </trkpt>
      <trkpt lat="42.00686" lon="21.36341">
        <ele>319.099008</ele>
        <time>2022-04-23T08:10:53.522Z</time>
      </trkpt>
      <trkpt lat="42.00685" lon="21.36324">
        <ele>319.157178</ele>
        <time>2022-04-23T08:10:56.501Z</time>
      </trkpt>
      <trkpt lat="42.00684" lon="21.36309">
        <ele>319.113507</ele>
        <time>2022-04-23T08:10:59.498Z</time>
      </trkpt>
      <trkpt lat="42.00683" lon="21.36293">
        <ele>318.819726</ele>
        <time>2022-04-23T08:11:02.503Z</time>
      </trkpt>
      <trkpt lat="42.00682" lon="21.36277">
        <ele>318.523764</ele>
        <time>2022-04-23T08:11:05.498Z</time>
      </trkpt>
      <trkpt lat="42.00681" lon="21.36261">
        <ele>318.219453</ele>
        <time>2022-04-23T08:11:08.486Z</time>
      </trkpt>
      <trkpt lat="42.00681" lon="21.36246">
        <ele>317.937349</ele>
        <time>2022-04-23T08:11:11.501Z</time>
      </trkpt>
      <trkpt lat="42.00685" lon="21.36232">
        <ele>317.649958</ele>
        <time>2022-04-23T08:11:14.545Z</time>
      </trkpt>
      <trkpt lat="42.00695" lon="21.36221">
        <ele>317.316768</ele>
        <time>2022-04-23T08:11:17.506Z</time>
      </trkpt>
      <trkpt lat="42.00706" lon="21.36216">
        <ele>317.034297</ele>
        <time>2022-04-23T08:11:19.519Z</time>
      </trkpt>
      <trkpt lat="42.00716" lon="21.36214">
        <ele>316.76284</ele>
        <time>2022-04-23T08:11:21.523Z</time>
      </trkpt>
      <trkpt lat="42.00727" lon="21.36211">
        <ele>316.493279</ele>
        <time>2022-04-23T08:11:23.513Z</time>
      </trkpt>
      <trkpt lat="42.00737" lon="21.3621">
        <ele>316.236097</ele>
        <time>2022-04-23T08:11:25.531Z</time>
      </trkpt>
      <trkpt lat="42.00746" lon="21.36208">
        <ele>316.009079</ele>
        <time>2022-04-23T08:11:27.533Z</time>
      </trkpt>
      <trkpt lat="42.00759" lon="21.36207">
        <ele>315.686566</ele>
        <time>2022-04-23T08:11:30.514Z</time>
      </trkpt>
      <trkpt lat="42.00768" lon="21.36205">
        <ele>315.455693</ele>
        <time>2022-04-23T08:11:32.524Z</time>
      </trkpt>
      <trkpt lat="42.0078" lon="21.36202">
        <ele>315.132921</ele>
        <time>2022-04-23T08:11:35.532Z</time>
      </trkpt>
      <trkpt lat="42.00793" lon="21.36199">
        <ele>314.797206</ele>
        <time>2022-04-23T08:11:38.508Z</time>
      </trkpt>
      <trkpt lat="42.00806" lon="21.36196">
        <ele>314.64873</ele>
        <time>2022-04-23T08:11:41.508Z</time>
      </trkpt>
      <trkpt lat="42.00815" lon="21.36192">
        <ele>314.655441</ele>
        <time>2022-04-23T08:11:43.519Z</time>
      </trkpt>
      <trkpt lat="42.00824" lon="21.36188">
        <ele>314.662548</ele>
        <time>2022-04-23T08:11:45.509Z</time>
      </trkpt>
      <trkpt lat="42.00833" lon="21.36183">
        <ele>314.669398</ele>
        <time>2022-04-23T08:11:47.514Z</time>
      </trkpt>
      <trkpt lat="42.00841" lon="21.36177">
        <ele>314.676045</ele>
        <time>2022-04-23T08:11:49.514Z</time>
      </trkpt>
      <trkpt lat="42.00849" lon="21.36171">
        <ele>314.683187</ele>
        <time>2022-04-23T08:11:51.549Z</time>
      </trkpt>
      <trkpt lat="42.00859" lon="21.36166">
        <ele>314.690364</ele>
        <time>2022-04-23T08:11:53.531Z</time>
      </trkpt>
      <trkpt lat="42.00871" lon="21.36161">
        <ele>314.699964</ele>
        <time>2022-04-23T08:11:56.509Z</time>
      </trkpt>
      <trkpt lat="42.00883" lon="21.36157">
        <ele>314.709088</ele>
        <time>2022-04-23T08:11:59.523Z</time>
      </trkpt>
      <trkpt lat="42.00893" lon="21.36156">
        <ele>314.716648</ele>
        <time>2022-04-23T08:12:02.516Z</time>
      </trkpt>
      <trkpt lat="42.00905" lon="21.36153">
        <ele>314.725383</ele>
        <time>2022-04-23T08:12:06.513Z</time>
      </trkpt>
      <trkpt lat="42.00917" lon="21.36151">
        <ele>314.733733</ele>
        <time>2022-04-23T08:12:10.503Z</time>
      </trkpt>
      <trkpt lat="42.00928" lon="21.36149">
        <ele>314.741969</ele>
        <time>2022-04-23T08:12:14.495Z</time>
      </trkpt>
      <trkpt lat="42.0094" lon="21.36148">
        <ele>314.750726</ele>
        <time>2022-04-23T08:12:18.560Z</time>
      </trkpt>
      <trkpt lat="42.00949" lon="21.36149">
        <ele>314.757771</ele>
        <time>2022-04-23T08:12:21.590Z</time>
      </trkpt>
      <trkpt lat="42.00958" lon="21.36145">
        <ele>314.764824</ele>
        <time>2022-04-23T08:12:25.521Z</time>
      </trkpt>
      <trkpt lat="42.00949" lon="21.36139">
        <ele>314.772218</ele>
        <time>2022-04-23T08:12:30.526Z</time>
      </trkpt>
      <trkpt lat="42.00941" lon="21.36142">
        <ele>315.228443</ele>
        <time>2022-04-23T08:12:33.541Z</time>
      </trkpt>
      <trkpt lat="42.00931" lon="21.36143">
        <ele>316.076452</ele>
        <time>2022-04-23T08:12:36.512Z</time>
      </trkpt>
      <trkpt lat="42.00921" lon="21.36145">
        <ele>316.974268</ele>
        <time>2022-04-23T08:12:39.520Z</time>
      </trkpt>
      <trkpt lat="42.00911" lon="21.36147">
        <ele>317.909192</ele>
        <time>2022-04-23T08:12:42.513Z</time>
      </trkpt>
      <trkpt lat="42.00899" lon="21.36151">
        <ele>318.956253</ele>
        <time>2022-04-23T08:12:45.520Z</time>
      </trkpt>
      <trkpt lat="42.00887" lon="21.36152">
        <ele>320.049547</ele>
        <time>2022-04-23T08:12:48.538Z</time>
      </trkpt>
      <trkpt lat="42.0088" lon="21.36142">
        <ele>320.929527</ele>
        <time>2022-04-23T08:12:51.522Z</time>
      </trkpt>
      <trkpt lat="42.0088" lon="21.36129">
        <ele>321.756701</ele>
        <time>2022-04-23T08:12:55.517Z</time>
      </trkpt>
      <trkpt lat="42.0088" lon="21.36116">
        <ele>322.615265</ele>
        <time>2022-04-23T08:13:00.519Z</time>
      </trkpt>
      <trkpt lat="42.00884" lon="21.36105">
        <ele>323.427718</ele>
        <time>2022-04-23T08:13:05.521Z</time>
      </trkpt>
      <trkpt lat="42.00886" lon="21.36091">
        <ele>324.391279</ele>
        <time>2022-04-23T08:13:11.516Z</time>
      </trkpt>
      <trkpt lat="42.00886" lon="21.36078">
        <ele>325.256435</ele>
        <time>2022-04-23T08:13:15.545Z</time>
      </trkpt>
      <trkpt lat="42.00888" lon="21.36063">
        <ele>326.228349</ele>
        <time>2022-04-23T08:13:20.497Z</time>
      </trkpt>
      <trkpt lat="42.00892" lon="21.3605">
        <ele>327.206289</ele>
        <time>2022-04-23T08:13:25.508Z</time>
      </trkpt>
      <trkpt lat="42.00894" lon="21.36037">
        <ele>328.087028</ele>
        <time>2022-04-23T08:13:30.517Z</time>
      </trkpt>
      <trkpt lat="42.00897" lon="21.36023">
        <ele>328.994233</ele>
        <time>2022-04-23T08:13:34.519Z</time>
      </trkpt>
      <trkpt lat="42.009" lon="21.36011">
        <ele>329.836797</ele>
        <time>2022-04-23T08:13:37.505Z</time>
      </trkpt>
      <trkpt lat="42.009" lon="21.35994">
        <ele>330.605956</ele>
        <time>2022-04-23T08:13:40.515Z</time>
      </trkpt>
      <trkpt lat="42.00903" lon="21.3598">
        <ele>329.885039</ele>
        <time>2022-04-23T08:13:43.483Z</time>
      </trkpt>
      <trkpt lat="42.00905" lon="21.35968">
        <ele>329.293696</ele>
        <time>2022-04-23T08:13:46.502Z</time>
      </trkpt>
      <trkpt lat="42.00907" lon="21.35953">
        <ele>328.582076</ele>
        <time>2022-04-23T08:13:50.506Z</time>
      </trkpt>
      <trkpt lat="42.00909" lon="21.35941">
        <ele>328.005379</ele>
        <time>2022-04-23T08:13:53.510Z</time>
      </trkpt>
      <trkpt lat="42.0091" lon="21.35929">
        <ele>327.421922</ele>
        <time>2022-04-23T08:13:57.519Z</time>
      </trkpt>
      <trkpt lat="42.00915" lon="21.35916">
        <ele>326.734904</ele>
        <time>2022-04-23T08:14:03.492Z</time>
      </trkpt>
      <trkpt lat="42.00919" lon="21.35903">
        <ele>326.085709</ele>
        <time>2022-04-23T08:14:07.503Z</time>
      </trkpt>
      <trkpt lat="42.00917" lon="21.3589">
        <ele>325.434658</ele>
        <time>2022-04-23T08:14:10.496Z</time>
      </trkpt>
      <trkpt lat="42.00915" lon="21.35875">
        <ele>324.70703</ele>
        <time>2022-04-23T08:14:13.517Z</time>
      </trkpt>
      <trkpt lat="42.00913" lon="21.35862">
        <ele>324.069253</ele>
        <time>2022-04-23T08:14:16.515Z</time>
      </trkpt>
      <trkpt lat="42.00911" lon="21.35849">
        <ele>323.425451</ele>
        <time>2022-04-23T08:14:19.504Z</time>
      </trkpt>
      <trkpt lat="42.0091" lon="21.35835">
        <ele>322.767581</ele>
        <time>2022-04-23T08:14:22.523Z</time>
      </trkpt>
      <trkpt lat="42.00908" lon="21.3582">
        <ele>322.066873</ele>
        <time>2022-04-23T08:14:25.518Z</time>
      </trkpt>
      <trkpt lat="42.00907" lon="21.35805">
        <ele>321.353624</ele>
        <time>2022-04-23T08:14:28.529Z</time>
      </trkpt>
      <trkpt lat="42.00905" lon="21.3579">
        <ele>320.594445</ele>
        <time>2022-04-23T08:14:31.533Z</time>
      </trkpt>
      <trkpt lat="42.00902" lon="21.35774">
        <ele>319.824535</ele>
        <time>2022-04-23T08:14:34.564Z</time>
      </trkpt>
      <trkpt lat="42.009" lon="21.35759">
        <ele>319.209577</ele>
        <time>2022-04-23T08:14:37.498Z</time>
      </trkpt>
      <trkpt lat="42.00899" lon="21.35743">
        <ele>319.111089</ele>
        <time>2022-04-23T08:14:40.577Z</time>
      </trkpt>
      <trkpt lat="42.00896" lon="21.35728">
        <ele>319.010436</ele>
        <time>2022-04-23T08:14:43.519Z</time>
      </trkpt>
      <trkpt lat="42.00893" lon="21.35712">
        <ele>318.911048</ele>
        <time>2022-04-23T08:14:46.507Z</time>
      </trkpt>
      <trkpt lat="42.00891" lon="21.35696">
        <ele>318.808182</ele>
        <time>2022-04-23T08:14:49.522Z</time>
      </trkpt>
      <trkpt lat="42.00891" lon="21.3568">
        <ele>318.707472</ele>
        <time>2022-04-23T08:14:52.515Z</time>
      </trkpt>
      <trkpt lat="42.00892" lon="21.35663">
        <ele>318.601509</ele>
        <time>2022-04-23T08:14:55.512Z</time>
      </trkpt>
      <trkpt lat="42.00892" lon="21.35646">
        <ele>318.490086</ele>
        <time>2022-04-23T08:14:58.713Z</time>
      </trkpt>
      <trkpt lat="42.00892" lon="21.35628">
        <ele>318.378045</ele>
        <time>2022-04-23T08:15:01.521Z</time>
      </trkpt>
      <trkpt lat="42.00892" lon="21.35615">
        <ele>318.297437</ele>
        <time>2022-04-23T08:15:03.503Z</time>
      </trkpt>
      <trkpt lat="42.00893" lon="21.35603">
        <ele>318.220894</ele>
        <time>2022-04-23T08:15:05.501Z</time>
      </trkpt>
      <trkpt lat="42.00894" lon="21.35586">
        <ele>318.111562</ele>
        <time>2022-04-23T08:15:08.489Z</time>
      </trkpt>
      <trkpt lat="42.00894" lon="21.35574">
        <ele>318.0354</ele>
        <time>2022-04-23T08:15:10.530Z</time>
      </trkpt>
      <trkpt lat="42.00894" lon="21.35557">
        <ele>317.927766</ele>
        <time>2022-04-23T08:15:13.493Z</time>
      </trkpt>
      <trkpt lat="42.00894" lon="21.35539">
        <ele>317.816342</ele>
        <time>2022-04-23T08:15:16.491Z</time>
      </trkpt>
      <trkpt lat="42.00895" lon="21.35521">
        <ele>317.708036</ele>
        <time>2022-04-23T08:15:19.499Z</time>
      </trkpt>
      <trkpt lat="42.00896" lon="21.35504">
        <ele>317.881677</ele>
        <time>2022-04-23T08:15:22.520Z</time>
      </trkpt>
      <trkpt lat="42.00896" lon="21.35487">
        <ele>318.055902</ele>
        <time>2022-04-23T08:15:25.502Z</time>
      </trkpt>
      <trkpt lat="42.00896" lon="21.35469">
        <ele>318.235186</ele>
        <time>2022-04-23T08:15:28.511Z</time>
      </trkpt>
      <trkpt lat="42.00897" lon="21.35452">
        <ele>318.407427</ele>
        <time>2022-04-23T08:15:31.513Z</time>
      </trkpt>
      <trkpt lat="42.00898" lon="21.35435">
        <ele>318.580896</ele>
        <time>2022-04-23T08:15:34.518Z</time>
      </trkpt>
      <trkpt lat="42.00898" lon="21.35419">
        <ele>318.743242</ele>
        <time>2022-04-23T08:15:37.567Z</time>
      </trkpt>
      <trkpt lat="42.00898" lon="21.35401">
        <ele>318.923559</ele>
        <time>2022-04-23T08:15:40.545Z</time>
      </trkpt>
      <trkpt lat="42.00898" lon="21.35384">
        <ele>319.095753</ele>
        <time>2022-04-23T08:15:43.506Z</time>
      </trkpt>
      <trkpt lat="42.00905" lon="21.35373">
        <ele>319.241339</ele>
        <time>2022-04-23T08:15:47.512Z</time>
      </trkpt>
      <trkpt lat="42.00916" lon="21.35369">
        <ele>319.404948</ele>
        <time>2022-04-23T08:15:51.523Z</time>
      </trkpt>
      <trkpt lat="42.00926" lon="21.35364">
        <ele>319.547659</ele>
        <time>2022-04-23T08:15:54.507Z</time>
      </trkpt>
      <trkpt lat="42.00938" lon="21.3536">
        <ele>319.717508</ele>
        <time>2022-04-23T08:15:57.510Z</time>
      </trkpt>
      <trkpt lat="42.00949" lon="21.35356">
        <ele>319.868107</ele>
        <time>2022-04-23T08:16:00.517Z</time>
      </trkpt>
      <trkpt lat="42.00958" lon="21.35352">
        <ele>319.996079</ele>
        <time>2022-04-23T08:16:03.521Z</time>
      </trkpt>
      <trkpt lat="42.00968" lon="21.3535">
        <ele>320.137666</ele>
        <time>2022-04-23T08:16:06.513Z</time>
      </trkpt>
      <trkpt lat="42.00977" lon="21.35349">
        <ele>320.293024</ele>
        <time>2022-04-23T08:16:09.525Z</time>
      </trkpt>
      <trkpt lat="42.00988" lon="21.35349">
        <ele>320.479956</ele>
        <time>2022-04-23T08:16:12.512Z</time>
      </trkpt>
      <trkpt lat="42.00999" lon="21.35348">
        <ele>320.672819</ele>
        <time>2022-04-23T08:16:15.493Z</time>
      </trkpt>
      <trkpt lat="42.01011" lon="21.35345">
        <ele>320.872234</ele>
        <time>2022-04-23T08:16:19.490Z</time>
      </trkpt>
      <trkpt lat="42.01016" lon="21.35334">
        <ele>321.033876</ele>
        <time>2022-04-23T08:16:22.512Z</time>
      </trkpt>
      <trkpt lat="42.01019" lon="21.35321">
        <ele>321.205844</ele>
        <time>2022-04-23T08:16:25.518Z</time>
      </trkpt>
      <trkpt lat="42.0102" lon="21.35308">
        <ele>321.371934</ele>
        <time>2022-04-23T08:16:28.618Z</time>
      </trkpt>
      <trkpt lat="42.01023" lon="21.35294">
        <ele>321.558323</ele>
        <time>2022-04-23T08:16:31.498Z</time>
      </trkpt>
      <trkpt lat="42.01026" lon="21.35278">
        <ele>321.771855</ele>
        <time>2022-04-23T08:16:34.491Z</time>
      </trkpt>
      <trkpt lat="42.01029" lon="21.35262">
        <ele>321.979616</ele>
        <time>2022-04-23T08:16:37.519Z</time>
      </trkpt>
      <trkpt lat="42.01032" lon="21.35246">
        <ele>322.184908</ele>
        <time>2022-04-23T08:16:40.528Z</time>
      </trkpt>
      <trkpt lat="42.01036" lon="21.3523">
        <ele>322.40294</ele>
        <time>2022-04-23T08:16:43.516Z</time>
      </trkpt>
      <trkpt lat="42.01039" lon="21.35213">
        <ele>322.632245</ele>
        <time>2022-04-23T08:16:46.514Z</time>
      </trkpt>
      <trkpt lat="42.01041" lon="21.35197">
        <ele>322.838614</ele>
        <time>2022-04-23T08:16:49.513Z</time>
      </trkpt>
      <trkpt lat="42.01044" lon="21.35182">
        <ele>323.031528</ele>
        <time>2022-04-23T08:16:52.517Z</time>
      </trkpt>
      <trkpt lat="42.01047" lon="21.35165">
        <ele>323.221769</ele>
        <time>2022-04-23T08:16:55.492Z</time>
      </trkpt>
      <trkpt lat="42.01049" lon="21.35153">
        <ele>322.960182</ele>
        <time>2022-04-23T08:16:57.562Z</time>
      </trkpt>
      <trkpt lat="42.01051" lon="21.3514">
        <ele>322.709054</ele>
        <time>2022-04-23T08:16:59.516Z</time>
      </trkpt>
      <trkpt lat="42.01052" lon="21.35124">
        <ele>322.379743</ele>
        <time>2022-04-23T08:17:02.513Z</time>
      </trkpt>
      <trkpt lat="42.01055" lon="21.35108">
        <ele>322.054349</ele>
        <time>2022-04-23T08:17:05.497Z</time>
      </trkpt>
      <trkpt lat="42.01056" lon="21.35091">
        <ele>321.691349</ele>
        <time>2022-04-23T08:17:08.537Z</time>
      </trkpt>
      <trkpt lat="42.01057" lon="21.35078">
        <ele>321.442974</ele>
        <time>2022-04-23T08:17:10.536Z</time>
      </trkpt>
      <trkpt lat="42.01058" lon="21.35065">
        <ele>321.181566</ele>
        <time>2022-04-23T08:17:12.539Z</time>
      </trkpt>
      <trkpt lat="42.0106" lon="21.35048">
        <ele>320.819312</ele>
        <time>2022-04-23T08:17:15.506Z</time>
      </trkpt>
      <trkpt lat="42.01061" lon="21.35036">
        <ele>320.572223</ele>
        <time>2022-04-23T08:17:17.505Z</time>
      </trkpt>
      <trkpt lat="42.01062" lon="21.35023">
        <ele>320.318739</ele>
        <time>2022-04-23T08:17:19.477Z</time>
      </trkpt>
      <trkpt lat="42.01064" lon="21.35011">
        <ele>320.063647</ele>
        <time>2022-04-23T08:17:21.493Z</time>
      </trkpt>
      <trkpt lat="42.01065" lon="21.34994">
        <ele>319.715322</ele>
        <time>2022-04-23T08:17:24.511Z</time>
      </trkpt>
      <trkpt lat="42.01066" lon="21.34977">
        <ele>319.38297</ele>
        <time>2022-04-23T08:17:27.533Z</time>
      </trkpt>
      <trkpt lat="42.01067" lon="21.3496">
        <ele>319.04274</ele>
        <time>2022-04-23T08:17:30.543Z</time>
      </trkpt>
      <trkpt lat="42.01067" lon="21.34948">
        <ele>318.786012</ele>
        <time>2022-04-23T08:17:32.515Z</time>
      </trkpt>
      <trkpt lat="42.01068" lon="21.34936">
        <ele>318.538488</ele>
        <time>2022-04-23T08:17:34.518Z</time>
      </trkpt>
      <trkpt lat="42.0107" lon="21.34924">
        <ele>318.333787</ele>
        <time>2022-04-23T08:17:36.525Z</time>
      </trkpt>
      <trkpt lat="42.01071" lon="21.34907">
        <ele>318.244635</ele>
        <time>2022-04-23T08:17:39.519Z</time>
      </trkpt>
      <trkpt lat="42.01073" lon="21.34895">
        <ele>318.18157</ele>
        <time>2022-04-23T08:17:41.512Z</time>
      </trkpt>
      <trkpt lat="42.01074" lon="21.34882">
        <ele>318.115205</ele>
        <time>2022-04-23T08:17:43.506Z</time>
      </trkpt>
      <trkpt lat="42.01076" lon="21.34869">
        <ele>318.049467</ele>
        <time>2022-04-23T08:17:45.514Z</time>
      </trkpt>
      <trkpt lat="42.01077" lon="21.34853">
        <ele>317.963322</ele>
        <time>2022-04-23T08:17:48.542Z</time>
      </trkpt>
      <trkpt lat="42.01079" lon="21.34837">
        <ele>317.87899</ele>
        <time>2022-04-23T08:17:51.510Z</time>
      </trkpt>
      <trkpt lat="42.0108" lon="21.34821">
        <ele>317.795591</ele>
        <time>2022-04-23T08:17:54.540Z</time>
      </trkpt>
      <trkpt lat="42.01082" lon="21.34803">
        <ele>317.702932</ele>
        <time>2022-04-23T08:17:57.528Z</time>
      </trkpt>
      <trkpt lat="42.01083" lon="21.34791">
        <ele>317.638247</ele>
        <time>2022-04-23T08:17:59.520Z</time>
      </trkpt>
      <trkpt lat="42.01084" lon="21.34779">
        <ele>317.574661</ele>
        <time>2022-04-23T08:18:01.517Z</time>
      </trkpt>
      <trkpt lat="42.01084" lon="21.34762">
        <ele>317.485783</ele>
        <time>2022-04-23T08:18:04.552Z</time>
      </trkpt>
      <trkpt lat="42.01086" lon="21.34744">
        <ele>317.396154</ele>
        <time>2022-04-23T08:18:07.536Z</time>
      </trkpt>
      <trkpt lat="42.01086" lon="21.34727">
        <ele>317.308369</ele>
        <time>2022-04-23T08:18:10.573Z</time>
      </trkpt>
      <trkpt lat="42.01086" lon="21.3471">
        <ele>317.21854</ele>
        <time>2022-04-23T08:18:13.505Z</time>
      </trkpt>
      <trkpt lat="42.01087" lon="21.34693">
        <ele>317.131249</ele>
        <time>2022-04-23T08:18:16.513Z</time>
      </trkpt>
      <trkpt lat="42.01087" lon="21.34677">
        <ele>317.226991</ele>
        <time>2022-04-23T08:18:19.501Z</time>
      </trkpt>
      <trkpt lat="42.01088" lon="21.3466">
        <ele>317.473892</ele>
        <time>2022-04-23T08:18:22.514Z</time>
      </trkpt>
      <trkpt lat="42.01088" lon="21.34643">
        <ele>317.719176</ele>
        <time>2022-04-23T08:18:25.512Z</time>
      </trkpt>
      <trkpt lat="42.01087" lon="21.34628">
        <ele>317.955845</ele>
        <time>2022-04-23T08:18:28.544Z</time>
      </trkpt>
      <trkpt lat="42.01087" lon="21.34611">
        <ele>318.199848</ele>
        <time>2022-04-23T08:18:31.507Z</time>
      </trkpt>
      <trkpt lat="42.01086" lon="21.34594">
        <ele>318.45115</ele>
        <time>2022-04-23T08:18:34.504Z</time>
      </trkpt>
      <trkpt lat="42.01086" lon="21.34576">
        <ele>318.717254</ele>
        <time>2022-04-23T08:18:37.502Z</time>
      </trkpt>
      <trkpt lat="42.01086" lon="21.34559">
        <ele>318.977412</ele>
        <time>2022-04-23T08:18:40.498Z</time>
      </trkpt>
      <trkpt lat="42.01086" lon="21.34541">
        <ele>319.237754</ele>
        <time>2022-04-23T08:18:43.521Z</time>
      </trkpt>
      <trkpt lat="42.01085" lon="21.34525">
        <ele>319.484922</ele>
        <time>2022-04-23T08:18:46.513Z</time>
      </trkpt>
      <trkpt lat="42.01084" lon="21.34508">
        <ele>319.740257</ele>
        <time>2022-04-23T08:18:49.521Z</time>
      </trkpt>
      <trkpt lat="42.01083" lon="21.34496">
        <ele>319.920677</ele>
        <time>2022-04-23T08:18:51.518Z</time>
      </trkpt>
      <trkpt lat="42.01082" lon="21.34479">
        <ele>320.163656</ele>
        <time>2022-04-23T08:18:54.485Z</time>
      </trkpt>
      <trkpt lat="42.01081" lon="21.34463">
        <ele>320.410113</ele>
        <time>2022-04-23T08:18:57.511Z</time>
      </trkpt>
      <trkpt lat="42.0108" lon="21.3445">
        <ele>320.598103</ele>
        <time>2022-04-23T08:18:59.511Z</time>
      </trkpt>
      <trkpt lat="42.01079" lon="21.34432">
        <ele>320.909622</ele>
        <time>2022-04-23T08:19:02.496Z</time>
      </trkpt>
      <trkpt lat="42.01078" lon="21.34414">
        <ele>321.259272</ele>
        <time>2022-04-23T08:19:05.497Z</time>
      </trkpt>
      <trkpt lat="42.01077" lon="21.34401">
        <ele>321.506617</ele>
        <time>2022-04-23T08:19:07.504Z</time>
      </trkpt>
      <trkpt lat="42.01076" lon="21.34388">
        <ele>321.756896</ele>
        <time>2022-04-23T08:19:09.513Z</time>
      </trkpt>
      <trkpt lat="42.01075" lon="21.34375">
        <ele>321.999277</ele>
        <time>2022-04-23T08:19:11.520Z</time>
      </trkpt>
      <trkpt lat="42.01073" lon="21.34358">
        <ele>322.334271</ele>
        <time>2022-04-23T08:19:14.506Z</time>
      </trkpt>
      <trkpt lat="42.01071" lon="21.3434">
        <ele>322.670184</ele>
        <time>2022-04-23T08:19:17.556Z</time>
      </trkpt>
      <trkpt lat="42.0107" lon="21.34324">
        <ele>322.986406</ele>
        <time>2022-04-23T08:19:20.509Z</time>
      </trkpt>
      <trkpt lat="42.01067" lon="21.34309">
        <ele>323.279564</ele>
        <time>2022-04-23T08:19:23.504Z</time>
      </trkpt>
      <trkpt lat="42.01066" lon="21.34293">
        <ele>323.586409</ele>
        <time>2022-04-23T08:19:26.557Z</time>
      </trkpt>
      <trkpt lat="42.01063" lon="21.34275">
        <ele>323.931768</ele>
        <time>2022-04-23T08:19:29.503Z</time>
      </trkpt>
      <trkpt lat="42.01061" lon="21.34262">
        <ele>324.174592</ele>
        <time>2022-04-23T08:19:31.513Z</time>
      </trkpt>
      <trkpt lat="42.0106" lon="21.3425">
        <ele>324.415105</ele>
        <time>2022-04-23T08:19:33.510Z</time>
      </trkpt>
      <trkpt lat="42.01059" lon="21.34237">
        <ele>324.645689</ele>
        <time>2022-04-23T08:19:35.508Z</time>
      </trkpt>
      <trkpt lat="42.01057" lon="21.34221">
        <ele>324.970592</ele>
        <time>2022-04-23T08:19:38.540Z</time>
      </trkpt>
      <trkpt lat="42.01056" lon="21.34204">
        <ele>325.279559</ele>
        <time>2022-04-23T08:19:41.522Z</time>
      </trkpt>
      <trkpt lat="42.01054" lon="21.34187">
        <ele>324.780272</ele>
        <time>2022-04-23T08:19:44.496Z</time>
      </trkpt>
      <trkpt lat="42.01052" lon="21.34175">
        <ele>324.425609</ele>
        <time>2022-04-23T08:19:46.515Z</time>
      </trkpt>
      <trkpt lat="42.0105" lon="21.34158">
        <ele>323.913435</ele>
        <time>2022-04-23T08:19:49.525Z</time>
      </trkpt>
      <trkpt lat="42.01047" lon="21.3414">
        <ele>323.405571</ele>
        <time>2022-04-23T08:19:52.517Z</time>
      </trkpt>
      <trkpt lat="42.01045" lon="21.34123">
        <ele>322.900266</ele>
        <time>2022-04-23T08:19:55.497Z</time>
      </trkpt>
      <trkpt lat="42.01043" lon="21.34111">
        <ele>322.548486</ele>
        <time>2022-04-23T08:19:57.503Z</time>
      </trkpt>
      <trkpt lat="42.01042" lon="21.34099">
        <ele>322.197241</ele>
        <time>2022-04-23T08:19:59.502Z</time>
      </trkpt>
      <trkpt lat="42.0104" lon="21.34087">
        <ele>321.836385</ele>
        <time>2022-04-23T08:20:01.502Z</time>
      </trkpt>
      <trkpt lat="42.01039" lon="21.34075">
        <ele>321.485054</ele>
        <time>2022-04-23T08:20:03.500Z</time>
      </trkpt>
      <trkpt lat="42.01037" lon="21.34057">
        <ele>320.977889</ele>
        <time>2022-04-23T08:20:06.496Z</time>
      </trkpt>
      <trkpt lat="42.01035" lon="21.34041">
        <ele>320.497647</ele>
        <time>2022-04-23T08:20:09.514Z</time>
      </trkpt>
      <trkpt lat="42.01033" lon="21.34026">
        <ele>320.059776</ele>
        <time>2022-04-23T08:20:12.496Z</time>
      </trkpt>
      <trkpt lat="42.01031" lon="21.34011">
        <ele>319.605107</ele>
        <time>2022-04-23T08:20:15.510Z</time>
      </trkpt>
      <trkpt lat="42.01029" lon="21.33994">
        <ele>319.127637</ele>
        <time>2022-04-23T08:20:18.514Z</time>
      </trkpt>
      <trkpt lat="42.01026" lon="21.33979">
        <ele>318.672919</ele>
        <time>2022-04-23T08:20:21.504Z</time>
      </trkpt>
      <trkpt lat="42.01025" lon="21.33965">
        <ele>318.29603</ele>
        <time>2022-04-23T08:20:24.496Z</time>
      </trkpt>
      <trkpt lat="42.01035" lon="21.33956">
        <ele>318.322627</ele>
        <time>2022-04-23T08:20:28.510Z</time>
      </trkpt>
      <trkpt lat="42.01046" lon="21.33955">
        <ele>318.347636</ele>
        <time>2022-04-23T08:20:31.504Z</time>
      </trkpt>
      <trkpt lat="42.01058" lon="21.33953">
        <ele>318.373431</ele>
        <time>2022-04-23T08:20:34.516Z</time>
      </trkpt>
      <trkpt lat="42.01066" lon="21.33951">
        <ele>318.393659</ele>
        <time>2022-04-23T08:20:37.521Z</time>
      </trkpt>
      <trkpt lat="42.01077" lon="21.33951">
        <ele>318.417879</ele>
        <time>2022-04-23T08:20:41.509Z</time>
      </trkpt>
      <trkpt lat="42.01087" lon="21.33947">
        <ele>318.4412</ele>
        <time>2022-04-23T08:20:45.512Z</time>
      </trkpt>
      <trkpt lat="42.01093" lon="21.33936">
        <ele>318.464063</ele>
        <time>2022-04-23T08:20:49.510Z</time>
      </trkpt>
      <trkpt lat="42.01093" lon="21.33923">
        <ele>318.485237</ele>
        <time>2022-04-23T08:20:52.490Z</time>
      </trkpt>
      <trkpt lat="42.01091" lon="21.33909">
        <ele>318.507973</ele>
        <time>2022-04-23T08:20:55.591Z</time>
      </trkpt>
      <trkpt lat="42.0109" lon="21.33894">
        <ele>318.533269</ele>
        <time>2022-04-23T08:20:58.521Z</time>
      </trkpt>
      <trkpt lat="42.01089" lon="21.33881">
        <ele>318.555875</ele>
        <time>2022-04-23T08:21:01.501Z</time>
      </trkpt>
      <trkpt lat="42.01087" lon="21.33868">
        <ele>318.578152</ele>
        <time>2022-04-23T08:21:04.520Z</time>
      </trkpt>
      <trkpt lat="42.01085" lon="21.33856">
        <ele>318.598651</ele>
        <time>2022-04-23T08:21:07.501Z</time>
      </trkpt>
      <trkpt lat="42.01085" lon="21.33843">
        <ele>318.620315</ele>
        <time>2022-04-23T08:21:10.503Z</time>
      </trkpt>
      <trkpt lat="42.01083" lon="21.33831">
        <ele>318.640637</ele>
        <time>2022-04-23T08:21:13.514Z</time>
      </trkpt>
      <trkpt lat="42.01081" lon="21.33818">
        <ele>318.661727</ele>
        <time>2022-04-23T08:21:16.505Z</time>
      </trkpt>
      <trkpt lat="42.0108" lon="21.33803">
        <ele>318.688122</ele>
        <time>2022-04-23T08:21:19.493Z</time>
      </trkpt>
      <trkpt lat="42.01079" lon="21.33787">
        <ele>318.806816</ele>
        <time>2022-04-23T08:21:22.513Z</time>
      </trkpt>
      <trkpt lat="42.01078" lon="21.33771">
        <ele>318.973631</ele>
        <time>2022-04-23T08:21:25.502Z</time>
      </trkpt>
      <trkpt lat="42.01077" lon="21.33755">
        <ele>319.1413</ele>
        <time>2022-04-23T08:21:28.533Z</time>
      </trkpt>
      <trkpt lat="42.01076" lon="21.33739">
        <ele>319.303439</ele>
        <time>2022-04-23T08:21:31.511Z</time>
      </trkpt>
      <trkpt lat="42.01074" lon="21.33723">
        <ele>319.471603</ele>
        <time>2022-04-23T08:21:34.511Z</time>
      </trkpt>
      <trkpt lat="42.01072" lon="21.33708">
        <ele>319.63463</ele>
        <time>2022-04-23T08:21:37.587Z</time>
      </trkpt>
      <trkpt lat="42.0107" lon="21.33694">
        <ele>319.788658</ele>
        <time>2022-04-23T08:21:40.516Z</time>
      </trkpt>
      <trkpt lat="42.01069" lon="21.3368">
        <ele>319.933578</ele>
        <time>2022-04-23T08:21:43.487Z</time>
      </trkpt>
      <trkpt lat="42.01067" lon="21.33666">
        <ele>320.080319</ele>
        <time>2022-04-23T08:21:46.537Z</time>
      </trkpt>
      <trkpt lat="42.01065" lon="21.33654">
        <ele>320.212668</ele>
        <time>2022-04-23T08:21:49.532Z</time>
      </trkpt>
      <trkpt lat="42.01065" lon="21.3364">
        <ele>320.351916</ele>
        <time>2022-04-23T08:21:52.507Z</time>
      </trkpt>
      <trkpt lat="42.01064" lon="21.33625">
        <ele>320.512196</ele>
        <time>2022-04-23T08:21:55.519Z</time>
      </trkpt>
      <trkpt lat="42.01063" lon="21.33611">
        <ele>320.664203</ele>
        <time>2022-04-23T08:21:58.511Z</time>
      </trkpt>
      <trkpt lat="42.01062" lon="21.33597">
        <ele>320.80613</ele>
        <time>2022-04-23T08:22:01.509Z</time>
      </trkpt>
      <trkpt lat="42.01061" lon="21.33583">
        <ele>320.957566</ele>
        <time>2022-04-23T08:22:04.516Z</time>
      </trkpt>
      <trkpt lat="42.01061" lon="21.33569">
        <ele>321.102178</ele>
        <time>2022-04-23T08:22:07.537Z</time>
      </trkpt>
      <trkpt lat="42.0106" lon="21.33557">
        <ele>321.229259</ele>
        <time>2022-04-23T08:22:10.530Z</time>
      </trkpt>
      <trkpt lat="42.0106" lon="21.33541">
        <ele>321.425655</ele>
        <time>2022-04-23T08:22:14.558Z</time>
      </trkpt>
      <trkpt lat="42.01058" lon="21.33527">
        <ele>321.606797</ele>
        <time>2022-04-23T08:22:18.512Z</time>
      </trkpt>
      <trkpt lat="42.01056" lon="21.33511">
        <ele>321.807408</ele>
        <time>2022-04-23T08:22:22.505Z</time>
      </trkpt>
      <trkpt lat="42.01055" lon="21.33499">
        <ele>321.964683</ele>
        <time>2022-04-23T08:22:25.555Z</time>
      </trkpt>
      <trkpt lat="42.01053" lon="21.33484">
        <ele>322.151655</ele>
        <time>2022-04-23T08:22:30.513Z</time>
      </trkpt>
      <trkpt lat="42.01051" lon="21.33471">
        <ele>322.316385</ele>
        <time>2022-04-23T08:22:33.533Z</time>
      </trkpt>
      <trkpt lat="42.01049" lon="21.33457">
        <ele>322.497019</ele>
        <time>2022-04-23T08:22:36.500Z</time>
      </trkpt>
      <trkpt lat="42.01048" lon="21.33443">
        <ele>322.683458</ele>
        <time>2022-04-23T08:22:39.507Z</time>
      </trkpt>
      <trkpt lat="42.01046" lon="21.33428">
        <ele>322.870187</ele>
        <time>2022-04-23T08:22:42.521Z</time>
      </trkpt>
      <trkpt lat="42.01043" lon="21.33415">
        <ele>323.039305</ele>
        <time>2022-04-23T08:22:45.509Z</time>
      </trkpt>
      <trkpt lat="42.0104" lon="21.33403">
        <ele>323.198697</ele>
        <time>2022-04-23T08:22:48.507Z</time>
      </trkpt>
      <trkpt lat="42.01038" lon="21.33389">
        <ele>323.381083</ele>
        <time>2022-04-23T08:22:51.502Z</time>
      </trkpt>
      <trkpt lat="42.01037" lon="21.33375">
        <ele>323.562141</ele>
        <time>2022-04-23T08:22:54.496Z</time>
      </trkpt>
      <trkpt lat="42.01034" lon="21.3336">
        <ele>323.750954</ele>
        <time>2022-04-23T08:22:59.503Z</time>
      </trkpt>
      <trkpt lat="42.0103" lon="21.33347">
        <ele>323.934116</ele>
        <time>2022-04-23T08:23:03.504Z</time>
      </trkpt>
      <trkpt lat="42.01027" lon="21.33331">
        <ele>324.140753</ele>
        <time>2022-04-23T08:23:07.522Z</time>
      </trkpt>
      <trkpt lat="42.01025" lon="21.33316">
        <ele>324.298767</ele>
        <time>2022-04-23T08:23:11.501Z</time>
      </trkpt>
      <trkpt lat="42.0102" lon="21.33289">
        <ele>324.446257</ele>
        <time>2022-04-23T08:23:37.543Z</time>
      </trkpt>
      <trkpt lat="42.01017" lon="21.33277">
        <ele>324.512128</ele>
        <time>2022-04-23T08:23:40.525Z</time>
      </trkpt>
      <trkpt lat="42.01013" lon="21.33263">
        <ele>324.587478</ele>
        <time>2022-04-23T08:23:43.512Z</time>
      </trkpt>
      <trkpt lat="42.0101" lon="21.3325">
        <ele>324.656196</ele>
        <time>2022-04-23T08:23:46.504Z</time>
      </trkpt>
      <trkpt lat="42.01009" lon="21.33237">
        <ele>324.724471</ele>
        <time>2022-04-23T08:23:50.511Z</time>
      </trkpt>
      <trkpt lat="42.01007" lon="21.33224">
        <ele>324.794804</ele>
        <time>2022-04-23T08:23:54.543Z</time>
      </trkpt>
      <trkpt lat="42.01004" lon="21.33209">
        <ele>324.87794</ele>
        <time>2022-04-23T08:23:58.494Z</time>
      </trkpt>
      <trkpt lat="42.01001" lon="21.33193">
        <ele>324.962779</ele>
        <time>2022-04-23T08:24:02.506Z</time>
      </trkpt>
      <trkpt lat="42.00999" lon="21.33179">
        <ele>325.036607</ele>
        <time>2022-04-23T08:24:05.488Z</time>
      </trkpt>
      <trkpt lat="42.00996" lon="21.33165">
        <ele>325.109775</ele>
        <time>2022-04-23T08:24:08.517Z</time>
      </trkpt>
      <trkpt lat="42.00991" lon="21.33154">
        <ele>325.177084</ele>
        <time>2022-04-23T08:24:12.491Z</time>
      </trkpt>
      <trkpt lat="42.00988" lon="21.33141">
        <ele>325.250681</ele>
        <time>2022-04-23T08:24:16.552Z</time>
      </trkpt>
      <trkpt lat="42.00988" lon="21.33128">
        <ele>325.314616</ele>
        <time>2022-04-23T08:24:19.521Z</time>
      </trkpt>
      <trkpt lat="42.00985" lon="21.33113">
        <ele>325.39762</ele>
        <time>2022-04-23T08:24:23.496Z</time>
      </trkpt>
      <trkpt lat="42.00982" lon="21.331">
        <ele>325.467243</ele>
        <time>2022-04-23T08:24:26.510Z</time>
      </trkpt>
      <trkpt lat="42.00979" lon="21.33085">
        <ele>325.516688</ele>
        <time>2022-04-23T08:24:29.508Z</time>
      </trkpt>
      <trkpt lat="42.00977" lon="21.33068">
        <ele>325.376427</ele>
        <time>2022-04-23T08:24:32.511Z</time>
      </trkpt>
      <trkpt lat="42.00974" lon="21.33056">
        <ele>325.267629</ele>
        <time>2022-04-23T08:24:35.498Z</time>
      </trkpt>
      <trkpt lat="42.00974" lon="21.33044">
        <ele>325.162127</ele>
        <time>2022-04-23T08:24:39.536Z</time>
      </trkpt>
      <trkpt lat="42.00972" lon="21.33028">
        <ele>325.022509</ele>
        <time>2022-04-23T08:24:43.497Z</time>
      </trkpt>
      <trkpt lat="42.00969" lon="21.33013">
        <ele>324.897276</ele>
        <time>2022-04-23T08:24:46.504Z</time>
      </trkpt>
      <trkpt lat="42.00966" lon="21.32998">
        <ele>324.76702</ele>
        <time>2022-04-23T08:24:49.491Z</time>
      </trkpt>
      <trkpt lat="42.00962" lon="21.32986">
        <ele>324.656154</ele>
        <time>2022-04-23T08:24:52.506Z</time>
      </trkpt>
      <trkpt lat="42.0096" lon="21.32974">
        <ele>324.548474</ele>
        <time>2022-04-23T08:24:55.524Z</time>
      </trkpt>
      <trkpt lat="42.00959" lon="21.32958">
        <ele>324.415567</ele>
        <time>2022-04-23T08:24:59.517Z</time>
      </trkpt>
      <trkpt lat="42.00956" lon="21.32946">
        <ele>324.309615</ele>
        <time>2022-04-23T08:25:02.509Z</time>
      </trkpt>
      <trkpt lat="42.00954" lon="21.32934">
        <ele>324.202571</ele>
        <time>2022-04-23T08:25:05.492Z</time>
      </trkpt>
      <trkpt lat="42.00952" lon="21.32921">
        <ele>324.093889</ele>
        <time>2022-04-23T08:25:08.500Z</time>
      </trkpt>
      <trkpt lat="42.00949" lon="21.32907">
        <ele>323.971729</ele>
        <time>2022-04-23T08:25:12.504Z</time>
      </trkpt>
      <trkpt lat="42.00947" lon="21.32894">
        <ele>323.857304</ele>
        <time>2022-04-23T08:25:16.517Z</time>
      </trkpt>
      <trkpt lat="42.00945" lon="21.3288">
        <ele>323.739247</ele>
        <time>2022-04-23T08:25:21.531Z</time>
      </trkpt>
      <trkpt lat="42.00944" lon="21.32868">
        <ele>323.632176</ele>
        <time>2022-04-23T08:25:26.511Z</time>
      </trkpt>
      <trkpt lat="42.00946" lon="21.32854">
        <ele>323.518081</ele>
        <time>2022-04-23T08:25:30.517Z</time>
      </trkpt>
      <trkpt lat="42.00946" lon="21.32839">
        <ele>323.512417</ele>
        <time>2022-04-23T08:25:35.522Z</time>
      </trkpt>
      <trkpt lat="42.00945" lon="21.32825">
        <ele>323.53439</ele>
        <time>2022-04-23T08:25:39.491Z</time>
      </trkpt>
      <trkpt lat="42.00942" lon="21.32813">
        <ele>323.553464</ele>
        <time>2022-04-23T08:25:42.501Z</time>
      </trkpt>
      <trkpt lat="42.0094" lon="21.32801">
        <ele>323.572895</ele>
        <time>2022-04-23T08:25:45.579Z</time>
      </trkpt>
      <trkpt lat="42.00937" lon="21.32788">
        <ele>323.592805</ele>
        <time>2022-04-23T08:25:48.503Z</time>
      </trkpt>
      <trkpt lat="42.00936" lon="21.32775">
        <ele>323.612434</ele>
        <time>2022-04-23T08:25:51.535Z</time>
      </trkpt>
      <trkpt lat="42.00936" lon="21.32761">
        <ele>323.634166</ele>
        <time>2022-04-23T08:25:54.525Z</time>
      </trkpt>
      <trkpt lat="42.00935" lon="21.32747">
        <ele>323.655605</ele>
        <time>2022-04-23T08:25:57.537Z</time>
      </trkpt>
      <trkpt lat="42.00935" lon="21.3273">
        <ele>323.680412</ele>
        <time>2022-04-23T08:26:00.495Z</time>
      </trkpt>
      <trkpt lat="42.00936" lon="21.32714">
        <ele>323.705081</ele>
        <time>2022-04-23T08:26:03.520Z</time>
      </trkpt>
      <trkpt lat="42.00935" lon="21.32699">
        <ele>323.727875</ele>
        <time>2022-04-23T08:26:06.510Z</time>
      </trkpt>
      <trkpt lat="42.00936" lon="21.32684">
        <ele>323.75067</ele>
        <time>2022-04-23T08:26:09.501Z</time>
      </trkpt>
      <trkpt lat="42.00935" lon="21.3267">
        <ele>323.771814</ele>
        <time>2022-04-23T08:26:12.540Z</time>
      </trkpt>
      <trkpt lat="42.00934" lon="21.32656">
        <ele>323.793033</ele>
        <time>2022-04-23T08:26:15.505Z</time>
      </trkpt>
      <trkpt lat="42.00934" lon="21.32641">
        <ele>323.816891</ele>
        <time>2022-04-23T08:26:18.492Z</time>
      </trkpt>
      <trkpt lat="42.00933" lon="21.32626">
        <ele>323.839401</ele>
        <time>2022-04-23T08:26:21.499Z</time>
      </trkpt>
      <trkpt lat="42.00933" lon="21.32611">
        <ele>323.864346</ele>
        <time>2022-04-23T08:26:24.505Z</time>
      </trkpt>
      <trkpt lat="42.00933" lon="21.32596">
        <ele>323.934035</ele>
        <time>2022-04-23T08:26:27.500Z</time>
      </trkpt>
      <trkpt lat="42.00935" lon="21.32581">
        <ele>324.004166</ele>
        <time>2022-04-23T08:26:30.562Z</time>
      </trkpt>
      <trkpt lat="42.00938" lon="21.32567">
        <ele>324.073322</ele>
        <time>2022-04-23T08:26:33.518Z</time>
      </trkpt>
      <trkpt lat="42.00941" lon="21.32551">
        <ele>324.148068</ele>
        <time>2022-04-23T08:26:36.498Z</time>
      </trkpt>
      <trkpt lat="42.00943" lon="21.32536">
        <ele>324.222567</ele>
        <time>2022-04-23T08:26:39.616Z</time>
      </trkpt>
      <trkpt lat="42.00946" lon="21.32521">
        <ele>324.294752</ele>
        <time>2022-04-23T08:26:42.495Z</time>
      </trkpt>
      <trkpt lat="42.0095" lon="21.32506">
        <ele>324.366116</ele>
        <time>2022-04-23T08:26:45.512Z</time>
      </trkpt>
      <trkpt lat="42.00953" lon="21.32492">
        <ele>324.438112</ele>
        <time>2022-04-23T08:26:48.511Z</time>
      </trkpt>
      <trkpt lat="42.00957" lon="21.32476">
        <ele>324.512869</ele>
        <time>2022-04-23T08:26:51.518Z</time>
      </trkpt>
      <trkpt lat="42.00961" lon="21.32462">
        <ele>324.585422</ele>
        <time>2022-04-23T08:26:54.504Z</time>
      </trkpt>
      <trkpt lat="42.00965" lon="21.32449">
        <ele>324.650376</ele>
        <time>2022-04-23T08:26:57.518Z</time>
      </trkpt>
      <trkpt lat="42.00969" lon="21.32438">
        <ele>324.707195</ele>
        <time>2022-04-23T08:27:00.572Z</time>
      </trkpt>
      <trkpt lat="42.00973" lon="21.32425">
        <ele>324.772295</ele>
        <time>2022-04-23T08:27:03.513Z</time>
      </trkpt>
      <trkpt lat="42.00977" lon="21.32411">
        <ele>324.842089</ele>
        <time>2022-04-23T08:27:06.515Z</time>
      </trkpt>
      <trkpt lat="42.00981" lon="21.32396">
        <ele>324.916615</ele>
        <time>2022-04-23T08:27:09.492Z</time>
      </trkpt>
      <trkpt lat="42.00982" lon="21.32383">
        <ele>324.978663</ele>
        <time>2022-04-23T08:27:11.488Z</time>
      </trkpt>
      <trkpt lat="42.00984" lon="21.32366">
        <ele>325.122353</ele>
        <time>2022-04-23T08:27:14.510Z</time>
      </trkpt>
      <trkpt lat="42.00987" lon="21.32348">
        <ele>325.282139</ele>
        <time>2022-04-23T08:27:17.528Z</time>
      </trkpt>
      <trkpt lat="42.00989" lon="21.32331">
        <ele>325.436607</ele>
        <time>2022-04-23T08:27:20.554Z</time>
      </trkpt>
      <trkpt lat="42.00991" lon="21.32318">
        <ele>325.562361</ele>
        <time>2022-04-23T08:27:23.513Z</time>
      </trkpt>
      <trkpt lat="42.00994" lon="21.32305">
        <ele>325.680462</ele>
        <time>2022-04-23T08:27:26.498Z</time>
      </trkpt>
      <trkpt lat="42.00997" lon="21.32291">
        <ele>325.80834</ele>
        <time>2022-04-23T08:27:29.509Z</time>
      </trkpt>
      <trkpt lat="42.00999" lon="21.32276">
        <ele>325.947225</ele>
        <time>2022-04-23T08:27:32.526Z</time>
      </trkpt>
      <trkpt lat="42.01002" lon="21.32263">
        <ele>326.073579</ele>
        <time>2022-04-23T08:27:35.511Z</time>
      </trkpt>
      <trkpt lat="42.01003" lon="21.3225">
        <ele>326.185911</ele>
        <time>2022-04-23T08:27:38.505Z</time>
      </trkpt>
      <trkpt lat="42.01005" lon="21.32235">
        <ele>326.321696</ele>
        <time>2022-04-23T08:27:41.521Z</time>
      </trkpt>
      <trkpt lat="42.01005" lon="21.32221">
        <ele>326.452421</ele>
        <time>2022-04-23T08:27:44.477Z</time>
      </trkpt>
      <trkpt lat="42.01006" lon="21.32205">
        <ele>326.594887</ele>
        <time>2022-04-23T08:27:47.524Z</time>
      </trkpt>
      <trkpt lat="42.01007" lon="21.32187">
        <ele>326.750248</ele>
        <time>2022-04-23T08:27:50.498Z</time>
      </trkpt>
      <trkpt lat="42.01009" lon="21.3217">
        <ele>326.907082</ele>
        <time>2022-04-23T08:27:53.532Z</time>
      </trkpt>
      <trkpt lat="42.0101" lon="21.32158">
        <ele>327.015846</ele>
        <time>2022-04-23T08:27:55.491Z</time>
      </trkpt>
      <trkpt lat="42.01012" lon="21.3214">
        <ele>327.164604</ele>
        <time>2022-04-23T08:27:58.494Z</time>
      </trkpt>
      <trkpt lat="42.01016" lon="21.32123">
        <ele>327.200476</ele>
        <time>2022-04-23T08:28:01.510Z</time>
      </trkpt>
      <trkpt lat="42.01019" lon="21.32106">
        <ele>327.236862</ele>
        <time>2022-04-23T08:28:04.486Z</time>
      </trkpt>
      <trkpt lat="42.01021" lon="21.32094">
        <ele>327.262639</ele>
        <time>2022-04-23T08:28:06.505Z</time>
      </trkpt>
      <trkpt lat="42.01024" lon="21.32082">
        <ele>327.287744</ele>
        <time>2022-04-23T08:28:08.513Z</time>
      </trkpt>
      <trkpt lat="42.01026" lon="21.3207">
        <ele>327.312521</ele>
        <time>2022-04-23T08:28:10.517Z</time>
      </trkpt>
      <trkpt lat="42.01028" lon="21.32055">
        <ele>327.34448</ele>
        <time>2022-04-23T08:28:13.512Z</time>
      </trkpt>
      <trkpt lat="42.01029" lon="21.3204">
        <ele>327.375569</ele>
        <time>2022-04-23T08:28:17.563Z</time>
      </trkpt>
      <trkpt lat="42.01031" lon="21.32028">
        <ele>327.400742</ele>
        <time>2022-04-23T08:28:20.540Z</time>
      </trkpt>
      <trkpt lat="42.01034" lon="21.32015">
        <ele>327.428035</ele>
        <time>2022-04-23T08:28:23.501Z</time>
      </trkpt>
      <trkpt lat="42.01037" lon="21.31999">
        <ele>327.462104</ele>
        <time>2022-04-23T08:28:26.527Z</time>
      </trkpt>
      <trkpt lat="42.01039" lon="21.31987">
        <ele>327.487081</ele>
        <time>2022-04-23T08:28:28.507Z</time>
      </trkpt>
      <trkpt lat="42.01042" lon="21.31971">
        <ele>327.521812</ele>
        <time>2022-04-23T08:28:31.676Z</time>
      </trkpt>
      <trkpt lat="42.01044" lon="21.31953">
        <ele>327.557372</ele>
        <time>2022-04-23T08:28:34.527Z</time>
      </trkpt>
      <trkpt lat="42.01045" lon="21.31941">
        <ele>327.583092</ele>
        <time>2022-04-23T08:28:36.504Z</time>
      </trkpt>
      <trkpt lat="42.01048" lon="21.31929">
        <ele>327.608329</ele>
        <time>2022-04-23T08:28:38.512Z</time>
      </trkpt>
      <trkpt lat="42.01052" lon="21.31918">
        <ele>327.633288</ele>
        <time>2022-04-23T08:28:40.505Z</time>
      </trkpt>
      <trkpt lat="42.01054" lon="21.31907">
        <ele>327.659829</ele>
        <time>2022-04-23T08:28:42.550Z</time>
      </trkpt>
      <trkpt lat="42.01059" lon="21.3189">
        <ele>327.733774</ele>
        <time>2022-04-23T08:28:45.518Z</time>
      </trkpt>
      <trkpt lat="42.01063" lon="21.31875">
        <ele>327.805901</ele>
        <time>2022-04-23T08:28:48.519Z</time>
      </trkpt>
      <trkpt lat="42.01065" lon="21.31863">
        <ele>327.85813</ele>
        <time>2022-04-23T08:28:50.501Z</time>
      </trkpt>
      <trkpt lat="42.01071" lon="21.31847">
        <ele>327.934825</ele>
        <time>2022-04-23T08:28:53.497Z</time>
      </trkpt>
      <trkpt lat="42.01077" lon="21.31835">
        <ele>327.997855</ele>
        <time>2022-04-23T08:28:56.497Z</time>
      </trkpt>
      <trkpt lat="42.01083" lon="21.31825">
        <ele>328.052305</ele>
        <time>2022-04-23T08:28:59.533Z</time>
      </trkpt>
      <trkpt lat="42.0109" lon="21.31814">
        <ele>328.11672</ele>
        <time>2022-04-23T08:29:02.509Z</time>
      </trkpt>
      <trkpt lat="42.01094" lon="21.31801">
        <ele>328.178059</ele>
        <time>2022-04-23T08:29:05.510Z</time>
      </trkpt>
      <trkpt lat="42.011" lon="21.31786">
        <ele>328.24801</ele>
        <time>2022-04-23T08:29:08.506Z</time>
      </trkpt>
      <trkpt lat="42.01106" lon="21.31771">
        <ele>328.323511</ele>
        <time>2022-04-23T08:29:11.510Z</time>
      </trkpt>
      <trkpt lat="42.01111" lon="21.31756">
        <ele>328.393061</ele>
        <time>2022-04-23T08:29:14.519Z</time>
      </trkpt>
      <trkpt lat="42.01115" lon="21.31739">
        <ele>328.467523</ele>
        <time>2022-04-23T08:29:17.503Z</time>
      </trkpt>
      <trkpt lat="42.01117" lon="21.31722">
        <ele>328.543723</ele>
        <time>2022-04-23T08:29:20.585Z</time>
      </trkpt>
      <trkpt lat="42.01118" lon="21.31705">
        <ele>328.616902</ele>
        <time>2022-04-23T08:29:23.514Z</time>
      </trkpt>
      <trkpt lat="42.01118" lon="21.31689">
        <ele>328.687281</ele>
        <time>2022-04-23T08:29:26.540Z</time>
      </trkpt>
      <trkpt lat="42.01116" lon="21.31674">
        <ele>329.01366</ele>
        <time>2022-04-23T08:29:29.512Z</time>
      </trkpt>
      <trkpt lat="42.01115" lon="21.31657">
        <ele>329.420846</ele>
        <time>2022-04-23T08:29:32.501Z</time>
      </trkpt>
      <trkpt lat="42.01114" lon="21.3164">
        <ele>329.850886</ele>
        <time>2022-04-23T08:29:35.514Z</time>
      </trkpt>
      <trkpt lat="42.01112" lon="21.31623">
        <ele>330.282185</ele>
        <time>2022-04-23T08:29:38.518Z</time>
      </trkpt>
      <trkpt lat="42.01111" lon="21.31606">
        <ele>330.715288</ele>
        <time>2022-04-23T08:29:41.508Z</time>
      </trkpt>
      <trkpt lat="42.01113" lon="21.31588">
        <ele>331.154393</ele>
        <time>2022-04-23T08:29:44.503Z</time>
      </trkpt>
      <trkpt lat="42.01115" lon="21.31571">
        <ele>331.579704</ele>
        <time>2022-04-23T08:29:47.518Z</time>
      </trkpt>
      <trkpt lat="42.01115" lon="21.31558">
        <ele>331.903817</ele>
        <time>2022-04-23T08:29:49.533Z</time>
      </trkpt>
      <trkpt lat="42.01115" lon="21.31542">
        <ele>332.325127</ele>
        <time>2022-04-23T08:29:52.514Z</time>
      </trkpt>
      <trkpt lat="42.01116" lon="21.31525">
        <ele>332.749354</ele>
        <time>2022-04-23T08:29:55.505Z</time>
      </trkpt>
      <trkpt lat="42.01115" lon="21.31512">
        <ele>333.053918</ele>
        <time>2022-04-23T08:29:57.508Z</time>
      </trkpt>
      <trkpt lat="42.01115" lon="21.31495">
        <ele>333.485615</ele>
        <time>2022-04-23T08:30:00.523Z</time>
      </trkpt>
      <trkpt lat="42.01113" lon="21.31478">
        <ele>333.913645</ele>
        <time>2022-04-23T08:30:03.509Z</time>
      </trkpt>
      <trkpt lat="42.01113" lon="21.31461">
        <ele>334.345081</ele>
        <time>2022-04-23T08:30:06.504Z</time>
      </trkpt>
      <trkpt lat="42.01113" lon="21.31445">
        <ele>334.73835</ele>
        <time>2022-04-23T08:30:09.505Z</time>
      </trkpt>
      <trkpt lat="42.01111" lon="21.31431">
        <ele>334.857678</ele>
        <time>2022-04-23T08:30:12.511Z</time>
      </trkpt>
      <trkpt lat="42.01111" lon="21.31418">
        <ele>334.967889</ele>
        <time>2022-04-23T08:30:15.498Z</time>
      </trkpt>
      <trkpt lat="42.0111" lon="21.31403">
        <ele>335.100123</ele>
        <time>2022-04-23T08:30:19.511Z</time>
      </trkpt>
      <trkpt lat="42.01111" lon="21.31389">
        <ele>335.228013</ele>
        <time>2022-04-23T08:30:23.492Z</time>
      </trkpt>
      <trkpt lat="42.01111" lon="21.31376">
        <ele>335.342303</ele>
        <time>2022-04-23T08:30:27.514Z</time>
      </trkpt>
      <trkpt lat="42.0111" lon="21.31361">
        <ele>335.468259</ele>
        <time>2022-04-23T08:30:31.534Z</time>
      </trkpt>
      <trkpt lat="42.0111" lon="21.31349">
        <ele>335.573802</ele>
        <time>2022-04-23T08:30:34.515Z</time>
      </trkpt>
      <trkpt lat="42.01109" lon="21.31335">
        <ele>335.697752</ele>
        <time>2022-04-23T08:30:38.491Z</time>
      </trkpt>
      <trkpt lat="42.01109" lon="21.31321">
        <ele>335.820072</ele>
        <time>2022-04-23T08:30:42.503Z</time>
      </trkpt>
      <trkpt lat="42.01107" lon="21.31308">
        <ele>335.932632</ele>
        <time>2022-04-23T08:30:46.499Z</time>
      </trkpt>
      <trkpt lat="42.01106" lon="21.31296">
        <ele>336.041021</ele>
        <time>2022-04-23T08:30:50.498Z</time>
      </trkpt>
      <trkpt lat="42.01107" lon="21.31281">
        <ele>336.167847</ele>
        <time>2022-04-23T08:30:55.520Z</time>
      </trkpt>
      <trkpt lat="42.01109" lon="21.31267">
        <ele>336.296254</ele>
        <time>2022-04-23T08:31:00.513Z</time>
      </trkpt>
      <trkpt lat="42.01111" lon="21.31252">
        <ele>336.42984</ele>
        <time>2022-04-23T08:31:04.504Z</time>
      </trkpt>
      <trkpt lat="42.01111" lon="21.31236">
        <ele>336.563714</ele>
        <time>2022-04-23T08:31:07.504Z</time>
      </trkpt>
      <trkpt lat="42.01113" lon="21.3122">
        <ele>336.709192</ele>
        <time>2022-04-23T08:31:10.540Z</time>
      </trkpt>
      <trkpt lat="42.01114" lon="21.31202">
        <ele>336.807669</ele>
        <time>2022-04-23T08:31:13.500Z</time>
      </trkpt>
      <trkpt lat="42.01115" lon="21.31189">
        <ele>336.598465</ele>
        <time>2022-04-23T08:31:15.516Z</time>
      </trkpt>
      <trkpt lat="42.01116" lon="21.31176">
        <ele>336.394943</ele>
        <time>2022-04-23T08:31:17.580Z</time>
      </trkpt>
      <trkpt lat="42.01116" lon="21.31162">
        <ele>336.179799</ele>
        <time>2022-04-23T08:31:19.505Z</time>
      </trkpt>
      <trkpt lat="42.01117" lon="21.31149">
        <ele>335.962692</ele>
        <time>2022-04-23T08:31:21.513Z</time>
      </trkpt>
      <trkpt lat="42.01118" lon="21.31132">
        <ele>335.693366</ele>
        <time>2022-04-23T08:31:24.500Z</time>
      </trkpt>
      <trkpt lat="42.01119" lon="21.31116">
        <ele>335.434104</ele>
        <time>2022-04-23T08:31:27.509Z</time>
      </trkpt>
      <trkpt lat="42.0112" lon="21.31103">
        <ele>335.231713</ele>
        <time>2022-04-23T08:31:29.496Z</time>
      </trkpt>
      <trkpt lat="42.01124" lon="21.3109">
        <ele>335.011316</ele>
        <time>2022-04-23T08:31:31.513Z</time>
      </trkpt>
      <trkpt lat="42.01129" lon="21.31076">
        <ele>334.761139</ele>
        <time>2022-04-23T08:31:33.505Z</time>
      </trkpt>
      <trkpt lat="42.01135" lon="21.31061">
        <ele>334.48918</ele>
        <time>2022-04-23T08:31:35.500Z</time>
      </trkpt>
      <trkpt lat="42.01141" lon="21.31047">
        <ele>334.245267</ele>
        <time>2022-04-23T08:31:37.516Z</time>
      </trkpt>
      <trkpt lat="42.01146" lon="21.31035">
        <ele>334.017328</ele>
        <time>2022-04-23T08:31:39.516Z</time>
      </trkpt>
      <trkpt lat="42.0115" lon="21.31023">
        <ele>333.80282</ele>
        <time>2022-04-23T08:31:41.493Z</time>
      </trkpt>
      <trkpt lat="42.01155" lon="21.31006">
        <ele>333.52358</ele>
        <time>2022-04-23T08:31:44.495Z</time>
      </trkpt>
      <trkpt lat="42.01156" lon="21.3099">
        <ele>333.2566</ele>
        <time>2022-04-23T08:31:47.558Z</time>
      </trkpt>
      <trkpt lat="42.01156" lon="21.30975">
        <ele>333.029419</ele>
        <time>2022-04-23T08:31:50.501Z</time>
      </trkpt>
      <trkpt lat="42.01155" lon="21.30962">
        <ele>332.887078</ele>
        <time>2022-04-23T08:31:53.590Z</time>
      </trkpt>
      <trkpt lat="42.01154" lon="21.30947">
        <ele>332.746758</ele>
        <time>2022-04-23T08:31:56.487Z</time>
      </trkpt>
      <trkpt lat="42.01152" lon="21.30933">
        <ele>332.61124</ele>
        <time>2022-04-23T08:31:59.499Z</time>
      </trkpt>
      <trkpt lat="42.0115" lon="21.30917">
        <ele>332.459163</ele>
        <time>2022-04-23T08:32:02.492Z</time>
      </trkpt>
      <trkpt lat="42.01149" lon="21.309">
        <ele>332.292718</ele>
        <time>2022-04-23T08:32:05.536Z</time>
      </trkpt>
      <trkpt lat="42.01148" lon="21.30887">
        <ele>332.174618</ele>
        <time>2022-04-23T08:32:07.515Z</time>
      </trkpt>
      <trkpt lat="42.01148" lon="21.3087">
        <ele>332.0095</ele>
        <time>2022-04-23T08:32:10.511Z</time>
      </trkpt>
      <trkpt lat="42.0115" lon="21.30853">
        <ele>331.851442</ele>
        <time>2022-04-23T08:32:13.489Z</time>
      </trkpt>
      <trkpt lat="42.01153" lon="21.30837">
        <ele>331.692329</ele>
        <time>2022-04-23T08:32:16.506Z</time>
      </trkpt>
      <trkpt lat="42.01155" lon="21.3082">
        <ele>331.527896</ele>
        <time>2022-04-23T08:32:19.504Z</time>
      </trkpt>
      <trkpt lat="42.01157" lon="21.30803">
        <ele>331.367902</ele>
        <time>2022-04-23T08:32:22.497Z</time>
      </trkpt>
      <trkpt lat="42.01159" lon="21.30791">
        <ele>331.252138</ele>
        <time>2022-04-23T08:32:24.502Z</time>
      </trkpt>
      <trkpt lat="42.01161" lon="21.30776">
        <ele>331.10027</ele>
        <time>2022-04-23T08:32:27.531Z</time>
      </trkpt>
      <trkpt lat="42.01164" lon="21.30761">
        <ele>330.95352</ele>
        <time>2022-04-23T08:32:30.509Z</time>
      </trkpt>
      <trkpt lat="42.01167" lon="21.30744">
        <ele>330.792551</ele>
        <time>2022-04-23T08:32:33.492Z</time>
      </trkpt>
      <trkpt lat="42.01168" lon="21.30731">
        <ele>330.78723</ele>
        <time>2022-04-23T08:32:35.512Z</time>
      </trkpt>
      <trkpt lat="42.01169" lon="21.30719">
        <ele>331.069886</ele>
        <time>2022-04-23T08:32:37.509Z</time>
      </trkpt>
      <trkpt lat="42.01171" lon="21.30703">
        <ele>331.439752</ele>
        <time>2022-04-23T08:32:40.494Z</time>
      </trkpt>
      <trkpt lat="42.01172" lon="21.30691">
        <ele>331.727774</ele>
        <time>2022-04-23T08:32:43.517Z</time>
      </trkpt>
      <trkpt lat="42.01173" lon="21.30677">
        <ele>332.037174</ele>
        <time>2022-04-23T08:32:46.505Z</time>
      </trkpt>
      <trkpt lat="42.01176" lon="21.30664">
        <ele>332.360944</ele>
        <time>2022-04-23T08:32:49.510Z</time>
      </trkpt>
      <trkpt lat="42.01179" lon="21.30651">
        <ele>332.659494</ele>
        <time>2022-04-23T08:32:52.507Z</time>
      </trkpt>
      <trkpt lat="42.0118" lon="21.30637">
        <ele>332.977993</ele>
        <time>2022-04-23T08:32:56.557Z</time>
      </trkpt>
      <trkpt lat="42.01182" lon="21.30625">
        <ele>333.262436</ele>
        <time>2022-04-23T08:33:00.491Z</time>
      </trkpt>
      <trkpt lat="42.01184" lon="21.30613">
        <ele>333.545106</ele>
        <time>2022-04-23T08:33:04.521Z</time>
      </trkpt>
      <trkpt lat="42.01185" lon="21.30601">
        <ele>333.837273</ele>
        <time>2022-04-23T08:33:08.503Z</time>
      </trkpt>
      <trkpt lat="42.01187" lon="21.30586">
        <ele>334.17766</ele>
        <time>2022-04-23T08:33:13.506Z</time>
      </trkpt>
      <trkpt lat="42.01186" lon="21.30571">
        <ele>334.513684</ele>
        <time>2022-04-23T08:33:19.499Z</time>
      </trkpt>
      <trkpt lat="42.01188" lon="21.30558">
        <ele>334.82258</ele>
        <time>2022-04-23T08:33:24.512Z</time>
      </trkpt>
      <trkpt lat="42.01191" lon="21.30546">
        <ele>335.116529</ele>
        <time>2022-04-23T08:33:28.500Z</time>
      </trkpt>
      <trkpt lat="42.01193" lon="21.30532">
        <ele>335.44894</ele>
        <time>2022-04-23T08:33:32.516Z</time>
      </trkpt>
      <trkpt lat="42.01195" lon="21.3052">
        <ele>335.735015</ele>
        <time>2022-04-23T08:33:35.526Z</time>
      </trkpt>
      <trkpt lat="42.01197" lon="21.30507">
        <ele>336.036502</ele>
        <time>2022-04-23T08:33:38.506Z</time>
      </trkpt>
      <trkpt lat="42.01202" lon="21.30494">
        <ele>336.270079</ele>
        <time>2022-04-23T08:33:41.517Z</time>
      </trkpt>
      <trkpt lat="42.01209" lon="21.30479">
        <ele>336.267478</ele>
        <time>2022-04-23T08:33:44.516Z</time>
      </trkpt>
      <trkpt lat="42.01215" lon="21.30469">
        <ele>336.265736</ele>
        <time>2022-04-23T08:33:46.504Z</time>
      </trkpt>
      <trkpt lat="42.01222" lon="21.30456">
        <ele>336.263458</ele>
        <time>2022-04-23T08:33:49.506Z</time>
      </trkpt>
      <trkpt lat="42.01227" lon="21.30442">
        <ele>336.261164</ele>
        <time>2022-04-23T08:33:52.506Z</time>
      </trkpt>
      <trkpt lat="42.0123" lon="21.30428">
        <ele>336.259124</ele>
        <time>2022-04-23T08:33:55.503Z</time>
      </trkpt>
      <trkpt lat="42.01232" lon="21.30415">
        <ele>336.257318</ele>
        <time>2022-04-23T08:33:58.495Z</time>
      </trkpt>
      <trkpt lat="42.01234" lon="21.30403">
        <ele>336.255466</ele>
        <time>2022-04-23T08:34:01.504Z</time>
      </trkpt>
      <trkpt lat="42.01236" lon="21.30389">
        <ele>336.253523</ele>
        <time>2022-04-23T08:34:04.512Z</time>
      </trkpt>
      <trkpt lat="42.01238" lon="21.30377">
        <ele>336.251746</ele>
        <time>2022-04-23T08:34:07.522Z</time>
      </trkpt>
      <trkpt lat="42.0124" lon="21.30362">
        <ele>336.249596</ele>
        <time>2022-04-23T08:34:11.508Z</time>
      </trkpt>
      <trkpt lat="42.01243" lon="21.30347">
        <ele>336.247424</ele>
        <time>2022-04-23T08:34:15.512Z</time>
      </trkpt>
      <trkpt lat="42.01245" lon="21.30334">
        <ele>336.245449</ele>
        <time>2022-04-23T08:34:19.517Z</time>
      </trkpt>
      <trkpt lat="42.01249" lon="21.30322">
        <ele>336.243646</ele>
        <time>2022-04-23T08:34:23.515Z</time>
      </trkpt>
      <trkpt lat="42.01252" lon="21.30307">
        <ele>336.241402</ele>
        <time>2022-04-23T08:34:27.522Z</time>
      </trkpt>
      <trkpt lat="42.01256" lon="21.3029">
        <ele>336.238941</ele>
        <time>2022-04-23T08:34:30.549Z</time>
      </trkpt>
      <trkpt lat="42.0126" lon="21.30274">
        <ele>336.236498</ele>
        <time>2022-04-23T08:34:33.526Z</time>
      </trkpt>
      <trkpt lat="42.01262" lon="21.3026">
        <ele>336.169958</ele>
        <time>2022-04-23T08:34:36.546Z</time>
      </trkpt>
      <trkpt lat="42.01267" lon="21.30245">
        <ele>336.086676</ele>
        <time>2022-04-23T08:34:39.503Z</time>
      </trkpt>
      <trkpt lat="42.0127" lon="21.30229">
        <ele>336.003587</ele>
        <time>2022-04-23T08:34:42.549Z</time>
      </trkpt>
      <trkpt lat="42.01273" lon="21.30213">
        <ele>335.917929</ele>
        <time>2022-04-23T08:34:45.520Z</time>
      </trkpt>
      <trkpt lat="42.01277" lon="21.30198">
        <ele>335.835861</ele>
        <time>2022-04-23T08:34:48.552Z</time>
      </trkpt>
      <trkpt lat="42.0128" lon="21.30183">
        <ele>335.754379</ele>
        <time>2022-04-23T08:34:51.513Z</time>
      </trkpt>
      <trkpt lat="42.01284" lon="21.30168">
        <ele>335.678258</ele>
        <time>2022-04-23T08:34:54.509Z</time>
      </trkpt>
      <trkpt lat="42.01287" lon="21.30155">
        <ele>335.604438</ele>
        <time>2022-04-23T08:34:57.516Z</time>
      </trkpt>
      <trkpt lat="42.01289" lon="21.30142">
        <ele>335.535513</ele>
        <time>2022-04-23T08:35:00.509Z</time>
      </trkpt>
      <trkpt lat="42.01292" lon="21.3013">
        <ele>335.471312</ele>
        <time>2022-04-23T08:35:03.510Z</time>
      </trkpt>
      <trkpt lat="42.01295" lon="21.30116">
        <ele>335.397132</ele>
        <time>2022-04-23T08:35:06.507Z</time>
      </trkpt>
      <trkpt lat="42.01298" lon="21.30104">
        <ele>335.332562</ele>
        <time>2022-04-23T08:35:08.503Z</time>
      </trkpt>
      <trkpt lat="42.01302" lon="21.30091">
        <ele>335.26438</ele>
        <time>2022-04-23T08:35:10.532Z</time>
      </trkpt>
      <trkpt lat="42.01304" lon="21.30078">
        <ele>335.191625</ele>
        <time>2022-04-23T08:35:12.506Z</time>
      </trkpt>
      <trkpt lat="42.01308" lon="21.30063">
        <ele>335.114047</ele>
        <time>2022-04-23T08:35:14.494Z</time>
      </trkpt>
      <trkpt lat="42.01312" lon="21.30049">
        <ele>335.035808</ele>
        <time>2022-04-23T08:35:16.504Z</time>
      </trkpt>
      <trkpt lat="42.01316" lon="21.30036">
        <ele>335.192366</ele>
        <time>2022-04-23T08:35:18.510Z</time>
      </trkpt>
      <trkpt lat="42.01318" lon="21.30024">
        <ele>335.560746</ele>
        <time>2022-04-23T08:35:20.514Z</time>
      </trkpt>
      <trkpt lat="42.0132" lon="21.30007">
        <ele>336.051006</ele>
        <time>2022-04-23T08:35:23.513Z</time>
      </trkpt>
      <trkpt lat="42.01322" lon="21.29995">
        <ele>336.429136</ele>
        <time>2022-04-23T08:35:26.517Z</time>
      </trkpt>
      <trkpt lat="42.01322" lon="21.29982">
        <ele>336.81872</ele>
        <time>2022-04-23T08:35:29.508Z</time>
      </trkpt>
      <trkpt lat="42.01322" lon="21.29969">
        <ele>337.191059</ele>
        <time>2022-04-23T08:35:32.541Z</time>
      </trkpt>
      <trkpt lat="42.01324" lon="21.29956">
        <ele>337.576244</ele>
        <time>2022-04-23T08:35:36.503Z</time>
      </trkpt>
      <trkpt lat="42.01326" lon="21.29944">
        <ele>337.964245</ele>
        <time>2022-04-23T08:35:42.506Z</time>
      </trkpt>
      <trkpt lat="42.01329" lon="21.29932">
        <ele>338.333481</ele>
        <time>2022-04-23T08:35:48.520Z</time>
      </trkpt>
      <trkpt lat="42.01334" lon="21.29919">
        <ele>338.751735</ele>
        <time>2022-04-23T08:35:54.489Z</time>
      </trkpt>
      <trkpt lat="42.01339" lon="21.29909">
        <ele>339.114974</ele>
        <time>2022-04-23T08:36:00.490Z</time>
      </trkpt>
      <trkpt lat="42.01345" lon="21.29899">
        <ele>339.494418</ele>
        <time>2022-04-23T08:36:06.522Z</time>
      </trkpt>
      <trkpt lat="42.01352" lon="21.2989">
        <ele>339.898401</ele>
        <time>2022-04-23T08:36:12.510Z</time>
      </trkpt>
      <trkpt lat="42.01359" lon="21.29883">
        <ele>340.264024</ele>
        <time>2022-04-23T08:36:17.530Z</time>
      </trkpt>
      <trkpt lat="42.01367" lon="21.29875">
        <ele>340.656006</ele>
        <time>2022-04-23T08:36:24.500Z</time>
      </trkpt>
      <trkpt lat="42.01375" lon="21.29868">
        <ele>341.036092</ele>
        <time>2022-04-23T08:36:30.498Z</time>
      </trkpt>
      <trkpt lat="42.01383" lon="21.29862">
        <ele>341.408088</ele>
        <time>2022-04-23T08:36:34.500Z</time>
      </trkpt>
      <trkpt lat="42.01391" lon="21.29855">
        <ele>341.778907</ele>
        <time>2022-04-23T08:36:37.514Z</time>
      </trkpt>
      <trkpt lat="42.01399" lon="21.29848">
        <ele>342.151803</ele>
        <time>2022-04-23T08:36:39.525Z</time>
      </trkpt>
      <trkpt lat="42.01409" lon="21.29839">
        <ele>342.371921</ele>
        <time>2022-04-23T08:36:41.493Z</time>
      </trkpt>
      <trkpt lat="42.01419" lon="21.29829">
        <ele>342.580723</ele>
        <time>2022-04-23T08:36:43.504Z</time>
      </trkpt>
      <trkpt lat="42.01427" lon="21.29816">
        <ele>342.787727</ele>
        <time>2022-04-23T08:36:45.516Z</time>
      </trkpt>
      <trkpt lat="42.01433" lon="21.29802">
        <ele>342.994901</ele>
        <time>2022-04-23T08:36:47.524Z</time>
      </trkpt>
      <trkpt lat="42.01439" lon="21.2979">
        <ele>343.171262</ele>
        <time>2022-04-23T08:36:49.513Z</time>
      </trkpt>
      <trkpt lat="42.01447" lon="21.29777">
        <ele>343.36535</ele>
        <time>2022-04-23T08:36:52.503Z</time>
      </trkpt>
      <trkpt lat="42.01455" lon="21.29766">
        <ele>343.55721</ele>
        <time>2022-04-23T08:36:55.521Z</time>
      </trkpt>
      <trkpt lat="42.01462" lon="21.29755">
        <ele>343.742544</ele>
        <time>2022-04-23T08:36:57.508Z</time>
      </trkpt>
      <trkpt lat="42.01472" lon="21.2974">
        <ele>343.983136</ele>
        <time>2022-04-23T08:36:59.501Z</time>
      </trkpt>
      <trkpt lat="42.01483" lon="21.29725">
        <ele>344.240164</ele>
        <time>2022-04-23T08:37:01.486Z</time>
      </trkpt>
      <trkpt lat="42.01494" lon="21.2971">
        <ele>344.497464</ele>
        <time>2022-04-23T08:37:03.498Z</time>
      </trkpt>
      <trkpt lat="42.01504" lon="21.29696">
        <ele>344.736798</ele>
        <time>2022-04-23T08:37:05.512Z</time>
      </trkpt>
      <trkpt lat="42.01512" lon="21.29684">
        <ele>344.940046</ele>
        <time>2022-04-23T08:37:07.495Z</time>
      </trkpt>
      <trkpt lat="42.01518" lon="21.2967">
        <ele>345.140418</ele>
        <time>2022-04-23T08:37:09.510Z</time>
      </trkpt>
      <trkpt lat="42.01523" lon="21.29656">
        <ele>345.037174</ele>
        <time>2022-04-23T08:37:11.493Z</time>
      </trkpt>
      <trkpt lat="42.01528" lon="21.29645">
        <ele>344.916486</ele>
        <time>2022-04-23T08:37:13.513Z</time>
      </trkpt>
      <trkpt lat="42.01533" lon="21.29631">
        <ele>344.777007</ele>
        <time>2022-04-23T08:37:16.527Z</time>
      </trkpt>
      <trkpt lat="42.01536" lon="21.29618">
        <ele>344.642697</ele>
        <time>2022-04-23T08:37:19.510Z</time>
      </trkpt>
      <trkpt lat="42.01539" lon="21.29605">
        <ele>344.519161</ele>
        <time>2022-04-23T08:37:22.499Z</time>
      </trkpt>
      <trkpt lat="42.01542" lon="21.29593">
        <ele>344.403216</ele>
        <time>2022-04-23T08:37:25.518Z</time>
      </trkpt>
      <trkpt lat="42.01545" lon="21.29582">
        <ele>344.28809</ele>
        <time>2022-04-23T08:37:28.506Z</time>
      </trkpt>
      <trkpt lat="42.01549" lon="21.29568">
        <ele>344.148042</ele>
        <time>2022-04-23T08:37:31.511Z</time>
      </trkpt>
      <trkpt lat="42.01552" lon="21.29553">
        <ele>344.001881</ele>
        <time>2022-04-23T08:37:34.493Z</time>
      </trkpt>
      <trkpt lat="42.01557" lon="21.29538">
        <ele>343.85051</ele>
        <time>2022-04-23T08:37:37.542Z</time>
      </trkpt>
      <trkpt lat="42.01561" lon="21.29523">
        <ele>343.7022</ele>
        <time>2022-04-23T08:37:40.550Z</time>
      </trkpt>
      <trkpt lat="42.01565" lon="21.29507">
        <ele>343.543341</ele>
        <time>2022-04-23T08:37:43.521Z</time>
      </trkpt>
      <trkpt lat="42.0157" lon="21.2949">
        <ele>343.376219</ele>
        <time>2022-04-23T08:37:46.503Z</time>
      </trkpt>
      <trkpt lat="42.01575" lon="21.29474">
        <ele>343.210822</ele>
        <time>2022-04-23T08:37:49.524Z</time>
      </trkpt>
      <trkpt lat="42.01579" lon="21.29458">
        <ele>343.059006</ele>
        <time>2022-04-23T08:37:52.534Z</time>
      </trkpt>
      <trkpt lat="42.01583" lon="21.29443">
        <ele>342.909806</ele>
        <time>2022-04-23T08:37:55.517Z</time>
      </trkpt>
      <trkpt lat="42.01587" lon="21.29429">
        <ele>343.110305</ele>
        <time>2022-04-23T08:37:58.505Z</time>
      </trkpt>
      <trkpt lat="42.0159" lon="21.29417">
        <ele>343.301846</ele>
        <time>2022-04-23T08:38:01.493Z</time>
      </trkpt>
      <trkpt lat="42.01592" lon="21.29403">
        <ele>343.51436</ele>
        <time>2022-04-23T08:38:04.498Z</time>
      </trkpt>
      <trkpt lat="42.01594" lon="21.29389">
        <ele>343.724373</ele>
        <time>2022-04-23T08:38:07.546Z</time>
      </trkpt>
      <trkpt lat="42.01596" lon="21.29375">
        <ele>343.93731</ele>
        <time>2022-04-23T08:38:10.514Z</time>
      </trkpt>
      <trkpt lat="42.01596" lon="21.29362">
        <ele>344.128662</ele>
        <time>2022-04-23T08:38:13.520Z</time>
      </trkpt>
      <trkpt lat="42.01596" lon="21.29349">
        <ele>344.324082</ele>
        <time>2022-04-23T08:38:16.535Z</time>
      </trkpt>
      <trkpt lat="42.01597" lon="21.29335">
        <ele>344.521797</ele>
        <time>2022-04-23T08:38:19.500Z</time>
      </trkpt>
      <trkpt lat="42.01598" lon="21.2932">
        <ele>344.747389</ele>
        <time>2022-04-23T08:38:22.514Z</time>
      </trkpt>
      <trkpt lat="42.01599" lon="21.29306">
        <ele>344.958969</ele>
        <time>2022-04-23T08:38:25.495Z</time>
      </trkpt>
      <trkpt lat="42.01601" lon="21.29293">
        <ele>345.150588</ele>
        <time>2022-04-23T08:38:28.493Z</time>
      </trkpt>
      <trkpt lat="42.01604" lon="21.29282">
        <ele>345.331156</ele>
        <time>2022-04-23T08:38:31.511Z</time>
      </trkpt>
      <trkpt lat="42.01608" lon="21.29267">
        <ele>345.565779</ele>
        <time>2022-04-23T08:38:35.518Z</time>
      </trkpt>
      <trkpt lat="42.01611" lon="21.29255">
        <ele>345.746573</ele>
        <time>2022-04-23T08:38:38.525Z</time>
      </trkpt>
      <trkpt lat="42.01615" lon="21.29241">
        <ele>345.972114</ele>
        <time>2022-04-23T08:38:42.514Z</time>
      </trkpt>
      <trkpt lat="42.01617" lon="21.29229">
        <ele>346.158953</ele>
        <time>2022-04-23T08:38:45.524Z</time>
      </trkpt>
      <trkpt lat="42.01619" lon="21.29216">
        <ele>346.355827</ele>
        <time>2022-04-23T08:38:48.503Z</time>
      </trkpt>
      <trkpt lat="42.01621" lon="21.29201">
        <ele>346.482823</ele>
        <time>2022-04-23T08:38:52.500Z</time>
      </trkpt>
      <trkpt lat="42.01623" lon="21.29185">
        <ele>346.475179</ele>
        <time>2022-04-23T08:38:56.513Z</time>
      </trkpt>
      <trkpt lat="42.01624" lon="21.29169">
        <ele>346.467731</ele>
        <time>2022-04-23T08:39:00.518Z</time>
      </trkpt>
      <trkpt lat="42.01625" lon="21.29153">
        <ele>346.460248</ele>
        <time>2022-04-23T08:39:04.510Z</time>
      </trkpt>
      <trkpt lat="42.01627" lon="21.2914">
        <ele>346.453775</ele>
        <time>2022-04-23T08:39:07.533Z</time>
      </trkpt>
      <trkpt lat="42.01629" lon="21.29126">
        <ele>346.447112</ele>
        <time>2022-04-23T08:39:10.510Z</time>
      </trkpt>
      <trkpt lat="42.01633" lon="21.29112">
        <ele>346.439974</ele>
        <time>2022-04-23T08:39:13.510Z</time>
      </trkpt>
      <trkpt lat="42.01637" lon="21.29099">
        <ele>346.433204</ele>
        <time>2022-04-23T08:39:16.525Z</time>
      </trkpt>
      <trkpt lat="42.01642" lon="21.29087">
        <ele>346.427097</ele>
        <time>2022-04-23T08:39:19.531Z</time>
      </trkpt>
      <trkpt lat="42.01646" lon="21.29076">
        <ele>346.420944</ele>
        <time>2022-04-23T08:39:22.492Z</time>
      </trkpt>
      <trkpt lat="42.01651" lon="21.29065">
        <ele>346.41514</ele>
        <time>2022-04-23T08:39:25.515Z</time>
      </trkpt>
      <trkpt lat="42.01657" lon="21.29052">
        <ele>346.407749</ele>
        <time>2022-04-23T08:39:29.525Z</time>
      </trkpt>
      <trkpt lat="42.01664" lon="21.2904">
        <ele>346.400628</ele>
        <time>2022-04-23T08:39:33.508Z</time>
      </trkpt>
      <trkpt lat="42.01672" lon="21.29032">
        <ele>346.394342</ele>
        <time>2022-04-23T08:39:36.503Z</time>
      </trkpt>
      <trkpt lat="42.01679" lon="21.29023">
        <ele>346.388185</ele>
        <time>2022-04-23T08:39:39.515Z</time>
      </trkpt>
      <trkpt lat="42.01687" lon="21.29015">
        <ele>346.382125</ele>
        <time>2022-04-23T08:39:42.494Z</time>
      </trkpt>
      <trkpt lat="42.01694" lon="21.29008">
        <ele>346.376228</ele>
        <time>2022-04-23T08:39:45.511Z</time>
      </trkpt>
      <trkpt lat="42.01701" lon="21.28999">
        <ele>346.389654</ele>
        <time>2022-04-23T08:39:48.490Z</time>
      </trkpt>
      <trkpt lat="42.01708" lon="21.2899">
        <ele>346.455503</ele>
        <time>2022-04-23T08:39:51.525Z</time>
      </trkpt>
      <trkpt lat="42.01717" lon="21.28978">
        <ele>346.539897</ele>
        <time>2022-04-23T08:39:55.505Z</time>
      </trkpt>
      <trkpt lat="42.01725" lon="21.28968">
        <ele>346.616545</ele>
        <time>2022-04-23T08:39:59.545Z</time>
      </trkpt>
      <trkpt lat="42.01734" lon="21.28958">
        <ele>346.69872</ele>
        <time>2022-04-23T08:40:03.512Z</time>
      </trkpt>
      <trkpt lat="42.01743" lon="21.28951">
        <ele>346.769109</ele>
        <time>2022-04-23T08:40:06.519Z</time>
      </trkpt>
      <trkpt lat="42.01752" lon="21.28945">
        <ele>346.837706</ele>
        <time>2022-04-23T08:40:09.513Z</time>
      </trkpt>
      <trkpt lat="42.01761" lon="21.28939">
        <ele>346.907038</ele>
        <time>2022-04-23T08:40:12.515Z</time>
      </trkpt>
      <trkpt lat="42.01769" lon="21.28932">
        <ele>346.976115</ele>
        <time>2022-04-23T08:40:15.540Z</time>
      </trkpt>
      <trkpt lat="42.01779" lon="21.28926">
        <ele>347.047794</ele>
        <time>2022-04-23T08:40:18.533Z</time>
      </trkpt>
      <trkpt lat="42.01788" lon="21.28922">
        <ele>347.110988</ele>
        <time>2022-04-23T08:40:21.533Z</time>
      </trkpt>
      <trkpt lat="42.01799" lon="21.2892">
        <ele>347.191188</ele>
        <time>2022-04-23T08:40:25.502Z</time>
      </trkpt>
      <trkpt lat="42.01809" lon="21.2892">
        <ele>347.256665</ele>
        <time>2022-04-23T08:40:28.519Z</time>
      </trkpt>
      <trkpt lat="42.01818" lon="21.2892">
        <ele>347.322167</ele>
        <time>2022-04-23T08:40:31.536Z</time>
      </trkpt>
      <trkpt lat="42.01828" lon="21.2892">
        <ele>347.392477</ele>
        <time>2022-04-23T08:40:34.516Z</time>
      </trkpt>
      <trkpt lat="42.01839" lon="21.28921">
        <ele>347.468369</ele>
        <time>2022-04-23T08:40:37.511Z</time>
      </trkpt>
      <trkpt lat="42.0185" lon="21.28921">
        <ele>347.541435</ele>
        <time>2022-04-23T08:40:40.509Z</time>
      </trkpt>
      <trkpt lat="42.0186" lon="21.28922">
        <ele>347.611087</ele>
        <time>2022-04-23T08:40:43.507Z</time>
      </trkpt>
      <trkpt lat="42.0187" lon="21.28923">
        <ele>348.042301</ele>
        <time>2022-04-23T08:40:46.495Z</time>
      </trkpt>
      <trkpt lat="42.01879" lon="21.28923">
        <ele>348.464287</ele>
        <time>2022-04-23T08:40:49.508Z</time>
      </trkpt>
      <trkpt lat="42.01888" lon="21.28923">
        <ele>348.864825</ele>
        <time>2022-04-23T08:40:52.513Z</time>
      </trkpt>
      <trkpt lat="42.01897" lon="21.28921">
        <ele>349.274982</ele>
        <time>2022-04-23T08:40:55.501Z</time>
      </trkpt>
      <trkpt lat="42.01907" lon="21.2892">
        <ele>349.707549</ele>
        <time>2022-04-23T08:40:58.514Z</time>
      </trkpt>
      <trkpt lat="42.01916" lon="21.2892">
        <ele>350.107883</ele>
        <time>2022-04-23T08:41:01.502Z</time>
      </trkpt>
      <trkpt lat="42.01927" lon="21.28917">
        <ele>350.601253</ele>
        <time>2022-04-23T08:41:05.527Z</time>
      </trkpt>
      <trkpt lat="42.01937" lon="21.28915">
        <ele>351.067885</ele>
        <time>2022-04-23T08:41:09.503Z</time>
      </trkpt>
      <trkpt lat="42.01947" lon="21.28913">
        <ele>351.491025</ele>
        <time>2022-04-23T08:41:13.522Z</time>
      </trkpt>
      <trkpt lat="42.01957" lon="21.28909">
        <ele>351.977313</ele>
        <time>2022-04-23T08:41:18.524Z</time>
      </trkpt>
      <trkpt lat="42.01968" lon="21.28906">
        <ele>352.437137</ele>
        <time>2022-04-23T08:41:23.552Z</time>
      </trkpt>
      <trkpt lat="42.01978" lon="21.28902">
        <ele>352.914115</ele>
        <time>2022-04-23T08:41:28.505Z</time>
      </trkpt>
      <trkpt lat="42.01988" lon="21.289">
        <ele>353.361418</ele>
        <time>2022-04-23T08:41:32.534Z</time>
      </trkpt>
      <trkpt lat="42.01997" lon="21.28898">
        <ele>353.765971</ele>
        <time>2022-04-23T08:41:35.514Z</time>
      </trkpt>
      <trkpt lat="42.02008" lon="21.28893">
        <ele>354.295429</ele>
        <time>2022-04-23T08:41:38.510Z</time>
      </trkpt>
      <trkpt lat="42.0202" lon="21.28888">
        <ele>354.862569</ele>
        <time>2022-04-23T08:41:41.508Z</time>
      </trkpt>
      <trkpt lat="42.02031" lon="21.28883">
        <ele>355.365606</ele>
        <time>2022-04-23T08:41:44.504Z</time>
      </trkpt>
      <trkpt lat="42.0204" lon="21.28879">
        <ele>355.562726</ele>
        <time>2022-04-23T08:41:47.515Z</time>
      </trkpt>
      <trkpt lat="42.02049" lon="21.28875">
        <ele>355.487572</ele>
        <time>2022-04-23T08:41:50.520Z</time>
      </trkpt>
      <trkpt lat="42.02058" lon="21.2887">
        <ele>355.409921</ele>
        <time>2022-04-23T08:41:53.526Z</time>
      </trkpt>
      <trkpt lat="42.02067" lon="21.28864">
        <ele>355.33178</ele>
        <time>2022-04-23T08:41:56.536Z</time>
      </trkpt>
      <trkpt lat="42.02077" lon="21.28859">
        <ele>355.246185</ele>
        <time>2022-04-23T08:41:59.512Z</time>
      </trkpt>
      <trkpt lat="42.02086" lon="21.28855">
        <ele>355.166439</ele>
        <time>2022-04-23T08:42:02.508Z</time>
      </trkpt>
      <trkpt lat="42.02096" lon="21.28849">
        <ele>355.083918</ele>
        <time>2022-04-23T08:42:05.506Z</time>
      </trkpt>
      <trkpt lat="42.02105" lon="21.28843">
        <ele>355.004324</ele>
        <time>2022-04-23T08:42:08.514Z</time>
      </trkpt>
      <trkpt lat="42.02113" lon="21.28839">
        <ele>354.931216</ele>
        <time>2022-04-23T08:42:11.514Z</time>
      </trkpt>
      <trkpt lat="42.02124" lon="21.28833">
        <ele>354.836223</ele>
        <time>2022-04-23T08:42:15.504Z</time>
      </trkpt>
      <trkpt lat="42.02133" lon="21.28828">
        <ele>354.755381</ele>
        <time>2022-04-23T08:42:18.509Z</time>
      </trkpt>
      <trkpt lat="42.02143" lon="21.28823">
        <ele>354.669753</ele>
        <time>2022-04-23T08:42:21.493Z</time>
      </trkpt>
      <trkpt lat="42.02155" lon="21.28822">
        <ele>354.580001</ele>
        <time>2022-04-23T08:42:24.509Z</time>
      </trkpt>
      <trkpt lat="42.02165" lon="21.28822">
        <ele>354.492497</ele>
        <time>2022-04-23T08:42:27.573Z</time>
      </trkpt>
      <trkpt lat="42.02178" lon="21.28822">
        <ele>354.388896</ele>
        <time>2022-04-23T08:42:30.504Z</time>
      </trkpt>
      <trkpt lat="42.02188" lon="21.28822">
        <ele>354.312624</ele>
        <time>2022-04-23T08:42:32.527Z</time>
      </trkpt>
      <trkpt lat="42.02198" lon="21.28819">
        <ele>354.225545</ele>
        <time>2022-04-23T08:42:34.514Z</time>
      </trkpt>
      <trkpt lat="42.02209" lon="21.28811">
        <ele>354.171617</ele>
        <time>2022-04-23T08:42:36.496Z</time>
      </trkpt>
      <trkpt lat="42.02217" lon="21.28799">
        <ele>354.231718</ele>
        <time>2022-04-23T08:42:38.607Z</time>
      </trkpt>
      <trkpt lat="42.02219" lon="21.28783">
        <ele>354.291581</ele>
        <time>2022-04-23T08:42:40.509Z</time>
      </trkpt>
      <trkpt lat="42.02217" lon="21.28768">
        <ele>354.351222</ele>
        <time>2022-04-23T08:42:42.506Z</time>
      </trkpt>
      <trkpt lat="42.02214" lon="21.28754">
        <ele>354.406153</ele>
        <time>2022-04-23T08:42:44.510Z</time>
      </trkpt>
      <trkpt lat="42.0221" lon="21.28742">
        <ele>354.452158</ele>
        <time>2022-04-23T08:42:46.507Z</time>
      </trkpt>
      <trkpt lat="42.02207" lon="21.28729">
        <ele>354.504527</ele>
        <time>2022-04-23T08:42:49.490Z</time>
      </trkpt>
      <trkpt lat="42.02199" lon="21.28721">
        <ele>354.556597</ele>
        <time>2022-04-23T08:42:56.524Z</time>
      </trkpt>
      <trkpt lat="42.02187" lon="21.28726">
        <ele>354.617009</ele>
        <time>2022-04-23T08:43:00.505Z</time>
      </trkpt>
      <trkpt lat="42.02177" lon="21.28728">
        <ele>354.666573</ele>
        <time>2022-04-23T08:43:03.493Z</time>
      </trkpt>
      <trkpt lat="42.02166" lon="21.2873">
        <ele>354.724125</ele>
        <time>2022-04-23T08:43:06.488Z</time>
      </trkpt>
      <trkpt lat="42.02156" lon="21.28733">
        <ele>354.779029</ele>
        <time>2022-04-23T08:43:09.505Z</time>
      </trkpt>
      <trkpt lat="42.02144" lon="21.28735">
        <ele>354.839562</ele>
        <time>2022-04-23T08:43:12.523Z</time>
      </trkpt>
      <trkpt lat="42.02134" lon="21.28736">
        <ele>354.889812</ele>
        <time>2022-04-23T08:43:14.503Z</time>
      </trkpt>
      <trkpt lat="42.02124" lon="21.28737">
        <ele>354.941605</ele>
        <time>2022-04-23T08:43:16.526Z</time>
      </trkpt>
      <trkpt lat="42.02113" lon="21.28738">
        <ele>354.996375</ele>
        <time>2022-04-23T08:43:18.506Z</time>
      </trkpt>
      <trkpt lat="42.02103" lon="21.28738">
        <ele>355.047609</ele>
        <time>2022-04-23T08:43:20.504Z</time>
      </trkpt>
      <trkpt lat="42.02093" lon="21.28738">
        <ele>354.801361</ele>
        <time>2022-04-23T08:43:22.522Z</time>
      </trkpt>
      <trkpt lat="42.02079" lon="21.2874">
        <ele>354.215644</ele>
        <time>2022-04-23T08:43:25.503Z</time>
      </trkpt>
      <trkpt lat="42.02069" lon="21.28741">
        <ele>353.772999</ele>
        <time>2022-04-23T08:43:27.503Z</time>
      </trkpt>
      <trkpt lat="42.02058" lon="21.28742">
        <ele>353.286418</ele>
        <time>2022-04-23T08:43:29.524Z</time>
      </trkpt>
      <trkpt lat="42.02045" lon="21.28743">
        <ele>352.744478</ele>
        <time>2022-04-23T08:43:31.500Z</time>
      </trkpt>
      <trkpt lat="42.02031" lon="21.28745">
        <ele>352.150478</ele>
        <time>2022-04-23T08:43:33.516Z</time>
      </trkpt>
      <trkpt lat="42.02016" lon="21.28748">
        <ele>351.500316</ele>
        <time>2022-04-23T08:43:35.511Z</time>
      </trkpt>
      <trkpt lat="42.02001" lon="21.28751">
        <ele>350.846041</ele>
        <time>2022-04-23T08:43:37.509Z</time>
      </trkpt>
      <trkpt lat="42.01986" lon="21.28754">
        <ele>350.190213</ele>
        <time>2022-04-23T08:43:39.532Z</time>
      </trkpt>
      <trkpt lat="42.0197" lon="21.28758">
        <ele>349.471468</ele>
        <time>2022-04-23T08:43:41.508Z</time>
      </trkpt>
      <trkpt lat="42.01953" lon="21.28762">
        <ele>348.752723</ele>
        <time>2022-04-23T08:43:43.495Z</time>
      </trkpt>
      <trkpt lat="42.01937" lon="21.28764">
        <ele>348.067276</ele>
        <time>2022-04-23T08:43:45.497Z</time>
      </trkpt>
      <trkpt lat="42.01922" lon="21.28766">
        <ele>347.395241</ele>
        <time>2022-04-23T08:43:47.518Z</time>
      </trkpt>
      <trkpt lat="42.01907" lon="21.2877">
        <ele>346.675729</ele>
        <time>2022-04-23T08:43:49.520Z</time>
      </trkpt>
      <trkpt lat="42.01893" lon="21.28772">
        <ele>345.974599</ele>
        <time>2022-04-23T08:43:51.515Z</time>
      </trkpt>
      <trkpt lat="42.01879" lon="21.28774">
        <ele>345.231715</ele>
        <time>2022-04-23T08:43:53.511Z</time>
      </trkpt>
      <trkpt lat="42.01864" lon="21.28777">
        <ele>344.488345</ele>
        <time>2022-04-23T08:43:55.570Z</time>
      </trkpt>
      <trkpt lat="42.01849" lon="21.28779">
        <ele>343.723919</ele>
        <time>2022-04-23T08:43:57.521Z</time>
      </trkpt>
      <trkpt lat="42.01833" lon="21.28779">
        <ele>342.971906</ele>
        <time>2022-04-23T08:43:59.524Z</time>
      </trkpt>
      <trkpt lat="42.01818" lon="21.2878">
        <ele>342.220257</ele>
        <time>2022-04-23T08:44:01.529Z</time>
      </trkpt>
      <trkpt lat="42.01804" lon="21.2878">
        <ele>341.50353</ele>
        <time>2022-04-23T08:44:03.499Z</time>
      </trkpt>
      <trkpt lat="42.0179" lon="21.28778">
        <ele>340.804792</ele>
        <time>2022-04-23T08:44:05.500Z</time>
      </trkpt>
      <trkpt lat="42.01777" lon="21.28773">
        <ele>340.137648</ele>
        <time>2022-04-23T08:44:07.516Z</time>
      </trkpt>
      <trkpt lat="42.01765" lon="21.28763">
        <ele>339.428994</ele>
        <time>2022-04-23T08:44:09.514Z</time>
      </trkpt>
      <trkpt lat="42.01755" lon="21.28747">
        <ele>338.626394</ele>
        <time>2022-04-23T08:44:11.518Z</time>
      </trkpt>
      <trkpt lat="42.01745" lon="21.28727">
        <ele>338.016504</ele>
        <time>2022-04-23T08:44:13.505Z</time>
      </trkpt>
      <trkpt lat="42.01737" lon="21.28706">
        <ele>337.511802</ele>
        <time>2022-04-23T08:44:15.510Z</time>
      </trkpt>
      <trkpt lat="42.01731" lon="21.28687">
        <ele>337.054118</ele>
        <time>2022-04-23T08:44:17.544Z</time>
      </trkpt>
      <trkpt lat="42.01726" lon="21.28667">
        <ele>336.608358</ele>
        <time>2022-04-23T08:44:19.520Z</time>
      </trkpt>
      <trkpt lat="42.01721" lon="21.28648">
        <ele>336.175055</ele>
        <time>2022-04-23T08:44:21.566Z</time>
      </trkpt>
      <trkpt lat="42.01716" lon="21.2863">
        <ele>335.755834</ele>
        <time>2022-04-23T08:44:23.491Z</time>
      </trkpt>
      <trkpt lat="42.01712" lon="21.28613">
        <ele>335.364226</ele>
        <time>2022-04-23T08:44:25.500Z</time>
      </trkpt>
      <trkpt lat="42.01708" lon="21.28598">
        <ele>335.002946</ele>
        <time>2022-04-23T08:44:27.525Z</time>
      </trkpt>
      <trkpt lat="42.01703" lon="21.28583">
        <ele>334.657034</ele>
        <time>2022-04-23T08:44:29.512Z</time>
      </trkpt>
      <trkpt lat="42.017" lon="21.28569">
        <ele>334.340612</ele>
        <time>2022-04-23T08:44:31.508Z</time>
      </trkpt>
      <trkpt lat="42.01697" lon="21.28555">
        <ele>334.031678</ele>
        <time>2022-04-23T08:44:33.510Z</time>
      </trkpt>
      <trkpt lat="42.01694" lon="21.2854">
        <ele>333.68975</ele>
        <time>2022-04-23T08:44:35.514Z</time>
      </trkpt>
      <trkpt lat="42.01692" lon="21.28524">
        <ele>333.328588</ele>
        <time>2022-04-23T08:44:37.517Z</time>
      </trkpt>
      <trkpt lat="42.01689" lon="21.28507">
        <ele>333.182547</ele>
        <time>2022-04-23T08:44:39.517Z</time>
      </trkpt>
      <trkpt lat="42.01686" lon="21.28491">
        <ele>333.265341</ele>
        <time>2022-04-23T08:44:41.506Z</time>
      </trkpt>
      <trkpt lat="42.01684" lon="21.28476">
        <ele>333.341167</ele>
        <time>2022-04-23T08:44:43.497Z</time>
      </trkpt>
      <trkpt lat="42.01681" lon="21.28462">
        <ele>333.410076</ele>
        <time>2022-04-23T08:44:45.508Z</time>
      </trkpt>
      <trkpt lat="42.01678" lon="21.28445">
        <ele>333.494488</ele>
        <time>2022-04-23T08:44:48.502Z</time>
      </trkpt>
      <trkpt lat="42.01675" lon="21.28432">
        <ele>333.563825</ele>
        <time>2022-04-23T08:44:51.523Z</time>
      </trkpt>
      <trkpt lat="42.01673" lon="21.28419">
        <ele>333.628905</ele>
        <time>2022-04-23T08:44:54.512Z</time>
      </trkpt>
      <trkpt lat="42.01671" lon="21.28406">
        <ele>333.691672</ele>
        <time>2022-04-23T08:44:57.536Z</time>
      </trkpt>
      <trkpt lat="42.0167" lon="21.28393">
        <ele>333.756325</ele>
        <time>2022-04-23T08:45:00.513Z</time>
      </trkpt>
      <trkpt lat="42.01668" lon="21.28379">
        <ele>333.826426</ele>
        <time>2022-04-23T08:45:03.494Z</time>
      </trkpt>
      <trkpt lat="42.01666" lon="21.28365">
        <ele>333.89342</ele>
        <time>2022-04-23T08:45:06.529Z</time>
      </trkpt>
      <trkpt lat="42.01664" lon="21.28352">
        <ele>333.961262</ele>
        <time>2022-04-23T08:45:09.507Z</time>
      </trkpt>
      <trkpt lat="42.01663" lon="21.28336">
        <ele>334.038007</ele>
        <time>2022-04-23T08:45:12.499Z</time>
      </trkpt>
      <trkpt lat="42.01662" lon="21.2832">
        <ele>334.118992</ele>
        <time>2022-04-23T08:45:15.519Z</time>
      </trkpt>
      <trkpt lat="42.01661" lon="21.28304">
        <ele>334.196798</ele>
        <time>2022-04-23T08:45:18.511Z</time>
      </trkpt>
      <trkpt lat="42.01664" lon="21.28288">
        <ele>334.277687</ele>
        <time>2022-04-23T08:45:21.503Z</time>
      </trkpt>
      <trkpt lat="42.01669" lon="21.28272">
        <ele>334.429089</ele>
        <time>2022-04-23T08:45:24.504Z</time>
      </trkpt>
      <trkpt lat="42.01673" lon="21.28261">
        <ele>334.617685</ele>
        <time>2022-04-23T08:45:26.519Z</time>
      </trkpt>
      <trkpt lat="42.01678" lon="21.2825">
        <ele>334.818379</ele>
        <time>2022-04-23T08:45:28.515Z</time>
      </trkpt>
      <trkpt lat="42.01683" lon="21.28238">
        <ele>335.03356</ele>
        <time>2022-04-23T08:45:30.495Z</time>
      </trkpt>
      <trkpt lat="42.01688" lon="21.28223">
        <ele>335.277954</ele>
        <time>2022-04-23T08:45:32.493Z</time>
      </trkpt>
      <trkpt lat="42.01691" lon="21.28208">
        <ele>335.521182</ele>
        <time>2022-04-23T08:45:34.549Z</time>
      </trkpt>
      <trkpt lat="42.0169" lon="21.28195">
        <ele>335.72124</ele>
        <time>2022-04-23T08:45:36.523Z</time>
      </trkpt>
      <trkpt lat="42.01687" lon="21.2818">
        <ele>335.962994</ele>
        <time>2022-04-23T08:45:39.501Z</time>
      </trkpt>
      <trkpt lat="42.01684" lon="21.28167">
        <ele>336.170735</ele>
        <time>2022-04-23T08:45:42.511Z</time>
      </trkpt>
      <trkpt lat="42.01682" lon="21.28154">
        <ele>336.376275</ele>
        <time>2022-04-23T08:45:45.511Z</time>
      </trkpt>
      <trkpt lat="42.01681" lon="21.2814">
        <ele>336.594389</ele>
        <time>2022-04-23T08:45:48.481Z</time>
      </trkpt>
      <trkpt lat="42.01681" lon="21.28125">
        <ele>336.824791</ele>
        <time>2022-04-23T08:45:51.544Z</time>
      </trkpt>
      <trkpt lat="42.01681" lon="21.28107">
        <ele>337.095126</ele>
        <time>2022-04-23T08:45:54.513Z</time>
      </trkpt>
      <trkpt lat="42.01682" lon="21.28094">
        <ele>337.290465</ele>
        <time>2022-04-23T08:45:56.510Z</time>
      </trkpt>
      <trkpt lat="42.01683" lon="21.28081">
        <ele>337.494984</ele>
        <time>2022-04-23T08:45:58.521Z</time>
      </trkpt>
      <trkpt lat="42.01685" lon="21.28065">
        <ele>337.75183</ele>
        <time>2022-04-23T08:46:01.506Z</time>
      </trkpt>
      <trkpt lat="42.01686" lon="21.2805">
        <ele>337.981851</ele>
        <time>2022-04-23T08:46:04.529Z</time>
      </trkpt>
      <trkpt lat="42.01689" lon="21.28036">
        <ele>338.206141</ele>
        <time>2022-04-23T08:46:07.503Z</time>
      </trkpt>
      <trkpt lat="42.0169" lon="21.28022">
        <ele>338.442338</ele>
        <time>2022-04-23T08:46:10.498Z</time>
      </trkpt>
      <trkpt lat="42.01693" lon="21.28007">
        <ele>338.690898</ele>
        <time>2022-04-23T08:46:13.539Z</time>
      </trkpt>
      <trkpt lat="42.01695" lon="21.27992">
        <ele>338.949958</ele>
        <time>2022-04-23T08:46:16.501Z</time>
      </trkpt>
      <trkpt lat="42.01698" lon="21.27975">
        <ele>339.220538</ele>
        <time>2022-04-23T08:46:19.526Z</time>
      </trkpt>
      <trkpt lat="42.01702" lon="21.2796">
        <ele>339.492025</ele>
        <time>2022-04-23T08:46:22.519Z</time>
      </trkpt>
      <trkpt lat="42.01704" lon="21.27946">
        <ele>339.724149</ele>
        <time>2022-04-23T08:46:25.507Z</time>
      </trkpt>
      <trkpt lat="42.01706" lon="21.27933">
        <ele>339.932374</ele>
        <time>2022-04-23T08:46:28.491Z</time>
      </trkpt>
      <trkpt lat="42.0171" lon="21.2792">
        <ele>340.170475</ele>
        <time>2022-04-23T08:46:32.513Z</time>
      </trkpt>
      <trkpt lat="42.01715" lon="21.27906">
        <ele>340.416385</ele>
        <time>2022-04-23T08:46:36.512Z</time>
      </trkpt>
      <trkpt lat="42.01721" lon="21.27895">
        <ele>340.63824</ele>
        <time>2022-04-23T08:46:39.498Z</time>
      </trkpt>
      <trkpt lat="42.01727" lon="21.27884">
        <ele>340.874295</ele>
        <time>2022-04-23T08:46:42.512Z</time>
      </trkpt>
      <trkpt lat="42.01733" lon="21.27869">
        <ele>341.142529</ele>
        <time>2022-04-23T08:46:45.504Z</time>
      </trkpt>
      <trkpt lat="42.01739" lon="21.27857">
        <ele>341.387173</ele>
        <time>2022-04-23T08:46:48.541Z</time>
      </trkpt>
      <trkpt lat="42.01745" lon="21.27844">
        <ele>341.620251</ele>
        <time>2022-04-23T08:46:51.537Z</time>
      </trkpt>
      <trkpt lat="42.01749" lon="21.27831">
        <ele>341.851786</ele>
        <time>2022-04-23T08:46:54.516Z</time>
      </trkpt>
      <trkpt lat="42.01754" lon="21.2782">
        <ele>342.018823</ele>
        <time>2022-04-23T08:46:57.558Z</time>
      </trkpt>
      <trkpt lat="42.0176" lon="21.27808">
        <ele>342.084115</ele>
        <time>2022-04-23T08:47:00.500Z</time>
      </trkpt>
      <trkpt lat="42.01768" lon="21.27796">
        <ele>342.156114</ele>
        <time>2022-04-23T08:47:03.560Z</time>
      </trkpt>
      <trkpt lat="42.01774" lon="21.27785">
        <ele>342.220675</ele>
        <time>2022-04-23T08:47:06.494Z</time>
      </trkpt>
      <trkpt lat="42.0178" lon="21.27775">
        <ele>342.278702</ele>
        <time>2022-04-23T08:47:09.512Z</time>
      </trkpt>
      <trkpt lat="42.01788" lon="21.27763">
        <ele>342.352121</ele>
        <time>2022-04-23T08:47:13.525Z</time>
      </trkpt>
      <trkpt lat="42.01795" lon="21.27755">
        <ele>342.408366</ele>
        <time>2022-04-23T08:47:16.511Z</time>
      </trkpt>
      <trkpt lat="42.01804" lon="21.27748">
        <ele>342.471042</ele>
        <time>2022-04-23T08:47:19.514Z</time>
      </trkpt>
      <trkpt lat="42.01812" lon="21.2774">
        <ele>342.531683</ele>
        <time>2022-04-23T08:47:22.484Z</time>
      </trkpt>
      <trkpt lat="42.0182" lon="21.27731">
        <ele>342.59512</ele>
        <time>2022-04-23T08:47:25.559Z</time>
      </trkpt>
      <trkpt lat="42.01827" lon="21.2772">
        <ele>342.658073</ele>
        <time>2022-04-23T08:47:28.505Z</time>
      </trkpt>
      <trkpt lat="42.01834" lon="21.2771">
        <ele>342.723199</ele>
        <time>2022-04-23T08:47:31.519Z</time>
      </trkpt>
      <trkpt lat="42.0184" lon="21.27699">
        <ele>342.784115</ele>
        <time>2022-04-23T08:47:34.485Z</time>
      </trkpt>
      <trkpt lat="42.01845" lon="21.27689">
        <ele>342.841387</ele>
        <time>2022-04-23T08:47:37.512Z</time>
      </trkpt>
      <trkpt lat="42.01851" lon="21.2768">
        <ele>342.896957</ele>
        <time>2022-04-23T08:47:40.524Z</time>
      </trkpt>
      <trkpt lat="42.01858" lon="21.27669">
        <ele>342.958321</ele>
        <time>2022-04-23T08:47:43.512Z</time>
      </trkpt>
      <trkpt lat="42.01864" lon="21.27659">
        <ele>343.018297</ele>
        <time>2022-04-23T08:47:46.508Z</time>
      </trkpt>
      <trkpt lat="42.0187" lon="21.27649">
        <ele>343.080052</ele>
        <time>2022-04-23T08:47:49.532Z</time>
      </trkpt>
      <trkpt lat="42.01878" lon="21.27638">
        <ele>343.038395</ele>
        <time>2022-04-23T08:47:52.536Z</time>
      </trkpt>
      <trkpt lat="42.01885" lon="21.27629">
        <ele>342.964505</ele>
        <time>2022-04-23T08:47:55.489Z</time>
      </trkpt>
      <trkpt lat="42.01892" lon="21.27619">
        <ele>342.889574</ele>
        <time>2022-04-23T08:47:58.507Z</time>
      </trkpt>
      <trkpt lat="42.01899" lon="21.2761">
        <ele>342.817453</ele>
        <time>2022-04-23T08:48:01.516Z</time>
      </trkpt>
      <trkpt lat="42.01908" lon="21.27603">
        <ele>342.732392</ele>
        <time>2022-04-23T08:48:04.500Z</time>
      </trkpt>
      <trkpt lat="42.01919" lon="21.27594">
        <ele>342.638931</ele>
        <time>2022-04-23T08:48:07.560Z</time>
      </trkpt>
      <trkpt lat="42.01927" lon="21.27584">
        <ele>342.55325</ele>
        <time>2022-04-23T08:48:10.518Z</time>
      </trkpt>
      <trkpt lat="42.01934" lon="21.27574">
        <ele>342.478014</ele>
        <time>2022-04-23T08:48:13.503Z</time>
      </trkpt>
      <trkpt lat="42.01941" lon="21.27563">
        <ele>342.39359</ele>
        <time>2022-04-23T08:48:17.510Z</time>
      </trkpt>
      <trkpt lat="42.01947" lon="21.27551">
        <ele>342.31544</ele>
        <time>2022-04-23T08:48:21.479Z</time>
      </trkpt>
      <trkpt lat="42.01952" lon="21.2754">
        <ele>342.238706</ele>
        <time>2022-04-23T08:48:25.521Z</time>
      </trkpt>
      <trkpt lat="42.01957" lon="21.27529">
        <ele>342.168659</ele>
        <time>2022-04-23T08:48:28.508Z</time>
      </trkpt>
      <trkpt lat="42.01964" lon="21.27516">
        <ele>342.076003</ele>
        <time>2022-04-23T08:48:31.495Z</time>
      </trkpt>
      <trkpt lat="42.01972" lon="21.27501">
        <ele>341.973519</ele>
        <time>2022-04-23T08:48:34.528Z</time>
      </trkpt>
      <trkpt lat="42.01979" lon="21.27491">
        <ele>341.895821</ele>
        <time>2022-04-23T08:48:36.516Z</time>
      </trkpt>
      <trkpt lat="42.01986" lon="21.2748">
        <ele>341.815281</ele>
        <time>2022-04-23T08:48:38.515Z</time>
      </trkpt>
      <trkpt lat="42.01993" lon="21.27467">
        <ele>341.705142</ele>
        <time>2022-04-23T08:48:41.527Z</time>
      </trkpt>
      <trkpt lat="42.01999" lon="21.27457">
        <ele>341.517615</ele>
        <time>2022-04-23T08:48:44.533Z</time>
      </trkpt>
      <trkpt lat="42.02007" lon="21.27447">
        <ele>341.314375</ele>
        <time>2022-04-23T08:48:47.525Z</time>
      </trkpt>
      <trkpt lat="42.02014" lon="21.27437">
        <ele>341.119937</ele>
        <time>2022-04-23T08:48:50.513Z</time>
      </trkpt>
      <trkpt lat="42.02021" lon="21.27428">
        <ele>340.928558</ele>
        <time>2022-04-23T08:48:53.534Z</time>
      </trkpt>
      <trkpt lat="42.0203" lon="21.27417">
        <ele>340.700751</ele>
        <time>2022-04-23T08:48:56.533Z</time>
      </trkpt>
      <trkpt lat="42.02038" lon="21.27408">
        <ele>340.495012</ele>
        <time>2022-04-23T08:48:59.549Z</time>
      </trkpt>
      <trkpt lat="42.02048" lon="21.27399">
        <ele>340.272575</ele>
        <time>2022-04-23T08:49:02.493Z</time>
      </trkpt>
      <trkpt lat="42.02058" lon="21.27389">
        <ele>340.017208</ele>
        <time>2022-04-23T08:49:05.505Z</time>
      </trkpt>
      <trkpt lat="42.0207" lon="21.2738">
        <ele>339.757325</ele>
        <time>2022-04-23T08:49:08.510Z</time>
      </trkpt>
      <trkpt lat="42.02078" lon="21.27374">
        <ele>339.582087</ele>
        <time>2022-04-23T08:49:10.506Z</time>
      </trkpt>
      <trkpt lat="42.02089" lon="21.27367">
        <ele>339.340839</ele>
        <time>2022-04-23T08:49:13.521Z</time>
      </trkpt>
      <trkpt lat="42.021" lon="21.27358">
        <ele>339.099033</ele>
        <time>2022-04-23T08:49:16.529Z</time>
      </trkpt>
      <trkpt lat="42.02112" lon="21.27354">
        <ele>338.860883</ele>
        <time>2022-04-23T08:49:19.504Z</time>
      </trkpt>
      <trkpt lat="42.02124" lon="21.27351">
        <ele>338.627657</ele>
        <time>2022-04-23T08:49:22.500Z</time>
      </trkpt>
      <trkpt lat="42.02133" lon="21.27349">
        <ele>338.452934</ele>
        <time>2022-04-23T08:49:24.497Z</time>
      </trkpt>
      <trkpt lat="42.02143" lon="21.27348">
        <ele>338.261818</ele>
        <time>2022-04-23T08:49:26.545Z</time>
      </trkpt>
      <trkpt lat="42.02154" lon="21.27347">
        <ele>338.193101</ele>
        <time>2022-04-23T08:49:28.504Z</time>
      </trkpt>
      <trkpt lat="42.02165" lon="21.27347">
        <ele>338.124615</ele>
        <time>2022-04-23T08:49:30.510Z</time>
      </trkpt>
      <trkpt lat="42.02176" lon="21.27347">
        <ele>338.054861</ele>
        <time>2022-04-23T08:49:32.509Z</time>
      </trkpt>
      <trkpt lat="42.02186" lon="21.27345">
        <ele>337.989261</ele>
        <time>2022-04-23T08:49:34.516Z</time>
      </trkpt>
      <trkpt lat="42.02196" lon="21.27342">
        <ele>337.923774</ele>
        <time>2022-04-23T08:49:36.510Z</time>
      </trkpt>
      <trkpt lat="42.02205" lon="21.27339">
        <ele>337.863962</ele>
        <time>2022-04-23T08:49:38.514Z</time>
      </trkpt>
      <trkpt lat="42.02217" lon="21.27332">
        <ele>337.780841</ele>
        <time>2022-04-23T08:49:41.525Z</time>
      </trkpt>
      <trkpt lat="42.02227" lon="21.27328">
        <ele>337.713229</ele>
        <time>2022-04-23T08:49:44.522Z</time>
      </trkpt>
      <trkpt lat="42.02238" lon="21.27323">
        <ele>337.644395</ele>
        <time>2022-04-23T08:49:48.513Z</time>
      </trkpt>
      <trkpt lat="42.02248" lon="21.27317">
        <ele>337.574776</ele>
        <time>2022-04-23T08:49:52.516Z</time>
      </trkpt>
      <trkpt lat="42.02257" lon="21.27312">
        <ele>337.514058</ele>
        <time>2022-04-23T08:49:55.508Z</time>
      </trkpt>
      <trkpt lat="42.02264" lon="21.27305">
        <ele>337.45379</ele>
        <time>2022-04-23T08:49:58.519Z</time>
      </trkpt>
      <trkpt lat="42.02274" lon="21.27297">
        <ele>337.380417</ele>
        <time>2022-04-23T08:50:01.502Z</time>
      </trkpt>
      <trkpt lat="42.02285" lon="21.2729">
        <ele>337.304771</ele>
        <time>2022-04-23T08:50:04.516Z</time>
      </trkpt>
      <trkpt lat="42.02296" lon="21.27284">
        <ele>337.227657</ele>
        <time>2022-04-23T08:50:07.494Z</time>
      </trkpt>
      <trkpt lat="42.02307" lon="21.27278">
        <ele>337.153795</ele>
        <time>2022-04-23T08:50:10.510Z</time>
      </trkpt>
      <trkpt lat="42.02318" lon="21.27273">
        <ele>337.154865</ele>
        <time>2022-04-23T08:50:13.516Z</time>
      </trkpt>
      <trkpt lat="42.02328" lon="21.27267">
        <ele>337.211958</ele>
        <time>2022-04-23T08:50:16.556Z</time>
      </trkpt>
      <trkpt lat="42.02337" lon="21.27261">
        <ele>337.265249</ele>
        <time>2022-04-23T08:50:19.514Z</time>
      </trkpt>
      <trkpt lat="42.02345" lon="21.27256">
        <ele>337.312132</ele>
        <time>2022-04-23T08:50:22.514Z</time>
      </trkpt>
      <trkpt lat="42.02354" lon="21.27251">
        <ele>337.362672</ele>
        <time>2022-04-23T08:50:25.500Z</time>
      </trkpt>
      <trkpt lat="42.02364" lon="21.27246">
        <ele>337.416054</ele>
        <time>2022-04-23T08:50:28.501Z</time>
      </trkpt>
      <trkpt lat="42.02374" lon="21.27242">
        <ele>337.474225</ele>
        <time>2022-04-23T08:50:31.516Z</time>
      </trkpt>
      <trkpt lat="42.02385" lon="21.27238">
        <ele>337.532783</ele>
        <time>2022-04-23T08:50:34.509Z</time>
      </trkpt>
      <trkpt lat="42.02396" lon="21.27232">
        <ele>337.592685</ele>
        <time>2022-04-23T08:50:37.522Z</time>
      </trkpt>
      <trkpt lat="42.02406" lon="21.27227">
        <ele>337.647756</ele>
        <time>2022-04-23T08:50:40.516Z</time>
      </trkpt>
      <trkpt lat="42.02417" lon="21.27221">
        <ele>337.709911</ele>
        <time>2022-04-23T08:50:43.525Z</time>
      </trkpt>
      <trkpt lat="42.02428" lon="21.27214">
        <ele>337.774899</ele>
        <time>2022-04-23T08:50:46.512Z</time>
      </trkpt>
      <trkpt lat="42.02439" lon="21.27207">
        <ele>337.837997</ele>
        <time>2022-04-23T08:50:49.490Z</time>
      </trkpt>
      <trkpt lat="42.02449" lon="21.27202">
        <ele>337.893461</ele>
        <time>2022-04-23T08:50:52.510Z</time>
      </trkpt>
      <trkpt lat="42.02459" lon="21.27197">
        <ele>337.948519</ele>
        <time>2022-04-23T08:50:55.510Z</time>
      </trkpt>
      <trkpt lat="42.02469" lon="21.27189">
        <ele>338.006621</ele>
        <time>2022-04-23T08:50:58.503Z</time>
      </trkpt>
      <trkpt lat="42.02479" lon="21.27183">
        <ele>338.087791</ele>
        <time>2022-04-23T08:51:01.505Z</time>
      </trkpt>
      <trkpt lat="42.02487" lon="21.27178">
        <ele>338.368743</ele>
        <time>2022-04-23T08:51:04.493Z</time>
      </trkpt>
      <trkpt lat="42.02496" lon="21.2717">
        <ele>338.703431</ele>
        <time>2022-04-23T08:51:08.513Z</time>
      </trkpt>
      <trkpt lat="42.02505" lon="21.27165">
        <ele>338.986168</ele>
        <time>2022-04-23T08:51:11.509Z</time>
      </trkpt>
      <trkpt lat="42.02515" lon="21.27158">
        <ele>339.332412</ele>
        <time>2022-04-23T08:51:15.512Z</time>
      </trkpt>
      <trkpt lat="42.02526" lon="21.27151">
        <ele>339.690499</ele>
        <time>2022-04-23T08:51:19.522Z</time>
      </trkpt>
      <trkpt lat="42.02534" lon="21.27144">
        <ele>339.976058</ele>
        <time>2022-04-23T08:51:22.551Z</time>
      </trkpt>
      <trkpt lat="42.02542" lon="21.27136">
        <ele>340.269093</ele>
        <time>2022-04-23T08:51:25.491Z</time>
      </trkpt>
      <trkpt lat="42.02549" lon="21.27124">
        <ele>340.618762</ele>
        <time>2022-04-23T08:51:28.512Z</time>
      </trkpt>
      <trkpt lat="42.02554" lon="21.27113">
        <ele>340.904789</ele>
        <time>2022-04-23T08:51:31.511Z</time>
      </trkpt>
      <trkpt lat="42.0256" lon="21.27101">
        <ele>341.234942</ele>
        <time>2022-04-23T08:51:34.499Z</time>
      </trkpt>
      <trkpt lat="42.02565" lon="21.27089">
        <ele>341.538704</ele>
        <time>2022-04-23T08:51:37.502Z</time>
      </trkpt>
      <trkpt lat="42.02571" lon="21.27078">
        <ele>341.846801</ele>
        <time>2022-04-23T08:51:40.502Z</time>
      </trkpt>
      <trkpt lat="42.02576" lon="21.27068">
        <ele>342.124096</ele>
        <time>2022-04-23T08:51:45.495Z</time>
      </trkpt>
      <trkpt lat="42.02589" lon="21.27047">
        <ele>342.729064</ele>
        <time>2022-04-23T08:56:29.511Z</time>
      </trkpt>
      <trkpt lat="42.02598" lon="21.27038">
        <ele>343.072546</ele>
        <time>2022-04-23T08:56:32.494Z</time>
      </trkpt>
      <trkpt lat="42.02608" lon="21.27028">
        <ele>343.449468</ele>
        <time>2022-04-23T08:56:35.500Z</time>
      </trkpt>
      <trkpt lat="42.02618" lon="21.27018">
        <ele>343.361533</ele>
        <time>2022-04-23T08:56:38.521Z</time>
      </trkpt>
      <trkpt lat="42.02629" lon="21.27008">
        <ele>343.215076</ele>
        <time>2022-04-23T08:56:41.511Z</time>
      </trkpt>
      <trkpt lat="42.02637" lon="21.27002">
        <ele>343.102423</ele>
        <time>2022-04-23T08:56:43.519Z</time>
      </trkpt>
      <trkpt lat="42.02646" lon="21.26995">
        <ele>342.986604</ele>
        <time>2022-04-23T08:56:45.513Z</time>
      </trkpt>
      <trkpt lat="42.02656" lon="21.26989">
        <ele>342.863841</ele>
        <time>2022-04-23T08:56:47.514Z</time>
      </trkpt>
      <trkpt lat="42.02667" lon="21.26982">
        <ele>342.728275</ele>
        <time>2022-04-23T08:56:49.516Z</time>
      </trkpt>
      <trkpt lat="42.02678" lon="21.26976">
        <ele>342.590937</ele>
        <time>2022-04-23T08:56:51.498Z</time>
      </trkpt>
      <trkpt lat="42.02688" lon="21.26971">
        <ele>342.476295</ele>
        <time>2022-04-23T08:56:53.521Z</time>
      </trkpt>
      <trkpt lat="42.02696" lon="21.26965">
        <ele>342.368027</ele>
        <time>2022-04-23T08:56:55.544Z</time>
      </trkpt>
      <trkpt lat="42.02705" lon="21.26958">
        <ele>342.251861</ele>
        <time>2022-04-23T08:56:57.520Z</time>
      </trkpt>
      <trkpt lat="42.02714" lon="21.26949">
        <ele>342.132002</ele>
        <time>2022-04-23T08:56:59.503Z</time>
      </trkpt>
      <trkpt lat="42.02722" lon="21.26941">
        <ele>342.020362</ele>
        <time>2022-04-23T08:57:01.540Z</time>
      </trkpt>
      <trkpt lat="42.02732" lon="21.26932">
        <ele>341.876188</ele>
        <time>2022-04-23T08:57:04.494Z</time>
      </trkpt>
      <trkpt lat="42.02743" lon="21.26924">
        <ele>341.737975</ele>
        <time>2022-04-23T08:57:07.526Z</time>
      </trkpt>
      <trkpt lat="42.02752" lon="21.26914">
        <ele>341.610098</ele>
        <time>2022-04-23T08:57:10.513Z</time>
      </trkpt>
      <trkpt lat="42.02762" lon="21.26903">
        <ele>341.466162</ele>
        <time>2022-04-23T08:57:13.519Z</time>
      </trkpt>
      <trkpt lat="42.02768" lon="21.26895">
        <ele>341.524351</ele>
        <time>2022-04-23T08:57:15.516Z</time>
      </trkpt>
      <trkpt lat="42.02777" lon="21.26883">
        <ele>341.630686</ele>
        <time>2022-04-23T08:57:18.537Z</time>
      </trkpt>
      <trkpt lat="42.02786" lon="21.26872">
        <ele>341.725399</ele>
        <time>2022-04-23T08:57:21.511Z</time>
      </trkpt>
      <trkpt lat="42.02795" lon="21.26864">
        <ele>341.815728</ele>
        <time>2022-04-23T08:57:24.500Z</time>
      </trkpt>
      <trkpt lat="42.02805" lon="21.26856">
        <ele>341.907123</ele>
        <time>2022-04-23T08:57:27.536Z</time>
      </trkpt>
      <trkpt lat="42.02814" lon="21.26849">
        <ele>341.996246</ele>
        <time>2022-04-23T08:57:30.513Z</time>
      </trkpt>
      <trkpt lat="42.02824" lon="21.2684">
        <ele>342.091317</ele>
        <time>2022-04-23T08:57:33.502Z</time>
      </trkpt>
      <trkpt lat="42.02833" lon="21.26832">
        <ele>342.180051</ele>
        <time>2022-04-23T08:57:36.513Z</time>
      </trkpt>
      <trkpt lat="42.02842" lon="21.26826">
        <ele>342.260235</ele>
        <time>2022-04-23T08:57:39.500Z</time>
      </trkpt>
      <trkpt lat="42.02852" lon="21.26821">
        <ele>342.343879</ele>
        <time>2022-04-23T08:57:42.507Z</time>
      </trkpt>
      <trkpt lat="42.02861" lon="21.26816">
        <ele>342.423818</ele>
        <time>2022-04-23T08:57:45.539Z</time>
      </trkpt>
      <trkpt lat="42.0287" lon="21.26812">
        <ele>342.50441</ele>
        <time>2022-04-23T08:57:48.509Z</time>
      </trkpt>
      <trkpt lat="42.02881" lon="21.26807">
        <ele>342.594854</ele>
        <time>2022-04-23T08:57:52.508Z</time>
      </trkpt>
      <trkpt lat="42.02889" lon="21.26803">
        <ele>342.670557</ele>
        <time>2022-04-23T08:57:55.511Z</time>
      </trkpt>
      <trkpt lat="42.02898" lon="21.26797">
        <ele>342.747477</ele>
        <time>2022-04-23T08:57:58.509Z</time>
      </trkpt>
      <trkpt lat="42.02908" lon="21.2679">
        <ele>342.842732</ele>
        <time>2022-04-23T08:58:02.516Z</time>
      </trkpt>
      <trkpt lat="42.02917" lon="21.26785">
        <ele>342.920371</ele>
        <time>2022-04-23T08:58:05.532Z</time>
      </trkpt>
      <trkpt lat="42.02927" lon="21.26778">
        <ele>343.220563</ele>
        <time>2022-04-23T08:58:09.505Z</time>
      </trkpt>
      <trkpt lat="42.02935" lon="21.26773">
        <ele>343.468227</ele>
        <time>2022-04-23T08:58:12.511Z</time>
      </trkpt>
      <trkpt lat="42.02945" lon="21.26767">
        <ele>343.747892</ele>
        <time>2022-04-23T08:58:15.505Z</time>
      </trkpt>
      <trkpt lat="42.02955" lon="21.26759">
        <ele>344.056848</ele>
        <time>2022-04-23T08:58:19.544Z</time>
      </trkpt>
      <trkpt lat="42.02964" lon="21.26753">
        <ele>344.325352</ele>
        <time>2022-04-23T08:58:23.556Z</time>
      </trkpt>
      <trkpt lat="42.02974" lon="21.26747">
        <ele>344.622193</ele>
        <time>2022-04-23T08:58:27.510Z</time>
      </trkpt>
      <trkpt lat="42.02983" lon="21.26741">
        <ele>344.910907</ele>
        <time>2022-04-23T08:58:31.504Z</time>
      </trkpt>
      <trkpt lat="42.02993" lon="21.26735">
        <ele>345.209557</ele>
        <time>2022-04-23T08:58:35.505Z</time>
      </trkpt>
      <trkpt lat="42.03002" lon="21.26728">
        <ele>345.488557</ele>
        <time>2022-04-23T08:58:39.519Z</time>
      </trkpt>
      <trkpt lat="42.03012" lon="21.2672">
        <ele>345.807681</ele>
        <time>2022-04-23T08:58:43.532Z</time>
      </trkpt>
      <trkpt lat="42.0302" lon="21.26713">
        <ele>346.055902</ele>
        <time>2022-04-23T08:58:46.504Z</time>
      </trkpt>
      <trkpt lat="42.0303" lon="21.26706">
        <ele>346.37168</ele>
        <time>2022-04-23T08:58:50.505Z</time>
      </trkpt>
      <trkpt lat="42.03041" lon="21.26698">
        <ele>346.693513</ele>
        <time>2022-04-23T08:58:54.499Z</time>
      </trkpt>
      <trkpt lat="42.03052" lon="21.2669">
        <ele>347.021114</ele>
        <time>2022-04-23T08:58:58.549Z</time>
      </trkpt>
      <trkpt lat="42.0306" lon="21.26685">
        <ele>347.285111</ele>
        <time>2022-04-23T08:59:01.516Z</time>
      </trkpt>
      <trkpt lat="42.03069" lon="21.2668">
        <ele>347.530929</ele>
        <time>2022-04-23T08:59:04.482Z</time>
      </trkpt>
      <trkpt lat="42.03077" lon="21.26674">
        <ele>347.789636</ele>
        <time>2022-04-23T08:59:07.505Z</time>
      </trkpt>
      <trkpt lat="42.03085" lon="21.26668">
        <ele>347.986011</ele>
        <time>2022-04-23T08:59:10.499Z</time>
      </trkpt>
      <trkpt lat="42.03096" lon="21.26663">
        <ele>348.222132</ele>
        <time>2022-04-23T08:59:14.541Z</time>
      </trkpt>
      <trkpt lat="42.03104" lon="21.26658">
        <ele>348.421086</ele>
        <time>2022-04-23T08:59:18.519Z</time>
      </trkpt>
      <trkpt lat="42.03113" lon="21.26652">
        <ele>348.632346</ele>
        <time>2022-04-23T08:59:22.510Z</time>
      </trkpt>
      <trkpt lat="42.03123" lon="21.26646">
        <ele>348.867753</ele>
        <time>2022-04-23T08:59:26.512Z</time>
      </trkpt>
      <trkpt lat="42.03133" lon="21.2664">
        <ele>349.099856</ele>
        <time>2022-04-23T08:59:30.514Z</time>
      </trkpt>
      <trkpt lat="42.03143" lon="21.26633">
        <ele>349.354859</ele>
        <time>2022-04-23T08:59:34.502Z</time>
      </trkpt>
      <trkpt lat="42.03154" lon="21.26626">
        <ele>349.604093</ele>
        <time>2022-04-23T08:59:38.505Z</time>
      </trkpt>
      <trkpt lat="42.03163" lon="21.26618">
        <ele>349.84261</ele>
        <time>2022-04-23T08:59:42.531Z</time>
      </trkpt>
      <trkpt lat="42.03173" lon="21.2661">
        <ele>350.077873</ele>
        <time>2022-04-23T08:59:46.509Z</time>
      </trkpt>
      <trkpt lat="42.03183" lon="21.26603">
        <ele>350.318738</ele>
        <time>2022-04-23T08:59:50.524Z</time>
      </trkpt>
      <trkpt lat="42.03192" lon="21.26597">
        <ele>350.542946</ele>
        <time>2022-04-23T08:59:54.533Z</time>
      </trkpt>
      <trkpt lat="42.03201" lon="21.26589">
        <ele>350.778803</ele>
        <time>2022-04-23T08:59:59.520Z</time>
      </trkpt>
      <trkpt lat="42.03211" lon="21.26581">
        <ele>351.008347</ele>
        <time>2022-04-23T09:00:03.500Z</time>
      </trkpt>
      <trkpt lat="42.03217" lon="21.26572">
        <ele>351.224496</ele>
        <time>2022-04-23T09:00:07.526Z</time>
      </trkpt>
      <trkpt lat="42.03224" lon="21.2656">
        <ele>351.452031</ele>
        <time>2022-04-23T09:00:12.499Z</time>
      </trkpt>
      <trkpt lat="42.03229" lon="21.26549">
        <ele>351.620166</ele>
        <time>2022-04-23T09:00:16.504Z</time>
      </trkpt>
      <trkpt lat="42.03234" lon="21.26538">
        <ele>351.323117</ele>
        <time>2022-04-23T09:00:20.503Z</time>
      </trkpt>
      <trkpt lat="42.0324" lon="21.26523">
        <ele>350.956283</ele>
        <time>2022-04-23T09:00:24.523Z</time>
      </trkpt>
      <trkpt lat="42.03245" lon="21.2651">
        <ele>350.631012</ele>
        <time>2022-04-23T09:00:27.549Z</time>
      </trkpt>
      <trkpt lat="42.0325" lon="21.26495">
        <ele>350.26423</ele>
        <time>2022-04-23T09:00:30.507Z</time>
      </trkpt>
      <trkpt lat="42.03254" lon="21.2648">
        <ele>349.918817</ele>
        <time>2022-04-23T09:00:33.513Z</time>
      </trkpt>
      <trkpt lat="42.03257" lon="21.26468">
        <ele>349.64373</ele>
        <time>2022-04-23T09:00:35.538Z</time>
      </trkpt>
      <trkpt lat="42.0326" lon="21.26456">
        <ele>349.355995</ele>
        <time>2022-04-23T09:00:37.554Z</time>
      </trkpt>
      <trkpt lat="42.03263" lon="21.26444">
        <ele>349.075127</ele>
        <time>2022-04-23T09:00:39.513Z</time>
      </trkpt>
      <trkpt lat="42.03265" lon="21.26431">
        <ele>348.785907</ele>
        <time>2022-04-23T09:00:41.490Z</time>
      </trkpt>
      <trkpt lat="42.03266" lon="21.26417">
        <ele>348.47749</ele>
        <time>2022-04-23T09:00:43.486Z</time>
      </trkpt>
      <trkpt lat="42.03264" lon="21.26404">
        <ele>348.180255</ele>
        <time>2022-04-23T09:00:45.489Z</time>
      </trkpt>
      <trkpt lat="42.0326" lon="21.26392">
        <ele>347.887209</ele>
        <time>2022-04-23T09:00:47.532Z</time>
      </trkpt>
      <trkpt lat="42.03257" lon="21.26379">
        <ele>347.602814</ele>
        <time>2022-04-23T09:00:49.503Z</time>
      </trkpt>
      <trkpt lat="42.03255" lon="21.26367">
        <ele>347.317901</ele>
        <time>2022-04-23T09:00:51.513Z</time>
      </trkpt>
      <trkpt lat="42.03255" lon="21.26351">
        <ele>346.975711</ele>
        <time>2022-04-23T09:00:53.512Z</time>
      </trkpt>
      <trkpt lat="42.0326" lon="21.26333">
        <ele>346.53715</ele>
        <time>2022-04-23T09:00:55.503Z</time>
      </trkpt>
      <trkpt lat="42.03269" lon="21.26314">
        <ele>346.140907</ele>
        <time>2022-04-23T09:00:57.521Z</time>
      </trkpt>
      <trkpt lat="42.03273" lon="21.26294">
        <ele>345.867163</ele>
        <time>2022-04-23T09:00:59.558Z</time>
      </trkpt>
      <trkpt lat="42.03273" lon="21.26277">
        <ele>345.632548</ele>
        <time>2022-04-23T09:01:01.488Z</time>
      </trkpt>
      <trkpt lat="42.03273" lon="21.26264">
        <ele>345.45485</ele>
        <time>2022-04-23T09:01:03.514Z</time>
      </trkpt>
      <trkpt lat="42.03278" lon="21.26252">
        <ele>345.278403</ele>
        <time>2022-04-23T09:01:05.507Z</time>
      </trkpt>
      <trkpt lat="42.03284" lon="21.2624">
        <ele>345.074657</ele>
        <time>2022-04-23T09:01:07.504Z</time>
      </trkpt>
      <trkpt lat="42.03291" lon="21.26226">
        <ele>344.847048</ele>
        <time>2022-04-23T09:01:09.516Z</time>
      </trkpt>
      <trkpt lat="42.03296" lon="21.26211">
        <ele>344.625653</ele>
        <time>2022-04-23T09:01:11.510Z</time>
      </trkpt>
      <trkpt lat="42.03301" lon="21.26197">
        <ele>344.414305</ele>
        <time>2022-04-23T09:01:13.495Z</time>
      </trkpt>
      <trkpt lat="42.03306" lon="21.26184">
        <ele>344.219038</ele>
        <time>2022-04-23T09:01:15.556Z</time>
      </trkpt>
      <trkpt lat="42.03311" lon="21.26172">
        <ele>344.03057</ele>
        <time>2022-04-23T09:01:17.511Z</time>
      </trkpt>
      <trkpt lat="42.03317" lon="21.2616">
        <ele>343.826497</ele>
        <time>2022-04-23T09:01:19.503Z</time>
      </trkpt>
      <trkpt lat="42.03324" lon="21.26146">
        <ele>343.605288</ele>
        <time>2022-04-23T09:01:21.492Z</time>
      </trkpt>
      <trkpt lat="42.03329" lon="21.26131">
        <ele>343.380578</ele>
        <time>2022-04-23T09:01:23.494Z</time>
      </trkpt>
      <trkpt lat="42.03332" lon="21.26115">
        <ele>343.16574</ele>
        <time>2022-04-23T09:01:25.503Z</time>
      </trkpt>
      <trkpt lat="42.03334" lon="21.26102">
        <ele>342.972852</ele>
        <time>2022-04-23T09:01:27.498Z</time>
      </trkpt>
      <trkpt lat="42.03337" lon="21.26088">
        <ele>342.775462</ele>
        <time>2022-04-23T09:01:29.519Z</time>
      </trkpt>
      <trkpt lat="42.03341" lon="21.26076">
        <ele>342.582016</ele>
        <time>2022-04-23T09:01:31.508Z</time>
      </trkpt>
      <trkpt lat="42.03345" lon="21.26064">
        <ele>342.397576</ele>
        <time>2022-04-23T09:01:33.511Z</time>
      </trkpt>
      <trkpt lat="42.03351" lon="21.26048">
        <ele>342.143002</ele>
        <time>2022-04-23T09:01:36.505Z</time>
      </trkpt>
      <trkpt lat="42.03354" lon="21.26035">
        <ele>341.951479</ele>
        <time>2022-04-23T09:01:38.519Z</time>
      </trkpt>
      <trkpt lat="42.03359" lon="21.2602">
        <ele>341.718829</ele>
        <time>2022-04-23T09:01:40.501Z</time>
      </trkpt>
      <trkpt lat="42.03363" lon="21.26004">
        <ele>341.477347</ele>
        <time>2022-04-23T09:01:42.522Z</time>
      </trkpt>
      <trkpt lat="42.03366" lon="21.25988">
        <ele>341.248704</ele>
        <time>2022-04-23T09:01:44.507Z</time>
      </trkpt>
      <trkpt lat="42.03369" lon="21.25974">
        <ele>341.03673</ele>
        <time>2022-04-23T09:01:46.505Z</time>
      </trkpt>
      <trkpt lat="42.03371" lon="21.2596">
        <ele>340.839439</ele>
        <time>2022-04-23T09:01:48.527Z</time>
      </trkpt>
      <trkpt lat="42.03372" lon="21.25948">
        <ele>340.662357</ele>
        <time>2022-04-23T09:01:50.496Z</time>
      </trkpt>
      <trkpt lat="42.0337" lon="21.25935">
        <ele>340.480043</ele>
        <time>2022-04-23T09:01:53.511Z</time>
      </trkpt>
      <trkpt lat="42.03366" lon="21.25923">
        <ele>340.28887</ele>
        <time>2022-04-23T09:02:01.511Z</time>
      </trkpt>
      <trkpt lat="42.03364" lon="21.2591">
        <ele>340.097543</ele>
        <time>2022-04-23T09:02:07.513Z</time>
      </trkpt>
      <trkpt lat="42.03362" lon="21.25896">
        <ele>339.895284</ele>
        <time>2022-04-23T09:02:12.514Z</time>
      </trkpt>
      <trkpt lat="42.03361" lon="21.25881">
        <ele>339.693024</ele>
        <time>2022-04-23T09:02:17.507Z</time>
      </trkpt>
      <trkpt lat="42.03361" lon="21.25868">
        <ele>339.802495</ele>
        <time>2022-04-23T09:02:21.493Z</time>
      </trkpt>
      <trkpt lat="42.03361" lon="21.25853">
        <ele>340.389364</ele>
        <time>2022-04-23T09:02:26.499Z</time>
      </trkpt>
      <trkpt lat="42.0336" lon="21.2584">
        <ele>340.914565</ele>
        <time>2022-04-23T09:02:30.507Z</time>
      </trkpt>
      <trkpt lat="42.03359" lon="21.25826">
        <ele>341.438514</ele>
        <time>2022-04-23T09:02:34.517Z</time>
      </trkpt>
      <trkpt lat="42.03358" lon="21.25812">
        <ele>341.977917</ele>
        <time>2022-04-23T09:02:38.531Z</time>
      </trkpt>
      <trkpt lat="42.03357" lon="21.25799">
        <ele>342.51876</ele>
        <time>2022-04-23T09:02:42.525Z</time>
      </trkpt>
      <trkpt lat="42.03356" lon="21.25785">
        <ele>343.044701</ele>
        <time>2022-04-23T09:02:46.509Z</time>
      </trkpt>
      <trkpt lat="42.03356" lon="21.25772">
        <ele>343.543507</ele>
        <time>2022-04-23T09:02:50.510Z</time>
      </trkpt>
      <trkpt lat="42.03355" lon="21.25759">
        <ele>344.045535</ele>
        <time>2022-04-23T09:02:54.542Z</time>
      </trkpt>
      <trkpt lat="42.03356" lon="21.25747">
        <ele>344.520137</ele>
        <time>2022-04-23T09:02:58.520Z</time>
      </trkpt>
      <trkpt lat="42.03356" lon="21.25734">
        <ele>345.015482</ele>
        <time>2022-04-23T09:03:02.518Z</time>
      </trkpt>
      <trkpt lat="42.03359" lon="21.25723">
        <ele>345.492075</ele>
        <time>2022-04-23T09:03:06.485Z</time>
      </trkpt>
      <trkpt lat="42.03361" lon="21.25709">
        <ele>346.042327</ele>
        <time>2022-04-23T09:03:11.516Z</time>
      </trkpt>
      <trkpt lat="42.03364" lon="21.25696">
        <ele>346.587013</ele>
        <time>2022-04-23T09:03:16.553Z</time>
      </trkpt>
      <trkpt lat="42.0337" lon="21.25683">
        <ele>347.146393</ele>
        <time>2022-04-23T09:03:22.514Z</time>
      </trkpt>
      <trkpt lat="42.03376" lon="21.25671">
        <ele>347.714496</ele>
        <time>2022-04-23T09:03:28.518Z</time>
      </trkpt>
      <trkpt lat="42.03381" lon="21.2566">
        <ele>348.229838</ele>
        <time>2022-04-23T09:03:33.503Z</time>
      </trkpt>
      <trkpt lat="42.03387" lon="21.2565">
        <ele>348.726169</ele>
        <time>2022-04-23T09:03:37.524Z</time>
      </trkpt>
      <trkpt lat="42.03393" lon="21.25639">
        <ele>349.153702</ele>
        <time>2022-04-23T09:03:41.518Z</time>
      </trkpt>
      <trkpt lat="42.03398" lon="21.25628">
        <ele>349.46567</ele>
        <time>2022-04-23T09:03:45.502Z</time>
      </trkpt>
      <trkpt lat="42.03403" lon="21.25614">
        <ele>349.82649</ele>
        <time>2022-04-23T09:03:49.522Z</time>
      </trkpt>
      <trkpt lat="42.03408" lon="21.25601">
        <ele>350.196446</ele>
        <time>2022-04-23T09:03:53.512Z</time>
      </trkpt>
      <trkpt lat="42.03414" lon="21.25587">
        <ele>350.568807</ele>
        <time>2022-04-23T09:03:57.522Z</time>
      </trkpt>
      <trkpt lat="42.03421" lon="21.25576">
        <ele>350.909874</ele>
        <time>2022-04-23T09:04:01.522Z</time>
      </trkpt>
      <trkpt lat="42.03428" lon="21.25569">
        <ele>351.222824</ele>
        <time>2022-04-23T09:04:05.558Z</time>
      </trkpt>
      <trkpt lat="42.03438" lon="21.25561">
        <ele>351.582156</ele>
        <time>2022-04-23T09:04:09.512Z</time>
      </trkpt>
      <trkpt lat="42.03447" lon="21.25554">
        <ele>351.913063</ele>
        <time>2022-04-23T09:04:13.514Z</time>
      </trkpt>
      <trkpt lat="42.03454" lon="21.25548">
        <ele>352.204557</ele>
        <time>2022-04-23T09:04:17.503Z</time>
      </trkpt>
      <trkpt lat="42.03462" lon="21.25541">
        <ele>352.508066</ele>
        <time>2022-04-23T09:04:21.498Z</time>
      </trkpt>
      <trkpt lat="42.0347" lon="21.25532">
        <ele>352.833967</ele>
        <time>2022-04-23T09:04:25.508Z</time>
      </trkpt>
      <trkpt lat="42.03478" lon="21.25525">
        <ele>353.145931</ele>
        <time>2022-04-23T09:04:28.518Z</time>
      </trkpt>
      <trkpt lat="42.03489" lon="21.25514">
        <ele>353.582908</ele>
        <time>2022-04-23T09:04:31.505Z</time>
      </trkpt>
      <trkpt lat="42.03498" lon="21.25505">
        <ele>353.937413</ele>
        <time>2022-04-23T09:04:33.505Z</time>
      </trkpt>
      <trkpt lat="42.03507" lon="21.25496">
        <ele>354.320164</ele>
        <time>2022-04-23T09:04:35.514Z</time>
      </trkpt>
      <trkpt lat="42.03518" lon="21.25487">
        <ele>354.729759</ele>
        <time>2022-04-23T09:04:37.516Z</time>
      </trkpt>
      <trkpt lat="42.03529" lon="21.25477">
        <ele>354.858867</ele>
        <time>2022-04-23T09:04:39.509Z</time>
      </trkpt>
      <trkpt lat="42.0354" lon="21.25467">
        <ele>354.905949</ele>
        <time>2022-04-23T09:04:41.516Z</time>
      </trkpt>
      <trkpt lat="42.03548" lon="21.25456">
        <ele>354.948141</ele>
        <time>2022-04-23T09:04:43.512Z</time>
      </trkpt>
      <trkpt lat="42.03554" lon="21.25443">
        <ele>354.989718</ele>
        <time>2022-04-23T09:04:45.505Z</time>
      </trkpt>
      <trkpt lat="42.03557" lon="21.25428">
        <ele>355.032003</ele>
        <time>2022-04-23T09:04:47.552Z</time>
      </trkpt>
      <trkpt lat="42.0356" lon="21.25415">
        <ele>355.068855</ele>
        <time>2022-04-23T09:04:49.495Z</time>
      </trkpt>
      <trkpt lat="42.03565" lon="21.25404">
        <ele>355.10438</ele>
        <time>2022-04-23T09:04:51.500Z</time>
      </trkpt>
      <trkpt lat="42.03571" lon="21.25393">
        <ele>355.141171</ele>
        <time>2022-04-23T09:04:53.501Z</time>
      </trkpt>
      <trkpt lat="42.03576" lon="21.25381">
        <ele>355.177208</ele>
        <time>2022-04-23T09:04:55.600Z</time>
      </trkpt>
      <trkpt lat="42.03581" lon="21.2537">
        <ele>355.213475</ele>
        <time>2022-04-23T09:04:57.502Z</time>
      </trkpt>
      <trkpt lat="42.03586" lon="21.25358">
        <ele>355.250539</ele>
        <time>2022-04-23T09:04:59.509Z</time>
      </trkpt>
      <trkpt lat="42.03591" lon="21.25347">
        <ele>355.286011</ele>
        <time>2022-04-23T09:05:01.487Z</time>
      </trkpt>
      <trkpt lat="42.03596" lon="21.25335">
        <ele>355.321832</ele>
        <time>2022-04-23T09:05:03.507Z</time>
      </trkpt>
      <trkpt lat="42.036" lon="21.25323">
        <ele>355.358531</ele>
        <time>2022-04-23T09:05:05.498Z</time>
      </trkpt>
      <trkpt lat="42.03604" lon="21.2531">
        <ele>355.396569</ele>
        <time>2022-04-23T09:05:07.520Z</time>
      </trkpt>
      <trkpt lat="42.03608" lon="21.25297">
        <ele>355.435606</ele>
        <time>2022-04-23T09:05:09.543Z</time>
      </trkpt>
      <trkpt lat="42.03612" lon="21.25283">
        <ele>355.474615</ele>
        <time>2022-04-23T09:05:11.495Z</time>
      </trkpt>
      <trkpt lat="42.03616" lon="21.2527">
        <ele>355.714256</ele>
        <time>2022-04-23T09:05:13.517Z</time>
      </trkpt>
      <trkpt lat="42.03621" lon="21.25258">
        <ele>355.954305</ele>
        <time>2022-04-23T09:05:15.505Z</time>
      </trkpt>
      <trkpt lat="42.03628" lon="21.25248">
        <ele>356.197838</ele>
        <time>2022-04-23T09:05:17.512Z</time>
      </trkpt>
      <trkpt lat="42.03637" lon="21.25236">
        <ele>356.512319</ele>
        <time>2022-04-23T09:05:20.508Z</time>
      </trkpt>
      <trkpt lat="42.03645" lon="21.25224">
        <ele>356.790246</ele>
        <time>2022-04-23T09:05:23.521Z</time>
      </trkpt>
      <trkpt lat="42.03653" lon="21.25215">
        <ele>357.026573</ele>
        <time>2022-04-23T09:05:26.511Z</time>
      </trkpt>
      <trkpt lat="42.0366" lon="21.25207">
        <ele>357.247972</ele>
        <time>2022-04-23T09:05:29.492Z</time>
      </trkpt>
      <trkpt lat="42.03668" lon="21.25198">
        <ele>357.505493</ele>
        <time>2022-04-23T09:05:33.534Z</time>
      </trkpt>
      <trkpt lat="42.03677" lon="21.2519">
        <ele>357.744765</ele>
        <time>2022-04-23T09:05:37.527Z</time>
      </trkpt>
      <trkpt lat="42.03686" lon="21.25183">
        <ele>358.000131</ele>
        <time>2022-04-23T09:05:42.503Z</time>
      </trkpt>
      <trkpt lat="42.03694" lon="21.25177">
        <ele>358.21284</ele>
        <time>2022-04-23T09:05:46.512Z</time>
      </trkpt>
      <trkpt lat="42.03702" lon="21.25171">
        <ele>358.429</ele>
        <time>2022-04-23T09:05:50.500Z</time>
      </trkpt>
      <trkpt lat="42.03709" lon="21.25163">
        <ele>358.648674</ele>
        <time>2022-04-23T09:05:55.546Z</time>
      </trkpt>
      <trkpt lat="42.03718" lon="21.25158">
        <ele>358.867636</ele>
        <time>2022-04-23T09:06:00.497Z</time>
      </trkpt>
      <trkpt lat="42.03725" lon="21.2515">
        <ele>359.090881</ele>
        <time>2022-04-23T09:06:07.508Z</time>
      </trkpt>
      <trkpt lat="42.03733" lon="21.25142">
        <ele>359.322276</ele>
        <time>2022-04-23T09:06:16.487Z</time>
      </trkpt>
      <trkpt lat="42.03741" lon="21.25135">
        <ele>359.558572</ele>
        <time>2022-04-23T09:06:22.494Z</time>
      </trkpt>
      <trkpt lat="42.03749" lon="21.25127">
        <ele>359.76791</ele>
        <time>2022-04-23T09:06:28.501Z</time>
      </trkpt>
      <trkpt lat="42.03757" lon="21.2512">
        <ele>359.946506</ele>
        <time>2022-04-23T09:06:37.522Z</time>
      </trkpt>
      <trkpt lat="42.03765" lon="21.25115">
        <ele>360.120571</ele>
        <time>2022-04-23T09:06:44.495Z</time>
      </trkpt>
      <trkpt lat="42.03774" lon="21.2511">
        <ele>360.307972</ele>
        <time>2022-04-23T09:06:51.537Z</time>
      </trkpt>
      <trkpt lat="42.03782" lon="21.25103">
        <ele>360.496014</ele>
        <time>2022-04-23T09:06:58.515Z</time>
      </trkpt>
      <trkpt lat="42.03792" lon="21.25098">
        <ele>360.686956</ele>
        <time>2022-04-23T09:07:05.493Z</time>
      </trkpt>
      <trkpt lat="42.038" lon="21.25094">
        <ele>360.860168</ele>
        <time>2022-04-23T09:07:12.514Z</time>
      </trkpt>
      <trkpt lat="42.03809" lon="21.2509">
        <ele>361.035643</ele>
        <time>2022-04-23T09:07:20.506Z</time>
      </trkpt>
      <trkpt lat="42.03819" lon="21.25087">
        <ele>361.234204</ele>
        <time>2022-04-23T09:07:27.494Z</time>
      </trkpt>
      <trkpt lat="42.03829" lon="21.25087">
        <ele>361.427616</ele>
        <time>2022-04-23T09:07:33.499Z</time>
      </trkpt>
      <trkpt lat="42.03838" lon="21.25084">
        <ele>361.602415</ele>
        <time>2022-04-23T09:07:37.514Z</time>
      </trkpt>
      <trkpt lat="42.0385" lon="21.25083">
        <ele>361.834597</ele>
        <time>2022-04-23T09:07:41.517Z</time>
      </trkpt>
      <trkpt lat="42.03861" lon="21.25083">
        <ele>362.03944</ele>
        <time>2022-04-23T09:07:44.512Z</time>
      </trkpt>
      <trkpt lat="42.03873" lon="21.25082">
        <ele>362.263629</ele>
        <time>2022-04-23T09:07:47.539Z</time>
      </trkpt>
      <trkpt lat="42.03884" lon="21.2508">
        <ele>362.491407</ele>
        <time>2022-04-23T09:07:50.545Z</time>
      </trkpt>
      <trkpt lat="42.03896" lon="21.25078">
        <ele>362.720568</ele>
        <time>2022-04-23T09:07:53.538Z</time>
      </trkpt>
      <trkpt lat="42.03906" lon="21.25077">
        <ele>362.911382</ele>
        <time>2022-04-23T09:07:56.507Z</time>
      </trkpt>
      <trkpt lat="42.03917" lon="21.25074">
        <ele>363.126301</ele>
        <time>2022-04-23T09:08:00.503Z</time>
      </trkpt>
      <trkpt lat="42.03927" lon="21.25073">
        <ele>363.075856</ele>
        <time>2022-04-23T09:08:04.526Z</time>
      </trkpt>
      <trkpt lat="42.03937" lon="21.25071">
        <ele>362.960874</ele>
        <time>2022-04-23T09:08:08.521Z</time>
      </trkpt>
      <trkpt lat="42.03948" lon="21.25071">
        <ele>362.826739</ele>
        <time>2022-04-23T09:08:12.508Z</time>
      </trkpt>
      <trkpt lat="42.03958" lon="21.2507">
        <ele>362.709329</ele>
        <time>2022-04-23T09:08:15.487Z</time>
      </trkpt>
      <trkpt lat="42.0397" lon="21.2507">
        <ele>362.564466</ele>
        <time>2022-04-23T09:08:18.494Z</time>
      </trkpt>
      <trkpt lat="42.03983" lon="21.25071">
        <ele>362.409986</ele>
        <time>2022-04-23T09:08:21.532Z</time>
      </trkpt>
      <trkpt lat="42.03996" lon="21.2507">
        <ele>362.257875</ele>
        <time>2022-04-23T09:08:24.489Z</time>
      </trkpt>
      <trkpt lat="42.04005" lon="21.25071">
        <ele>362.148871</ele>
        <time>2022-04-23T09:08:26.504Z</time>
      </trkpt>
      <trkpt lat="42.04014" lon="21.25071">
        <ele>362.035105</ele>
        <time>2022-04-23T09:08:28.525Z</time>
      </trkpt>
      <trkpt lat="42.04024" lon="21.25072">
        <ele>361.917614</ele>
        <time>2022-04-23T09:08:30.516Z</time>
      </trkpt>
      <trkpt lat="42.04034" lon="21.25072">
        <ele>361.794221</ele>
        <time>2022-04-23T09:08:32.511Z</time>
      </trkpt>
      <trkpt lat="42.04045" lon="21.25073">
        <ele>361.66365</ele>
        <time>2022-04-23T09:08:34.514Z</time>
      </trkpt>
      <trkpt lat="42.04055" lon="21.25073">
        <ele>361.540222</ele>
        <time>2022-04-23T09:08:36.489Z</time>
      </trkpt>
      <trkpt lat="42.04066" lon="21.25073">
        <ele>361.419222</ele>
        <time>2022-04-23T09:08:38.534Z</time>
      </trkpt>
      <trkpt lat="42.04075" lon="21.25072">
        <ele>361.305206</ele>
        <time>2022-04-23T09:08:40.500Z</time>
      </trkpt>
      <trkpt lat="42.04085" lon="21.25071">
        <ele>361.189859</ele>
        <time>2022-04-23T09:08:42.496Z</time>
      </trkpt>
      <trkpt lat="42.04094" lon="21.2507">
        <ele>361.07226</ele>
        <time>2022-04-23T09:08:44.511Z</time>
      </trkpt>
      <trkpt lat="42.04104" lon="21.25069">
        <ele>361.082228</ele>
        <time>2022-04-23T09:08:46.496Z</time>
      </trkpt>
      <trkpt lat="42.04115" lon="21.25065">
        <ele>361.245558</ele>
        <time>2022-04-23T09:08:49.537Z</time>
      </trkpt>
      <trkpt lat="42.04126" lon="21.2506">
        <ele>361.406532</ele>
        <time>2022-04-23T09:08:52.494Z</time>
      </trkpt>
      <trkpt lat="42.04136" lon="21.25057">
        <ele>361.542264</ele>
        <time>2022-04-23T09:08:55.531Z</time>
      </trkpt>
      <trkpt lat="42.04145" lon="21.25053">
        <ele>361.670182</ele>
        <time>2022-04-23T09:08:58.555Z</time>
      </trkpt>
      <trkpt lat="42.04154" lon="21.25051">
        <ele>361.801251</ele>
        <time>2022-04-23T09:09:01.497Z</time>
      </trkpt>
      <trkpt lat="42.04164" lon="21.25051">
        <ele>361.929353</ele>
        <time>2022-04-23T09:09:04.513Z</time>
      </trkpt>
      <trkpt lat="42.04173" lon="21.25052">
        <ele>362.060292</ele>
        <time>2022-04-23T09:09:07.502Z</time>
      </trkpt>
      <trkpt lat="42.04184" lon="21.25053">
        <ele>362.214154</ele>
        <time>2022-04-23T09:09:11.543Z</time>
      </trkpt>
      <trkpt lat="42.04194" lon="21.25057">
        <ele>362.349803</ele>
        <time>2022-04-23T09:09:15.498Z</time>
      </trkpt>
      <trkpt lat="42.04204" lon="21.25062">
        <ele>362.503827</ele>
        <time>2022-04-23T09:09:20.504Z</time>
      </trkpt>
      <trkpt lat="42.04215" lon="21.25067">
        <ele>362.657714</ele>
        <time>2022-04-23T09:09:25.486Z</time>
      </trkpt>
      <trkpt lat="42.04224" lon="21.25074">
        <ele>362.806484</ele>
        <time>2022-04-23T09:09:30.481Z</time>
      </trkpt>
      <trkpt lat="42.04234" lon="21.2508">
        <ele>362.958539</ele>
        <time>2022-04-23T09:09:35.474Z</time>
      </trkpt>
      <trkpt lat="42.04243" lon="21.25087">
        <ele>363.104425</ele>
        <time>2022-04-23T09:09:40.474Z</time>
      </trkpt>
      <trkpt lat="42.04251" lon="21.25096">
        <ele>363.243518</ele>
        <time>2022-04-23T09:09:45.480Z</time>
      </trkpt>
      <trkpt lat="42.04259" lon="21.25104">
        <ele>363.384505</ele>
        <time>2022-04-23T09:09:51.477Z</time>
      </trkpt>
      <trkpt lat="42.04268" lon="21.25112">
        <ele>363.633835</ele>
        <time>2022-04-23T09:09:57.478Z</time>
      </trkpt>
      <trkpt lat="42.04276" lon="21.25121">
        <ele>364.24176</ele>
        <time>2022-04-23T09:10:03.478Z</time>
      </trkpt>
      <trkpt lat="42.04283" lon="21.2513">
        <ele>364.803397</ele>
        <time>2022-04-23T09:10:09.476Z</time>
      </trkpt>
      <trkpt lat="42.0429" lon="21.25138">
        <ele>365.334812</ele>
        <time>2022-04-23T09:10:15.476Z</time>
      </trkpt>
      <trkpt lat="42.04296" lon="21.25148">
        <ele>365.899438</ele>
        <time>2022-04-23T09:10:21.473Z</time>
      </trkpt>
      <trkpt lat="42.04303" lon="21.25157">
        <ele>366.443134</ele>
        <time>2022-04-23T09:10:28.500Z</time>
      </trkpt>
      <trkpt lat="42.04309" lon="21.25165">
        <ele>366.974122</ele>
        <time>2022-04-23T09:10:34.471Z</time>
      </trkpt>
      <trkpt lat="42.04318" lon="21.25173">
        <ele>367.561899</ele>
        <time>2022-04-23T09:10:41.473Z</time>
      </trkpt>
      <trkpt lat="42.04325" lon="21.25181">
        <ele>368.133566</ele>
        <time>2022-04-23T09:10:48.473Z</time>
      </trkpt>
      <trkpt lat="42.04332" lon="21.2519">
        <ele>368.684722</ele>
        <time>2022-04-23T09:10:54.480Z</time>
      </trkpt>
      <trkpt lat="42.04339" lon="21.25198">
        <ele>369.219179</ele>
        <time>2022-04-23T09:11:00.479Z</time>
      </trkpt>
      <trkpt lat="42.04345" lon="21.25208">
        <ele>369.761687</ele>
        <time>2022-04-23T09:11:07.478Z</time>
      </trkpt>
      <trkpt lat="42.04353" lon="21.25218">
        <ele>370.380858</ele>
        <time>2022-04-23T09:11:14.471Z</time>
      </trkpt>
      <trkpt lat="42.0436" lon="21.25225">
        <ele>370.920526</ele>
        <time>2022-04-23T09:11:20.487Z</time>
      </trkpt>
      <trkpt lat="42.04369" lon="21.2523">
        <ele>371.480946</ele>
        <time>2022-04-23T09:11:28.475Z</time>
      </trkpt>
      <trkpt lat="42.04378" lon="21.25237">
        <ele>372.069332</ele>
        <time>2022-04-23T09:11:35.482Z</time>
      </trkpt>
      <trkpt lat="42.04384" lon="21.25245">
        <ele>372.599666</ele>
        <time>2022-04-23T09:11:42.473Z</time>
      </trkpt>
      <trkpt lat="42.04393" lon="21.25253">
        <ele>373.219177</ele>
        <time>2022-04-23T09:11:49.500Z</time>
      </trkpt>
      <trkpt lat="42.04401" lon="21.25261">
        <ele>373.825297</ele>
        <time>2022-04-23T09:11:55.500Z</time>
      </trkpt>
      <trkpt lat="42.0441" lon="21.2527">
        <ele>373.728348</ele>
        <time>2022-04-23T09:12:01.474Z</time>
      </trkpt>
      <trkpt lat="42.04419" lon="21.25279">
        <ele>373.379623</ele>
        <time>2022-04-23T09:12:06.505Z</time>
      </trkpt>
      <trkpt lat="42.04427" lon="21.25288">
        <ele>373.05397</ele>
        <time>2022-04-23T09:12:09.476Z</time>
      </trkpt>
      <trkpt lat="42.04434" lon="21.25297">
        <ele>372.744067</ele>
        <time>2022-04-23T09:12:11.482Z</time>
      </trkpt>
      <trkpt lat="42.04442" lon="21.25309">
        <ele>372.359837</ele>
        <time>2022-04-23T09:12:13.478Z</time>
      </trkpt>
      <trkpt lat="42.04447" lon="21.25324">
        <ele>371.96822</ele>
        <time>2022-04-23T09:12:15.485Z</time>
      </trkpt>
      <trkpt lat="42.0445" lon="21.2534">
        <ele>371.596681</ele>
        <time>2022-04-23T09:12:17.475Z</time>
      </trkpt>
      <trkpt lat="42.04461" lon="21.25349">
        <ele>371.191487</ele>
        <time>2022-04-23T09:12:20.478Z</time>
      </trkpt>
      <trkpt lat="42.0447" lon="21.25346">
        <ele>370.866655</ele>
        <time>2022-04-23T09:12:22.510Z</time>
      </trkpt>
      <trkpt lat="42.04484" lon="21.25344">
        <ele>370.441536</ele>
        <time>2022-04-23T09:12:25.482Z</time>
      </trkpt>
      <trkpt lat="42.04495" lon="21.25347">
        <ele>370.090257</ele>
        <time>2022-04-23T09:12:27.473Z</time>
      </trkpt>
      <trkpt lat="42.04508" lon="21.25353">
        <ele>369.636304</ele>
        <time>2022-04-23T09:12:29.485Z</time>
      </trkpt>
      <trkpt lat="42.04524" lon="21.25363">
        <ele>369.100759</ele>
        <time>2022-04-23T09:12:31.473Z</time>
      </trkpt>
      <trkpt lat="42.04532" lon="21.25368">
        <ele>368.805115</ele>
        <time>2022-04-23T09:12:32.472Z</time>
      </trkpt>
      <trkpt lat="42.0454" lon="21.25375">
        <ele>368.506633</ele>
        <time>2022-04-23T09:12:33.497Z</time>
      </trkpt>
      <trkpt lat="42.04548" lon="21.25381">
        <ele>368.057822</ele>
        <time>2022-04-23T09:12:34.472Z</time>
      </trkpt>
      <trkpt lat="42.04565" lon="21.25391">
        <ele>366.373071</ele>
        <time>2022-04-23T09:12:36.487Z</time>
      </trkpt>
      <trkpt lat="42.0458" lon="21.25401">
        <ele>364.745825</ele>
        <time>2022-04-23T09:12:38.476Z</time>
      </trkpt>
      <trkpt lat="42.04594" lon="21.2541">
        <ele>363.308467</ele>
        <time>2022-04-23T09:12:40.475Z</time>
      </trkpt>
      <trkpt lat="42.04608" lon="21.25419">
        <ele>361.867109</ele>
        <time>2022-04-23T09:12:42.478Z</time>
      </trkpt>
      <trkpt lat="42.04623" lon="21.25423">
        <ele>360.411197</ele>
        <time>2022-04-23T09:12:44.500Z</time>
      </trkpt>
      <trkpt lat="42.04637" lon="21.25426">
        <ele>359.051238</ele>
        <time>2022-04-23T09:12:46.476Z</time>
      </trkpt>
      <trkpt lat="42.04649" lon="21.25429">
        <ele>357.902055</ele>
        <time>2022-04-23T09:12:48.479Z</time>
      </trkpt>
      <trkpt lat="42.04663" lon="21.25429">
        <ele>356.632014</ele>
        <time>2022-04-23T09:12:50.517Z</time>
      </trkpt>
      <trkpt lat="42.04678" lon="21.25428">
        <ele>355.173015</ele>
        <time>2022-04-23T09:12:52.481Z</time>
      </trkpt>
      <trkpt lat="42.04693" lon="21.25426">
        <ele>353.820986</ele>
        <time>2022-04-23T09:12:54.483Z</time>
      </trkpt>
      <trkpt lat="42.04704" lon="21.25423">
        <ele>352.700932</ele>
        <time>2022-04-23T09:12:56.480Z</time>
      </trkpt>
      <trkpt lat="42.04713" lon="21.2542">
        <ele>351.805582</ele>
        <time>2022-04-23T09:12:58.484Z</time>
      </trkpt>
      <trkpt lat="42.04722" lon="21.25414">
        <ele>351.07789</ele>
        <time>2022-04-23T09:13:03.479Z</time>
      </trkpt>
      <trkpt lat="42.04731" lon="21.25412">
        <ele>350.410669</ele>
        <time>2022-04-23T09:13:08.472Z</time>
      </trkpt>
      <trkpt lat="42.04741" lon="21.2541">
        <ele>349.789327</ele>
        <time>2022-04-23T09:13:11.477Z</time>
      </trkpt>
      <trkpt lat="42.04753" lon="21.25407">
        <ele>348.94732</ele>
        <time>2022-04-23T09:13:14.475Z</time>
      </trkpt>
      <trkpt lat="42.04764" lon="21.25406">
        <ele>348.246295</ele>
        <time>2022-04-23T09:13:16.470Z</time>
      </trkpt>
      <trkpt lat="42.04776" lon="21.25405">
        <ele>347.43862</ele>
        <time>2022-04-23T09:13:18.472Z</time>
      </trkpt>
      <trkpt lat="42.04788" lon="21.25404">
        <ele>346.623246</ele>
        <time>2022-04-23T09:13:20.472Z</time>
      </trkpt>
      <trkpt lat="42.04801" lon="21.25402">
        <ele>345.776795</ele>
        <time>2022-04-23T09:13:22.477Z</time>
      </trkpt>
      <trkpt lat="42.04815" lon="21.25399">
        <ele>344.868737</ele>
        <time>2022-04-23T09:13:24.471Z</time>
      </trkpt>
      <trkpt lat="42.04829" lon="21.25399">
        <ele>343.95052</ele>
        <time>2022-04-23T09:13:26.474Z</time>
      </trkpt>
      <trkpt lat="42.04842" lon="21.25402">
        <ele>343.081288</ele>
        <time>2022-04-23T09:13:28.473Z</time>
      </trkpt>
      <trkpt lat="42.04854" lon="21.25407">
        <ele>342.237482</ele>
        <time>2022-04-23T09:13:30.480Z</time>
      </trkpt>
      <trkpt lat="42.04865" lon="21.25414">
        <ele>341.435981</ele>
        <time>2022-04-23T09:13:32.485Z</time>
      </trkpt>
      <trkpt lat="42.04876" lon="21.2542">
        <ele>340.668468</ele>
        <time>2022-04-23T09:13:34.472Z</time>
      </trkpt>
      <trkpt lat="42.04886" lon="21.25425">
        <ele>339.945247</ele>
        <time>2022-04-23T09:13:36.478Z</time>
      </trkpt>
      <trkpt lat="42.04895" lon="21.25428">
        <ele>339.555041</ele>
        <time>2022-04-23T09:13:38.481Z</time>
      </trkpt>
      <trkpt lat="42.04908" lon="21.25431">
        <ele>339.811099</ele>
        <time>2022-04-23T09:13:41.479Z</time>
      </trkpt>
      <trkpt lat="42.04918" lon="21.25433">
        <ele>340.015701</ele>
        <time>2022-04-23T09:13:44.476Z</time>
      </trkpt>
      <trkpt lat="42.04928" lon="21.25433">
        <ele>340.219405</ele>
        <time>2022-04-23T09:13:47.481Z</time>
      </trkpt>
      <trkpt lat="42.04939" lon="21.25433">
        <ele>340.441276</ele>
        <time>2022-04-23T09:13:50.475Z</time>
      </trkpt>
      <trkpt lat="42.04949" lon="21.25434">
        <ele>340.64966</ele>
        <time>2022-04-23T09:13:53.474Z</time>
      </trkpt>
      <trkpt lat="42.04959" lon="21.25435">
        <ele>340.843974</ele>
        <time>2022-04-23T09:13:56.472Z</time>
      </trkpt>
      <trkpt lat="42.04969" lon="21.25437">
        <ele>341.051259</ele>
        <time>2022-04-23T09:13:59.477Z</time>
      </trkpt>
      <trkpt lat="42.04979" lon="21.25441">
        <ele>341.278248</ele>
        <time>2022-04-23T09:14:02.508Z</time>
      </trkpt>
      <trkpt lat="42.04991" lon="21.25446">
        <ele>341.52627</ele>
        <time>2022-04-23T09:14:05.476Z</time>
      </trkpt>
      <trkpt lat="42.05003" lon="21.25453">
        <ele>341.789562</ele>
        <time>2022-04-23T09:14:08.514Z</time>
      </trkpt>
      <trkpt lat="42.05016" lon="21.25459">
        <ele>342.063906</ele>
        <time>2022-04-23T09:14:11.521Z</time>
      </trkpt>
      <trkpt lat="42.05025" lon="21.25462">
        <ele>342.259088</ele>
        <time>2022-04-23T09:14:13.541Z</time>
      </trkpt>
      <trkpt lat="42.05035" lon="21.25465">
        <ele>342.463948</ele>
        <time>2022-04-23T09:14:15.497Z</time>
      </trkpt>
      <trkpt lat="42.05046" lon="21.25466">
        <ele>342.682094</ele>
        <time>2022-04-23T09:14:17.518Z</time>
      </trkpt>
      <trkpt lat="42.05058" lon="21.25466">
        <ele>342.91225</ele>
        <time>2022-04-23T09:14:19.504Z</time>
      </trkpt>
      <trkpt lat="42.05071" lon="21.25467">
        <ele>343.190507</ele>
        <time>2022-04-23T09:14:21.517Z</time>
      </trkpt>
      <trkpt lat="42.05083" lon="21.25469">
        <ele>343.523795</ele>
        <time>2022-04-23T09:14:23.505Z</time>
      </trkpt>
      <trkpt lat="42.05094" lon="21.2547">
        <ele>343.824116</ele>
        <time>2022-04-23T09:14:25.496Z</time>
      </trkpt>
      <trkpt lat="42.05104" lon="21.2547">
        <ele>344.082721</ele>
        <time>2022-04-23T09:14:27.510Z</time>
      </trkpt>
      <trkpt lat="42.05114" lon="21.25471">
        <ele>344.352465</ele>
        <time>2022-04-23T09:14:29.515Z</time>
      </trkpt>
      <trkpt lat="42.05127" lon="21.25471">
        <ele>344.699971</ele>
        <time>2022-04-23T09:14:32.493Z</time>
      </trkpt>
      <trkpt lat="42.05139" lon="21.2547">
        <ele>345.039679</ele>
        <time>2022-04-23T09:14:35.494Z</time>
      </trkpt>
      <trkpt lat="42.05152" lon="21.25469">
        <ele>345.382779</ele>
        <time>2022-04-23T09:14:38.483Z</time>
      </trkpt>
      <trkpt lat="42.05164" lon="21.25468">
        <ele>345.717295</ele>
        <time>2022-04-23T09:14:41.497Z</time>
      </trkpt>
      <trkpt lat="42.05177" lon="21.25467">
        <ele>346.062681</ele>
        <time>2022-04-23T09:14:44.540Z</time>
      </trkpt>
      <trkpt lat="42.05189" lon="21.25468">
        <ele>346.394405</ele>
        <time>2022-04-23T09:14:47.519Z</time>
      </trkpt>
      <trkpt lat="42.05199" lon="21.25468">
        <ele>346.653203</ele>
        <time>2022-04-23T09:14:49.545Z</time>
      </trkpt>
      <trkpt lat="42.05209" lon="21.25469">
        <ele>346.930845</ele>
        <time>2022-04-23T09:14:51.514Z</time>
      </trkpt>
      <trkpt lat="42.0522" lon="21.2547">
        <ele>347.211714</ele>
        <time>2022-04-23T09:14:53.503Z</time>
      </trkpt>
      <trkpt lat="42.05229" lon="21.2547">
        <ele>347.467625</ele>
        <time>2022-04-23T09:14:55.502Z</time>
      </trkpt>
      <trkpt lat="42.0524" lon="21.25469">
        <ele>347.772261</ele>
        <time>2022-04-23T09:14:58.507Z</time>
      </trkpt>
      <trkpt lat="42.0525" lon="21.25469">
        <ele>348.00985</ele>
        <time>2022-04-23T09:15:01.511Z</time>
      </trkpt>
      <trkpt lat="42.0526" lon="21.2547">
        <ele>348.152736</ele>
        <time>2022-04-23T09:15:04.509Z</time>
      </trkpt>
      <trkpt lat="42.0527" lon="21.25469">
        <ele>348.309437</ele>
        <time>2022-04-23T09:15:07.522Z</time>
      </trkpt>
      <trkpt lat="42.05281" lon="21.25469">
        <ele>348.474758</ele>
        <time>2022-04-23T09:15:10.503Z</time>
      </trkpt>
      <trkpt lat="42.05292" lon="21.25469">
        <ele>348.643144</ele>
        <time>2022-04-23T09:15:13.536Z</time>
      </trkpt>
      <trkpt lat="42.05305" lon="21.25469">
        <ele>348.82653</ele>
        <time>2022-04-23T09:15:16.509Z</time>
      </trkpt>
      <trkpt lat="42.05317" lon="21.25469">
        <ele>349.018985</ele>
        <time>2022-04-23T09:15:19.531Z</time>
      </trkpt>
      <trkpt lat="42.0533" lon="21.2547">
        <ele>349.207061</ele>
        <time>2022-04-23T09:15:22.503Z</time>
      </trkpt>
      <trkpt lat="42.05342" lon="21.2547">
        <ele>349.390421</ele>
        <time>2022-04-23T09:15:25.511Z</time>
      </trkpt>
      <trkpt lat="42.05354" lon="21.2547">
        <ele>349.566319</ele>
        <time>2022-04-23T09:15:28.513Z</time>
      </trkpt>
      <trkpt lat="42.05366" lon="21.2547">
        <ele>349.746793</ele>
        <time>2022-04-23T09:15:31.529Z</time>
      </trkpt>
      <trkpt lat="42.05378" lon="21.2547">
        <ele>349.927174</ele>
        <time>2022-04-23T09:15:34.508Z</time>
      </trkpt>
      <trkpt lat="42.05389" lon="21.2547">
        <ele>350.101516</ele>
        <time>2022-04-23T09:15:37.522Z</time>
      </trkpt>
      <trkpt lat="42.05401" lon="21.25469">
        <ele>350.273081</ele>
        <time>2022-04-23T09:15:40.509Z</time>
      </trkpt>
      <trkpt lat="42.05412" lon="21.25469">
        <ele>350.444591</ele>
        <time>2022-04-23T09:15:43.504Z</time>
      </trkpt>
      <trkpt lat="42.05424" lon="21.25468">
        <ele>350.620659</ele>
        <time>2022-04-23T09:15:46.545Z</time>
      </trkpt>
      <trkpt lat="42.05436" lon="21.25466">
        <ele>350.712038</ele>
        <time>2022-04-23T09:15:49.502Z</time>
      </trkpt>
      <trkpt lat="42.05448" lon="21.25465">
        <ele>350.763848</ele>
        <time>2022-04-23T09:15:52.509Z</time>
      </trkpt>
      <trkpt lat="42.0546" lon="21.25465">
        <ele>350.814757</ele>
        <time>2022-04-23T09:15:55.523Z</time>
      </trkpt>
      <trkpt lat="42.05471" lon="21.25463">
        <ele>350.865356</ele>
        <time>2022-04-23T09:15:58.500Z</time>
      </trkpt>
      <trkpt lat="42.05483" lon="21.25462">
        <ele>350.917632</ele>
        <time>2022-04-23T09:16:01.495Z</time>
      </trkpt>
      <trkpt lat="42.05492" lon="21.25462">
        <ele>350.956506</ele>
        <time>2022-04-23T09:16:03.493Z</time>
      </trkpt>
      <trkpt lat="42.05502" lon="21.25461">
        <ele>350.998053</ele>
        <time>2022-04-23T09:16:05.517Z</time>
      </trkpt>
      <trkpt lat="42.05512" lon="21.25459">
        <ele>351.040978</ele>
        <time>2022-04-23T09:16:07.512Z</time>
      </trkpt>
      <trkpt lat="42.05522" lon="21.25456">
        <ele>351.085804</ele>
        <time>2022-04-23T09:16:09.487Z</time>
      </trkpt>
      <trkpt lat="42.05531" lon="21.25454">
        <ele>351.126154</ele>
        <time>2022-04-23T09:16:11.513Z</time>
      </trkpt>
      <trkpt lat="42.05543" lon="21.2545">
        <ele>351.176288</ele>
        <time>2022-04-23T09:16:14.493Z</time>
      </trkpt>
      <trkpt lat="42.05553" lon="21.25445">
        <ele>351.22574</ele>
        <time>2022-04-23T09:16:17.516Z</time>
      </trkpt>
      <trkpt lat="42.05564" lon="21.25439">
        <ele>351.275597</ele>
        <time>2022-04-23T09:16:20.520Z</time>
      </trkpt>
      <trkpt lat="42.05574" lon="21.25433">
        <ele>351.320981</ele>
        <time>2022-04-23T09:16:23.488Z</time>
      </trkpt>
      <trkpt lat="42.05584" lon="21.25426">
        <ele>351.369433</ele>
        <time>2022-04-23T09:16:26.513Z</time>
      </trkpt>
      <trkpt lat="42.05594" lon="21.25419">
        <ele>351.420153</ele>
        <time>2022-04-23T09:16:29.509Z</time>
      </trkpt>
      <trkpt lat="42.05605" lon="21.25411">
        <ele>351.471514</ele>
        <time>2022-04-23T09:16:32.490Z</time>
      </trkpt>
      <trkpt lat="42.05617" lon="21.25404">
        <ele>351.524642</ele>
        <time>2022-04-23T09:16:35.544Z</time>
      </trkpt>
      <trkpt lat="42.05626" lon="21.25398">
        <ele>351.565605</ele>
        <time>2022-04-23T09:16:37.577Z</time>
      </trkpt>
      <trkpt lat="42.05634" lon="21.25392">
        <ele>351.605563</ele>
        <time>2022-04-23T09:16:39.514Z</time>
      </trkpt>
      <trkpt lat="42.05642" lon="21.25386">
        <ele>351.643388</ele>
        <time>2022-04-23T09:16:41.490Z</time>
      </trkpt>
      <trkpt lat="42.05654" lon="21.25379">
        <ele>351.694156</ele>
        <time>2022-04-23T09:16:44.494Z</time>
      </trkpt>
      <trkpt lat="42.05665" lon="21.25371">
        <ele>351.746485</ele>
        <time>2022-04-23T09:16:47.552Z</time>
      </trkpt>
      <trkpt lat="42.05677" lon="21.25363">
        <ele>351.800098</ele>
        <time>2022-04-23T09:16:50.503Z</time>
      </trkpt>
      <trkpt lat="42.05685" lon="21.25357">
        <ele>351.838481</ele>
        <time>2022-04-23T09:16:52.565Z</time>
      </trkpt>
      <trkpt lat="42.05696" lon="21.25348">
        <ele>351.891364</ele>
        <time>2022-04-23T09:16:55.501Z</time>
      </trkpt>
      <trkpt lat="42.05708" lon="21.25338">
        <ele>351.947827</ele>
        <time>2022-04-23T09:16:58.494Z</time>
      </trkpt>
      <trkpt lat="42.05716" lon="21.25331">
        <ele>351.986424</ele>
        <time>2022-04-23T09:17:00.516Z</time>
      </trkpt>
      <trkpt lat="42.05724" lon="21.25324">
        <ele>352.028078</ele>
        <time>2022-04-23T09:17:02.518Z</time>
      </trkpt>
      <trkpt lat="42.05733" lon="21.25317">
        <ele>352.070347</ele>
        <time>2022-04-23T09:17:04.519Z</time>
      </trkpt>
      <trkpt lat="42.05742" lon="21.25311">
        <ele>352.108603</ele>
        <time>2022-04-23T09:17:06.512Z</time>
      </trkpt>
      <trkpt lat="42.0575" lon="21.25305">
        <ele>352.148204</ele>
        <time>2022-04-23T09:17:08.508Z</time>
      </trkpt>
      <trkpt lat="42.05759" lon="21.25298">
        <ele>352.177228</ele>
        <time>2022-04-23T09:17:10.510Z</time>
      </trkpt>
      <trkpt lat="42.05767" lon="21.25291">
        <ele>351.93891</ele>
        <time>2022-04-23T09:17:12.512Z</time>
      </trkpt>
      <trkpt lat="42.05775" lon="21.25283">
        <ele>351.691936</ele>
        <time>2022-04-23T09:17:14.539Z</time>
      </trkpt>
      <trkpt lat="42.05782" lon="21.25275">
        <ele>351.446077</ele>
        <time>2022-04-23T09:17:16.500Z</time>
      </trkpt>
      <trkpt lat="42.0579" lon="21.25267">
        <ele>351.196848</ele>
        <time>2022-04-23T09:17:18.511Z</time>
      </trkpt>
      <trkpt lat="42.058" lon="21.25258">
        <ele>350.899712</ele>
        <time>2022-04-23T09:17:21.504Z</time>
      </trkpt>
      <trkpt lat="42.05811" lon="21.25252">
        <ele>350.602195</ele>
        <time>2022-04-23T09:17:24.513Z</time>
      </trkpt>
      <trkpt lat="42.05821" lon="21.25247">
        <ele>350.356103</ele>
        <time>2022-04-23T09:17:26.499Z</time>
      </trkpt>
      <trkpt lat="42.0583" lon="21.25242">
        <ele>350.094307</ele>
        <time>2022-04-23T09:17:28.488Z</time>
      </trkpt>
      <trkpt lat="42.0584" lon="21.25236">
        <ele>349.840145</ele>
        <time>2022-04-23T09:17:30.498Z</time>
      </trkpt>
      <trkpt lat="42.0585" lon="21.25229">
        <ele>349.560901</ele>
        <time>2022-04-23T09:17:32.513Z</time>
      </trkpt>
      <trkpt lat="42.05859" lon="21.25223">
        <ele>349.299416</ele>
        <time>2022-04-23T09:17:34.489Z</time>
      </trkpt>
      <trkpt lat="42.05868" lon="21.25216">
        <ele>349.040896</ele>
        <time>2022-04-23T09:17:36.517Z</time>
      </trkpt>
      <trkpt lat="42.05877" lon="21.25209">
        <ele>348.782031</ele>
        <time>2022-04-23T09:17:38.480Z</time>
      </trkpt>
      <trkpt lat="42.05886" lon="21.25202">
        <ele>348.531068</ele>
        <time>2022-04-23T09:17:40.495Z</time>
      </trkpt>
      <trkpt lat="42.05895" lon="21.25196">
        <ele>348.289732</ele>
        <time>2022-04-23T09:17:42.545Z</time>
      </trkpt>
      <trkpt lat="42.05903" lon="21.25189">
        <ele>348.048075</ele>
        <time>2022-04-23T09:17:44.516Z</time>
      </trkpt>
      <trkpt lat="42.05914" lon="21.2518">
        <ele>347.718154</ele>
        <time>2022-04-23T09:17:47.517Z</time>
      </trkpt>
      <trkpt lat="42.05925" lon="21.25173">
        <ele>347.770108</ele>
        <time>2022-04-23T09:17:50.510Z</time>
      </trkpt>
      <trkpt lat="42.05935" lon="21.25165">
        <ele>347.824439</ele>
        <time>2022-04-23T09:17:53.513Z</time>
      </trkpt>
      <trkpt lat="42.05945" lon="21.25157">
        <ele>347.877562</ele>
        <time>2022-04-23T09:17:56.511Z</time>
      </trkpt>
      <trkpt lat="42.05954" lon="21.2515">
        <ele>347.928369</ele>
        <time>2022-04-23T09:17:59.505Z</time>
      </trkpt>
      <trkpt lat="42.05963" lon="21.25143">
        <ele>347.979984</ele>
        <time>2022-04-23T09:18:03.526Z</time>
      </trkpt>
      <trkpt lat="42.05972" lon="21.25134">
        <ele>348.031755</ele>
        <time>2022-04-23T09:18:07.525Z</time>
      </trkpt>
      <trkpt lat="42.0598" lon="21.25124">
        <ele>348.082896</ele>
        <time>2022-04-23T09:18:11.524Z</time>
      </trkpt>
      <trkpt lat="42.0599" lon="21.25115">
        <ele>348.139575</ele>
        <time>2022-04-23T09:18:15.502Z</time>
      </trkpt>
      <trkpt lat="42.05999" lon="21.25109">
        <ele>348.188881</ele>
        <time>2022-04-23T09:18:18.534Z</time>
      </trkpt>
      <trkpt lat="42.06008" lon="21.25104">
        <ele>348.234495</ele>
        <time>2022-04-23T09:18:21.532Z</time>
      </trkpt>
      <trkpt lat="42.06017" lon="21.25098">
        <ele>348.280112</ele>
        <time>2022-04-23T09:18:24.526Z</time>
      </trkpt>
      <trkpt lat="42.06027" lon="21.25092">
        <ele>348.335</ele>
        <time>2022-04-23T09:18:28.503Z</time>
      </trkpt>
      <trkpt lat="42.06038" lon="21.25087">
        <ele>348.390425</ele>
        <time>2022-04-23T09:18:32.533Z</time>
      </trkpt>
      <trkpt lat="42.06047" lon="21.25081">
        <ele>348.438353</ele>
        <time>2022-04-23T09:18:35.505Z</time>
      </trkpt>
      <trkpt lat="42.06058" lon="21.25076">
        <ele>348.49264</ele>
        <time>2022-04-23T09:18:38.507Z</time>
      </trkpt>
      <trkpt lat="42.06071" lon="21.2507">
        <ele>348.557207</ele>
        <time>2022-04-23T09:18:41.511Z</time>
      </trkpt>
      <trkpt lat="42.0608" lon="21.25064">
        <ele>348.582372</ele>
        <time>2022-04-23T09:18:43.497Z</time>
      </trkpt>
      <trkpt lat="42.06089" lon="21.25058">
        <ele>348.599215</ele>
        <time>2022-04-23T09:18:45.503Z</time>
      </trkpt>
      <trkpt lat="42.061" lon="21.25049">
        <ele>348.622136</ele>
        <time>2022-04-23T09:18:48.515Z</time>
      </trkpt>
      <trkpt lat="42.06109" lon="21.25039">
        <ele>348.643017</ele>
        <time>2022-04-23T09:18:51.557Z</time>
      </trkpt>
      <trkpt lat="42.06118" lon="21.25029">
        <ele>348.663641</ele>
        <time>2022-04-23T09:18:54.514Z</time>
      </trkpt>
      <trkpt lat="42.06126" lon="21.2502">
        <ele>348.682291</ele>
        <time>2022-04-23T09:18:57.501Z</time>
      </trkpt>
      <trkpt lat="42.06134" lon="21.2501">
        <ele>348.700941</ele>
        <time>2022-04-23T09:19:00.504Z</time>
      </trkpt>
      <trkpt lat="42.06142" lon="21.25002">
        <ele>348.718786</ele>
        <time>2022-04-23T09:19:03.526Z</time>
      </trkpt>
      <trkpt lat="42.06149" lon="21.24991">
        <ele>348.738451</ele>
        <time>2022-04-23T09:19:06.505Z</time>
      </trkpt>
      <trkpt lat="42.06158" lon="21.24979">
        <ele>348.759777</ele>
        <time>2022-04-23T09:19:09.544Z</time>
      </trkpt>
      <trkpt lat="42.06166" lon="21.24968">
        <ele>348.78058</ele>
        <time>2022-04-23T09:19:12.513Z</time>
      </trkpt>
      <trkpt lat="42.06175" lon="21.24957">
        <ele>348.80206</ele>
        <time>2022-04-23T09:19:15.505Z</time>
      </trkpt>
      <trkpt lat="42.06184" lon="21.24944">
        <ele>348.825247</ele>
        <time>2022-04-23T09:19:18.524Z</time>
      </trkpt>
      <trkpt lat="42.06194" lon="21.24931">
        <ele>348.84943</ele>
        <time>2022-04-23T09:19:21.524Z</time>
      </trkpt>
      <trkpt lat="42.06201" lon="21.24923">
        <ele>348.865456</ele>
        <time>2022-04-23T09:19:23.530Z</time>
      </trkpt>
      <trkpt lat="42.0621" lon="21.2491">
        <ele>348.899119</ele>
        <time>2022-04-23T09:19:26.504Z</time>
      </trkpt>
      <trkpt lat="42.06218" lon="21.24897">
        <ele>349.000941</ele>
        <time>2022-04-23T09:19:29.498Z</time>
      </trkpt>
      <trkpt lat="42.06227" lon="21.24885">
        <ele>349.10469</ele>
        <time>2022-04-23T09:19:32.506Z</time>
      </trkpt>
      <trkpt lat="42.06235" lon="21.24875">
        <ele>349.197701</ele>
        <time>2022-04-23T09:19:35.494Z</time>
      </trkpt>
      <trkpt lat="42.06244" lon="21.24865">
        <ele>349.288685</ele>
        <time>2022-04-23T09:19:38.500Z</time>
      </trkpt>
      <trkpt lat="42.06252" lon="21.24856">
        <ele>349.373224</ele>
        <time>2022-04-23T09:19:41.543Z</time>
      </trkpt>
      <trkpt lat="42.0626" lon="21.24848">
        <ele>349.457868</ele>
        <time>2022-04-23T09:19:44.541Z</time>
      </trkpt>
      <trkpt lat="42.06268" lon="21.2484">
        <ele>349.538851</ele>
        <time>2022-04-23T09:19:47.550Z</time>
      </trkpt>
      <trkpt lat="42.06277" lon="21.24833">
        <ele>349.620568</ele>
        <time>2022-04-23T09:19:50.515Z</time>
      </trkpt>
      <trkpt lat="42.06285" lon="21.24826">
        <ele>349.705328</ele>
        <time>2022-04-23T09:19:53.496Z</time>
      </trkpt>
      <trkpt lat="42.06295" lon="21.24818">
        <ele>349.793505</ele>
        <time>2022-04-23T09:19:56.521Z</time>
      </trkpt>
      <trkpt lat="42.06305" lon="21.2481">
        <ele>349.890557</ele>
        <time>2022-04-23T09:19:59.509Z</time>
      </trkpt>
      <trkpt lat="42.06314" lon="21.24803">
        <ele>349.976726</ele>
        <time>2022-04-23T09:20:02.501Z</time>
      </trkpt>
      <trkpt lat="42.06323" lon="21.24797">
        <ele>350.060716</ele>
        <time>2022-04-23T09:20:05.517Z</time>
      </trkpt>
      <trkpt lat="42.06332" lon="21.24792">
        <ele>350.135383</ele>
        <time>2022-04-23T09:20:08.521Z</time>
      </trkpt>
      <trkpt lat="42.0634" lon="21.24785">
        <ele>350.215079</ele>
        <time>2022-04-23T09:20:11.503Z</time>
      </trkpt>
      <trkpt lat="42.06348" lon="21.2478">
        <ele>350.290195</ele>
        <time>2022-04-23T09:20:14.508Z</time>
      </trkpt>
      <trkpt lat="42.06359" lon="21.24774">
        <ele>350.412307</ele>
        <time>2022-04-23T09:20:18.489Z</time>
      </trkpt>
      <trkpt lat="42.06368" lon="21.2477">
        <ele>350.543105</ele>
        <time>2022-04-23T09:20:21.501Z</time>
      </trkpt>
      <trkpt lat="42.06379" lon="21.24765">
        <ele>350.710347</ele>
        <time>2022-04-23T09:20:25.518Z</time>
      </trkpt>
      <trkpt lat="42.06388" lon="21.24761">
        <ele>350.850348</ele>
        <time>2022-04-23T09:20:28.506Z</time>
      </trkpt>
      <trkpt lat="42.06398" lon="21.24757">
        <ele>351.001978</ele>
        <time>2022-04-23T09:20:31.505Z</time>
      </trkpt>
      <trkpt lat="42.06409" lon="21.24753">
        <ele>351.164722</ele>
        <time>2022-04-23T09:20:34.511Z</time>
      </trkpt>
      <trkpt lat="42.06419" lon="21.24748">
        <ele>351.31396</ele>
        <time>2022-04-23T09:20:37.519Z</time>
      </trkpt>
      <trkpt lat="42.06428" lon="21.24744">
        <ele>351.448993</ele>
        <time>2022-04-23T09:20:40.533Z</time>
      </trkpt>
      <trkpt lat="42.06437" lon="21.2474">
        <ele>351.583485</ele>
        <time>2022-04-23T09:20:43.556Z</time>
      </trkpt>
      <trkpt lat="42.06446" lon="21.24735">
        <ele>351.728913</ele>
        <time>2022-04-23T09:20:46.502Z</time>
      </trkpt>
      <trkpt lat="42.06456" lon="21.24731">
        <ele>351.877806</ele>
        <time>2022-04-23T09:20:49.502Z</time>
      </trkpt>
      <trkpt lat="42.06465" lon="21.24728">
        <ele>352.010633</ele>
        <time>2022-04-23T09:20:52.485Z</time>
      </trkpt>
      <trkpt lat="42.06475" lon="21.24727">
        <ele>352.155832</ele>
        <time>2022-04-23T09:20:55.506Z</time>
      </trkpt>
      <trkpt lat="42.06484" lon="21.24724">
        <ele>352.295699</ele>
        <time>2022-04-23T09:20:58.498Z</time>
      </trkpt>
      <trkpt lat="42.06494" lon="21.24721">
        <ele>352.437666</ele>
        <time>2022-04-23T09:21:01.515Z</time>
      </trkpt>
      <trkpt lat="42.06504" lon="21.24718">
        <ele>352.579395</ele>
        <time>2022-04-23T09:21:04.518Z</time>
      </trkpt>
      <trkpt lat="42.06513" lon="21.24714">
        <ele>352.724154</ele>
        <time>2022-04-23T09:21:07.506Z</time>
      </trkpt>
      <trkpt lat="42.06523" lon="21.2471">
        <ele>352.873676</ele>
        <time>2022-04-23T09:21:10.509Z</time>
      </trkpt>
      <trkpt lat="42.06532" lon="21.24706">
        <ele>353.159434</ele>
        <time>2022-04-23T09:21:13.520Z</time>
      </trkpt>
      <trkpt lat="42.06541" lon="21.24703">
        <ele>353.651774</ele>
        <time>2022-04-23T09:21:16.522Z</time>
      </trkpt>
      <trkpt lat="42.0655" lon="21.24698">
        <ele>354.202312</ele>
        <time>2022-04-23T09:21:19.511Z</time>
      </trkpt>
      <trkpt lat="42.06559" lon="21.24693">
        <ele>354.715542</ele>
        <time>2022-04-23T09:21:22.505Z</time>
      </trkpt>
      <trkpt lat="42.06569" lon="21.24687">
        <ele>355.327208</ele>
        <time>2022-04-23T09:21:26.499Z</time>
      </trkpt>
      <trkpt lat="42.06578" lon="21.24683">
        <ele>355.827787</ele>
        <time>2022-04-23T09:21:30.512Z</time>
      </trkpt>
      <trkpt lat="42.06588" lon="21.24678">
        <ele>356.39048</ele>
        <time>2022-04-23T09:21:35.527Z</time>
      </trkpt>
      <trkpt lat="42.06596" lon="21.24673">
        <ele>356.900475</ele>
        <time>2022-04-23T09:21:39.501Z</time>
      </trkpt>
      <trkpt lat="42.06605" lon="21.24666">
        <ele>357.426165</ele>
        <time>2022-04-23T09:21:43.510Z</time>
      </trkpt>
      <trkpt lat="42.06613" lon="21.24659">
        <ele>357.931468</ele>
        <time>2022-04-23T09:21:47.518Z</time>
      </trkpt>
      <trkpt lat="42.06622" lon="21.24651">
        <ele>358.522365</ele>
        <time>2022-04-23T09:21:51.512Z</time>
      </trkpt>
      <trkpt lat="42.06632" lon="21.24642">
        <ele>359.159399</ele>
        <time>2022-04-23T09:21:55.508Z</time>
      </trkpt>
      <trkpt lat="42.06639" lon="21.24634">
        <ele>359.668719</ele>
        <time>2022-04-23T09:21:58.498Z</time>
      </trkpt>
      <trkpt lat="42.06648" lon="21.24624">
        <ele>360.311934</ele>
        <time>2022-04-23T09:22:02.535Z</time>
      </trkpt>
      <trkpt lat="42.06655" lon="21.24615">
        <ele>360.807874</ele>
        <time>2022-04-23T09:22:05.541Z</time>
      </trkpt>
      <trkpt lat="42.06662" lon="21.24607">
        <ele>361.322773</ele>
        <time>2022-04-23T09:22:08.517Z</time>
      </trkpt>
      <trkpt lat="42.0667" lon="21.24596">
        <ele>361.914298</ele>
        <time>2022-04-23T09:22:11.510Z</time>
      </trkpt>
      <trkpt lat="42.06677" lon="21.24587">
        <ele>362.462512</ele>
        <time>2022-04-23T09:22:14.504Z</time>
      </trkpt>
      <trkpt lat="42.06683" lon="21.24577">
        <ele>362.645778</ele>
        <time>2022-04-23T09:22:17.512Z</time>
      </trkpt>
      <trkpt lat="42.0669" lon="21.24567">
        <ele>362.653099</ele>
        <time>2022-04-23T09:22:20.489Z</time>
      </trkpt>
      <trkpt lat="42.06696" lon="21.24556">
        <ele>362.660668</ele>
        <time>2022-04-23T09:22:23.512Z</time>
      </trkpt>
      <trkpt lat="42.06703" lon="21.24545">
        <ele>362.668472</ele>
        <time>2022-04-23T09:22:26.519Z</time>
      </trkpt>
      <trkpt lat="42.06708" lon="21.24532">
        <ele>362.676559</ele>
        <time>2022-04-23T09:22:29.500Z</time>
      </trkpt>
      <trkpt lat="42.06714" lon="21.2452">
        <ele>362.684726</ele>
        <time>2022-04-23T09:22:32.498Z</time>
      </trkpt>
      <trkpt lat="42.0672" lon="21.24507">
        <ele>362.693097</ele>
        <time>2022-04-23T09:22:35.517Z</time>
      </trkpt>
      <trkpt lat="42.06725" lon="21.24495">
        <ele>362.701031</ele>
        <time>2022-04-23T09:22:38.492Z</time>
      </trkpt>
      <trkpt lat="42.06731" lon="21.24482">
        <ele>362.709413</ele>
        <time>2022-04-23T09:22:41.504Z</time>
      </trkpt>
      <trkpt lat="42.06736" lon="21.24467">
        <ele>362.718427</ele>
        <time>2022-04-23T09:22:44.501Z</time>
      </trkpt>
      <trkpt lat="42.06742" lon="21.24453">
        <ele>362.727422</ele>
        <time>2022-04-23T09:22:47.536Z</time>
      </trkpt>
      <trkpt lat="42.06747" lon="21.24438">
        <ele>362.736683</ele>
        <time>2022-04-23T09:22:50.509Z</time>
      </trkpt>
      <trkpt lat="42.06753" lon="21.24423">
        <ele>362.745851</ele>
        <time>2022-04-23T09:22:53.509Z</time>
      </trkpt>
      <trkpt lat="42.06759" lon="21.24409">
        <ele>362.754929</ele>
        <time>2022-04-23T09:22:56.513Z</time>
      </trkpt>
      <trkpt lat="42.06765" lon="21.24394">
        <ele>362.764231</ele>
        <time>2022-04-23T09:22:59.502Z</time>
      </trkpt>
      <trkpt lat="42.06771" lon="21.24379">
        <ele>362.773702</ele>
        <time>2022-04-23T09:23:02.495Z</time>
      </trkpt>
      <trkpt lat="42.06777" lon="21.24365">
        <ele>362.433811</ele>
        <time>2022-04-23T09:23:05.503Z</time>
      </trkpt>
      <trkpt lat="42.06783" lon="21.2435">
        <ele>362.022911</ele>
        <time>2022-04-23T09:23:08.496Z</time>
      </trkpt>
      <trkpt lat="42.06789" lon="21.24334">
        <ele>361.592639</ele>
        <time>2022-04-23T09:23:11.486Z</time>
      </trkpt>
      <trkpt lat="42.06795" lon="21.2432">
        <ele>361.183875</ele>
        <time>2022-04-23T09:23:14.501Z</time>
      </trkpt>
      <trkpt lat="42.06801" lon="21.24306">
        <ele>360.792798</ele>
        <time>2022-04-23T09:23:17.553Z</time>
      </trkpt>
      <trkpt lat="42.06806" lon="21.24292">
        <ele>360.406994</ele>
        <time>2022-04-23T09:23:20.490Z</time>
      </trkpt>
      <trkpt lat="42.0681" lon="21.24277">
        <ele>360.034493</ele>
        <time>2022-04-23T09:23:23.538Z</time>
      </trkpt>
      <trkpt lat="42.06816" lon="21.24265">
        <ele>359.670105</ele>
        <time>2022-04-23T09:23:26.514Z</time>
      </trkpt>
      <trkpt lat="42.06824" lon="21.2426">
        <ele>359.371103</ele>
        <time>2022-04-23T09:23:29.499Z</time>
      </trkpt>
      <trkpt lat="42.06834" lon="21.24253">
        <ele>358.9951</ele>
        <time>2022-04-23T09:23:34.492Z</time>
      </trkpt>
      <trkpt lat="42.06844" lon="21.24243">
        <ele>358.605376</ele>
        <time>2022-04-23T09:23:38.519Z</time>
      </trkpt>
      <trkpt lat="42.06852" lon="21.24231">
        <ele>358.216357</ele>
        <time>2022-04-23T09:23:41.503Z</time>
      </trkpt>
      <trkpt lat="42.06859" lon="21.24219">
        <ele>357.816274</ele>
        <time>2022-04-23T09:23:44.511Z</time>
      </trkpt>
      <trkpt lat="42.06867" lon="21.24206">
        <ele>357.419781</ele>
        <time>2022-04-23T09:23:47.514Z</time>
      </trkpt>
      <trkpt lat="42.06874" lon="21.24193">
        <ele>357.015868</ele>
        <time>2022-04-23T09:23:50.555Z</time>
      </trkpt>
      <trkpt lat="42.06882" lon="21.24181">
        <ele>356.807866</ele>
        <time>2022-04-23T09:23:53.505Z</time>
      </trkpt>
      <trkpt lat="42.06889" lon="21.24169">
        <ele>356.760972</ele>
        <time>2022-04-23T09:23:56.494Z</time>
      </trkpt>
      <trkpt lat="42.06896" lon="21.24157">
        <ele>356.710874</ele>
        <time>2022-04-23T09:23:59.487Z</time>
      </trkpt>
      <trkpt lat="42.06903" lon="21.24144">
        <ele>356.660529</ele>
        <time>2022-04-23T09:24:02.519Z</time>
      </trkpt>
      <trkpt lat="42.06911" lon="21.24131">
        <ele>356.611891</ele>
        <time>2022-04-23T09:24:05.518Z</time>
      </trkpt>
      <trkpt lat="42.06917" lon="21.24119">
        <ele>356.5655</ele>
        <time>2022-04-23T09:24:08.521Z</time>
      </trkpt>
      <trkpt lat="42.06924" lon="21.24107">
        <ele>356.520605</ele>
        <time>2022-04-23T09:24:11.509Z</time>
      </trkpt>
      <trkpt lat="42.06931" lon="21.24096">
        <ele>356.47351</ele>
        <time>2022-04-23T09:24:14.519Z</time>
      </trkpt>
      <trkpt lat="42.06939" lon="21.24084">
        <ele>356.423235</ele>
        <time>2022-04-23T09:24:17.537Z</time>
      </trkpt>
      <trkpt lat="42.06948" lon="21.24072">
        <ele>356.373313</ele>
        <time>2022-04-23T09:24:20.502Z</time>
      </trkpt>
      <trkpt lat="42.06956" lon="21.24061">
        <ele>356.324948</ele>
        <time>2022-04-23T09:24:23.511Z</time>
      </trkpt>
      <trkpt lat="42.06963" lon="21.2405">
        <ele>356.278476</ele>
        <time>2022-04-23T09:24:26.521Z</time>
      </trkpt>
      <trkpt lat="42.06971" lon="21.2404">
        <ele>356.231789</ele>
        <time>2022-04-23T09:24:29.511Z</time>
      </trkpt>
      <trkpt lat="42.0698" lon="21.24029">
        <ele>356.181229</ele>
        <time>2022-04-23T09:24:32.518Z</time>
      </trkpt>
      <trkpt lat="42.06991" lon="21.24018">
        <ele>356.127549</ele>
        <time>2022-04-23T09:24:35.497Z</time>
      </trkpt>
      <trkpt lat="42.07" lon="21.24007">
        <ele>356.130347</ele>
        <time>2022-04-23T09:24:38.538Z</time>
      </trkpt>
      <trkpt lat="42.0701" lon="21.23996">
        <ele>356.368688</ele>
        <time>2022-04-23T09:24:41.518Z</time>
      </trkpt>
      <trkpt lat="42.0702" lon="21.23985">
        <ele>356.611724</ele>
        <time>2022-04-23T09:24:44.526Z</time>
      </trkpt>
      <trkpt lat="42.0703" lon="21.23976">
        <ele>356.837569</ele>
        <time>2022-04-23T09:24:47.499Z</time>
      </trkpt>
      <trkpt lat="42.07039" lon="21.23967">
        <ele>357.059836</ele>
        <time>2022-04-23T09:24:50.543Z</time>
      </trkpt>
      <trkpt lat="42.07048" lon="21.23956">
        <ele>357.291864</ele>
        <time>2022-04-23T09:24:53.490Z</time>
      </trkpt>
      <trkpt lat="42.07057" lon="21.23946">
        <ele>357.514129</ele>
        <time>2022-04-23T09:24:56.475Z</time>
      </trkpt>
      <trkpt lat="42.07067" lon="21.23936">
        <ele>357.746563</ele>
        <time>2022-04-23T09:24:59.526Z</time>
      </trkpt>
      <trkpt lat="42.07077" lon="21.23926">
        <ele>357.986346</ele>
        <time>2022-04-23T09:25:02.492Z</time>
      </trkpt>
      <trkpt lat="42.07087" lon="21.23915">
        <ele>358.238892</ele>
        <time>2022-04-23T09:25:05.508Z</time>
      </trkpt>
      <trkpt lat="42.07095" lon="21.23908">
        <ele>358.413973</ele>
        <time>2022-04-23T09:25:07.501Z</time>
      </trkpt>
      <trkpt lat="42.07102" lon="21.239">
        <ele>358.590185</ele>
        <time>2022-04-23T09:25:09.525Z</time>
      </trkpt>
      <trkpt lat="42.07109" lon="21.23893">
        <ele>358.762299</ele>
        <time>2022-04-23T09:25:11.515Z</time>
      </trkpt>
      <trkpt lat="42.07116" lon="21.23885">
        <ele>358.936133</ele>
        <time>2022-04-23T09:25:13.512Z</time>
      </trkpt>
      <trkpt lat="42.07124" lon="21.23878">
        <ele>359.113492</ele>
        <time>2022-04-23T09:25:15.502Z</time>
      </trkpt>
      <trkpt lat="42.07133" lon="21.23867">
        <ele>359.344712</ele>
        <time>2022-04-23T09:25:18.486Z</time>
      </trkpt>
      <trkpt lat="42.07142" lon="21.23856">
        <ele>359.539592</ele>
        <time>2022-04-23T09:25:21.514Z</time>
      </trkpt>
      <trkpt lat="42.07152" lon="21.23847">
        <ele>359.609092</ele>
        <time>2022-04-23T09:25:24.513Z</time>
      </trkpt>
      <trkpt lat="42.07159" lon="21.23838">
        <ele>359.668989</ele>
        <time>2022-04-23T09:25:27.511Z</time>
      </trkpt>
      <trkpt lat="42.07167" lon="21.2383">
        <ele>359.727614</ele>
        <time>2022-04-23T09:25:30.486Z</time>
      </trkpt>
      <trkpt lat="42.07175" lon="21.2382">
        <ele>359.788958</ele>
        <time>2022-04-23T09:25:33.500Z</time>
      </trkpt>
      <trkpt lat="42.07184" lon="21.23811">
        <ele>359.855503</ele>
        <time>2022-04-23T09:25:36.507Z</time>
      </trkpt>
      <trkpt lat="42.07193" lon="21.23802">
        <ele>359.925208</ele>
        <time>2022-04-23T09:25:39.545Z</time>
      </trkpt>
      <trkpt lat="42.07202" lon="21.23792">
        <ele>359.9935</ele>
        <time>2022-04-23T09:25:42.486Z</time>
      </trkpt>
      <trkpt lat="42.07211" lon="21.2378">
        <ele>360.068231</ele>
        <time>2022-04-23T09:25:45.540Z</time>
      </trkpt>
      <trkpt lat="42.07219" lon="21.23773">
        <ele>360.123966</ele>
        <time>2022-04-23T09:25:47.548Z</time>
      </trkpt>
      <trkpt lat="42.07227" lon="21.23766">
        <ele>360.178839</ele>
        <time>2022-04-23T09:25:49.512Z</time>
      </trkpt>
      <trkpt lat="42.07234" lon="21.23759">
        <ele>360.232713</ele>
        <time>2022-04-23T09:25:51.512Z</time>
      </trkpt>
      <trkpt lat="42.07242" lon="21.23752">
        <ele>360.289095</ele>
        <time>2022-04-23T09:25:53.496Z</time>
      </trkpt>
      <trkpt lat="42.07254" lon="21.23744">
        <ele>360.365961</ele>
        <time>2022-04-23T09:25:56.493Z</time>
      </trkpt>
      <trkpt lat="42.07265" lon="21.23734">
        <ele>360.447182</ele>
        <time>2022-04-23T09:25:59.535Z</time>
      </trkpt>
      <trkpt lat="42.07276" lon="21.23726">
        <ele>360.521377</ele>
        <time>2022-04-23T09:26:02.506Z</time>
      </trkpt>
      <trkpt lat="42.07286" lon="21.23718">
        <ele>360.578589</ele>
        <time>2022-04-23T09:26:05.508Z</time>
      </trkpt>
      <trkpt lat="42.07296" lon="21.23711">
        <ele>360.426714</ele>
        <time>2022-04-23T09:26:08.508Z</time>
      </trkpt>
      <trkpt lat="42.07305" lon="21.23705">
        <ele>360.283721</ele>
        <time>2022-04-23T09:26:11.501Z</time>
      </trkpt>
      <trkpt lat="42.07315" lon="21.23698">
        <ele>360.123306</ele>
        <time>2022-04-23T09:26:14.515Z</time>
      </trkpt>
      <trkpt lat="42.07327" lon="21.23691">
        <ele>359.947484</ele>
        <time>2022-04-23T09:26:17.513Z</time>
      </trkpt>
      <trkpt lat="42.07337" lon="21.23683">
        <ele>359.784698</ele>
        <time>2022-04-23T09:26:20.502Z</time>
      </trkpt>
      <trkpt lat="42.07347" lon="21.23675">
        <ele>359.619924</ele>
        <time>2022-04-23T09:26:23.502Z</time>
      </trkpt>
      <trkpt lat="42.07357" lon="21.23667">
        <ele>359.454399</ele>
        <time>2022-04-23T09:26:26.519Z</time>
      </trkpt>
      <trkpt lat="42.07368" lon="21.2366">
        <ele>359.29181</ele>
        <time>2022-04-23T09:26:29.513Z</time>
      </trkpt>
      <trkpt lat="42.07379" lon="21.23652">
        <ele>359.11894</ele>
        <time>2022-04-23T09:26:32.508Z</time>
      </trkpt>
      <trkpt lat="42.0739" lon="21.23644">
        <ele>358.934256</ele>
        <time>2022-04-23T09:26:35.513Z</time>
      </trkpt>
      <trkpt lat="42.07399" lon="21.23639">
        <ele>358.807763</ele>
        <time>2022-04-23T09:26:37.521Z</time>
      </trkpt>
      <trkpt lat="42.07407" lon="21.23633">
        <ele>358.679353</ele>
        <time>2022-04-23T09:26:39.538Z</time>
      </trkpt>
      <trkpt lat="42.07416" lon="21.23626">
        <ele>358.530564</ele>
        <time>2022-04-23T09:26:41.522Z</time>
      </trkpt>
      <trkpt lat="42.07426" lon="21.23618">
        <ele>358.370452</ele>
        <time>2022-04-23T09:26:43.502Z</time>
      </trkpt>
      <trkpt lat="42.07436" lon="21.23611">
        <ele>358.211842</ele>
        <time>2022-04-23T09:26:45.509Z</time>
      </trkpt>
      <trkpt lat="42.07447" lon="21.23603">
        <ele>358.028154</ele>
        <time>2022-04-23T09:26:47.520Z</time>
      </trkpt>
      <trkpt lat="42.07458" lon="21.23595">
        <ele>357.800469</ele>
        <time>2022-04-23T09:26:49.512Z</time>
      </trkpt>
      <trkpt lat="42.07468" lon="21.23587">
        <ele>357.578263</ele>
        <time>2022-04-23T09:26:51.504Z</time>
      </trkpt>
      <trkpt lat="42.07479" lon="21.2358">
        <ele>357.357362</ele>
        <time>2022-04-23T09:26:53.498Z</time>
      </trkpt>
      <trkpt lat="42.0749" lon="21.23572">
        <ele>357.138993</ele>
        <time>2022-04-23T09:26:55.502Z</time>
      </trkpt>
      <trkpt lat="42.07499" lon="21.23565">
        <ele>356.93811</ele>
        <time>2022-04-23T09:26:57.505Z</time>
      </trkpt>
      <trkpt lat="42.07508" lon="21.23559">
        <ele>356.751758</ele>
        <time>2022-04-23T09:26:59.497Z</time>
      </trkpt>
      <trkpt lat="42.07519" lon="21.23549">
        <ele>356.512084</ele>
        <time>2022-04-23T09:27:02.512Z</time>
      </trkpt>
      <trkpt lat="42.07527" lon="21.23542">
        <ele>356.334847</ele>
        <time>2022-04-23T09:27:04.506Z</time>
      </trkpt>
      <trkpt lat="42.07538" lon="21.23531">
        <ele>356.096455</ele>
        <time>2022-04-23T09:27:07.545Z</time>
      </trkpt>
      <trkpt lat="42.07546" lon="21.23522">
        <ele>355.891034</ele>
        <time>2022-04-23T09:27:10.506Z</time>
      </trkpt>
      <trkpt lat="42.07553" lon="21.23512">
        <ele>355.711343</ele>
        <time>2022-04-23T09:27:13.505Z</time>
      </trkpt>
      <trkpt lat="42.0756" lon="21.23502">
        <ele>355.514915</ele>
        <time>2022-04-23T09:27:16.493Z</time>
      </trkpt>
      <trkpt lat="42.07567" lon="21.2349">
        <ele>355.313747</ele>
        <time>2022-04-23T09:27:19.505Z</time>
      </trkpt>
      <trkpt lat="42.07572" lon="21.23477">
        <ele>355.113791</ele>
        <time>2022-04-23T09:27:22.518Z</time>
      </trkpt>
      <trkpt lat="42.07577" lon="21.23464">
        <ele>354.91127</ele>
        <time>2022-04-23T09:27:25.509Z</time>
      </trkpt>
      <trkpt lat="42.07582" lon="21.23449">
        <ele>354.928787</ele>
        <time>2022-04-23T09:27:28.533Z</time>
      </trkpt>
      <trkpt lat="42.07586" lon="21.23435">
        <ele>355.301076</ele>
        <time>2022-04-23T09:27:31.517Z</time>
      </trkpt>
      <trkpt lat="42.0759" lon="21.23421">
        <ele>355.646206</ele>
        <time>2022-04-23T09:27:34.554Z</time>
      </trkpt>
      <trkpt lat="42.07593" lon="21.23408">
        <ele>355.995688</ele>
        <time>2022-04-23T09:27:37.515Z</time>
      </trkpt>
      <trkpt lat="42.07598" lon="21.23393">
        <ele>356.378848</ele>
        <time>2022-04-23T09:27:40.520Z</time>
      </trkpt>
      <trkpt lat="42.07602" lon="21.2338">
        <ele>356.718296</ele>
        <time>2022-04-23T09:27:43.508Z</time>
      </trkpt>
      <trkpt lat="42.07606" lon="21.23368">
        <ele>357.044761</ele>
        <time>2022-04-23T09:27:46.525Z</time>
      </trkpt>
      <trkpt lat="42.07612" lon="21.23354">
        <ele>357.425708</ele>
        <time>2022-04-23T09:27:50.525Z</time>
      </trkpt>
      <trkpt lat="42.07619" lon="21.23343">
        <ele>357.766923</ele>
        <time>2022-04-23T09:27:54.521Z</time>
      </trkpt>
      <trkpt lat="42.07625" lon="21.23332">
        <ele>358.10709</ele>
        <time>2022-04-23T09:27:58.506Z</time>
      </trkpt>
      <trkpt lat="42.07633" lon="21.23325">
        <ele>358.403091</ele>
        <time>2022-04-23T09:28:01.499Z</time>
      </trkpt>
      <trkpt lat="42.07642" lon="21.23317">
        <ele>358.743468</ele>
        <time>2022-04-23T09:28:04.510Z</time>
      </trkpt>
      <trkpt lat="42.07652" lon="21.2331">
        <ele>359.111049</ele>
        <time>2022-04-23T09:28:07.557Z</time>
      </trkpt>
      <trkpt lat="42.07662" lon="21.23302">
        <ele>359.487553</ele>
        <time>2022-04-23T09:28:10.514Z</time>
      </trkpt>
      <trkpt lat="42.07672" lon="21.23293">
        <ele>359.881236</ele>
        <time>2022-04-23T09:28:13.491Z</time>
      </trkpt>
      <trkpt lat="42.07681" lon="21.23282">
        <ele>360.299059</ele>
        <time>2022-04-23T09:28:16.503Z</time>
      </trkpt>
      <trkpt lat="42.0769" lon="21.23269">
        <ele>360.728664</ele>
        <time>2022-04-23T09:28:19.517Z</time>
      </trkpt>
      <trkpt lat="42.07697" lon="21.23256">
        <ele>361.176867</ele>
        <time>2022-04-23T09:28:22.505Z</time>
      </trkpt>
      <trkpt lat="42.07702" lon="21.23243">
        <ele>361.613049</ele>
        <time>2022-04-23T09:28:25.524Z</time>
      </trkpt>
      <trkpt lat="42.07708" lon="21.2323">
        <ele>362.075581</ele>
        <time>2022-04-23T09:28:28.485Z</time>
      </trkpt>
      <trkpt lat="42.07715" lon="21.23216">
        <ele>362.544753</ele>
        <time>2022-04-23T09:28:31.500Z</time>
      </trkpt>
      <trkpt lat="42.07723" lon="21.23202">
        <ele>363.053658</ele>
        <time>2022-04-23T09:28:34.515Z</time>
      </trkpt>
      <trkpt lat="42.0773" lon="21.23188">
        <ele>363.540278</ele>
        <time>2022-04-23T09:28:37.505Z</time>
      </trkpt>
      <trkpt lat="42.07737" lon="21.23174">
        <ele>364.032605</ele>
        <time>2022-04-23T09:28:40.536Z</time>
      </trkpt>
      <trkpt lat="42.07744" lon="21.2316">
        <ele>364.537395</ele>
        <time>2022-04-23T09:28:43.516Z</time>
      </trkpt>
      <trkpt lat="42.07752" lon="21.23146">
        <ele>365.027388</ele>
        <time>2022-04-23T09:28:46.494Z</time>
      </trkpt>
      <trkpt lat="42.07759" lon="21.23133">
        <ele>365.501636</ele>
        <time>2022-04-23T09:28:49.517Z</time>
      </trkpt>
      <trkpt lat="42.07768" lon="21.23119">
        <ele>366.028908</ele>
        <time>2022-04-23T09:28:52.505Z</time>
      </trkpt>
      <trkpt lat="42.07776" lon="21.23105">
        <ele>366.547813</ele>
        <time>2022-04-23T09:28:55.499Z</time>
      </trkpt>
      <trkpt lat="42.07785" lon="21.23092">
        <ele>367.046278</ele>
        <time>2022-04-23T09:28:58.506Z</time>
      </trkpt>
      <trkpt lat="42.07793" lon="21.2308">
        <ele>367.523902</ele>
        <time>2022-04-23T09:29:01.501Z</time>
      </trkpt>
      <trkpt lat="42.07801" lon="21.23069">
        <ele>367.326924</ele>
        <time>2022-04-23T09:29:04.534Z</time>
      </trkpt>
      <trkpt lat="42.0781" lon="21.23059">
        <ele>366.9666</ele>
        <time>2022-04-23T09:29:07.564Z</time>
      </trkpt>
      <trkpt lat="42.07819" lon="21.23048">
        <ele>366.586019</ele>
        <time>2022-04-23T09:29:10.498Z</time>
      </trkpt>
      <trkpt lat="42.07827" lon="21.23037">
        <ele>366.214928</ele>
        <time>2022-04-23T09:29:13.536Z</time>
      </trkpt>
      <trkpt lat="42.07836" lon="21.23027">
        <ele>365.857153</ele>
        <time>2022-04-23T09:29:16.506Z</time>
      </trkpt>
      <trkpt lat="42.07844" lon="21.23017">
        <ele>365.493151</ele>
        <time>2022-04-23T09:29:19.485Z</time>
      </trkpt>
      <trkpt lat="42.07853" lon="21.23006">
        <ele>365.114282</ele>
        <time>2022-04-23T09:29:22.502Z</time>
      </trkpt>
      <trkpt lat="42.07863" lon="21.22995">
        <ele>364.719515</ele>
        <time>2022-04-23T09:29:25.510Z</time>
      </trkpt>
      <trkpt lat="42.07872" lon="21.22984">
        <ele>364.321058</ele>
        <time>2022-04-23T09:29:28.502Z</time>
      </trkpt>
      <trkpt lat="42.07879" lon="21.22975">
        <ele>364.02465</ele>
        <time>2022-04-23T09:29:30.523Z</time>
      </trkpt>
      <trkpt lat="42.07888" lon="21.22962">
        <ele>363.604458</ele>
        <time>2022-04-23T09:29:33.487Z</time>
      </trkpt>
      <trkpt lat="42.07896" lon="21.2295">
        <ele>363.213937</ele>
        <time>2022-04-23T09:29:36.497Z</time>
      </trkpt>
      <trkpt lat="42.07903" lon="21.22935">
        <ele>362.821417</ele>
        <time>2022-04-23T09:29:39.488Z</time>
      </trkpt>
      <trkpt lat="42.07909" lon="21.22922">
        <ele>362.447132</ele>
        <time>2022-04-23T09:29:42.503Z</time>
      </trkpt>
      <trkpt lat="42.07915" lon="21.22907">
        <ele>362.05205</ele>
        <time>2022-04-23T09:29:45.510Z</time>
      </trkpt>
      <trkpt lat="42.0792" lon="21.22891">
        <ele>361.439552</ele>
        <time>2022-04-23T09:29:48.495Z</time>
      </trkpt>
      <trkpt lat="42.07925" lon="21.22875">
        <ele>360.755874</ele>
        <time>2022-04-23T09:29:51.536Z</time>
      </trkpt>
      <trkpt lat="42.07931" lon="21.22859">
        <ele>360.06514</ele>
        <time>2022-04-23T09:29:54.519Z</time>
      </trkpt>
      <trkpt lat="42.07936" lon="21.22842">
        <ele>359.379409</ele>
        <time>2022-04-23T09:29:57.517Z</time>
      </trkpt>
      <trkpt lat="42.07941" lon="21.22827">
        <ele>358.708061</ele>
        <time>2022-04-23T09:30:00.516Z</time>
      </trkpt>
      <trkpt lat="42.07946" lon="21.22811">
        <ele>358.033123</ele>
        <time>2022-04-23T09:30:03.498Z</time>
      </trkpt>
      <trkpt lat="42.07951" lon="21.22795">
        <ele>357.34171</ele>
        <time>2022-04-23T09:30:06.500Z</time>
      </trkpt>
      <trkpt lat="42.07956" lon="21.22779">
        <ele>356.664114</ele>
        <time>2022-04-23T09:30:09.511Z</time>
      </trkpt>
      <trkpt lat="42.0796" lon="21.22763">
        <ele>356.011846</ele>
        <time>2022-04-23T09:30:12.516Z</time>
      </trkpt>
      <trkpt lat="42.07964" lon="21.22749">
        <ele>355.407002</ele>
        <time>2022-04-23T09:30:15.515Z</time>
      </trkpt>
      <trkpt lat="42.07968" lon="21.22734">
        <ele>354.809852</ele>
        <time>2022-04-23T09:30:18.494Z</time>
      </trkpt>
      <trkpt lat="42.07973" lon="21.2272">
        <ele>354.214687</ele>
        <time>2022-04-23T09:30:21.503Z</time>
      </trkpt>
      <trkpt lat="42.07978" lon="21.22706">
        <ele>353.569811</ele>
        <time>2022-04-23T09:30:24.514Z</time>
      </trkpt>
      <trkpt lat="42.07984" lon="21.22691">
        <ele>352.927051</ele>
        <time>2022-04-23T09:30:27.516Z</time>
      </trkpt>
      <trkpt lat="42.0799" lon="21.22678">
        <ele>352.530826</ele>
        <time>2022-04-23T09:30:30.504Z</time>
      </trkpt>
      <trkpt lat="42.07997" lon="21.22666">
        <ele>352.999477</ele>
        <time>2022-04-23T09:30:33.507Z</time>
      </trkpt>
      <trkpt lat="42.08004" lon="21.22653">
        <ele>353.467855</ele>
        <time>2022-04-23T09:30:36.501Z</time>
      </trkpt>
      <trkpt lat="42.08012" lon="21.22641">
        <ele>353.935391</ele>
        <time>2022-04-23T09:30:39.561Z</time>
      </trkpt>
      <trkpt lat="42.0802" lon="21.2263">
        <ele>354.385001</ele>
        <time>2022-04-23T09:30:42.493Z</time>
      </trkpt>
      <trkpt lat="42.08028" lon="21.2262">
        <ele>354.827723</ele>
        <time>2022-04-23T09:30:45.506Z</time>
      </trkpt>
      <trkpt lat="42.08036" lon="21.22611">
        <ele>355.239042</ele>
        <time>2022-04-23T09:30:48.484Z</time>
      </trkpt>
      <trkpt lat="42.08043" lon="21.22602">
        <ele>355.60936</ele>
        <time>2022-04-23T09:30:51.496Z</time>
      </trkpt>
      <trkpt lat="42.0805" lon="21.22591">
        <ele>356.037043</ele>
        <time>2022-04-23T09:30:54.510Z</time>
      </trkpt>
      <trkpt lat="42.08058" lon="21.2258">
        <ele>356.475981</ele>
        <time>2022-04-23T09:30:57.546Z</time>
      </trkpt>
      <trkpt lat="42.08066" lon="21.22569">
        <ele>356.926006</ele>
        <time>2022-04-23T09:31:00.526Z</time>
      </trkpt>
      <trkpt lat="42.08073" lon="21.2256">
        <ele>357.322753</ele>
        <time>2022-04-23T09:31:03.537Z</time>
      </trkpt>
      <trkpt lat="42.08081" lon="21.2255">
        <ele>357.744312</ele>
        <time>2022-04-23T09:31:06.503Z</time>
      </trkpt>
      <trkpt lat="42.08088" lon="21.2254">
        <ele>358.139465</ele>
        <time>2022-04-23T09:31:09.541Z</time>
      </trkpt>
      <trkpt lat="42.08095" lon="21.2253">
        <ele>358.563295</ele>
        <time>2022-04-23T09:31:12.494Z</time>
      </trkpt>
      <trkpt lat="42.08103" lon="21.2252">
        <ele>358.984127</ele>
        <time>2022-04-23T09:31:15.535Z</time>
      </trkpt>
      <trkpt lat="42.0811" lon="21.2251">
        <ele>359.400816</ele>
        <time>2022-04-23T09:31:18.508Z</time>
      </trkpt>
      <trkpt lat="42.08118" lon="21.225">
        <ele>359.518693</ele>
        <time>2022-04-23T09:31:21.509Z</time>
      </trkpt>
      <trkpt lat="42.08125" lon="21.22491">
        <ele>359.475164</ele>
        <time>2022-04-23T09:31:24.508Z</time>
      </trkpt>
      <trkpt lat="42.08132" lon="21.22482">
        <ele>359.431322</ele>
        <time>2022-04-23T09:31:27.519Z</time>
      </trkpt>
      <trkpt lat="42.08138" lon="21.22472">
        <ele>359.387303</ele>
        <time>2022-04-23T09:31:30.490Z</time>
      </trkpt>
      <trkpt lat="42.08145" lon="21.22463">
        <ele>359.343225</ele>
        <time>2022-04-23T09:31:33.501Z</time>
      </trkpt>
      <trkpt lat="42.08153" lon="21.22453">
        <ele>359.297853</ele>
        <time>2022-04-23T09:31:36.490Z</time>
      </trkpt>
      <trkpt lat="42.08161" lon="21.22444">
        <ele>359.252375</ele>
        <time>2022-04-23T09:31:39.493Z</time>
      </trkpt>
      <trkpt lat="42.08168" lon="21.22436">
        <ele>359.20772</ele>
        <time>2022-04-23T09:31:42.496Z</time>
      </trkpt>
      <trkpt lat="42.08176" lon="21.22428">
        <ele>359.166178</ele>
        <time>2022-04-23T09:31:45.486Z</time>
      </trkpt>
      <trkpt lat="42.08183" lon="21.22421">
        <ele>359.125555</ele>
        <time>2022-04-23T09:31:48.505Z</time>
      </trkpt>
      <trkpt lat="42.08191" lon="21.22414">
        <ele>359.084753</ele>
        <time>2022-04-23T09:31:51.494Z</time>
      </trkpt>
      <trkpt lat="42.08201" lon="21.22407">
        <ele>359.034255</ele>
        <time>2022-04-23T09:31:55.499Z</time>
      </trkpt>
      <trkpt lat="42.08211" lon="21.22399">
        <ele>358.982358</ele>
        <time>2022-04-23T09:31:59.486Z</time>
      </trkpt>
      <trkpt lat="42.0822" lon="21.22393">
        <ele>358.937844</ele>
        <time>2022-04-23T09:32:03.515Z</time>
      </trkpt>
      <trkpt lat="42.08229" lon="21.22386">
        <ele>358.892396</ele>
        <time>2022-04-23T09:32:07.507Z</time>
      </trkpt>
      <trkpt lat="42.08238" lon="21.2238">
        <ele>358.844746</ele>
        <time>2022-04-23T09:32:11.517Z</time>
      </trkpt>
      <trkpt lat="42.08247" lon="21.22374">
        <ele>358.801937</ele>
        <time>2022-04-23T09:32:15.518Z</time>
      </trkpt>
      <trkpt lat="42.08256" lon="21.22365">
        <ele>358.751134</ele>
        <time>2022-04-23T09:32:20.502Z</time>
      </trkpt>
      <trkpt lat="42.08264" lon="21.22356">
        <ele>359.06544</ele>
        <time>2022-04-23T09:32:24.506Z</time>
      </trkpt>
      <trkpt lat="42.08272" lon="21.22348">
        <ele>359.419214</ele>
        <time>2022-04-23T09:32:28.501Z</time>
      </trkpt>
      <trkpt lat="42.0828" lon="21.22337">
        <ele>359.809439</ele>
        <time>2022-04-23T09:32:32.532Z</time>
      </trkpt>
      <trkpt lat="42.08286" lon="21.22328">
        <ele>360.120896</ele>
        <time>2022-04-23T09:32:35.493Z</time>
      </trkpt>
      <trkpt lat="42.08292" lon="21.22318">
        <ele>360.449753</ele>
        <time>2022-04-23T09:32:38.568Z</time>
      </trkpt>
      <trkpt lat="42.08299" lon="21.22308">
        <ele>360.776851</ele>
        <time>2022-04-23T09:32:41.526Z</time>
      </trkpt>
      <trkpt lat="42.08305" lon="21.22298">
        <ele>361.120999</ele>
        <time>2022-04-23T09:32:44.488Z</time>
      </trkpt>
      <trkpt lat="42.08311" lon="21.22287">
        <ele>361.459911</ele>
        <time>2022-04-23T09:32:47.505Z</time>
      </trkpt>
      <trkpt lat="42.08316" lon="21.22275">
        <ele>361.834754</ele>
        <time>2022-04-23T09:32:50.540Z</time>
      </trkpt>
      <trkpt lat="42.08321" lon="21.22259">
        <ele>362.266554</ele>
        <time>2022-04-23T09:32:53.500Z</time>
      </trkpt>
      <trkpt lat="42.08324" lon="21.22248">
        <ele>362.58312</ele>
        <time>2022-04-23T09:32:55.508Z</time>
      </trkpt>
      <trkpt lat="42.08327" lon="21.22235">
        <ele>362.912141</ele>
        <time>2022-04-23T09:32:57.533Z</time>
      </trkpt>
      <trkpt lat="42.0833" lon="21.22223">
        <ele>363.232818</ele>
        <time>2022-04-23T09:32:59.512Z</time>
      </trkpt>
      <trkpt lat="42.08332" lon="21.22211">
        <ele>363.545629</ele>
        <time>2022-04-23T09:33:01.545Z</time>
      </trkpt>
      <trkpt lat="42.08334" lon="21.22196">
        <ele>363.944852</ele>
        <time>2022-04-23T09:33:04.496Z</time>
      </trkpt>
      <trkpt lat="42.08336" lon="21.22183">
        <ele>364.280098</ele>
        <time>2022-04-23T09:33:07.522Z</time>
      </trkpt>
      <trkpt lat="42.08341" lon="21.22172">
        <ele>364.608676</ele>
        <time>2022-04-23T09:33:10.532Z</time>
      </trkpt>
      <trkpt lat="42.08347" lon="21.22163">
        <ele>364.928003</ele>
        <time>2022-04-23T09:33:13.490Z</time>
      </trkpt>
      <trkpt lat="42.08356" lon="21.22155">
        <ele>364.909497</ele>
        <time>2022-04-23T09:33:16.518Z</time>
      </trkpt>
      <trkpt lat="42.08366" lon="21.22145">
        <ele>364.866873</ele>
        <time>2022-04-23T09:33:19.501Z</time>
      </trkpt>
      <trkpt lat="42.08375" lon="21.22132">
        <ele>364.821004</ele>
        <time>2022-04-23T09:33:22.501Z</time>
      </trkpt>
      <trkpt lat="42.08381" lon="21.22122">
        <ele>364.788547</ele>
        <time>2022-04-23T09:33:24.535Z</time>
      </trkpt>
      <trkpt lat="42.08388" lon="21.22113">
        <ele>364.755897</ele>
        <time>2022-04-23T09:33:26.500Z</time>
      </trkpt>
      <trkpt lat="42.08395" lon="21.22099">
        <ele>364.71329</ele>
        <time>2022-04-23T09:33:29.587Z</time>
      </trkpt>
      <trkpt lat="42.084" lon="21.22086">
        <ele>364.676007</ele>
        <time>2022-04-23T09:33:32.493Z</time>
      </trkpt>
      <trkpt lat="42.08406" lon="21.22075">
        <ele>364.642344</ele>
        <time>2022-04-23T09:33:35.517Z</time>
      </trkpt>
      <trkpt lat="42.08412" lon="21.22063">
        <ele>364.604162</ele>
        <time>2022-04-23T09:33:38.499Z</time>
      </trkpt>
      <trkpt lat="42.08418" lon="21.2205">
        <ele>364.565333</ele>
        <time>2022-04-23T09:33:41.477Z</time>
      </trkpt>
      <trkpt lat="42.08424" lon="21.22038">
        <ele>364.52703</ele>
        <time>2022-04-23T09:33:44.522Z</time>
      </trkpt>
      <trkpt lat="42.08429" lon="21.22025">
        <ele>364.490588</ele>
        <time>2022-04-23T09:33:47.540Z</time>
      </trkpt>
      <trkpt lat="42.08435" lon="21.22011">
        <ele>364.449797</ele>
        <time>2022-04-23T09:33:50.512Z</time>
      </trkpt>
      <trkpt lat="42.08441" lon="21.21998">
        <ele>364.409882</ele>
        <time>2022-04-23T09:33:53.513Z</time>
      </trkpt>
      <trkpt lat="42.08446" lon="21.21984">
        <ele>364.371066</ele>
        <time>2022-04-23T09:33:56.534Z</time>
      </trkpt>
      <trkpt lat="42.0845" lon="21.21968">
        <ele>364.329082</ele>
        <time>2022-04-23T09:33:59.519Z</time>
      </trkpt>
      <trkpt lat="42.08453" lon="21.21953">
        <ele>364.074194</ele>
        <time>2022-04-23T09:34:02.545Z</time>
      </trkpt>
      <trkpt lat="42.08454" lon="21.21938">
        <ele>363.816121</ele>
        <time>2022-04-23T09:34:05.520Z</time>
      </trkpt>
      <trkpt lat="42.08457" lon="21.21922">
        <ele>363.534828</ele>
        <time>2022-04-23T09:34:08.507Z</time>
      </trkpt>
      <trkpt lat="42.0846" lon="21.21905">
        <ele>363.231922</ele>
        <time>2022-04-23T09:34:11.508Z</time>
      </trkpt>
      <trkpt lat="42.08461" lon="21.21893">
        <ele>363.02001</ele>
        <time>2022-04-23T09:34:13.530Z</time>
      </trkpt>
      <trkpt lat="42.08463" lon="21.21881">
        <ele>362.807653</ele>
        <time>2022-04-23T09:34:15.518Z</time>
      </trkpt>
      <trkpt lat="42.08466" lon="21.21869">
        <ele>362.583225</ele>
        <time>2022-04-23T09:34:17.522Z</time>
      </trkpt>
      <trkpt lat="42.08469" lon="21.21857">
        <ele>362.361396</ele>
        <time>2022-04-23T09:34:19.624Z</time>
      </trkpt>
      <trkpt lat="42.08474" lon="21.21844">
        <ele>362.126848</ele>
        <time>2022-04-23T09:34:21.496Z</time>
      </trkpt>
      <trkpt lat="42.08479" lon="21.21833">
        <ele>361.901641</ele>
        <time>2022-04-23T09:34:23.499Z</time>
      </trkpt>
      <trkpt lat="42.08483" lon="21.21822">
        <ele>361.687009</ele>
        <time>2022-04-23T09:34:25.510Z</time>
      </trkpt>
      <trkpt lat="42.08488" lon="21.21807">
        <ele>361.411879</ele>
        <time>2022-04-23T09:34:28.514Z</time>
      </trkpt>
      <trkpt lat="42.08489" lon="21.21795">
        <ele>361.199602</ele>
        <time>2022-04-23T09:34:32.521Z</time>
      </trkpt>
      <trkpt lat="42.08492" lon="21.21783">
        <ele>360.974528</ele>
        <time>2022-04-23T09:34:36.511Z</time>
      </trkpt>
      <trkpt lat="42.085" lon="21.2177">
        <ele>360.690862</ele>
        <time>2022-04-23T09:34:40.502Z</time>
      </trkpt>
      <trkpt lat="42.08506" lon="21.2176">
        <ele>360.469445</ele>
        <time>2022-04-23T09:34:43.577Z</time>
      </trkpt>
      <trkpt lat="42.08512" lon="21.2175">
        <ele>360.255247</ele>
        <time>2022-04-23T09:34:46.499Z</time>
      </trkpt>
      <trkpt lat="42.08517" lon="21.2174">
        <ele>360.217473</ele>
        <time>2022-04-23T09:34:49.511Z</time>
      </trkpt>
      <trkpt lat="42.08522" lon="21.21728">
        <ele>360.344416</ele>
        <time>2022-04-23T09:34:52.493Z</time>
      </trkpt>
      <trkpt lat="42.08527" lon="21.21715">
        <ele>360.476361</ele>
        <time>2022-04-23T09:34:55.510Z</time>
      </trkpt>
      <trkpt lat="42.08533" lon="21.21703">
        <ele>360.611471</ele>
        <time>2022-04-23T09:34:58.500Z</time>
      </trkpt>
      <trkpt lat="42.08538" lon="21.2169">
        <ele>360.746867</ele>
        <time>2022-04-23T09:35:01.489Z</time>
      </trkpt>
      <trkpt lat="42.08545" lon="21.21676">
        <ele>360.901141</ele>
        <time>2022-04-23T09:35:04.526Z</time>
      </trkpt>
      <trkpt lat="42.08552" lon="21.21663">
        <ele>361.044031</ele>
        <time>2022-04-23T09:35:07.504Z</time>
      </trkpt>
      <trkpt lat="42.08558" lon="21.2165">
        <ele>361.187786</ele>
        <time>2022-04-23T09:35:10.534Z</time>
      </trkpt>
      <trkpt lat="42.08565" lon="21.21637">
        <ele>361.331473</ele>
        <time>2022-04-23T09:35:13.518Z</time>
      </trkpt>
      <trkpt lat="42.08572" lon="21.21622">
        <ele>361.488068</ele>
        <time>2022-04-23T09:35:16.506Z</time>
      </trkpt>
      <trkpt lat="42.08579" lon="21.21608">
        <ele>361.645709</ele>
        <time>2022-04-23T09:35:19.514Z</time>
      </trkpt>
      <trkpt lat="42.08585" lon="21.21593">
        <ele>361.797362</ele>
        <time>2022-04-23T09:35:22.527Z</time>
      </trkpt>
      <trkpt lat="42.08591" lon="21.2158">
        <ele>361.941299</ele>
        <time>2022-04-23T09:35:25.514Z</time>
      </trkpt>
      <trkpt lat="42.08597" lon="21.21567">
        <ele>362.079043</ele>
        <time>2022-04-23T09:35:28.506Z</time>
      </trkpt>
      <trkpt lat="42.08602" lon="21.21554">
        <ele>362.214499</ele>
        <time>2022-04-23T09:35:31.538Z</time>
      </trkpt>
      <trkpt lat="42.08607" lon="21.21541">
        <ele>362.348815</ele>
        <time>2022-04-23T09:35:34.489Z</time>
      </trkpt>
      <trkpt lat="42.08613" lon="21.21527">
        <ele>362.144338</ele>
        <time>2022-04-23T09:35:37.512Z</time>
      </trkpt>
      <trkpt lat="42.08618" lon="21.21514">
        <ele>361.892062</ele>
        <time>2022-04-23T09:35:40.491Z</time>
      </trkpt>
      <trkpt lat="42.08624" lon="21.21502">
        <ele>361.651752</ele>
        <time>2022-04-23T09:35:43.502Z</time>
      </trkpt>
      <trkpt lat="42.0863" lon="21.2149">
        <ele>361.405342</ele>
        <time>2022-04-23T09:35:46.512Z</time>
      </trkpt>
      <trkpt lat="42.08636" lon="21.21477">
        <ele>361.16688</ele>
        <time>2022-04-23T09:35:49.512Z</time>
      </trkpt>
      <trkpt lat="42.08641" lon="21.21466">
        <ele>360.934888</ele>
        <time>2022-04-23T09:35:52.507Z</time>
      </trkpt>
      <trkpt lat="42.08647" lon="21.21454">
        <ele>360.707971</ele>
        <time>2022-04-23T09:35:55.495Z</time>
      </trkpt>
      <trkpt lat="42.08652" lon="21.21444">
        <ele>360.504156</ele>
        <time>2022-04-23T09:35:58.515Z</time>
      </trkpt>
      <trkpt lat="42.08658" lon="21.21431">
        <ele>360.246455</ele>
        <time>2022-04-23T09:36:02.560Z</time>
      </trkpt>
      <trkpt lat="42.08662" lon="21.2142">
        <ele>360.043522</ele>
        <time>2022-04-23T09:36:05.489Z</time>
      </trkpt>
      <trkpt lat="42.08658" lon="21.21405">
        <ele>359.795794</ele>
        <time>2022-04-23T09:36:09.525Z</time>
      </trkpt>
      <trkpt lat="42.08654" lon="21.21393">
        <ele>359.566331</ele>
        <time>2022-04-23T09:36:13.504Z</time>
      </trkpt>
      <trkpt lat="42.0865" lon="21.21382">
        <ele>359.361708</ele>
        <time>2022-04-23T09:36:17.510Z</time>
      </trkpt>
      <trkpt lat="42.08644" lon="21.2137">
        <ele>359.125905</ele>
        <time>2022-04-23T09:36:21.488Z</time>
      </trkpt>
      <trkpt lat="42.08639" lon="21.21359">
        <ele>358.913586</ele>
        <time>2022-04-23T09:36:25.498Z</time>
      </trkpt>
      <trkpt lat="42.08634" lon="21.21349">
        <ele>358.706967</ele>
        <time>2022-04-23T09:36:29.502Z</time>
      </trkpt>
      <trkpt lat="42.0863" lon="21.21336">
        <ele>358.470588</ele>
        <time>2022-04-23T09:36:34.486Z</time>
      </trkpt>
      <trkpt lat="42.08621" lon="21.21332">
        <ele>358.403818</ele>
        <time>2022-04-23T09:36:40.506Z</time>
      </trkpt>
      <trkpt lat="42.08624" lon="21.21344">
        <ele>358.539556</ele>
        <time>2022-04-23T09:36:45.532Z</time>
      </trkpt>
      <trkpt lat="42.0863" lon="21.21356">
        <ele>358.6828</ele>
        <time>2022-04-23T09:36:49.493Z</time>
      </trkpt>
      <trkpt lat="42.08635" lon="21.21368">
        <ele>358.825552</ele>
        <time>2022-04-23T09:36:52.511Z</time>
      </trkpt>
      <trkpt lat="42.08641" lon="21.21381">
        <ele>358.983359</ele>
        <time>2022-04-23T09:36:55.491Z</time>
      </trkpt>
      <trkpt lat="42.08647" lon="21.21394">
        <ele>359.148695</ele>
        <time>2022-04-23T09:36:58.481Z</time>
      </trkpt>
      <trkpt lat="42.08654" lon="21.21407">
        <ele>359.314345</ele>
        <time>2022-04-23T09:37:01.502Z</time>
      </trkpt>
      <trkpt lat="42.08665" lon="21.21415">
        <ele>359.482226</ele>
        <time>2022-04-23T09:37:04.494Z</time>
      </trkpt>
      <trkpt lat="42.08674" lon="21.21408">
        <ele>359.636636</ele>
        <time>2022-04-23T09:37:07.492Z</time>
      </trkpt>
      <trkpt lat="42.08683" lon="21.21395">
        <ele>359.823502</ele>
        <time>2022-04-23T09:37:10.498Z</time>
      </trkpt>
      <trkpt lat="42.08691" lon="21.21382">
        <ele>359.992681</ele>
        <time>2022-04-23T09:37:13.496Z</time>
      </trkpt>
      <trkpt lat="42.08699" lon="21.2137">
        <ele>360.165369</ele>
        <time>2022-04-23T09:37:16.477Z</time>
      </trkpt>
      <trkpt lat="42.08707" lon="21.21357">
        <ele>360.33535</ele>
        <time>2022-04-23T09:37:19.506Z</time>
      </trkpt>
      <trkpt lat="42.08713" lon="21.21346">
        <ele>360.475014</ele>
        <time>2022-04-23T09:37:22.482Z</time>
      </trkpt>
      <trkpt lat="42.08721" lon="21.21335">
        <ele>360.639166</ele>
        <time>2022-04-23T09:37:26.490Z</time>
      </trkpt>
      <trkpt lat="42.08727" lon="21.21322">
        <ele>360.796831</ele>
        <time>2022-04-23T09:37:29.526Z</time>
      </trkpt>
      <trkpt lat="42.08734" lon="21.21309">
        <ele>360.833609</ele>
        <time>2022-04-23T09:37:32.487Z</time>
      </trkpt>
      <trkpt lat="42.08742" lon="21.21296">
        <ele>360.769073</ele>
        <time>2022-04-23T09:37:35.542Z</time>
      </trkpt>
      <trkpt lat="42.08749" lon="21.21283">
        <ele>360.701009</ele>
        <time>2022-04-23T09:37:38.490Z</time>
      </trkpt>
      <trkpt lat="42.08757" lon="21.21269">
        <ele>360.63133</ele>
        <time>2022-04-23T09:37:41.480Z</time>
      </trkpt>
      <trkpt lat="42.08764" lon="21.21256">
        <ele>360.565553</ele>
        <time>2022-04-23T09:37:44.494Z</time>
      </trkpt>
      <trkpt lat="42.08771" lon="21.21244">
        <ele>360.501087</ele>
        <time>2022-04-23T09:37:47.498Z</time>
      </trkpt>
      <trkpt lat="42.08778" lon="21.21231">
        <ele>360.436955</ele>
        <time>2022-04-23T09:37:50.503Z</time>
      </trkpt>
      <trkpt lat="42.08785" lon="21.21218">
        <ele>360.370871</ele>
        <time>2022-04-23T09:37:53.500Z</time>
      </trkpt>
      <trkpt lat="42.08792" lon="21.21206">
        <ele>360.308676</ele>
        <time>2022-04-23T09:37:56.500Z</time>
      </trkpt>
      <trkpt lat="42.08799" lon="21.21194">
        <ele>360.245846</ele>
        <time>2022-04-23T09:37:59.497Z</time>
      </trkpt>
      <trkpt lat="42.08806" lon="21.21182">
        <ele>360.186272</ele>
        <time>2022-04-23T09:38:02.523Z</time>
      </trkpt>
      <trkpt lat="42.08811" lon="21.2117">
        <ele>360.130851</ele>
        <time>2022-04-23T09:38:05.493Z</time>
      </trkpt>
      <trkpt lat="42.08817" lon="21.21161">
        <ele>360.081364</ele>
        <time>2022-04-23T09:38:08.490Z</time>
      </trkpt>
      <trkpt lat="42.08824" lon="21.21148">
        <ele>360.019174</ele>
        <time>2022-04-23T09:38:12.497Z</time>
      </trkpt>
      <trkpt lat="42.0883" lon="21.21135">
        <ele>359.956823</ele>
        <time>2022-04-23T09:38:16.484Z</time>
      </trkpt>
      <trkpt lat="42.08836" lon="21.21122">
        <ele>359.891882</ele>
        <time>2022-04-23T09:38:20.537Z</time>
      </trkpt>
      <trkpt lat="42.08842" lon="21.2111">
        <ele>360.235674</ele>
        <time>2022-04-23T09:38:24.496Z</time>
      </trkpt>
      <trkpt lat="42.08847" lon="21.21098">
        <ele>360.606</ele>
        <time>2022-04-23T09:38:28.499Z</time>
      </trkpt>
      <trkpt lat="42.08851" lon="21.21087">
        <ele>360.938347</ele>
        <time>2022-04-23T09:38:32.530Z</time>
      </trkpt>
      <trkpt lat="42.08858" lon="21.21076">
        <ele>361.302008</ele>
        <time>2022-04-23T09:38:36.502Z</time>
      </trkpt>
      <trkpt lat="42.08865" lon="21.21067">
        <ele>361.641565</ele>
        <time>2022-04-23T09:38:40.484Z</time>
      </trkpt>
      <trkpt lat="42.08871" lon="21.21057">
        <ele>361.988853</ele>
        <time>2022-04-23T09:38:44.519Z</time>
      </trkpt>
      <trkpt lat="42.08877" lon="21.21046">
        <ele>362.35044</ele>
        <time>2022-04-23T09:38:49.493Z</time>
      </trkpt>
      <trkpt lat="42.08883" lon="21.21036">
        <ele>362.678534</ele>
        <time>2022-04-23T09:38:54.485Z</time>
      </trkpt>
      <trkpt lat="42.08888" lon="21.21025">
        <ele>363.030396</ele>
        <time>2022-04-23T09:38:59.542Z</time>
      </trkpt>
      <trkpt lat="42.08895" lon="21.21016">
        <ele>363.353629</ele>
        <time>2022-04-23T09:39:04.507Z</time>
      </trkpt>
      <trkpt lat="42.08901" lon="21.21005">
        <ele>363.708784</ele>
        <time>2022-04-23T09:39:10.496Z</time>
      </trkpt>
      <trkpt lat="42.08906" lon="21.20996">
        <ele>364.030194</ele>
        <time>2022-04-23T09:39:15.557Z</time>
      </trkpt>
      <trkpt lat="42.08913" lon="21.20986">
        <ele>364.374202</ele>
        <time>2022-04-23T09:39:21.506Z</time>
      </trkpt>
      <trkpt lat="42.08919" lon="21.20976">
        <ele>364.729614</ele>
        <time>2022-04-23T09:39:27.516Z</time>
      </trkpt>
      <trkpt lat="42.08925" lon="21.20966">
        <ele>365.0575</ele>
        <time>2022-04-23T09:39:32.512Z</time>
      </trkpt>
      <trkpt lat="42.08931" lon="21.20956">
        <ele>365.398475</ele>
        <time>2022-04-23T09:39:37.575Z</time>
      </trkpt>
      <trkpt lat="42.08938" lon="21.20948">
        <ele>365.716888</ele>
        <time>2022-04-23T09:39:41.498Z</time>
      </trkpt>
      <trkpt lat="42.08944" lon="21.20939">
        <ele>366.044463</ele>
        <time>2022-04-23T09:39:45.486Z</time>
      </trkpt>
      <trkpt lat="42.08952" lon="21.20928">
        <ele>366.255465</ele>
        <time>2022-04-23T09:39:49.506Z</time>
      </trkpt>
      <trkpt lat="42.08959" lon="21.20919">
        <ele>366.226082</ele>
        <time>2022-04-23T09:39:52.497Z</time>
      </trkpt>
      <trkpt lat="42.08968" lon="21.20904">
        <ele>366.185825</ele>
        <time>2022-04-23T09:39:55.502Z</time>
      </trkpt>
      <trkpt lat="42.08974" lon="21.20892">
        <ele>366.153639</ele>
        <time>2022-04-23T09:39:57.519Z</time>
      </trkpt>
      <trkpt lat="42.0898" lon="21.20877">
        <ele>366.117608</ele>
        <time>2022-04-23T09:39:59.531Z</time>
      </trkpt>
      <trkpt lat="42.08986" lon="21.20861">
        <ele>366.078992</ele>
        <time>2022-04-23T09:40:01.513Z</time>
      </trkpt>
      <trkpt lat="42.08992" lon="21.20845">
        <ele>366.039937</ele>
        <time>2022-04-23T09:40:03.496Z</time>
      </trkpt>
      <trkpt lat="42.08998" lon="21.20829">
        <ele>366.001011</ele>
        <time>2022-04-23T09:40:05.529Z</time>
      </trkpt>
      <trkpt lat="42.09004" lon="21.20812">
        <ele>365.96266</ele>
        <time>2022-04-23T09:40:07.515Z</time>
      </trkpt>
      <trkpt lat="42.09009" lon="21.20795">
        <ele>365.923629</ele>
        <time>2022-04-23T09:40:09.524Z</time>
      </trkpt>
      <trkpt lat="42.09013" lon="21.20779">
        <ele>365.886018</ele>
        <time>2022-04-23T09:40:11.492Z</time>
      </trkpt>
      <trkpt lat="42.09018" lon="21.20762">
        <ele>365.847505</ele>
        <time>2022-04-23T09:40:13.522Z</time>
      </trkpt>
      <trkpt lat="42.09022" lon="21.20746">
        <ele>365.811565</ele>
        <time>2022-04-23T09:40:15.506Z</time>
      </trkpt>
      <trkpt lat="42.09025" lon="21.2073">
        <ele>365.777295</ele>
        <time>2022-04-23T09:40:17.542Z</time>
      </trkpt>
      <trkpt lat="42.09028" lon="21.20716">
        <ele>365.798823</ele>
        <time>2022-04-23T09:40:19.531Z</time>
      </trkpt>
      <trkpt lat="42.0903" lon="21.20703">
        <ele>366.129258</ele>
        <time>2022-04-23T09:40:21.514Z</time>
      </trkpt>
      <trkpt lat="42.09034" lon="21.20686">
        <ele>366.568468</ele>
        <time>2022-04-23T09:40:24.527Z</time>
      </trkpt>
      <trkpt lat="42.09036" lon="21.20671">
        <ele>366.938117</ele>
        <time>2022-04-23T09:40:27.546Z</time>
      </trkpt>
      <trkpt lat="42.09039" lon="21.20656">
        <ele>367.328357</ele>
        <time>2022-04-23T09:40:31.491Z</time>
      </trkpt>
      <trkpt lat="42.09042" lon="21.20641">
        <ele>367.714749</ele>
        <time>2022-04-23T09:40:35.529Z</time>
      </trkpt>
      <trkpt lat="42.09044" lon="21.20625">
        <ele>368.104677</ele>
        <time>2022-04-23T09:40:39.500Z</time>
      </trkpt>
      <trkpt lat="42.09046" lon="21.2061">
        <ele>368.491727</ele>
        <time>2022-04-23T09:40:43.503Z</time>
      </trkpt>
      <trkpt lat="42.09046" lon="21.20597">
        <ele>368.809982</ele>
        <time>2022-04-23T09:40:46.504Z</time>
      </trkpt>
      <trkpt lat="42.09048" lon="21.20584">
        <ele>369.12025</ele>
        <time>2022-04-23T09:40:49.503Z</time>
      </trkpt>
      <trkpt lat="42.09051" lon="21.20568">
        <ele>369.526305</ele>
        <time>2022-04-23T09:40:53.515Z</time>
      </trkpt>
      <trkpt lat="42.09053" lon="21.20555">
        <ele>369.859121</ele>
        <time>2022-04-23T09:40:56.512Z</time>
      </trkpt>
      <trkpt lat="42.09056" lon="21.20543">
        <ele>370.177692</ele>
        <time>2022-04-23T09:40:59.493Z</time>
      </trkpt>
      <trkpt lat="42.09059" lon="21.2053">
        <ele>370.508973</ele>
        <time>2022-04-23T09:41:02.508Z</time>
      </trkpt>
      <trkpt lat="42.09062" lon="21.20516">
        <ele>370.861037</ele>
        <time>2022-04-23T09:41:05.508Z</time>
      </trkpt>
      <trkpt lat="42.09065" lon="21.20502">
        <ele>371.223298</ele>
        <time>2022-04-23T09:41:08.501Z</time>
      </trkpt>
      <trkpt lat="42.09068" lon="21.20489">
        <ele>371.557304</ele>
        <time>2022-04-23T09:41:11.509Z</time>
      </trkpt>
      <trkpt lat="42.0907" lon="21.20476">
        <ele>371.459803</ele>
        <time>2022-04-23T09:41:14.505Z</time>
      </trkpt>
      <trkpt lat="42.09073" lon="21.20463">
        <ele>370.95945</ele>
        <time>2022-04-23T09:41:17.554Z</time>
      </trkpt>
      <trkpt lat="42.09077" lon="21.20449">
        <ele>370.42669</ele>
        <time>2022-04-23T09:41:20.518Z</time>
      </trkpt>
      <trkpt lat="42.09081" lon="21.20435">
        <ele>369.859654</ele>
        <time>2022-04-23T09:41:23.502Z</time>
      </trkpt>
      <trkpt lat="42.09084" lon="21.20421">
        <ele>369.329828</ele>
        <time>2022-04-23T09:41:26.545Z</time>
      </trkpt>
      <trkpt lat="42.09087" lon="21.20408">
        <ele>368.828843</ele>
        <time>2022-04-23T09:41:29.496Z</time>
      </trkpt>
      <trkpt lat="42.09089" lon="21.20394">
        <ele>368.316842</ele>
        <time>2022-04-23T09:41:32.519Z</time>
      </trkpt>
      <trkpt lat="42.09092" lon="21.2038">
        <ele>367.775947</ele>
        <time>2022-04-23T09:41:35.520Z</time>
      </trkpt>
      <trkpt lat="42.09096" lon="21.20365">
        <ele>367.228038</ele>
        <time>2022-04-23T09:41:38.489Z</time>
      </trkpt>
      <trkpt lat="42.091" lon="21.20351">
        <ele>366.652455</ele>
        <time>2022-04-23T09:41:41.511Z</time>
      </trkpt>
      <trkpt lat="42.09104" lon="21.20337">
        <ele>366.131425</ele>
        <time>2022-04-23T09:41:44.497Z</time>
      </trkpt>
      <trkpt lat="42.09108" lon="21.20324">
        <ele>365.601829</ele>
        <time>2022-04-23T09:41:47.502Z</time>
      </trkpt>
      <trkpt lat="42.09114" lon="21.20313">
        <ele>365.087925</ele>
        <time>2022-04-23T09:41:50.509Z</time>
      </trkpt>
      <trkpt lat="42.0912" lon="21.20302">
        <ele>364.62125</ele>
        <time>2022-04-23T09:41:53.510Z</time>
      </trkpt>
      <trkpt lat="42.09125" lon="21.20291">
        <ele>364.133518</ele>
        <time>2022-04-23T09:41:56.502Z</time>
      </trkpt>
      <trkpt lat="42.0913" lon="21.2028">
        <ele>363.659017</ele>
        <time>2022-04-23T09:41:59.505Z</time>
      </trkpt>
      <trkpt lat="42.09135" lon="21.20269">
        <ele>363.161222</ele>
        <time>2022-04-23T09:42:02.482Z</time>
      </trkpt>
      <trkpt lat="42.0914" lon="21.20256">
        <ele>363.006035</ele>
        <time>2022-04-23T09:42:05.515Z</time>
      </trkpt>
      <trkpt lat="42.09145" lon="21.20243">
        <ele>363.368527</ele>
        <time>2022-04-23T09:42:08.527Z</time>
      </trkpt>
      <trkpt lat="42.0915" lon="21.2023">
        <ele>363.733302</ele>
        <time>2022-04-23T09:42:11.501Z</time>
      </trkpt>
      <trkpt lat="42.09155" lon="21.20217">
        <ele>364.081717</ele>
        <time>2022-04-23T09:42:14.512Z</time>
      </trkpt>
      <trkpt lat="42.0916" lon="21.20205">
        <ele>364.435606</ele>
        <time>2022-04-23T09:42:17.510Z</time>
      </trkpt>
      <trkpt lat="42.09166" lon="21.20193">
        <ele>364.798983</ele>
        <time>2022-04-23T09:42:20.493Z</time>
      </trkpt>
      <trkpt lat="42.09171" lon="21.20179">
        <ele>365.184835</ele>
        <time>2022-04-23T09:42:23.497Z</time>
      </trkpt>
      <trkpt lat="42.09176" lon="21.20165">
        <ele>365.568186</ele>
        <time>2022-04-23T09:42:26.521Z</time>
      </trkpt>
      <trkpt lat="42.09183" lon="21.20153">
        <ele>365.948981</ele>
        <time>2022-04-23T09:42:29.510Z</time>
      </trkpt>
      <trkpt lat="42.09188" lon="21.2014">
        <ele>366.309307</ele>
        <time>2022-04-23T09:42:32.493Z</time>
      </trkpt>
      <trkpt lat="42.09192" lon="21.20129">
        <ele>366.629422</ele>
        <time>2022-04-23T09:42:35.503Z</time>
      </trkpt>
      <trkpt lat="42.09198" lon="21.20118">
        <ele>366.945977</ele>
        <time>2022-04-23T09:42:38.493Z</time>
      </trkpt>
      <trkpt lat="42.09203" lon="21.20107">
        <ele>367.266989</ele>
        <time>2022-04-23T09:42:41.516Z</time>
      </trkpt>
      <trkpt lat="42.09209" lon="21.20096">
        <ele>367.611325</ele>
        <time>2022-04-23T09:42:44.555Z</time>
      </trkpt>
      <trkpt lat="42.09215" lon="21.20084">
        <ele>367.979437</ele>
        <time>2022-04-23T09:42:47.496Z</time>
      </trkpt>
      <trkpt lat="42.09222" lon="21.20073">
        <ele>368.333567</ele>
        <time>2022-04-23T09:42:50.511Z</time>
      </trkpt>
      <trkpt lat="42.09227" lon="21.20063">
        <ele>368.653785</ele>
        <time>2022-04-23T09:42:53.483Z</time>
      </trkpt>
      <trkpt lat="42.09233" lon="21.20051">
        <ele>368.956079</ele>
        <time>2022-04-23T09:42:56.488Z</time>
      </trkpt>
      <trkpt lat="42.09239" lon="21.20041">
        <ele>369.161576</ele>
        <time>2022-04-23T09:42:59.538Z</time>
      </trkpt>
      <trkpt lat="42.09246" lon="21.20031">
        <ele>369.3702</ele>
        <time>2022-04-23T09:43:02.496Z</time>
      </trkpt>
      <trkpt lat="42.09251" lon="21.20021">
        <ele>369.568086</ele>
        <time>2022-04-23T09:43:05.502Z</time>
      </trkpt>
      <trkpt lat="42.09257" lon="21.20012">
        <ele>369.760534</ele>
        <time>2022-04-23T09:43:08.491Z</time>
      </trkpt>
      <trkpt lat="42.09264" lon="21.2">
        <ele>369.997614</ele>
        <time>2022-04-23T09:43:12.503Z</time>
      </trkpt>
      <trkpt lat="42.09272" lon="21.19991">
        <ele>370.214717</ele>
        <time>2022-04-23T09:43:16.520Z</time>
      </trkpt>
      <trkpt lat="42.09278" lon="21.19981">
        <ele>370.415625</ele>
        <time>2022-04-23T09:43:20.509Z</time>
      </trkpt>
      <trkpt lat="42.09285" lon="21.1997">
        <ele>370.650261</ele>
        <time>2022-04-23T09:43:25.514Z</time>
      </trkpt>
      <trkpt lat="42.09291" lon="21.19957">
        <ele>370.879949</ele>
        <time>2022-04-23T09:43:29.505Z</time>
      </trkpt>
      <trkpt lat="42.09298" lon="21.19945">
        <ele>371.118276</ele>
        <time>2022-04-23T09:43:33.524Z</time>
      </trkpt>
      <trkpt lat="42.09304" lon="21.19934">
        <ele>371.344041</ele>
        <time>2022-04-23T09:43:37.523Z</time>
      </trkpt>
      <trkpt lat="42.09312" lon="21.19922">
        <ele>371.592561</ele>
        <time>2022-04-23T09:43:41.508Z</time>
      </trkpt>
      <trkpt lat="42.09319" lon="21.19914">
        <ele>371.792368</ele>
        <time>2022-04-23T09:43:44.496Z</time>
      </trkpt>
      <trkpt lat="42.09327" lon="21.19906">
        <ele>371.987245</ele>
        <time>2022-04-23T09:43:47.526Z</time>
      </trkpt>
      <trkpt lat="42.09334" lon="21.19899">
        <ele>372.18462</ele>
        <time>2022-04-23T09:43:50.502Z</time>
      </trkpt>
      <trkpt lat="42.09343" lon="21.19892">
        <ele>372.396854</ele>
        <time>2022-04-23T09:43:53.501Z</time>
      </trkpt>
      <trkpt lat="42.09351" lon="21.19883">
        <ele>372.618066</ele>
        <time>2022-04-23T09:43:56.517Z</time>
      </trkpt>
      <trkpt lat="42.0936" lon="21.19874">
        <ele>372.464277</ele>
        <time>2022-04-23T09:43:59.515Z</time>
      </trkpt>
      <trkpt lat="42.0937" lon="21.19865">
        <ele>372.112722</ele>
        <time>2022-04-23T09:44:02.514Z</time>
      </trkpt>
      <trkpt lat="42.0938" lon="21.19855">
        <ele>371.724923</ele>
        <time>2022-04-23T09:44:05.542Z</time>
      </trkpt>
      <trkpt lat="42.09387" lon="21.19848">
        <ele>371.43842</ele>
        <time>2022-04-23T09:44:07.520Z</time>
      </trkpt>
      <trkpt lat="42.09394" lon="21.1984">
        <ele>371.152573</ele>
        <time>2022-04-23T09:44:09.500Z</time>
      </trkpt>
      <trkpt lat="42.09402" lon="21.19832">
        <ele>370.859397</ele>
        <time>2022-04-23T09:44:11.554Z</time>
      </trkpt>
      <trkpt lat="42.09409" lon="21.19823">
        <ele>370.550449</ele>
        <time>2022-04-23T09:44:13.497Z</time>
      </trkpt>
      <trkpt lat="42.09417" lon="21.19815">
        <ele>370.241001</ele>
        <time>2022-04-23T09:44:15.493Z</time>
      </trkpt>
      <trkpt lat="42.09425" lon="21.19807">
        <ele>369.9279</ele>
        <time>2022-04-23T09:44:17.503Z</time>
      </trkpt>
      <trkpt lat="42.09436" lon="21.19799">
        <ele>369.560658</ele>
        <time>2022-04-23T09:44:19.512Z</time>
      </trkpt>
      <trkpt lat="42.09444" lon="21.19791">
        <ele>369.247383</ele>
        <time>2022-04-23T09:44:21.511Z</time>
      </trkpt>
      <trkpt lat="42.09452" lon="21.19784">
        <ele>368.944551</ele>
        <time>2022-04-23T09:44:23.544Z</time>
      </trkpt>
      <trkpt lat="42.0946" lon="21.19777">
        <ele>368.655861</ele>
        <time>2022-04-23T09:44:25.536Z</time>
      </trkpt>
      <trkpt lat="42.09467" lon="21.1977">
        <ele>368.370733</ele>
        <time>2022-04-23T09:44:27.504Z</time>
      </trkpt>
      <trkpt lat="42.09478" lon="21.19758">
        <ele>367.95253</ele>
        <time>2022-04-23T09:44:30.510Z</time>
      </trkpt>
      <trkpt lat="42.09485" lon="21.19751">
        <ele>367.670535</ele>
        <time>2022-04-23T09:44:32.524Z</time>
      </trkpt>
      <trkpt lat="42.09494" lon="21.1974">
        <ele>367.293007</ele>
        <time>2022-04-23T09:44:35.483Z</time>
      </trkpt>
      <trkpt lat="42.09504" lon="21.1973">
        <ele>367.156408</ele>
        <time>2022-04-23T09:44:38.544Z</time>
      </trkpt>
      <trkpt lat="42.09512" lon="21.19721">
        <ele>367.197295</ele>
        <time>2022-04-23T09:44:41.532Z</time>
      </trkpt>
      <trkpt lat="42.09521" lon="21.19713">
        <ele>367.23478</ele>
        <time>2022-04-23T09:44:44.544Z</time>
      </trkpt>
      <trkpt lat="42.0953" lon="21.19706">
        <ele>367.271255</ele>
        <time>2022-04-23T09:44:47.506Z</time>
      </trkpt>
      <trkpt lat="42.09538" lon="21.197">
        <ele>367.305344</ele>
        <time>2022-04-23T09:44:50.506Z</time>
      </trkpt>
      <trkpt lat="42.09546" lon="21.19693">
        <ele>367.341937</ele>
        <time>2022-04-23T09:44:53.511Z</time>
      </trkpt>
      <trkpt lat="42.09555" lon="21.19685">
        <ele>367.380496</ele>
        <time>2022-04-23T09:44:56.505Z</time>
      </trkpt>
      <trkpt lat="42.09564" lon="21.19677">
        <ele>367.418736</ele>
        <time>2022-04-23T09:44:59.517Z</time>
      </trkpt>
      <trkpt lat="42.09572" lon="21.1967">
        <ele>367.454734</ele>
        <time>2022-04-23T09:45:02.543Z</time>
      </trkpt>
      <trkpt lat="42.09581" lon="21.19663">
        <ele>367.491021</ele>
        <time>2022-04-23T09:45:05.527Z</time>
      </trkpt>
      <trkpt lat="42.09589" lon="21.19655">
        <ele>367.528358</ele>
        <time>2022-04-23T09:45:08.511Z</time>
      </trkpt>
      <trkpt lat="42.09598" lon="21.19648">
        <ele>367.565695</ele>
        <time>2022-04-23T09:45:11.515Z</time>
      </trkpt>
      <trkpt lat="42.09607" lon="21.1964">
        <ele>367.604092</ele>
        <time>2022-04-23T09:45:14.509Z</time>
      </trkpt>
      <trkpt lat="42.09615" lon="21.19631">
        <ele>367.640792</ele>
        <time>2022-04-23T09:45:17.561Z</time>
      </trkpt>
      <trkpt lat="42.09624" lon="21.19623">
        <ele>367.679964</ele>
        <time>2022-04-23T09:45:20.501Z</time>
      </trkpt>
      <trkpt lat="42.09632" lon="21.19614">
        <ele>367.719208</ele>
        <time>2022-04-23T09:45:23.500Z</time>
      </trkpt>
      <trkpt lat="42.09641" lon="21.19605">
        <ele>367.75993</ele>
        <time>2022-04-23T09:45:26.496Z</time>
      </trkpt>
      <trkpt lat="42.0965" lon="21.19596">
        <ele>367.835172</ele>
        <time>2022-04-23T09:45:29.500Z</time>
      </trkpt>
      <trkpt lat="42.09658" lon="21.19588">
        <ele>367.970458</ele>
        <time>2022-04-23T09:45:32.514Z</time>
      </trkpt>
      <trkpt lat="42.09665" lon="21.19578">
        <ele>368.098066</ele>
        <time>2022-04-23T09:45:35.489Z</time>
      </trkpt>
      <trkpt lat="42.09673" lon="21.19569">
        <ele>368.236676</ele>
        <time>2022-04-23T09:45:38.504Z</time>
      </trkpt>
      <trkpt lat="42.09681" lon="21.1956">
        <ele>368.373885</ele>
        <time>2022-04-23T09:45:41.506Z</time>
      </trkpt>
      <trkpt lat="42.0969" lon="21.19552">
        <ele>368.505415</ele>
        <time>2022-04-23T09:45:44.514Z</time>
      </trkpt>
      <trkpt lat="42.09697" lon="21.19544">
        <ele>368.627078</ele>
        <time>2022-04-23T09:45:47.493Z</time>
      </trkpt>
      <trkpt lat="42.09706" lon="21.19535">
        <ele>368.778671</ele>
        <time>2022-04-23T09:45:51.506Z</time>
      </trkpt>
      <trkpt lat="42.09714" lon="21.19526">
        <ele>368.912038</ele>
        <time>2022-04-23T09:45:55.511Z</time>
      </trkpt>
      <trkpt lat="42.09721" lon="21.19518">
        <ele>369.033444</ele>
        <time>2022-04-23T09:45:59.501Z</time>
      </trkpt>
      <trkpt lat="42.09728" lon="21.19509">
        <ele>369.161031</ele>
        <time>2022-04-23T09:46:04.503Z</time>
      </trkpt>
      <trkpt lat="42.09735" lon="21.195">
        <ele>369.281423</ele>
        <time>2022-04-23T09:46:08.503Z</time>
      </trkpt>
      <trkpt lat="42.09744" lon="21.19492">
        <ele>369.426454</ele>
        <time>2022-04-23T09:46:13.488Z</time>
      </trkpt>
      <trkpt lat="42.09753" lon="21.19482">
        <ele>369.572567</ele>
        <time>2022-04-23T09:46:18.563Z</time>
      </trkpt>
      <trkpt lat="42.0976" lon="21.19474">
        <ele>369.699887</ele>
        <time>2022-04-23T09:46:22.497Z</time>
      </trkpt>
      <trkpt lat="42.09768" lon="21.19467">
        <ele>369.822803</ele>
        <time>2022-04-23T09:46:26.495Z</time>
      </trkpt>
      <trkpt lat="42.09777" lon="21.1946">
        <ele>369.954217</ele>
        <time>2022-04-23T09:46:30.512Z</time>
      </trkpt>
      <trkpt lat="42.09785" lon="21.19454">
        <ele>370.084492</ele>
        <time>2022-04-23T09:46:34.532Z</time>
      </trkpt>
      <trkpt lat="42.09794" lon="21.19446">
        <ele>370.522925</ele>
        <time>2022-04-23T09:46:38.502Z</time>
      </trkpt>
      <trkpt lat="42.09803" lon="21.19439">
        <ele>371.12985</ele>
        <time>2022-04-23T09:46:42.497Z</time>
      </trkpt>
      <trkpt lat="42.09812" lon="21.19432">
        <ele>371.731805</ele>
        <time>2022-04-23T09:46:46.485Z</time>
      </trkpt>
      <trkpt lat="42.0982" lon="21.19424">
        <ele>372.326234</ele>
        <time>2022-04-23T09:46:50.518Z</time>
      </trkpt>
      <trkpt lat="42.09828" lon="21.19415">
        <ele>372.931625</ele>
        <time>2022-04-23T09:46:54.510Z</time>
      </trkpt>
      <trkpt lat="42.09836" lon="21.19404">
        <ele>373.591591</ele>
        <time>2022-04-23T09:46:58.492Z</time>
      </trkpt>
      <trkpt lat="42.09843" lon="21.19396">
        <ele>374.115224</ele>
        <time>2022-04-23T09:47:02.539Z</time>
      </trkpt>
      <trkpt lat="42.0985" lon="21.19387">
        <ele>374.677202</ele>
        <time>2022-04-23T09:47:06.490Z</time>
      </trkpt>
      <trkpt lat="42.09857" lon="21.19379">
        <ele>375.223548</ele>
        <time>2022-04-23T09:47:10.517Z</time>
      </trkpt>
      <trkpt lat="42.09863" lon="21.19369">
        <ele>375.772397</ele>
        <time>2022-04-23T09:47:14.511Z</time>
      </trkpt>
      <trkpt lat="42.09869" lon="21.19359">
        <ele>376.335015</ele>
        <time>2022-04-23T09:47:18.508Z</time>
      </trkpt>
      <trkpt lat="42.09876" lon="21.1935">
        <ele>376.894382</ele>
        <time>2022-04-23T09:47:22.506Z</time>
      </trkpt>
      <trkpt lat="42.09883" lon="21.19341">
        <ele>377.466976</ele>
        <time>2022-04-23T09:47:26.504Z</time>
      </trkpt>
      <trkpt lat="42.0989" lon="21.19332">
        <ele>378.027259</ele>
        <time>2022-04-23T09:47:30.517Z</time>
      </trkpt>
      <trkpt lat="42.09897" lon="21.19322">
        <ele>378.594703</ele>
        <time>2022-04-23T09:47:34.514Z</time>
      </trkpt>
      <trkpt lat="42.09905" lon="21.19312">
        <ele>379.242198</ele>
        <time>2022-04-23T09:47:39.517Z</time>
      </trkpt>
      <trkpt lat="42.09911" lon="21.19302">
        <ele>379.791792</ele>
        <time>2022-04-23T09:47:43.500Z</time>
      </trkpt>
      <trkpt lat="42.09917" lon="21.19291">
        <ele>380.406385</ele>
        <time>2022-04-23T09:47:47.522Z</time>
      </trkpt>
      <trkpt lat="42.09925" lon="21.1928">
        <ele>380.938138</ele>
        <time>2022-04-23T09:47:51.523Z</time>
      </trkpt>
      <trkpt lat="42.09933" lon="21.1927">
        <ele>381.430805</ele>
        <time>2022-04-23T09:47:55.495Z</time>
      </trkpt>
      <trkpt lat="42.0994" lon="21.19258">
        <ele>381.929234</ele>
        <time>2022-04-23T09:47:59.504Z</time>
      </trkpt>
      <trkpt lat="42.09947" lon="21.19247">
        <ele>382.43244</ele>
        <time>2022-04-23T09:48:03.528Z</time>
      </trkpt>
      <trkpt lat="42.09955" lon="21.19237">
        <ele>382.921143</ele>
        <time>2022-04-23T09:48:07.522Z</time>
      </trkpt>
      <trkpt lat="42.09963" lon="21.19225">
        <ele>383.45015</ele>
        <time>2022-04-23T09:48:11.489Z</time>
      </trkpt>
      <trkpt lat="42.09969" lon="21.19215">
        <ele>383.890128</ele>
        <time>2022-04-23T09:48:14.529Z</time>
      </trkpt>
      <trkpt lat="42.09977" lon="21.19204">
        <ele>384.389134</ele>
        <time>2022-04-23T09:48:18.504Z</time>
      </trkpt>
      <trkpt lat="42.09984" lon="21.19193">
        <ele>384.867377</ele>
        <time>2022-04-23T09:48:22.496Z</time>
      </trkpt>
      <trkpt lat="42.09991" lon="21.19181">
        <ele>385.38646</ele>
        <time>2022-04-23T09:48:26.512Z</time>
      </trkpt>
      <trkpt lat="42.09997" lon="21.19171">
        <ele>385.81998</ele>
        <time>2022-04-23T09:48:30.540Z</time>
      </trkpt>
      <trkpt lat="42.10003" lon="21.19159">
        <ele>386.315128</ele>
        <time>2022-04-23T09:48:34.530Z</time>
      </trkpt>
      <trkpt lat="42.1001" lon="21.19147">
        <ele>386.807434</ele>
        <time>2022-04-23T09:48:38.514Z</time>
      </trkpt>
      <trkpt lat="42.10016" lon="21.19134">
        <ele>387.32401</ele>
        <time>2022-04-23T09:48:42.497Z</time>
      </trkpt>
      <trkpt lat="42.10022" lon="21.19123">
        <ele>387.771472</ele>
        <time>2022-04-23T09:48:45.510Z</time>
      </trkpt>
      <trkpt lat="42.10027" lon="21.19112">
        <ele>388.195583</ele>
        <time>2022-04-23T09:48:48.508Z</time>
      </trkpt>
      <trkpt lat="42.10032" lon="21.19102">
        <ele>388.607725</ele>
        <time>2022-04-23T09:48:51.493Z</time>
      </trkpt>
      <trkpt lat="42.10037" lon="21.19092">
        <ele>388.524936</ele>
        <time>2022-04-23T09:48:54.525Z</time>
      </trkpt>
      <trkpt lat="42.10042" lon="21.19082">
        <ele>388.321639</ele>
        <time>2022-04-23T09:48:57.521Z</time>
      </trkpt>
      <trkpt lat="42.10048" lon="21.19071">
        <ele>388.104883</ele>
        <time>2022-04-23T09:49:00.506Z</time>
      </trkpt>
      <trkpt lat="42.10053" lon="21.19058">
        <ele>387.867727</ele>
        <time>2022-04-23T09:49:03.511Z</time>
      </trkpt>
      <trkpt lat="42.10059" lon="21.19045">
        <ele>387.608829</ele>
        <time>2022-04-23T09:49:06.501Z</time>
      </trkpt>
      <trkpt lat="42.10064" lon="21.19032">
        <ele>387.369651</ele>
        <time>2022-04-23T09:49:09.494Z</time>
      </trkpt>
      <trkpt lat="42.10069" lon="21.19021">
        <ele>387.157881</ele>
        <time>2022-04-23T09:49:12.506Z</time>
      </trkpt>
      <trkpt lat="42.10074" lon="21.1901">
        <ele>386.947506</ele>
        <time>2022-04-23T09:49:15.495Z</time>
      </trkpt>
      <trkpt lat="42.10078" lon="21.18998">
        <ele>386.727027</ele>
        <time>2022-04-23T09:49:18.504Z</time>
      </trkpt>
      <trkpt lat="42.10082" lon="21.18985">
        <ele>386.506694</ele>
        <time>2022-04-23T09:49:21.519Z</time>
      </trkpt>
      <trkpt lat="42.10085" lon="21.18973">
        <ele>386.290768</ele>
        <time>2022-04-23T09:49:24.498Z</time>
      </trkpt>
      <trkpt lat="42.10091" lon="21.1896">
        <ele>386.04484</ele>
        <time>2022-04-23T09:49:28.519Z</time>
      </trkpt>
      <trkpt lat="42.10097" lon="21.18951">
        <ele>385.845189</ele>
        <time>2022-04-23T09:49:32.500Z</time>
      </trkpt>
      <trkpt lat="42.10105" lon="21.18943">
        <ele>385.628405</ele>
        <time>2022-04-23T09:49:39.495Z</time>
      </trkpt>
      <trkpt lat="42.10111" lon="21.18933">
        <ele>385.41706</ele>
        <time>2022-04-23T09:49:43.522Z</time>
      </trkpt>
      <trkpt lat="42.10118" lon="21.18923">
        <ele>385.186121</ele>
        <time>2022-04-23T09:49:47.528Z</time>
      </trkpt>
      <trkpt lat="42.10125" lon="21.18912">
        <ele>384.952502</ele>
        <time>2022-04-23T09:49:51.490Z</time>
      </trkpt>
      <trkpt lat="42.1013" lon="21.18898">
        <ele>384.700508</ele>
        <time>2022-04-23T09:49:55.501Z</time>
      </trkpt>
      <trkpt lat="42.10136" lon="21.18888">
        <ele>384.640237</ele>
        <time>2022-04-23T09:49:58.495Z</time>
      </trkpt>
      <trkpt lat="42.10142" lon="21.18879">
        <ele>384.579965</ele>
        <time>2022-04-23T09:50:01.532Z</time>
      </trkpt>
      <trkpt lat="42.10148" lon="21.18868">
        <ele>384.51974</ele>
        <time>2022-04-23T09:50:04.513Z</time>
      </trkpt>
      <trkpt lat="42.10153" lon="21.18855">
        <ele>384.447734</ele>
        <time>2022-04-23T09:50:08.515Z</time>
      </trkpt>
      <trkpt lat="42.10159" lon="21.1884">
        <ele>384.369903</ele>
        <time>2022-04-23T09:50:12.521Z</time>
      </trkpt>
      <trkpt lat="42.10163" lon="21.18829">
        <ele>384.307729</ele>
        <time>2022-04-23T09:50:15.511Z</time>
      </trkpt>
      <trkpt lat="42.10168" lon="21.18816">
        <ele>384.238807</ele>
        <time>2022-04-23T09:50:18.503Z</time>
      </trkpt>
      <trkpt lat="42.10172" lon="21.18803">
        <ele>384.174425</ele>
        <time>2022-04-23T09:50:21.532Z</time>
      </trkpt>
      <trkpt lat="42.10174" lon="21.1879">
        <ele>384.112363</ele>
        <time>2022-04-23T09:50:24.512Z</time>
      </trkpt>
      <trkpt lat="42.10178" lon="21.18776">
        <ele>384.040433</ele>
        <time>2022-04-23T09:50:27.511Z</time>
      </trkpt>
      <trkpt lat="42.10181" lon="21.18761">
        <ele>383.968692</ele>
        <time>2022-04-23T09:50:30.505Z</time>
      </trkpt>
      <trkpt lat="42.10183" lon="21.18747">
        <ele>383.901177</ele>
        <time>2022-04-23T09:50:33.499Z</time>
      </trkpt>
      <trkpt lat="42.10185" lon="21.18734">
        <ele>383.834711</ele>
        <time>2022-04-23T09:50:36.535Z</time>
      </trkpt>
      <trkpt lat="42.10188" lon="21.18716">
        <ele>383.748675</ele>
        <time>2022-04-23T09:50:39.510Z</time>
      </trkpt>
      <trkpt lat="42.1019" lon="21.18699">
        <ele>383.668199</ele>
        <time>2022-04-23T09:50:42.508Z</time>
      </trkpt>
      <trkpt lat="42.10194" lon="21.18683">
        <ele>383.589287</ele>
        <time>2022-04-23T09:50:45.489Z</time>
      </trkpt>
      <trkpt lat="42.10199" lon="21.18667">
        <ele>383.644706</ele>
        <time>2022-04-23T09:50:48.519Z</time>
      </trkpt>
      <trkpt lat="42.10204" lon="21.18652">
        <ele>383.788954</ele>
        <time>2022-04-23T09:50:51.521Z</time>
      </trkpt>
      <trkpt lat="42.10208" lon="21.18639">
        <ele>383.917267</ele>
        <time>2022-04-23T09:50:54.503Z</time>
      </trkpt>
      <trkpt lat="42.10214" lon="21.18625">
        <ele>384.060644</ele>
        <time>2022-04-23T09:50:57.504Z</time>
      </trkpt>
      <trkpt lat="42.10221" lon="21.18611">
        <ele>384.204944</ele>
        <time>2022-04-23T09:51:00.520Z</time>
      </trkpt>
      <trkpt lat="42.10228" lon="21.186">
        <ele>384.331709</ele>
        <time>2022-04-23T09:51:03.511Z</time>
      </trkpt>
      <trkpt lat="42.10234" lon="21.1859">
        <ele>384.4482</ele>
        <time>2022-04-23T09:51:06.509Z</time>
      </trkpt>
      <trkpt lat="42.1024" lon="21.1858">
        <ele>384.56451</ele>
        <time>2022-04-23T09:51:09.506Z</time>
      </trkpt>
      <trkpt lat="42.10247" lon="21.18568">
        <ele>384.700548</ele>
        <time>2022-04-23T09:51:13.511Z</time>
      </trkpt>
      <trkpt lat="42.10253" lon="21.18557">
        <ele>384.817838</ele>
        <time>2022-04-23T09:51:17.526Z</time>
      </trkpt>
      <trkpt lat="42.10259" lon="21.18546">
        <ele>384.942694</ele>
        <time>2022-04-23T09:51:21.544Z</time>
      </trkpt>
      <trkpt lat="42.10267" lon="21.18534">
        <ele>385.07986</ele>
        <time>2022-04-23T09:51:25.507Z</time>
      </trkpt>
      <trkpt lat="42.10274" lon="21.18523">
        <ele>385.209383</ele>
        <time>2022-04-23T09:51:29.508Z</time>
      </trkpt>
      <trkpt lat="42.1028" lon="21.18512">
        <ele>385.3369</ele>
        <time>2022-04-23T09:51:33.509Z</time>
      </trkpt>
      <trkpt lat="42.10288" lon="21.18499">
        <ele>385.472975</ele>
        <time>2022-04-23T09:51:37.542Z</time>
      </trkpt>
      <trkpt lat="42.10293" lon="21.18489">
        <ele>385.586331</ele>
        <time>2022-04-23T09:51:40.504Z</time>
      </trkpt>
      <trkpt lat="42.10299" lon="21.1848">
        <ele>385.692436</ele>
        <time>2022-04-23T09:51:43.539Z</time>
      </trkpt>
      <trkpt lat="42.10306" lon="21.18468">
        <ele>385.549969</ele>
        <time>2022-04-23T09:51:46.508Z</time>
      </trkpt>
      <trkpt lat="42.10314" lon="21.18456">
        <ele>385.395256</ele>
        <time>2022-04-23T09:51:49.511Z</time>
      </trkpt>
      <trkpt lat="42.10322" lon="21.18443">
        <ele>385.233779</ele>
        <time>2022-04-23T09:51:52.493Z</time>
      </trkpt>
      <trkpt lat="42.10328" lon="21.18431">
        <ele>385.095559</ele>
        <time>2022-04-23T09:51:55.544Z</time>
      </trkpt>
      <trkpt lat="42.10333" lon="21.18417">
        <ele>384.943605</ele>
        <time>2022-04-23T09:51:58.565Z</time>
      </trkpt>
      <trkpt lat="42.10338" lon="21.18405">
        <ele>384.815786</ele>
        <time>2022-04-23T09:52:00.511Z</time>
      </trkpt>
      <trkpt lat="42.10343" lon="21.18394">
        <ele>384.689585</ele>
        <time>2022-04-23T09:52:02.526Z</time>
      </trkpt>
      <trkpt lat="42.10348" lon="21.18383">
        <ele>384.561267</ele>
        <time>2022-04-23T09:52:04.523Z</time>
      </trkpt>
      <trkpt lat="42.10354" lon="21.18372">
        <ele>384.42911</ele>
        <time>2022-04-23T09:52:06.538Z</time>
      </trkpt>
      <trkpt lat="42.10359" lon="21.18361">
        <ele>384.30311</ele>
        <time>2022-04-23T09:52:08.519Z</time>
      </trkpt>
      <trkpt lat="42.10364" lon="21.1835">
        <ele>384.182357</ele>
        <time>2022-04-23T09:52:10.494Z</time>
      </trkpt>
      <trkpt lat="42.10372" lon="21.18336">
        <ele>384.016279</ele>
        <time>2022-04-23T09:52:13.512Z</time>
      </trkpt>
      <trkpt lat="42.10378" lon="21.18323">
        <ele>383.863976</ele>
        <time>2022-04-23T09:52:16.517Z</time>
      </trkpt>
      <trkpt lat="42.10386" lon="21.18308">
        <ele>383.692323</ele>
        <time>2022-04-23T09:52:19.485Z</time>
      </trkpt>
      <trkpt lat="42.10391" lon="21.18297">
        <ele>383.567745</ele>
        <time>2022-04-23T09:52:21.525Z</time>
      </trkpt>
      <trkpt lat="42.10397" lon="21.18285">
        <ele>383.42711</ele>
        <time>2022-04-23T09:52:23.510Z</time>
      </trkpt>
      <trkpt lat="42.10403" lon="21.18272">
        <ele>383.239842</ele>
        <time>2022-04-23T09:52:25.514Z</time>
      </trkpt>
      <trkpt lat="42.1041" lon="21.1826">
        <ele>383.022953</ele>
        <time>2022-04-23T09:52:27.541Z</time>
      </trkpt>
      <trkpt lat="42.10416" lon="21.18248">
        <ele>382.816387</ele>
        <time>2022-04-23T09:52:29.506Z</time>
      </trkpt>
      <trkpt lat="42.10421" lon="21.18238">
        <ele>382.638497</ele>
        <time>2022-04-23T09:52:31.503Z</time>
      </trkpt>
      <trkpt lat="42.10423" lon="21.18222">
        <ele>382.404306</ele>
        <time>2022-04-23T09:52:34.491Z</time>
      </trkpt>
      <trkpt lat="42.10417" lon="21.18209">
        <ele>382.183538</ele>
        <time>2022-04-23T09:52:36.484Z</time>
      </trkpt>
      <trkpt lat="42.10406" lon="21.182">
        <ele>381.95025</ele>
        <time>2022-04-23T09:52:38.491Z</time>
      </trkpt>
      <trkpt lat="42.10402" lon="21.18186">
        <ele>381.73391</ele>
        <time>2022-04-23T09:52:41.500Z</time>
      </trkpt>
      <trkpt lat="42.10404" lon="21.18172">
        <ele>381.529846</ele>
        <time>2022-04-23T09:52:45.505Z</time>
      </trkpt>
      <trkpt lat="42.10404" lon="21.18159">
        <ele>381.342352</ele>
        <time>2022-04-23T09:52:49.497Z</time>
      </trkpt>
      <trkpt lat="42.10406" lon="21.18147">
        <ele>381.167697</ele>
        <time>2022-04-23T09:52:52.489Z</time>
      </trkpt>
      <trkpt lat="42.10408" lon="21.18131">
        <ele>380.933295</ele>
        <time>2022-04-23T09:52:55.525Z</time>
      </trkpt>
      <trkpt lat="42.1041" lon="21.18117">
        <ele>380.738408</ele>
        <time>2022-04-23T09:52:57.516Z</time>
      </trkpt>
      <trkpt lat="42.10413" lon="21.18103">
        <ele>380.527618</ele>
        <time>2022-04-23T09:52:59.493Z</time>
      </trkpt>
      <trkpt lat="42.10416" lon="21.18089">
        <ele>380.320978</ele>
        <time>2022-04-23T09:53:01.530Z</time>
      </trkpt>
      <trkpt lat="42.10417" lon="21.18075">
        <ele>380.114183</ele>
        <time>2022-04-23T09:53:03.491Z</time>
      </trkpt>
      <trkpt lat="42.10418" lon="21.18059">
        <ele>379.913467</ele>
        <time>2022-04-23T09:53:05.501Z</time>
      </trkpt>
      <trkpt lat="42.10417" lon="21.18042">
        <ele>380.282322</ele>
        <time>2022-04-23T09:53:07.539Z</time>
      </trkpt>
      <trkpt lat="42.10416" lon="21.18023">
        <ele>380.6671</ele>
        <time>2022-04-23T09:53:09.503Z</time>
      </trkpt>
      <trkpt lat="42.10415" lon="21.18005">
        <ele>381.050568</ele>
        <time>2022-04-23T09:53:11.501Z</time>
      </trkpt>
      <trkpt lat="42.10414" lon="21.17987">
        <ele>381.434748</ele>
        <time>2022-04-23T09:53:13.515Z</time>
      </trkpt>
      <trkpt lat="42.10413" lon="21.1797">
        <ele>381.790676</ele>
        <time>2022-04-23T09:53:15.520Z</time>
      </trkpt>
      <trkpt lat="42.1041" lon="21.17954">
        <ele>382.14141</ele>
        <time>2022-04-23T09:53:17.515Z</time>
      </trkpt>
      <trkpt lat="42.10407" lon="21.17939">
        <ele>382.473473</ele>
        <time>2022-04-23T09:53:19.494Z</time>
      </trkpt>
      <trkpt lat="42.10405" lon="21.17924">
        <ele>382.780647</ele>
        <time>2022-04-23T09:53:21.500Z</time>
      </trkpt>
      <trkpt lat="42.10403" lon="21.1791">
        <ele>383.098163</ele>
        <time>2022-04-23T09:53:23.539Z</time>
      </trkpt>
      <trkpt lat="42.104" lon="21.17897">
        <ele>383.381021</ele>
        <time>2022-04-23T09:53:25.512Z</time>
      </trkpt>
      <trkpt lat="42.10396" lon="21.17881">
        <ele>383.725789</ele>
        <time>2022-04-23T09:53:28.502Z</time>
      </trkpt>
      <trkpt lat="42.10394" lon="21.17869">
        <ele>384.002025</ele>
        <time>2022-04-23T09:53:31.527Z</time>
      </trkpt>
      <trkpt lat="42.10392" lon="21.17857">
        <ele>384.257727</ele>
        <time>2022-04-23T09:53:34.481Z</time>
      </trkpt>
      <trkpt lat="42.10388" lon="21.17842">
        <ele>384.594642</ele>
        <time>2022-04-23T09:53:38.492Z</time>
      </trkpt>
      <trkpt lat="42.10382" lon="21.17829">
        <ele>384.912838</ele>
        <time>2022-04-23T09:53:42.506Z</time>
      </trkpt>
      <trkpt lat="42.10375" lon="21.17818">
        <ele>385.326606</ele>
        <time>2022-04-23T09:53:47.497Z</time>
      </trkpt>
      <trkpt lat="42.10369" lon="21.17809">
        <ele>385.72491</ele>
        <time>2022-04-23T09:53:52.534Z</time>
      </trkpt>
      <trkpt lat="42.10361" lon="21.17799">
        <ele>386.16551</ele>
        <time>2022-04-23T09:53:58.501Z</time>
      </trkpt>
      <trkpt lat="42.10354" lon="21.17788">
        <ele>386.599717</ele>
        <time>2022-04-23T09:54:04.520Z</time>
      </trkpt>
      <trkpt lat="42.10352" lon="21.17775">
        <ele>387.022323</ele>
        <time>2022-04-23T09:54:11.483Z</time>
      </trkpt>
      <trkpt lat="42.10352" lon="21.17762">
        <ele>387.427852</ele>
        <time>2022-04-23T09:54:18.495Z</time>
      </trkpt>
      <trkpt lat="42.10353" lon="21.1775">
        <ele>387.818091</ele>
        <time>2022-04-23T09:54:24.506Z</time>
      </trkpt>
      <trkpt lat="42.1035" lon="21.17738">
        <ele>388.212051</ele>
        <time>2022-04-23T09:54:29.498Z</time>
      </trkpt>
      <trkpt lat="42.10344" lon="21.17728">
        <ele>388.620164</ele>
        <time>2022-04-23T09:54:34.496Z</time>
      </trkpt>
      <trkpt lat="42.10339" lon="21.17717">
        <ele>389.020864</ele>
        <time>2022-04-23T09:54:39.572Z</time>
      </trkpt>
      <trkpt lat="42.10337" lon="21.17705">
        <ele>389.413932</ele>
        <time>2022-04-23T09:54:45.522Z</time>
      </trkpt>
      <trkpt lat="42.10338" lon="21.17692">
        <ele>389.812777</ele>
        <time>2022-04-23T09:54:50.497Z</time>
      </trkpt>
      <trkpt lat="42.1034" lon="21.17677">
        <ele>390.277442</ele>
        <time>2022-04-23T09:54:55.506Z</time>
      </trkpt>
      <trkpt lat="42.10341" lon="21.17664">
        <ele>390.69128</ele>
        <time>2022-04-23T09:54:59.505Z</time>
      </trkpt>
      <trkpt lat="42.10343" lon="21.17651">
        <ele>391.103622</ele>
        <time>2022-04-23T09:55:03.501Z</time>
      </trkpt>
      <trkpt lat="42.10345" lon="21.17637">
        <ele>391.576928</ele>
        <time>2022-04-23T09:55:07.521Z</time>
      </trkpt>
      <trkpt lat="42.10345" lon="21.17624">
        <ele>391.966825</ele>
        <time>2022-04-23T09:55:10.500Z</time>
      </trkpt>
      <trkpt lat="42.10347" lon="21.17609">
        <ele>392.44082</ele>
        <time>2022-04-23T09:55:13.510Z</time>
      </trkpt>
      <trkpt lat="42.10348" lon="21.17593">
        <ele>392.515206</ele>
        <time>2022-04-23T09:55:16.517Z</time>
      </trkpt>
      <trkpt lat="42.1035" lon="21.17575">
        <ele>392.368434</ele>
        <time>2022-04-23T09:55:19.505Z</time>
      </trkpt>
      <trkpt lat="42.1035" lon="21.17563">
        <ele>392.264823</ele>
        <time>2022-04-23T09:55:21.490Z</time>
      </trkpt>
      <trkpt lat="42.10351" lon="21.17547">
        <ele>392.125945</ele>
        <time>2022-04-23T09:55:24.510Z</time>
      </trkpt>
      <trkpt lat="42.10351" lon="21.17533">
        <ele>392.015056</ele>
        <time>2022-04-23T09:55:27.533Z</time>
      </trkpt>
      <trkpt lat="42.10349" lon="21.17519">
        <ele>391.89531</ele>
        <time>2022-04-23T09:55:31.505Z</time>
      </trkpt>
      <trkpt lat="42.1035" lon="21.17505">
        <ele>391.775974</ele>
        <time>2022-04-23T09:55:35.506Z</time>
      </trkpt>
      <trkpt lat="42.1035" lon="21.1749">
        <ele>391.64999</ele>
        <time>2022-04-23T09:55:38.501Z</time>
      </trkpt>
      <trkpt lat="42.10351" lon="21.17478">
        <ele>391.544851</ele>
        <time>2022-04-23T09:55:40.504Z</time>
      </trkpt>
      <trkpt lat="42.10352" lon="21.17463">
        <ele>391.424405</ele>
        <time>2022-04-23T09:55:42.508Z</time>
      </trkpt>
      <trkpt lat="42.10352" lon="21.17448">
        <ele>391.29842</ele>
        <time>2022-04-23T09:55:44.552Z</time>
      </trkpt>
      <trkpt lat="42.10351" lon="21.17434">
        <ele>391.172862</ele>
        <time>2022-04-23T09:55:46.541Z</time>
      </trkpt>
      <trkpt lat="42.10349" lon="21.1742">
        <ele>391.05389</ele>
        <time>2022-04-23T09:55:48.510Z</time>
      </trkpt>
      <trkpt lat="42.10347" lon="21.17407">
        <ele>390.944868</ele>
        <time>2022-04-23T09:55:50.497Z</time>
      </trkpt>
      <trkpt lat="42.10345" lon="21.17391">
        <ele>390.811705</ele>
        <time>2022-04-23T09:55:53.503Z</time>
      </trkpt>
      <trkpt lat="42.10343" lon="21.17376">
        <ele>390.683645</ele>
        <time>2022-04-23T09:55:57.499Z</time>
      </trkpt>
      <trkpt lat="42.10341" lon="21.17363">
        <ele>390.573152</ele>
        <time>2022-04-23T09:56:01.507Z</time>
      </trkpt>
      <trkpt lat="42.1034" lon="21.17351">
        <ele>390.586612</ele>
        <time>2022-04-23T09:56:05.488Z</time>
      </trkpt>
      <trkpt lat="42.10339" lon="21.17337">
        <ele>390.60227</ele>
        <time>2022-04-23T09:56:10.505Z</time>
      </trkpt>
      <trkpt lat="42.10342" lon="21.17324">
        <ele>390.61692</ele>
        <time>2022-04-23T09:56:14.541Z</time>
      </trkpt>
      <trkpt lat="42.10344" lon="21.17311">
        <ele>390.631212</ele>
        <time>2022-04-23T09:56:18.493Z</time>
      </trkpt>
      <trkpt lat="42.10346" lon="21.17297">
        <ele>390.647213</ele>
        <time>2022-04-23T09:56:22.496Z</time>
      </trkpt>
      <trkpt lat="42.10348" lon="21.17283">
        <ele>390.663157</ele>
        <time>2022-04-23T09:56:26.486Z</time>
      </trkpt>
      <trkpt lat="42.10349" lon="21.17268">
        <ele>390.679531</ele>
        <time>2022-04-23T09:56:30.501Z</time>
      </trkpt>
      <trkpt lat="42.10349" lon="21.17255">
        <ele>390.693422</ele>
        <time>2022-04-23T09:56:33.520Z</time>
      </trkpt>
      <trkpt lat="42.1035" lon="21.17239">
        <ele>390.711046</ele>
        <time>2022-04-23T09:56:37.500Z</time>
      </trkpt>
      <trkpt lat="42.10349" lon="21.17224">
        <ele>390.727786</ele>
        <time>2022-04-23T09:56:41.501Z</time>
      </trkpt>
      <trkpt lat="42.10349" lon="21.17212">
        <ele>390.741721</ele>
        <time>2022-04-23T09:56:44.510Z</time>
      </trkpt>
      <trkpt lat="42.10347" lon="21.17199">
        <ele>390.755508</ele>
        <time>2022-04-23T09:56:47.514Z</time>
      </trkpt>
      <trkpt lat="42.10345" lon="21.17187">
        <ele>390.76919</ele>
        <time>2022-04-23T09:56:50.523Z</time>
      </trkpt>
      <trkpt lat="42.1034" lon="21.17177">
        <ele>390.782502</ele>
        <time>2022-04-23T09:56:53.499Z</time>
      </trkpt>
      <trkpt lat="42.10334" lon="21.17167">
        <ele>390.796891</ele>
        <time>2022-04-23T09:56:56.502Z</time>
      </trkpt>
      <trkpt lat="42.10327" lon="21.17159">
        <ele>390.810196</ele>
        <time>2022-04-23T09:56:59.504Z</time>
      </trkpt>
      <trkpt lat="42.1032" lon="21.17148">
        <ele>390.826527</ele>
        <time>2022-04-23T09:57:03.482Z</time>
      </trkpt>
      <trkpt lat="42.10312" lon="21.17137">
        <ele>390.860761</ele>
        <time>2022-04-23T09:57:07.504Z</time>
      </trkpt>
      <trkpt lat="42.10305" lon="21.17125">
        <ele>390.964089</ele>
        <time>2022-04-23T09:57:11.515Z</time>
      </trkpt>
      <trkpt lat="42.10298" lon="21.17113">
        <ele>391.074728</ele>
        <time>2022-04-23T09:57:15.487Z</time>
      </trkpt>
      <trkpt lat="42.10292" lon="21.17102">
        <ele>391.162553</ele>
        <time>2022-04-23T09:57:18.504Z</time>
      </trkpt>
      <trkpt lat="42.10288" lon="21.17091">
        <ele>391.255013</ele>
        <time>2022-04-23T09:57:21.520Z</time>
      </trkpt>
      <trkpt lat="42.10283" lon="21.17078">
        <ele>391.353829</ele>
        <time>2022-04-23T09:57:24.515Z</time>
      </trkpt>
      <trkpt lat="42.10279" lon="21.17064">
        <ele>391.454663</ele>
        <time>2022-04-23T09:57:27.506Z</time>
      </trkpt>
      <trkpt lat="42.10275" lon="21.1705">
        <ele>391.562363</ele>
        <time>2022-04-23T09:57:30.522Z</time>
      </trkpt>
      <trkpt lat="42.10271" lon="21.17036">
        <ele>391.662567</ele>
        <time>2022-04-23T09:57:33.500Z</time>
      </trkpt>
      <trkpt lat="42.10268" lon="21.17022">
        <ele>391.762422</ele>
        <time>2022-04-23T09:57:36.538Z</time>
      </trkpt>
      <trkpt lat="42.10264" lon="21.17007">
        <ele>391.875914</ele>
        <time>2022-04-23T09:57:39.517Z</time>
      </trkpt>
      <trkpt lat="42.10261" lon="21.16991">
        <ele>391.989148</ele>
        <time>2022-04-23T09:57:42.493Z</time>
      </trkpt>
      <trkpt lat="42.10258" lon="21.16975">
        <ele>392.103508</ele>
        <time>2022-04-23T09:57:45.503Z</time>
      </trkpt>
      <trkpt lat="42.10255" lon="21.16961">
        <ele>392.205329</ele>
        <time>2022-04-23T09:57:48.509Z</time>
      </trkpt>
      <trkpt lat="42.10252" lon="21.16945">
        <ele>392.314103</ele>
        <time>2022-04-23T09:57:52.510Z</time>
      </trkpt>
      <trkpt lat="42.1025" lon="21.16932">
        <ele>392.407093</ele>
        <time>2022-04-23T09:57:56.496Z</time>
      </trkpt>
      <trkpt lat="42.10251" lon="21.16918">
        <ele>392.505455</ele>
        <time>2022-04-23T09:58:00.505Z</time>
      </trkpt>
      <trkpt lat="42.10252" lon="21.16904">
        <ele>392.621161</ele>
        <time>2022-04-23T09:58:03.488Z</time>
      </trkpt>
      <trkpt lat="42.10255" lon="21.16889">
        <ele>392.754407</ele>
        <time>2022-04-23T09:58:06.503Z</time>
      </trkpt>
      <trkpt lat="42.10261" lon="21.16873">
        <ele>392.902352</ele>
        <time>2022-04-23T09:58:09.506Z</time>
      </trkpt>
      <trkpt lat="42.10266" lon="21.1686">
        <ele>393.030824</ele>
        <time>2022-04-23T09:58:12.514Z</time>
      </trkpt>
      <trkpt lat="42.1027" lon="21.16848">
        <ele>393.147424</ele>
        <time>2022-04-23T09:58:15.505Z</time>
      </trkpt>
      <trkpt lat="42.10271" lon="21.16834">
        <ele>393.268372</ele>
        <time>2022-04-23T09:58:18.503Z</time>
      </trkpt>
      <trkpt lat="42.10272" lon="21.16818">
        <ele>393.400373</ele>
        <time>2022-04-23T09:58:22.501Z</time>
      </trkpt>
      <trkpt lat="42.10276" lon="21.16803">
        <ele>393.531852</ele>
        <time>2022-04-23T09:58:26.496Z</time>
      </trkpt>
      <trkpt lat="42.1028" lon="21.16792">
        <ele>393.641181</ele>
        <time>2022-04-23T09:58:29.506Z</time>
      </trkpt>
      <trkpt lat="42.10284" lon="21.16779">
        <ele>393.760849</ele>
        <time>2022-04-23T09:58:32.501Z</time>
      </trkpt>
      <trkpt lat="42.10285" lon="21.16761">
        <ele>393.914419</ele>
        <time>2022-04-23T09:58:35.511Z</time>
      </trkpt>
      <trkpt lat="42.10283" lon="21.16745">
        <ele>394.052619</ele>
        <time>2022-04-23T09:58:37.516Z</time>
      </trkpt>
      <trkpt lat="42.1028" lon="21.16728">
        <ele>394.200085</ele>
        <time>2022-04-23T09:58:39.513Z</time>
      </trkpt>
      <trkpt lat="42.10275" lon="21.1671">
        <ele>394.360881</ele>
        <time>2022-04-23T09:58:41.504Z</time>
      </trkpt>
      <trkpt lat="42.10272" lon="21.16691">
        <ele>394.531624</ele>
        <time>2022-04-23T09:58:43.502Z</time>
      </trkpt>
      <trkpt lat="42.10272" lon="21.16671">
        <ele>394.421609</ele>
        <time>2022-04-23T09:58:45.516Z</time>
      </trkpt>
      <trkpt lat="42.10274" lon="21.16651">
        <ele>394.202196</ele>
        <time>2022-04-23T09:58:47.510Z</time>
      </trkpt>
      <trkpt lat="42.10272" lon="21.16632">
        <ele>393.991079</ele>
        <time>2022-04-23T09:58:49.525Z</time>
      </trkpt>
      <trkpt lat="42.10268" lon="21.16616">
        <ele>393.800493</ele>
        <time>2022-04-23T09:58:51.507Z</time>
      </trkpt>
      <trkpt lat="42.10264" lon="21.16601">
        <ele>393.63175</ele>
        <time>2022-04-23T09:58:53.489Z</time>
      </trkpt>
      <trkpt lat="42.1026" lon="21.1659">
        <ele>393.491562</ele>
        <time>2022-04-23T09:58:55.526Z</time>
      </trkpt>
      <trkpt lat="42.10256" lon="21.16576">
        <ele>393.330643</ele>
        <time>2022-04-23T09:58:58.500Z</time>
      </trkpt>
      <trkpt lat="42.10252" lon="21.16562">
        <ele>393.158274</ele>
        <time>2022-04-23T09:59:02.528Z</time>
      </trkpt>
      <trkpt lat="42.10247" lon="21.16551">
        <ele>393.01898</ele>
        <time>2022-04-23T09:59:05.499Z</time>
      </trkpt>
      <trkpt lat="42.10242" lon="21.16539">
        <ele>392.873641</ele>
        <time>2022-04-23T09:59:08.495Z</time>
      </trkpt>
      <trkpt lat="42.10238" lon="21.16527">
        <ele>392.724888</ele>
        <time>2022-04-23T09:59:11.537Z</time>
      </trkpt>
      <trkpt lat="42.10235" lon="21.16514">
        <ele>392.575884</ele>
        <time>2022-04-23T09:59:15.504Z</time>
      </trkpt>
      <trkpt lat="42.10231" lon="21.16503">
        <ele>392.438618</ele>
        <time>2022-04-23T09:59:19.506Z</time>
      </trkpt>
      <trkpt lat="42.10226" lon="21.16489">
        <ele>392.26622</ele>
        <time>2022-04-23T09:59:23.553Z</time>
      </trkpt>
      <trkpt lat="42.1022" lon="21.16476">
        <ele>392.096389</ele>
        <time>2022-04-23T09:59:26.522Z</time>
      </trkpt>
      <trkpt lat="42.10212" lon="21.16463">
        <ele>391.912975</ele>
        <time>2022-04-23T09:59:29.500Z</time>
      </trkpt>
      <trkpt lat="42.10205" lon="21.16454">
        <ele>392.091887</ele>
        <time>2022-04-23T09:59:32.510Z</time>
      </trkpt>
      <trkpt lat="42.10197" lon="21.16444">
        <ele>392.311679</ele>
        <time>2022-04-23T09:59:36.495Z</time>
      </trkpt>
      <trkpt lat="42.1019" lon="21.16434">
        <ele>392.541308</ele>
        <time>2022-04-23T09:59:40.500Z</time>
      </trkpt>
      <trkpt lat="42.10183" lon="21.16424">
        <ele>392.742144</ele>
        <time>2022-04-23T09:59:43.505Z</time>
      </trkpt>
      <trkpt lat="42.10176" lon="21.16415">
        <ele>392.949176</ele>
        <time>2022-04-23T09:59:46.492Z</time>
      </trkpt>
      <trkpt lat="42.10168" lon="21.16403">
        <ele>393.191113</ele>
        <time>2022-04-23T09:59:49.505Z</time>
      </trkpt>
      <trkpt lat="42.10159" lon="21.16391">
        <ele>393.444435</ele>
        <time>2022-04-23T09:59:52.502Z</time>
      </trkpt>
      <trkpt lat="42.10152" lon="21.16379">
        <ele>393.681933</ele>
        <time>2022-04-23T09:59:55.495Z</time>
      </trkpt>
      <trkpt lat="42.10146" lon="21.16368">
        <ele>393.898256</ele>
        <time>2022-04-23T09:59:58.503Z</time>
      </trkpt>
      <trkpt lat="42.1014" lon="21.16356">
        <ele>394.119559</ele>
        <time>2022-04-23T10:00:01.503Z</time>
      </trkpt>
      <trkpt lat="42.10132" lon="21.16344">
        <ele>394.368273</ele>
        <time>2022-04-23T10:00:04.513Z</time>
      </trkpt>
      <trkpt lat="42.10127" lon="21.16334">
        <ele>394.557278</ele>
        <time>2022-04-23T10:00:06.497Z</time>
      </trkpt>
      <trkpt lat="42.10122" lon="21.16324">
        <ele>394.747517</ele>
        <time>2022-04-23T10:00:08.496Z</time>
      </trkpt>
      <trkpt lat="42.10113" lon="21.1631">
        <ele>395.013502</ele>
        <time>2022-04-23T10:00:11.507Z</time>
      </trkpt>
      <trkpt lat="42.10104" lon="21.16298">
        <ele>395.284036</ele>
        <time>2022-04-23T10:00:14.524Z</time>
      </trkpt>
      <trkpt lat="42.10097" lon="21.1629">
        <ele>395.471655</ele>
        <time>2022-04-23T10:00:16.525Z</time>
      </trkpt>
      <trkpt lat="42.10089" lon="21.16277">
        <ele>395.561121</ele>
        <time>2022-04-23T10:00:19.506Z</time>
      </trkpt>
      <trkpt lat="42.10082" lon="21.16264">
        <ele>395.384442</ele>
        <time>2022-04-23T10:00:22.510Z</time>
      </trkpt>
      <trkpt lat="42.10077" lon="21.16251">
        <ele>395.219314</ele>
        <time>2022-04-23T10:00:25.500Z</time>
      </trkpt>
      <trkpt lat="42.10072" lon="21.16238">
        <ele>395.067223</ele>
        <time>2022-04-23T10:00:28.503Z</time>
      </trkpt>
      <trkpt lat="42.10068" lon="21.16226">
        <ele>394.916431</ele>
        <time>2022-04-23T10:00:31.520Z</time>
      </trkpt>
      <trkpt lat="42.10063" lon="21.16212">
        <ele>394.744624</ele>
        <time>2022-04-23T10:00:34.558Z</time>
      </trkpt>
      <trkpt lat="42.10058" lon="21.16195">
        <ele>394.553253</ele>
        <time>2022-04-23T10:00:37.525Z</time>
      </trkpt>
      <trkpt lat="42.10054" lon="21.1618">
        <ele>394.370682</ele>
        <time>2022-04-23T10:00:40.503Z</time>
      </trkpt>
      <trkpt lat="42.10052" lon="21.16167">
        <ele>394.226104</ele>
        <time>2022-04-23T10:00:42.519Z</time>
      </trkpt>
      <trkpt lat="42.1005" lon="21.16155">
        <ele>394.091176</ele>
        <time>2022-04-23T10:00:44.492Z</time>
      </trkpt>
      <trkpt lat="42.10048" lon="21.16139">
        <ele>393.915577</ele>
        <time>2022-04-23T10:00:47.513Z</time>
      </trkpt>
      <trkpt lat="42.10046" lon="21.16126">
        <ele>393.765014</ele>
        <time>2022-04-23T10:00:50.505Z</time>
      </trkpt>
      <trkpt lat="42.10044" lon="21.16111">
        <ele>393.596194</ele>
        <time>2022-04-23T10:00:54.501Z</time>
      </trkpt>
      <trkpt lat="42.10041" lon="21.16095">
        <ele>393.419396</ele>
        <time>2022-04-23T10:00:58.507Z</time>
      </trkpt>
      <trkpt lat="42.1004" lon="21.1608">
        <ele>393.256862</ele>
        <time>2022-04-23T10:01:02.492Z</time>
      </trkpt>
      <trkpt lat="42.1004" lon="21.16064">
        <ele>393.084622</ele>
        <time>2022-04-23T10:01:06.513Z</time>
      </trkpt>
      <trkpt lat="42.10038" lon="21.16048">
        <ele>393.378477</ele>
        <time>2022-04-23T10:01:10.502Z</time>
      </trkpt>
      <trkpt lat="42.10037" lon="21.16035">
        <ele>394.20791</ele>
        <time>2022-04-23T10:01:13.544Z</time>
      </trkpt>
      <trkpt lat="42.10036" lon="21.16019">
        <ele>395.198526</ele>
        <time>2022-04-23T10:01:17.517Z</time>
      </trkpt>
      <trkpt lat="42.10037" lon="21.16004">
        <ele>396.158911</ele>
        <time>2022-04-23T10:01:21.489Z</time>
      </trkpt>
      <trkpt lat="42.10039" lon="21.15989">
        <ele>397.131189</ele>
        <time>2022-04-23T10:01:25.502Z</time>
      </trkpt>
      <trkpt lat="42.10042" lon="21.15974">
        <ele>398.105831</ele>
        <time>2022-04-23T10:01:29.561Z</time>
      </trkpt>
      <trkpt lat="42.10046" lon="21.15962">
        <ele>398.915232</ele>
        <time>2022-04-23T10:01:32.498Z</time>
      </trkpt>
      <trkpt lat="42.10049" lon="21.15948">
        <ele>399.828464</ele>
        <time>2022-04-23T10:01:36.506Z</time>
      </trkpt>
      <trkpt lat="42.10049" lon="21.15935">
        <ele>400.685031</ele>
        <time>2022-04-23T10:01:40.506Z</time>
      </trkpt>
      <trkpt lat="42.1005" lon="21.15922">
        <ele>401.47524</ele>
        <time>2022-04-23T10:01:44.501Z</time>
      </trkpt>
      <trkpt lat="42.10052" lon="21.15908">
        <ele>402.398649</ele>
        <time>2022-04-23T10:01:49.513Z</time>
      </trkpt>
      <trkpt lat="42.10053" lon="21.15892">
        <ele>403.420699</ele>
        <time>2022-04-23T10:01:53.503Z</time>
      </trkpt>
      <trkpt lat="42.10052" lon="21.15878">
        <ele>404.266758</ele>
        <time>2022-04-23T10:01:56.513Z</time>
      </trkpt>
      <trkpt lat="42.10052" lon="21.15864">
        <ele>405.174704</ele>
        <time>2022-04-23T10:01:59.493Z</time>
      </trkpt>
      <trkpt lat="42.10051" lon="21.15848">
        <ele>406.197882</ele>
        <time>2022-04-23T10:02:02.515Z</time>
      </trkpt>
      <trkpt lat="42.10049" lon="21.15834">
        <ele>407.078943</ele>
        <time>2022-04-23T10:02:05.491Z</time>
      </trkpt>
      <trkpt lat="42.10047" lon="21.15818">
        <ele>408.068334</ele>
        <time>2022-04-23T10:02:09.556Z</time>
      </trkpt>
      <trkpt lat="42.10045" lon="21.15806">
        <ele>408.198211</ele>
        <time>2022-04-23T10:02:13.511Z</time>
      </trkpt>
      <trkpt lat="42.10044" lon="21.15791">
        <ele>408.137453</ele>
        <time>2022-04-23T10:02:19.538Z</time>
      </trkpt>
      <trkpt lat="42.10041" lon="21.15778">
        <ele>408.077796</ele>
        <time>2022-04-23T10:02:24.521Z</time>
      </trkpt>
      <trkpt lat="42.1004" lon="21.15765">
        <ele>408.023573</ele>
        <time>2022-04-23T10:02:31.523Z</time>
      </trkpt>
      <trkpt lat="42.10038" lon="21.15753">
        <ele>407.966288</ele>
        <time>2022-04-23T10:02:37.553Z</time>
      </trkpt>
      <trkpt lat="42.10035" lon="21.1574">
        <ele>407.910133</ele>
        <time>2022-04-23T10:02:43.494Z</time>
      </trkpt>
      <trkpt lat="42.10035" lon="21.15727">
        <ele>407.856269</ele>
        <time>2022-04-23T10:02:50.501Z</time>
      </trkpt>
      <trkpt lat="42.10036" lon="21.15714">
        <ele>407.801088</ele>
        <time>2022-04-23T10:02:55.529Z</time>
      </trkpt>
      <trkpt lat="42.10036" lon="21.15701">
        <ele>407.745527</ele>
        <time>2022-04-23T10:03:01.535Z</time>
      </trkpt>
      <trkpt lat="42.10033" lon="21.15689">
        <ele>407.691845</ele>
        <time>2022-04-23T10:03:07.514Z</time>
      </trkpt>
      <trkpt lat="42.10028" lon="21.15676">
        <ele>407.629903</ele>
        <time>2022-04-23T10:03:13.505Z</time>
      </trkpt>
      <trkpt lat="42.10025" lon="21.15664">
        <ele>407.576402</ele>
        <time>2022-04-23T10:03:18.510Z</time>
      </trkpt>
      <trkpt lat="42.10019" lon="21.15651">
        <ele>407.510541</ele>
        <time>2022-04-23T10:03:23.506Z</time>
      </trkpt>
      <trkpt lat="42.10015" lon="21.1564">
        <ele>407.457101</ele>
        <time>2022-04-23T10:03:26.511Z</time>
      </trkpt>
      <trkpt lat="42.10009" lon="21.15627">
        <ele>407.393224</ele>
        <time>2022-04-23T10:03:29.510Z</time>
      </trkpt>
      <trkpt lat="42.10001" lon="21.15613">
        <ele>407.315643</ele>
        <time>2022-04-23T10:03:32.497Z</time>
      </trkpt>
      <trkpt lat="42.09992" lon="21.15602">
        <ele>407.244086</ele>
        <time>2022-04-23T10:03:34.501Z</time>
      </trkpt>
      <trkpt lat="42.0998" lon="21.15591">
        <ele>407.041481</ele>
        <time>2022-04-23T10:03:36.536Z</time>
      </trkpt>
      <trkpt lat="42.09968" lon="21.15578">
        <ele>406.716639</ele>
        <time>2022-04-23T10:03:38.505Z</time>
      </trkpt>
      <trkpt lat="42.09957" lon="21.15562">
        <ele>406.365363</ele>
        <time>2022-04-23T10:03:40.507Z</time>
      </trkpt>
      <trkpt lat="42.09946" lon="21.15546">
        <ele>406.022359</ele>
        <time>2022-04-23T10:03:42.505Z</time>
      </trkpt>
      <trkpt lat="42.09937" lon="21.15532">
        <ele>405.719751</ele>
        <time>2022-04-23T10:03:44.539Z</time>
      </trkpt>
      <trkpt lat="42.09931" lon="21.15516">
        <ele>405.433359</ele>
        <time>2022-04-23T10:03:46.529Z</time>
      </trkpt>
      <trkpt lat="42.09927" lon="21.15501">
        <ele>405.178978</ele>
        <time>2022-04-23T10:03:48.510Z</time>
      </trkpt>
      <trkpt lat="42.09923" lon="21.15488">
        <ele>404.953828</ele>
        <time>2022-04-23T10:03:50.529Z</time>
      </trkpt>
      <trkpt lat="42.09921" lon="21.15475">
        <ele>404.744469</ele>
        <time>2022-04-23T10:03:52.498Z</time>
      </trkpt>
      <trkpt lat="42.09919" lon="21.15461">
        <ele>404.506814</ele>
        <time>2022-04-23T10:03:55.515Z</time>
      </trkpt>
      <trkpt lat="42.09918" lon="21.15447">
        <ele>404.294815</ele>
        <time>2022-04-23T10:03:58.490Z</time>
      </trkpt>
      <trkpt lat="42.09921" lon="21.15433">
        <ele>404.051357</ele>
        <time>2022-04-23T10:04:01.541Z</time>
      </trkpt>
      <trkpt lat="42.09927" lon="21.1542">
        <ele>403.810736</ele>
        <time>2022-04-23T10:04:04.496Z</time>
      </trkpt>
      <trkpt lat="42.09934" lon="21.15408">
        <ele>403.572489</ele>
        <time>2022-04-23T10:04:07.537Z</time>
      </trkpt>
      <trkpt lat="42.0994" lon="21.15397">
        <ele>403.352666</ele>
        <time>2022-04-23T10:04:10.520Z</time>
      </trkpt>
      <trkpt lat="42.09945" lon="21.15387">
        <ele>403.579134</ele>
        <time>2022-04-23T10:04:13.582Z</time>
      </trkpt>
      <trkpt lat="42.09951" lon="21.15377">
        <ele>403.900333</ele>
        <time>2022-04-23T10:04:16.503Z</time>
      </trkpt>
      <trkpt lat="42.09958" lon="21.15367">
        <ele>404.20747</ele>
        <time>2022-04-23T10:04:19.501Z</time>
      </trkpt>
      <trkpt lat="42.09965" lon="21.15358">
        <ele>404.532517</ele>
        <time>2022-04-23T10:04:22.518Z</time>
      </trkpt>
      <trkpt lat="42.09973" lon="21.1535">
        <ele>404.845632</ele>
        <time>2022-04-23T10:04:25.497Z</time>
      </trkpt>
      <trkpt lat="42.09981" lon="21.15343">
        <ele>405.14422</ele>
        <time>2022-04-23T10:04:28.493Z</time>
      </trkpt>
      <trkpt lat="42.09989" lon="21.15337">
        <ele>405.452068</ele>
        <time>2022-04-23T10:04:31.488Z</time>
      </trkpt>
      <trkpt lat="42.09998" lon="21.15328">
        <ele>405.813285</ele>
        <time>2022-04-23T10:04:35.540Z</time>
      </trkpt>
      <trkpt lat="42.10006" lon="21.1532">
        <ele>406.152485</ele>
        <time>2022-04-23T10:04:39.519Z</time>
      </trkpt>
      <trkpt lat="42.10016" lon="21.15311">
        <ele>406.509628</ele>
        <time>2022-04-23T10:04:43.505Z</time>
      </trkpt>
      <trkpt lat="42.10025" lon="21.15304">
        <ele>406.855617</ele>
        <time>2022-04-23T10:04:46.508Z</time>
      </trkpt>
      <trkpt lat="42.10035" lon="21.15295">
        <ele>407.251574</ele>
        <time>2022-04-23T10:04:49.522Z</time>
      </trkpt>
      <trkpt lat="42.10045" lon="21.15284">
        <ele>407.660951</ele>
        <time>2022-04-23T10:04:52.529Z</time>
      </trkpt>
      <trkpt lat="42.10053" lon="21.15271">
        <ele>408.067277</ele>
        <time>2022-04-23T10:04:55.491Z</time>
      </trkpt>
      <trkpt lat="42.10059" lon="21.15257">
        <ele>408.461565</ele>
        <time>2022-04-23T10:04:58.536Z</time>
      </trkpt>
      <trkpt lat="42.10064" lon="21.15247">
        <ele>408.752185</ele>
        <time>2022-04-23T10:05:00.493Z</time>
      </trkpt>
      <trkpt lat="42.1007" lon="21.15237">
        <ele>409.062047</ele>
        <time>2022-04-23T10:05:02.502Z</time>
      </trkpt>
      <trkpt lat="42.10077" lon="21.15226">
        <ele>409.440875</ele>
        <time>2022-04-23T10:05:04.503Z</time>
      </trkpt>
      <trkpt lat="42.10084" lon="21.15216">
        <ele>409.814816</ele>
        <time>2022-04-23T10:05:06.509Z</time>
      </trkpt>
      <trkpt lat="42.1009" lon="21.15207">
        <ele>410.176154</ele>
        <time>2022-04-23T10:05:08.509Z</time>
      </trkpt>
      <trkpt lat="42.10098" lon="21.15196">
        <ele>410.600787</ele>
        <time>2022-04-23T10:05:11.512Z</time>
      </trkpt>
      <trkpt lat="42.10104" lon="21.15184">
        <ele>411.014252</ele>
        <time>2022-04-23T10:05:14.500Z</time>
      </trkpt>
      <trkpt lat="42.1011" lon="21.15172">
        <ele>411.400633</ele>
        <time>2022-04-23T10:05:17.504Z</time>
      </trkpt>
      <trkpt lat="42.10114" lon="21.15161">
        <ele>411.756974</ele>
        <time>2022-04-23T10:05:20.487Z</time>
      </trkpt>
      <trkpt lat="42.10119" lon="21.1515">
        <ele>412.112107</ele>
        <time>2022-04-23T10:05:23.504Z</time>
      </trkpt>
      <trkpt lat="42.10123" lon="21.15135">
        <ele>412.55415</ele>
        <time>2022-04-23T10:05:27.510Z</time>
      </trkpt>
      <trkpt lat="42.10127" lon="21.15123">
        <ele>412.943757</ele>
        <time>2022-04-23T10:05:31.547Z</time>
      </trkpt>
      <trkpt lat="42.10131" lon="21.15109">
        <ele>413.357356</ele>
        <time>2022-04-23T10:05:35.527Z</time>
      </trkpt>
      <trkpt lat="42.10136" lon="21.15093">
        <ele>413.829844</ele>
        <time>2022-04-23T10:05:38.496Z</time>
      </trkpt>
      <trkpt lat="42.10138" lon="21.15081">
        <ele>414.170396</ele>
        <time>2022-04-23T10:05:40.552Z</time>
      </trkpt>
      <trkpt lat="42.10142" lon="21.15064">
        <ele>414.686969</ele>
        <time>2022-04-23T10:05:43.544Z</time>
      </trkpt>
      <trkpt lat="42.10145" lon="21.15051">
        <ele>415.05927</ele>
        <time>2022-04-23T10:05:45.498Z</time>
      </trkpt>
      <trkpt lat="42.10147" lon="21.15039">
        <ele>415.401581</ele>
        <time>2022-04-23T10:05:47.546Z</time>
      </trkpt>
      <trkpt lat="42.10149" lon="21.15023">
        <ele>415.868733</ele>
        <time>2022-04-23T10:05:50.515Z</time>
      </trkpt>
      <trkpt lat="42.10151" lon="21.15005">
        <ele>416.340908</ele>
        <time>2022-04-23T10:05:53.511Z</time>
      </trkpt>
      <trkpt lat="42.10152" lon="21.14989">
        <ele>416.764649</ele>
        <time>2022-04-23T10:05:56.514Z</time>
      </trkpt>
      <trkpt lat="42.10154" lon="21.14977">
        <ele>417.101935</ele>
        <time>2022-04-23T10:05:59.506Z</time>
      </trkpt>
      <trkpt lat="42.10153" lon="21.14964">
        <ele>417.428071</ele>
        <time>2022-04-23T10:06:02.534Z</time>
      </trkpt>
      <trkpt lat="42.10153" lon="21.14951">
        <ele>417.793976</ele>
        <time>2022-04-23T10:06:05.497Z</time>
      </trkpt>
      <trkpt lat="42.10153" lon="21.14938">
        <ele>418.138652</ele>
        <time>2022-04-23T10:06:08.533Z</time>
      </trkpt>
      <trkpt lat="42.10152" lon="21.14925">
        <ele>418.471993</ele>
        <time>2022-04-23T10:06:11.561Z</time>
      </trkpt>
      <trkpt lat="42.10151" lon="21.1491">
        <ele>418.881177</ele>
        <time>2022-04-23T10:06:15.505Z</time>
      </trkpt>
      <trkpt lat="42.1015" lon="21.14896">
        <ele>419.234458</ele>
        <time>2022-04-23T10:06:18.504Z</time>
      </trkpt>
      <trkpt lat="42.1015" lon="21.14881">
        <ele>419.640116</ele>
        <time>2022-04-23T10:06:22.546Z</time>
      </trkpt>
      <trkpt lat="42.10151" lon="21.14868">
        <ele>419.988344</ele>
        <time>2022-04-23T10:06:25.512Z</time>
      </trkpt>
      <trkpt lat="42.1015" lon="21.14855">
        <ele>420.334868</ele>
        <time>2022-04-23T10:06:28.508Z</time>
      </trkpt>
      <trkpt lat="42.10148" lon="21.14842">
        <ele>420.68877</ele>
        <time>2022-04-23T10:06:31.518Z</time>
      </trkpt>
      <trkpt lat="42.10145" lon="21.14829">
        <ele>421.04925</ele>
        <time>2022-04-23T10:06:34.494Z</time>
      </trkpt>
      <trkpt lat="42.10144" lon="21.14815">
        <ele>421.433812</ele>
        <time>2022-04-23T10:06:37.517Z</time>
      </trkpt>
      <trkpt lat="42.1014" lon="21.148">
        <ele>421.843138</ele>
        <time>2022-04-23T10:06:40.525Z</time>
      </trkpt>
      <trkpt lat="42.10137" lon="21.14785">
        <ele>422.242731</ele>
        <time>2022-04-23T10:06:43.495Z</time>
      </trkpt>
      <trkpt lat="42.10134" lon="21.14771">
        <ele>422.2053</ele>
        <time>2022-04-23T10:06:46.498Z</time>
      </trkpt>
      <trkpt lat="42.10132" lon="21.14755">
        <ele>422.015612</ele>
        <time>2022-04-23T10:06:49.506Z</time>
      </trkpt>
      <trkpt lat="42.10129" lon="21.1474">
        <ele>421.829319</ele>
        <time>2022-04-23T10:06:52.504Z</time>
      </trkpt>
      <trkpt lat="42.10123" lon="21.14727">
        <ele>421.644465</ele>
        <time>2022-04-23T10:06:55.494Z</time>
      </trkpt>
      <trkpt lat="42.10117" lon="21.14711">
        <ele>421.431144</ele>
        <time>2022-04-23T10:06:58.495Z</time>
      </trkpt>
      <trkpt lat="42.1011" lon="21.14697">
        <ele>421.235842</ele>
        <time>2022-04-23T10:07:01.545Z</time>
      </trkpt>
      <trkpt lat="42.10106" lon="21.14682">
        <ele>421.042744</ele>
        <time>2022-04-23T10:07:04.510Z</time>
      </trkpt>
      <trkpt lat="42.10104" lon="21.14667">
        <ele>420.864335</ele>
        <time>2022-04-23T10:07:07.506Z</time>
      </trkpt>
      <trkpt lat="42.101" lon="21.14656">
        <ele>420.718986</ele>
        <time>2022-04-23T10:07:10.499Z</time>
      </trkpt>
      <trkpt lat="42.10096" lon="21.14641">
        <ele>420.527994</ele>
        <time>2022-04-23T10:07:14.501Z</time>
      </trkpt>
      <trkpt lat="42.10091" lon="21.14628">
        <ele>420.36215</ele>
        <time>2022-04-23T10:07:17.547Z</time>
      </trkpt>
      <trkpt lat="42.10087" lon="21.14617">
        <ele>420.215297</ele>
        <time>2022-04-23T10:07:20.485Z</time>
      </trkpt>
      <trkpt lat="42.10083" lon="21.14606">
        <ele>420.069548</ele>
        <time>2022-04-23T10:07:23.543Z</time>
      </trkpt>
      <trkpt lat="42.1008" lon="21.14593">
        <ele>419.910198</ele>
        <time>2022-04-23T10:07:27.515Z</time>
      </trkpt>
      <trkpt lat="42.10076" lon="21.14581">
        <ele>419.755314</ele>
        <time>2022-04-23T10:07:32.508Z</time>
      </trkpt>
      <trkpt lat="42.10074" lon="21.14568">
        <ele>419.597525</ele>
        <time>2022-04-23T10:07:38.494Z</time>
      </trkpt>
      <trkpt lat="42.10069" lon="21.14557">
        <ele>419.47336</ele>
        <time>2022-04-23T10:07:44.516Z</time>
      </trkpt>
      <trkpt lat="42.10065" lon="21.14546">
        <ele>419.51208</ele>
        <time>2022-04-23T10:07:50.528Z</time>
      </trkpt>
      <trkpt lat="42.10062" lon="21.14534">
        <ele>419.548931</ele>
        <time>2022-04-23T10:07:56.493Z</time>
      </trkpt>
      <trkpt lat="42.10058" lon="21.14523">
        <ele>419.585848</ele>
        <time>2022-04-23T10:08:01.577Z</time>
      </trkpt>
      <trkpt lat="42.10053" lon="21.14509">
        <ele>419.630862</ele>
        <time>2022-04-23T10:08:06.537Z</time>
      </trkpt>
      <trkpt lat="42.10051" lon="21.14496">
        <ele>419.670336</ele>
        <time>2022-04-23T10:08:11.492Z</time>
      </trkpt>
      <trkpt lat="42.10047" lon="21.14484">
        <ele>419.709024</ele>
        <time>2022-04-23T10:08:16.499Z</time>
      </trkpt>
      <trkpt lat="42.10047" lon="21.1447">
        <ele>419.753079</ele>
        <time>2022-04-23T10:08:21.492Z</time>
      </trkpt>
      <trkpt lat="42.10046" lon="21.14455">
        <ele>419.797463</ele>
        <time>2022-04-23T10:08:26.509Z</time>
      </trkpt>
      <trkpt lat="42.10043" lon="21.14442">
        <ele>419.836553</ele>
        <time>2022-04-23T10:08:30.560Z</time>
      </trkpt>
      <trkpt lat="42.10039" lon="21.1443">
        <ele>419.874687</ele>
        <time>2022-04-23T10:08:33.510Z</time>
      </trkpt>
      <trkpt lat="42.10032" lon="21.14416">
        <ele>419.927061</ele>
        <time>2022-04-23T10:08:36.509Z</time>
      </trkpt>
      <trkpt lat="42.10025" lon="21.14404">
        <ele>419.972686</ele>
        <time>2022-04-23T10:08:38.495Z</time>
      </trkpt>
      <trkpt lat="42.10018" lon="21.14388">
        <ele>420.026506</ele>
        <time>2022-04-23T10:08:40.524Z</time>
      </trkpt>
      <trkpt lat="42.10012" lon="21.1437">
        <ele>420.088482</ele>
        <time>2022-04-23T10:08:42.497Z</time>
      </trkpt>
      <trkpt lat="42.10007" lon="21.14348">
        <ele>420.156398</ele>
        <time>2022-04-23T10:08:44.521Z</time>
      </trkpt>
      <trkpt lat="42.10005" lon="21.14326">
        <ele>419.767732</ele>
        <time>2022-04-23T10:08:46.515Z</time>
      </trkpt>
      <trkpt lat="42.10007" lon="21.14304">
        <ele>418.884562</ele>
        <time>2022-04-23T10:08:48.514Z</time>
      </trkpt>
      <trkpt lat="42.10012" lon="21.14285">
        <ele>418.02951</ele>
        <time>2022-04-23T10:08:50.503Z</time>
      </trkpt>
      <trkpt lat="42.10019" lon="21.14266">
        <ele>417.189</ele>
        <time>2022-04-23T10:08:52.557Z</time>
      </trkpt>
      <trkpt lat="42.10026" lon="21.1425">
        <ele>416.40424</ele>
        <time>2022-04-23T10:08:54.499Z</time>
      </trkpt>
      <trkpt lat="42.10034" lon="21.14233">
        <ele>415.611781</ele>
        <time>2022-04-23T10:08:56.506Z</time>
      </trkpt>
      <trkpt lat="42.1004" lon="21.14217">
        <ele>414.859987</ele>
        <time>2022-04-23T10:08:58.498Z</time>
      </trkpt>
      <trkpt lat="42.10048" lon="21.14202">
        <ele>414.106508</ele>
        <time>2022-04-23T10:09:00.493Z</time>
      </trkpt>
      <trkpt lat="42.10055" lon="21.14187">
        <ele>413.376992</ele>
        <time>2022-04-23T10:09:02.484Z</time>
      </trkpt>
      <trkpt lat="42.10061" lon="21.14172">
        <ele>412.669931</ele>
        <time>2022-04-23T10:09:04.519Z</time>
      </trkpt>
      <trkpt lat="42.10066" lon="21.14156">
        <ele>411.956957</ele>
        <time>2022-04-23T10:09:06.494Z</time>
      </trkpt>
      <trkpt lat="42.10068" lon="21.14141">
        <ele>411.319889</ele>
        <time>2022-04-23T10:09:08.505Z</time>
      </trkpt>
      <trkpt lat="42.10069" lon="21.14126">
        <ele>410.707365</ele>
        <time>2022-04-23T10:09:10.513Z</time>
      </trkpt>
      <trkpt lat="42.1007" lon="21.14109">
        <ele>410.203844</ele>
        <time>2022-04-23T10:09:12.502Z</time>
      </trkpt>
      <trkpt lat="42.10072" lon="21.14093">
        <ele>410.104022</ele>
        <time>2022-04-23T10:09:14.528Z</time>
      </trkpt>
      <trkpt lat="42.10072" lon="21.14078">
        <ele>410.016137</ele>
        <time>2022-04-23T10:09:16.517Z</time>
      </trkpt>
      <trkpt lat="42.10073" lon="21.14065">
        <ele>409.941253</ele>
        <time>2022-04-23T10:09:18.511Z</time>
      </trkpt>
      <trkpt lat="42.10072" lon="21.14049">
        <ele>409.841931</ele>
        <time>2022-04-23T10:09:21.508Z</time>
      </trkpt>
      <trkpt lat="42.10073" lon="21.14032">
        <ele>409.740783</ele>
        <time>2022-04-23T10:09:24.513Z</time>
      </trkpt>
      <trkpt lat="42.10071" lon="21.14018">
        <ele>409.654882</ele>
        <time>2022-04-23T10:09:27.513Z</time>
      </trkpt>
      <trkpt lat="42.10068" lon="21.14005">
        <ele>409.577156</ele>
        <time>2022-04-23T10:09:30.497Z</time>
      </trkpt>
      <trkpt lat="42.10064" lon="21.13994">
        <ele>409.502537</ele>
        <time>2022-04-23T10:09:33.503Z</time>
      </trkpt>
      <trkpt lat="42.10059" lon="21.13981">
        <ele>409.417329</ele>
        <time>2022-04-23T10:09:36.506Z</time>
      </trkpt>
      <trkpt lat="42.10055" lon="21.13969">
        <ele>409.335157</ele>
        <time>2022-04-23T10:09:39.508Z</time>
      </trkpt>
      <trkpt lat="42.10053" lon="21.13955">
        <ele>409.25235</ele>
        <time>2022-04-23T10:09:42.498Z</time>
      </trkpt>
      <trkpt lat="42.1005" lon="21.13942">
        <ele>409.169135</ele>
        <time>2022-04-23T10:09:45.506Z</time>
      </trkpt>
      <trkpt lat="42.10048" lon="21.13928">
        <ele>409.083437</ele>
        <time>2022-04-23T10:09:48.503Z</time>
      </trkpt>
      <trkpt lat="42.10045" lon="21.13914">
        <ele>408.99502</ele>
        <time>2022-04-23T10:09:51.496Z</time>
      </trkpt>
      <trkpt lat="42.10043" lon="21.139">
        <ele>408.913191</ele>
        <time>2022-04-23T10:09:54.506Z</time>
      </trkpt>
      <trkpt lat="42.10038" lon="21.13887">
        <ele>408.824588</ele>
        <time>2022-04-23T10:09:58.526Z</time>
      </trkpt>
      <trkpt lat="42.1003" lon="21.13878">
        <ele>409.119538</ele>
        <time>2022-04-23T10:10:02.501Z</time>
      </trkpt>
      <trkpt lat="42.10021" lon="21.13874">
        <ele>409.718629</ele>
        <time>2022-04-23T10:10:06.523Z</time>
      </trkpt>
      <trkpt lat="42.10011" lon="21.13871">
        <ele>410.362529</ele>
        <time>2022-04-23T10:10:11.499Z</time>
      </trkpt>
      <trkpt lat="42.10002" lon="21.13868">
        <ele>410.95309</ele>
        <time>2022-04-23T10:10:15.523Z</time>
      </trkpt>
      <trkpt lat="42.09992" lon="21.13864">
        <ele>411.566822</ele>
        <time>2022-04-23T10:10:19.498Z</time>
      </trkpt>
      <trkpt lat="42.09981" lon="21.1386">
        <ele>412.272273</ele>
        <time>2022-04-23T10:10:23.530Z</time>
      </trkpt>
      <trkpt lat="42.09972" lon="21.13857">
        <ele>412.862279</ele>
        <time>2022-04-23T10:10:26.525Z</time>
      </trkpt>
      <trkpt lat="42.09963" lon="21.13855">
        <ele>413.422234</ele>
        <time>2022-04-23T10:10:29.513Z</time>
      </trkpt>
      <trkpt lat="42.09953" lon="21.13853">
        <ele>414.037944</ele>
        <time>2022-04-23T10:10:32.541Z</time>
      </trkpt>
      <trkpt lat="42.09942" lon="21.13851">
        <ele>414.712939</ele>
        <time>2022-04-23T10:10:35.506Z</time>
      </trkpt>
      <trkpt lat="42.09933" lon="21.13849">
        <ele>415.289073</ele>
        <time>2022-04-23T10:10:38.498Z</time>
      </trkpt>
      <trkpt lat="42.09924" lon="21.13847">
        <ele>415.883614</ele>
        <time>2022-04-23T10:10:41.497Z</time>
      </trkpt>
      <trkpt lat="42.09915" lon="21.13849">
        <ele>416.447485</ele>
        <time>2022-04-23T10:10:44.501Z</time>
      </trkpt>
      <trkpt lat="42.09904" lon="21.13853">
        <ele>417.119948</ele>
        <time>2022-04-23T10:10:48.522Z</time>
      </trkpt>
      <trkpt lat="42.09896" lon="21.13859">
        <ele>417.719453</ele>
        <time>2022-04-23T10:10:53.494Z</time>
      </trkpt>
      <trkpt lat="42.09886" lon="21.13865">
        <ele>418.365796</ele>
        <time>2022-04-23T10:10:59.497Z</time>
      </trkpt>
      <trkpt lat="42.09876" lon="21.13869">
        <ele>419.020849</ele>
        <time>2022-04-23T10:11:05.513Z</time>
      </trkpt>
      <trkpt lat="42.09866" lon="21.13871">
        <ele>419.641942</ele>
        <time>2022-04-23T10:11:12.518Z</time>
      </trkpt>
      <trkpt lat="42.09858" lon="21.13863">
        <ele>420.119979</ele>
        <time>2022-04-23T10:11:23.521Z</time>
      </trkpt>
      <trkpt lat="42.0985" lon="21.13855">
        <ele>420.449257</ele>
        <time>2022-04-23T10:11:32.498Z</time>
      </trkpt>
      <trkpt lat="42.09845" lon="21.13843">
        <ele>420.780082</ele>
        <time>2022-04-23T10:11:40.514Z</time>
      </trkpt>
      <trkpt lat="42.0984" lon="21.13832">
        <ele>421.104517</ele>
        <time>2022-04-23T10:11:48.514Z</time>
      </trkpt>
      <trkpt lat="42.09838" lon="21.13818">
        <ele>421.446295</ele>
        <time>2022-04-23T10:11:55.486Z</time>
      </trkpt>
      <trkpt lat="42.09835" lon="21.13805">
        <ele>421.774927</ele>
        <time>2022-04-23T10:12:01.496Z</time>
      </trkpt>
      <trkpt lat="42.09833" lon="21.13793">
        <ele>422.078672</ele>
        <time>2022-04-23T10:12:07.493Z</time>
      </trkpt>
      <trkpt lat="42.09831" lon="21.13781">
        <ele>422.39135</ele>
        <time>2022-04-23T10:12:13.502Z</time>
      </trkpt>
      <trkpt lat="42.09831" lon="21.13766">
        <ele>422.741749</ele>
        <time>2022-04-23T10:12:18.520Z</time>
      </trkpt>
      <trkpt lat="42.09831" lon="21.13754">
        <ele>423.057847</ele>
        <time>2022-04-23T10:12:22.513Z</time>
      </trkpt>
      <trkpt lat="42.0983" lon="21.1374">
        <ele>423.397588</ele>
        <time>2022-04-23T10:12:26.491Z</time>
      </trkpt>
      <trkpt lat="42.09827" lon="21.13726">
        <ele>423.744839</ele>
        <time>2022-04-23T10:12:30.509Z</time>
      </trkpt>
      <trkpt lat="42.09824" lon="21.13713">
        <ele>424.090524</ele>
        <time>2022-04-23T10:12:34.524Z</time>
      </trkpt>
      <trkpt lat="42.09822" lon="21.13698">
        <ele>424.456933</ele>
        <time>2022-04-23T10:12:38.497Z</time>
      </trkpt>
      <trkpt lat="42.0982" lon="21.13683">
        <ele>424.837033</ele>
        <time>2022-04-23T10:12:42.533Z</time>
      </trkpt>
      <trkpt lat="42.09819" lon="21.13668">
        <ele>425.20063</ele>
        <time>2022-04-23T10:12:45.505Z</time>
      </trkpt>
      <trkpt lat="42.09817" lon="21.1365">
        <ele>425.640992</ele>
        <time>2022-04-23T10:12:48.502Z</time>
      </trkpt>
      <trkpt lat="42.09816" lon="21.13638">
        <ele>425.754303</ele>
        <time>2022-04-23T10:12:50.512Z</time>
      </trkpt>
      <trkpt lat="42.09815" lon="21.13625">
        <ele>425.246218</ele>
        <time>2022-04-23T10:12:52.501Z</time>
      </trkpt>
      <trkpt lat="42.09813" lon="21.13612">
        <ele>424.732895</ele>
        <time>2022-04-23T10:12:54.501Z</time>
      </trkpt>
      <trkpt lat="42.09811" lon="21.13598">
        <ele>424.183401</ele>
        <time>2022-04-23T10:12:56.505Z</time>
      </trkpt>
      <trkpt lat="42.09807" lon="21.13585">
        <ele>423.612397</ele>
        <time>2022-04-23T10:12:58.495Z</time>
      </trkpt>
      <trkpt lat="42.09803" lon="21.13571">
        <ele>423.057466</ele>
        <time>2022-04-23T10:13:00.504Z</time>
      </trkpt>
      <trkpt lat="42.09798" lon="21.13558">
        <ele>422.476868</ele>
        <time>2022-04-23T10:13:02.495Z</time>
      </trkpt>
      <trkpt lat="42.09794" lon="21.13543">
        <ele>421.863764</ele>
        <time>2022-04-23T10:13:04.490Z</time>
      </trkpt>
      <trkpt lat="42.0979" lon="21.13529">
        <ele>421.261527</ele>
        <time>2022-04-23T10:13:06.486Z</time>
      </trkpt>
      <trkpt lat="42.09785" lon="21.13514">
        <ele>420.632532</ele>
        <time>2022-04-23T10:13:08.515Z</time>
      </trkpt>
      <trkpt lat="42.09779" lon="21.13501">
        <ele>420.020275</ele>
        <time>2022-04-23T10:13:10.512Z</time>
      </trkpt>
      <trkpt lat="42.09772" lon="21.13488">
        <ele>419.390007</ele>
        <time>2022-04-23T10:13:12.502Z</time>
      </trkpt>
      <trkpt lat="42.09762" lon="21.13477">
        <ele>418.749308</ele>
        <time>2022-04-23T10:13:14.501Z</time>
      </trkpt>
      <trkpt lat="42.09753" lon="21.13466">
        <ele>418.075921</ele>
        <time>2022-04-23T10:13:16.505Z</time>
      </trkpt>
      <trkpt lat="42.09742" lon="21.13455">
        <ele>417.372719</ele>
        <time>2022-04-23T10:13:18.503Z</time>
      </trkpt>
      <trkpt lat="42.09733" lon="21.13442">
        <ele>416.667253</ele>
        <time>2022-04-23T10:13:20.502Z</time>
      </trkpt>
      <trkpt lat="42.09726" lon="21.13426">
        <ele>416.325272</ele>
        <time>2022-04-23T10:13:22.509Z</time>
      </trkpt>
      <trkpt lat="42.0972" lon="21.13408">
        <ele>416.187667</ele>
        <time>2022-04-23T10:13:24.502Z</time>
      </trkpt>
      <trkpt lat="42.09714" lon="21.13392">
        <ele>416.054424</ele>
        <time>2022-04-23T10:13:26.531Z</time>
      </trkpt>
      <trkpt lat="42.09707" lon="21.13377">
        <ele>415.927817</ele>
        <time>2022-04-23T10:13:28.492Z</time>
      </trkpt>
      <trkpt lat="42.09698" lon="21.13367">
        <ele>415.809011</ele>
        <time>2022-04-23T10:13:30.501Z</time>
      </trkpt>
      <trkpt lat="42.09688" lon="21.13359">
        <ele>415.696141</ele>
        <time>2022-04-23T10:13:32.501Z</time>
      </trkpt>
      <trkpt lat="42.09679" lon="21.13353">
        <ele>415.59707</ele>
        <time>2022-04-23T10:13:34.509Z</time>
      </trkpt>
      <trkpt lat="42.09671" lon="21.13347">
        <ele>415.507269</ele>
        <time>2022-04-23T10:13:36.500Z</time>
      </trkpt>
      <trkpt lat="42.0966" lon="21.13338">
        <ele>415.381704</ele>
        <time>2022-04-23T10:13:39.518Z</time>
      </trkpt>
      <trkpt lat="42.09649" lon="21.13331">
        <ele>415.261818</ele>
        <time>2022-04-23T10:13:42.511Z</time>
      </trkpt>
      <trkpt lat="42.0964" lon="21.13327">
        <ele>415.173625</ele>
        <time>2022-04-23T10:13:44.505Z</time>
      </trkpt>
      <trkpt lat="42.09628" lon="21.13324">
        <ele>415.049594</ele>
        <time>2022-04-23T10:13:47.530Z</time>
      </trkpt>
      <trkpt lat="42.09615" lon="21.13321">
        <ele>414.91938</ele>
        <time>2022-04-23T10:13:50.491Z</time>
      </trkpt>
      <trkpt lat="42.09602" lon="21.13319">
        <ele>414.79507</ele>
        <time>2022-04-23T10:13:53.517Z</time>
      </trkpt>
      <trkpt lat="42.09593" lon="21.13315">
        <ele>414.698555</ele>
        <time>2022-04-23T10:13:55.510Z</time>
      </trkpt>
      <trkpt lat="42.09582" lon="21.13308">
        <ele>414.698913</ele>
        <time>2022-04-23T10:13:57.499Z</time>
      </trkpt>
      <trkpt lat="42.0957" lon="21.13299">
        <ele>414.776482</ele>
        <time>2022-04-23T10:13:59.493Z</time>
      </trkpt>
      <trkpt lat="42.09554" lon="21.13293">
        <ele>414.865691</ele>
        <time>2022-04-23T10:14:01.521Z</time>
      </trkpt>
      <trkpt lat="42.09539" lon="21.13292">
        <ele>414.952191</ele>
        <time>2022-04-23T10:14:03.506Z</time>
      </trkpt>
      <trkpt lat="42.09524" lon="21.13294">
        <ele>415.038413</ele>
        <time>2022-04-23T10:14:05.541Z</time>
      </trkpt>
      <trkpt lat="42.09509" lon="21.13295">
        <ele>415.120612</ele>
        <time>2022-04-23T10:14:07.500Z</time>
      </trkpt>
      <trkpt lat="42.09496" lon="21.13295">
        <ele>415.19641</ele>
        <time>2022-04-23T10:14:09.527Z</time>
      </trkpt>
      <trkpt lat="42.09482" lon="21.13293">
        <ele>415.272066</ele>
        <time>2022-04-23T10:14:11.536Z</time>
      </trkpt>
      <trkpt lat="42.09468" lon="21.13292">
        <ele>415.350157</ele>
        <time>2022-04-23T10:14:13.499Z</time>
      </trkpt>
      <trkpt lat="42.09455" lon="21.13291">
        <ele>415.426078</ele>
        <time>2022-04-23T10:14:15.521Z</time>
      </trkpt>
      <trkpt lat="42.09442" lon="21.1329">
        <ele>415.500226</ele>
        <time>2022-04-23T10:14:17.504Z</time>
      </trkpt>
      <trkpt lat="42.09429" lon="21.13289">
        <ele>415.573235</ele>
        <time>2022-04-23T10:14:19.499Z</time>
      </trkpt>
      <trkpt lat="42.09418" lon="21.13289">
        <ele>415.634968</ele>
        <time>2022-04-23T10:14:21.518Z</time>
      </trkpt>
      <trkpt lat="42.09407" lon="21.13289">
        <ele>415.594422</ele>
        <time>2022-04-23T10:14:23.515Z</time>
      </trkpt>
      <trkpt lat="42.09397" lon="21.13289">
        <ele>415.434939</ele>
        <time>2022-04-23T10:14:25.499Z</time>
      </trkpt>
      <trkpt lat="42.09388" lon="21.13289">
        <ele>415.293643</ele>
        <time>2022-04-23T10:14:27.521Z</time>
      </trkpt>
      <trkpt lat="42.09378" lon="21.13289">
        <ele>415.146344</ele>
        <time>2022-04-23T10:14:29.505Z</time>
      </trkpt>
      <trkpt lat="42.09369" lon="21.13289">
        <ele>415.00662</ele>
        <time>2022-04-23T10:14:31.520Z</time>
      </trkpt>
      <trkpt lat="42.09357" lon="21.13291">
        <ele>414.825017</ele>
        <time>2022-04-23T10:14:34.533Z</time>
      </trkpt>
      <trkpt lat="42.09346" lon="21.13292">
        <ele>414.666891</ele>
        <time>2022-04-23T10:14:37.506Z</time>
      </trkpt>
      <trkpt lat="42.09336" lon="21.13292">
        <ele>414.504404</ele>
        <time>2022-04-23T10:14:40.507Z</time>
      </trkpt>
      <trkpt lat="42.09325" lon="21.13293">
        <ele>414.34741</ele>
        <time>2022-04-23T10:14:43.512Z</time>
      </trkpt>
      <trkpt lat="42.09315" lon="21.13296">
        <ele>414.189772</ele>
        <time>2022-04-23T10:14:46.495Z</time>
      </trkpt>
      <trkpt lat="42.09305" lon="21.13299">
        <ele>414.03316</ele>
        <time>2022-04-23T10:14:49.522Z</time>
      </trkpt>
      <trkpt lat="42.09296" lon="21.13304">
        <ele>413.877669</ele>
        <time>2022-04-23T10:14:52.507Z</time>
      </trkpt>
      <trkpt lat="42.09286" lon="21.13308">
        <ele>413.722954</ele>
        <time>2022-04-23T10:14:55.499Z</time>
      </trkpt>
      <trkpt lat="42.09276" lon="21.13312">
        <ele>413.56321</ele>
        <time>2022-04-23T10:14:58.515Z</time>
      </trkpt>
      <trkpt lat="42.09267" lon="21.13318">
        <ele>413.418655</ele>
        <time>2022-04-23T10:15:01.511Z</time>
      </trkpt>
      <trkpt lat="42.09258" lon="21.13325">
        <ele>413.252289</ele>
        <time>2022-04-23T10:15:04.507Z</time>
      </trkpt>
      <trkpt lat="42.09248" lon="21.1333">
        <ele>413.091343</ele>
        <time>2022-04-23T10:15:07.504Z</time>
      </trkpt>
      <trkpt lat="42.09237" lon="21.13336">
        <ele>412.978742</ele>
        <time>2022-04-23T10:15:10.505Z</time>
      </trkpt>
      <trkpt lat="42.09227" lon="21.13343">
        <ele>413.480753</ele>
        <time>2022-04-23T10:15:13.510Z</time>
      </trkpt>
      <trkpt lat="42.09217" lon="21.13349">
        <ele>413.983883</ele>
        <time>2022-04-23T10:15:16.544Z</time>
      </trkpt>
      <trkpt lat="42.09207" lon="21.13356">
        <ele>414.495431</ele>
        <time>2022-04-23T10:15:19.522Z</time>
      </trkpt>
      <trkpt lat="42.09198" lon="21.13361">
        <ele>414.947856</ele>
        <time>2022-04-23T10:15:22.500Z</time>
      </trkpt>
      <trkpt lat="42.0919" lon="21.13367">
        <ele>415.354642</ele>
        <time>2022-04-23T10:15:25.521Z</time>
      </trkpt>
      <trkpt lat="42.09181" lon="21.13375">
        <ele>415.833856</ele>
        <time>2022-04-23T10:15:29.513Z</time>
      </trkpt>
      <trkpt lat="42.0917" lon="21.1338">
        <ele>416.349329</ele>
        <time>2022-04-23T10:15:33.500Z</time>
      </trkpt>
      <trkpt lat="42.0916" lon="21.13384">
        <ele>416.830262</ele>
        <time>2022-04-23T10:15:38.546Z</time>
      </trkpt>
      <trkpt lat="42.0915" lon="21.13389">
        <ele>417.301831</ele>
        <time>2022-04-23T10:15:45.498Z</time>
      </trkpt>
      <trkpt lat="42.09141" lon="21.13393">
        <ele>417.717219</ele>
        <time>2022-04-23T10:15:50.490Z</time>
      </trkpt>
      <trkpt lat="42.09132" lon="21.13396">
        <ele>418.143508</ele>
        <time>2022-04-23T10:15:56.513Z</time>
      </trkpt>
      <trkpt lat="42.09122" lon="21.13397">
        <ele>418.590041</ele>
        <time>2022-04-23T10:16:04.501Z</time>
      </trkpt>
      <trkpt lat="42.09113" lon="21.13398">
        <ele>419.023136</ele>
        <time>2022-04-23T10:16:11.505Z</time>
      </trkpt>
      <trkpt lat="42.09103" lon="21.13399">
        <ele>419.464118</ele>
        <time>2022-04-23T10:16:20.513Z</time>
      </trkpt>
      <trkpt lat="42.09093" lon="21.134">
        <ele>419.883246</ele>
        <time>2022-04-23T10:16:28.498Z</time>
      </trkpt>
      <trkpt lat="42.09084" lon="21.134">
        <ele>420.324089</ele>
        <time>2022-04-23T10:16:36.510Z</time>
      </trkpt>
      <trkpt lat="42.09074" lon="21.13401">
        <ele>420.756669</ele>
        <time>2022-04-23T10:16:42.516Z</time>
      </trkpt>
      <trkpt lat="42.09065" lon="21.13402">
        <ele>421.15949</ele>
        <time>2022-04-23T10:16:49.521Z</time>
      </trkpt>
      <trkpt lat="42.09055" lon="21.13401">
        <ele>421.516221</ele>
        <time>2022-04-23T10:16:55.543Z</time>
      </trkpt>
      <trkpt lat="42.09046" lon="21.13397">
        <ele>421.86931</ele>
        <time>2022-04-23T10:17:02.535Z</time>
      </trkpt>
      <trkpt lat="42.09038" lon="21.13394">
        <ele>422.213624</ele>
        <time>2022-04-23T10:17:08.504Z</time>
      </trkpt>
      <trkpt lat="42.09028" lon="21.13391">
        <ele>422.587577</ele>
        <time>2022-04-23T10:17:13.517Z</time>
      </trkpt>
      <trkpt lat="42.09018" lon="21.13388">
        <ele>422.972937</ele>
        <time>2022-04-23T10:17:18.499Z</time>
      </trkpt>
      <trkpt lat="42.09009" lon="21.13384">
        <ele>423.341457</ele>
        <time>2022-04-23T10:17:23.504Z</time>
      </trkpt>
      <trkpt lat="42.08999" lon="21.1338">
        <ele>423.735965</ele>
        <time>2022-04-23T10:17:28.521Z</time>
      </trkpt>
      <trkpt lat="42.08988" lon="21.13376">
        <ele>424.150713</ele>
        <time>2022-04-23T10:17:33.485Z</time>
      </trkpt>
      <trkpt lat="42.0898" lon="21.13373">
        <ele>424.497913</ele>
        <time>2022-04-23T10:17:37.503Z</time>
      </trkpt>
      <trkpt lat="42.08971" lon="21.13369">
        <ele>424.846418</ele>
        <time>2022-04-23T10:17:41.495Z</time>
      </trkpt>
      <trkpt lat="42.08962" lon="21.13364">
        <ele>425.224363</ele>
        <time>2022-04-23T10:17:45.521Z</time>
      </trkpt>
      <trkpt lat="42.08953" lon="21.13359">
        <ele>425.590235</ele>
        <time>2022-04-23T10:17:49.503Z</time>
      </trkpt>
      <trkpt lat="42.08945" lon="21.13352">
        <ele>425.957475</ele>
        <time>2022-04-23T10:17:53.519Z</time>
      </trkpt>
      <trkpt lat="42.08936" lon="21.13345">
        <ele>426.319565</ele>
        <time>2022-04-23T10:17:57.521Z</time>
      </trkpt>
      <trkpt lat="42.08927" lon="21.13337">
        <ele>426.753134</ele>
        <time>2022-04-23T10:18:02.505Z</time>
      </trkpt>
      <trkpt lat="42.08919" lon="21.13328">
        <ele>427.157153</ele>
        <time>2022-04-23T10:18:06.504Z</time>
      </trkpt>
      <trkpt lat="42.08911" lon="21.1332">
        <ele>427.524926</ele>
        <time>2022-04-23T10:18:10.511Z</time>
      </trkpt>
      <trkpt lat="42.08903" lon="21.1331">
        <ele>427.852752</ele>
        <time>2022-04-23T10:18:14.495Z</time>
      </trkpt>
      <trkpt lat="42.08895" lon="21.133">
        <ele>427.831455</ele>
        <time>2022-04-23T10:18:18.523Z</time>
      </trkpt>
      <trkpt lat="42.08887" lon="21.13289">
        <ele>427.809408</ele>
        <time>2022-04-23T10:18:22.510Z</time>
      </trkpt>
      <trkpt lat="42.0888" lon="21.13279">
        <ele>427.791961</ele>
        <time>2022-04-23T10:18:25.515Z</time>
      </trkpt>
      <trkpt lat="42.08873" lon="21.1327">
        <ele>427.773169</ele>
        <time>2022-04-23T10:18:28.493Z</time>
      </trkpt>
      <trkpt lat="42.08865" lon="21.13259">
        <ele>427.752064</ele>
        <time>2022-04-23T10:18:31.521Z</time>
      </trkpt>
      <trkpt lat="42.08857" lon="21.13246">
        <ele>427.727857</ele>
        <time>2022-04-23T10:18:34.514Z</time>
      </trkpt>
      <trkpt lat="42.0885" lon="21.13235">
        <ele>427.707642</ele>
        <time>2022-04-23T10:18:36.510Z</time>
      </trkpt>
      <trkpt lat="42.08841" lon="21.13222">
        <ele>427.68322</ele>
        <time>2022-04-23T10:18:38.516Z</time>
      </trkpt>
      <trkpt lat="42.08831" lon="21.13206">
        <ele>427.65445</ele>
        <time>2022-04-23T10:18:40.501Z</time>
      </trkpt>
      <trkpt lat="42.08821" lon="21.13188">
        <ele>427.623446</ele>
        <time>2022-04-23T10:18:42.507Z</time>
      </trkpt>
      <trkpt lat="42.08812" lon="21.13169">
        <ele>427.591693</ele>
        <time>2022-04-23T10:18:44.500Z</time>
      </trkpt>
      <trkpt lat="42.08805" lon="21.13148">
        <ele>427.5585</ele>
        <time>2022-04-23T10:18:46.505Z</time>
      </trkpt>
      <trkpt lat="42.08802" lon="21.13136">
        <ele>427.541531</ele>
        <time>2022-04-23T10:18:47.544Z</time>
      </trkpt>
      <trkpt lat="42.088" lon="21.13124">
        <ele>427.524156</ele>
        <time>2022-04-23T10:18:48.504Z</time>
      </trkpt>
      <trkpt lat="42.08799" lon="21.131">
        <ele>427.363598</ele>
        <time>2022-04-23T10:18:50.511Z</time>
      </trkpt>
      <trkpt lat="42.088" lon="21.13076">
        <ele>427.166552</ele>
        <time>2022-04-23T10:18:52.517Z</time>
      </trkpt>
      <trkpt lat="42.08799" lon="21.13053">
        <ele>426.981516</ele>
        <time>2022-04-23T10:18:54.506Z</time>
      </trkpt>
      <trkpt lat="42.08799" lon="21.13032">
        <ele>426.815662</ele>
        <time>2022-04-23T10:18:56.509Z</time>
      </trkpt>
      <trkpt lat="42.08797" lon="21.13013">
        <ele>426.66037</ele>
        <time>2022-04-23T10:18:58.500Z</time>
      </trkpt>
      <trkpt lat="42.08794" lon="21.12996">
        <ele>426.522336</ele>
        <time>2022-04-23T10:19:00.505Z</time>
      </trkpt>
      <trkpt lat="42.0879" lon="21.12982">
        <ele>426.402207</ele>
        <time>2022-04-23T10:19:02.512Z</time>
      </trkpt>
      <trkpt lat="42.08787" lon="21.12969">
        <ele>426.294575</ele>
        <time>2022-04-23T10:19:04.529Z</time>
      </trkpt>
      <trkpt lat="42.08785" lon="21.12957">
        <ele>426.196596</ele>
        <time>2022-04-23T10:19:06.553Z</time>
      </trkpt>
      <trkpt lat="42.08782" lon="21.12944">
        <ele>426.089037</ele>
        <time>2022-04-23T10:19:09.500Z</time>
      </trkpt>
      <trkpt lat="42.08779" lon="21.12933">
        <ele>425.989151</ele>
        <time>2022-04-23T10:19:12.496Z</time>
      </trkpt>
      <trkpt lat="42.08775" lon="21.12919">
        <ele>425.867272</ele>
        <time>2022-04-23T10:19:16.551Z</time>
      </trkpt>
      <trkpt lat="42.0877" lon="21.12905">
        <ele>425.743316</ele>
        <time>2022-04-23T10:19:20.490Z</time>
      </trkpt>
      <trkpt lat="42.08765" lon="21.12892">
        <ele>425.6311</ele>
        <time>2022-04-23T10:19:24.522Z</time>
      </trkpt>
      <trkpt lat="42.08761" lon="21.12879">
        <ele>425.513769</ele>
        <time>2022-04-23T10:19:28.505Z</time>
      </trkpt>
      <trkpt lat="42.08755" lon="21.12867">
        <ele>425.401259</ele>
        <time>2022-04-23T10:19:32.500Z</time>
      </trkpt>
      <trkpt lat="42.08748" lon="21.12856">
        <ele>425.288479</ele>
        <time>2022-04-23T10:19:37.511Z</time>
      </trkpt>
      <trkpt lat="42.08742" lon="21.12845">
        <ele>425.182139</ele>
        <time>2022-04-23T10:19:42.533Z</time>
      </trkpt>
      <trkpt lat="42.08734" lon="21.12835">
        <ele>425.063685</ele>
        <time>2022-04-23T10:19:47.520Z</time>
      </trkpt>
      <trkpt lat="42.08728" lon="21.12826">
        <ele>424.965035</ele>
        <time>2022-04-23T10:19:51.508Z</time>
      </trkpt>
      <trkpt lat="42.08721" lon="21.12817">
        <ele>424.861175</ele>
        <time>2022-04-23T10:19:55.542Z</time>
      </trkpt>
      <trkpt lat="42.08714" lon="21.12807">
        <ele>424.752174</ele>
        <time>2022-04-23T10:19:59.511Z</time>
      </trkpt>
      <trkpt lat="42.08706" lon="21.12796">
        <ele>424.629359</ele>
        <time>2022-04-23T10:20:03.504Z</time>
      </trkpt>
      <trkpt lat="42.08697" lon="21.12784">
        <ele>424.498557</ele>
        <time>2022-04-23T10:20:07.513Z</time>
      </trkpt>
      <trkpt lat="42.08691" lon="21.12774">
        <ele>424.395036</ele>
        <time>2022-04-23T10:20:10.510Z</time>
      </trkpt>
      <trkpt lat="42.08684" lon="21.12765">
        <ele>424.295908</ele>
        <time>2022-04-23T10:20:13.508Z</time>
      </trkpt>
      <trkpt lat="42.08678" lon="21.12754">
        <ele>424.185732</ele>
        <time>2022-04-23T10:20:16.507Z</time>
      </trkpt>
      <trkpt lat="42.0867" lon="21.12742">
        <ele>424.053189</ele>
        <time>2022-04-23T10:20:19.502Z</time>
      </trkpt>
      <trkpt lat="42.08664" lon="21.12732">
        <ele>423.955703</ele>
        <time>2022-04-23T10:20:21.510Z</time>
      </trkpt>
      <trkpt lat="42.08657" lon="21.12722">
        <ele>423.845988</ele>
        <time>2022-04-23T10:20:23.552Z</time>
      </trkpt>
      <trkpt lat="42.0865" lon="21.1271">
        <ele>423.727979</ele>
        <time>2022-04-23T10:20:25.514Z</time>
      </trkpt>
      <trkpt lat="42.08643" lon="21.12698">
        <ele>423.580125</ele>
        <time>2022-04-23T10:20:27.523Z</time>
      </trkpt>
      <trkpt lat="42.08635" lon="21.12685">
        <ele>423.379403</ele>
        <time>2022-04-23T10:20:29.545Z</time>
      </trkpt>
      <trkpt lat="42.08626" lon="21.12671">
        <ele>423.158571</ele>
        <time>2022-04-23T10:20:31.521Z</time>
      </trkpt>
      <trkpt lat="42.08617" lon="21.12656">
        <ele>422.943194</ele>
        <time>2022-04-23T10:20:33.496Z</time>
      </trkpt>
      <trkpt lat="42.08609" lon="21.12641">
        <ele>422.720289</ele>
        <time>2022-04-23T10:20:35.505Z</time>
      </trkpt>
      <trkpt lat="42.086" lon="21.12626">
        <ele>422.496356</ele>
        <time>2022-04-23T10:20:37.530Z</time>
      </trkpt>
      <trkpt lat="42.0859" lon="21.12611">
        <ele>422.263159</ele>
        <time>2022-04-23T10:20:39.514Z</time>
      </trkpt>
      <trkpt lat="42.08579" lon="21.12596">
        <ele>422.020557</ele>
        <time>2022-04-23T10:20:41.498Z</time>
      </trkpt>
      <trkpt lat="42.08569" lon="21.12581">
        <ele>421.780968</ele>
        <time>2022-04-23T10:20:43.502Z</time>
      </trkpt>
      <trkpt lat="42.08559" lon="21.12567">
        <ele>421.562922</ele>
        <time>2022-04-23T10:20:45.486Z</time>
      </trkpt>
      <trkpt lat="42.08551" lon="21.12554">
        <ele>421.367661</ele>
        <time>2022-04-23T10:20:47.502Z</time>
      </trkpt>
      <trkpt lat="42.08544" lon="21.12543">
        <ele>421.196921</ele>
        <time>2022-04-23T10:20:49.511Z</time>
      </trkpt>
      <trkpt lat="42.08537" lon="21.12533">
        <ele>421.028662</ele>
        <time>2022-04-23T10:20:51.514Z</time>
      </trkpt>
      <trkpt lat="42.08529" lon="21.12522">
        <ele>420.852759</ele>
        <time>2022-04-23T10:20:53.503Z</time>
      </trkpt>
      <trkpt lat="42.08521" lon="21.12511">
        <ele>420.887859</ele>
        <time>2022-04-23T10:20:55.512Z</time>
      </trkpt>
      <trkpt lat="42.08513" lon="21.12502">
        <ele>420.946725</ele>
        <time>2022-04-23T10:20:57.520Z</time>
      </trkpt>
      <trkpt lat="42.08504" lon="21.12494">
        <ele>421.007261</ele>
        <time>2022-04-23T10:20:59.504Z</time>
      </trkpt>
      <trkpt lat="42.08494" lon="21.12488">
        <ele>421.070292</ele>
        <time>2022-04-23T10:21:01.521Z</time>
      </trkpt>
      <trkpt lat="42.08485" lon="21.12483">
        <ele>421.125938</ele>
        <time>2022-04-23T10:21:03.519Z</time>
      </trkpt>
      <trkpt lat="42.08472" lon="21.12479">
        <ele>421.198243</ele>
        <time>2022-04-23T10:21:06.510Z</time>
      </trkpt>
      <trkpt lat="42.08464" lon="21.12475">
        <ele>421.249508</ele>
        <time>2022-04-23T10:21:08.501Z</time>
      </trkpt>
      <trkpt lat="42.08454" lon="21.12471">
        <ele>421.305339</ele>
        <time>2022-04-23T10:21:10.510Z</time>
      </trkpt>
      <trkpt lat="42.08445" lon="21.12466">
        <ele>421.359998</ele>
        <time>2022-04-23T10:21:12.505Z</time>
      </trkpt>
      <trkpt lat="42.08434" lon="21.12461">
        <ele>421.429044</ele>
        <time>2022-04-23T10:21:15.516Z</time>
      </trkpt>
      <trkpt lat="42.08423" lon="21.12454">
        <ele>421.495351</ele>
        <time>2022-04-23T10:21:18.534Z</time>
      </trkpt>
      <trkpt lat="42.08412" lon="21.12449">
        <ele>421.563718</ele>
        <time>2022-04-23T10:21:21.502Z</time>
      </trkpt>
      <trkpt lat="42.08401" lon="21.12443">
        <ele>421.632466</ele>
        <time>2022-04-23T10:21:24.518Z</time>
      </trkpt>
      <trkpt lat="42.08388" lon="21.12438">
        <ele>421.705651</ele>
        <time>2022-04-23T10:21:27.524Z</time>
      </trkpt>
      <trkpt lat="42.08376" lon="21.12433">
        <ele>421.77952</ele>
        <time>2022-04-23T10:21:30.505Z</time>
      </trkpt>
      <trkpt lat="42.08365" lon="21.12428">
        <ele>421.847638</ele>
        <time>2022-04-23T10:21:33.511Z</time>
      </trkpt>
      <trkpt lat="42.08353" lon="21.12424">
        <ele>422.00511</ele>
        <time>2022-04-23T10:21:36.513Z</time>
      </trkpt>
      <trkpt lat="42.08343" lon="21.12422">
        <ele>422.130501</ele>
        <time>2022-04-23T10:21:38.516Z</time>
      </trkpt>
      <trkpt lat="42.08335" lon="21.12418">
        <ele>422.248539</ele>
        <time>2022-04-23T10:21:40.554Z</time>
      </trkpt>
      <trkpt lat="42.08323" lon="21.1241">
        <ele>422.419574</ele>
        <time>2022-04-23T10:21:43.494Z</time>
      </trkpt>
      <trkpt lat="42.08312" lon="21.12402">
        <ele>422.58797</ele>
        <time>2022-04-23T10:21:46.543Z</time>
      </trkpt>
      <trkpt lat="42.083" lon="21.12393">
        <ele>422.76362</ele>
        <time>2022-04-23T10:21:49.533Z</time>
      </trkpt>
      <trkpt lat="42.08289" lon="21.12383">
        <ele>422.937536</ele>
        <time>2022-04-23T10:21:52.510Z</time>
      </trkpt>
      <trkpt lat="42.08278" lon="21.12373">
        <ele>423.120106</ele>
        <time>2022-04-23T10:21:55.500Z</time>
      </trkpt>
      <trkpt lat="42.08269" lon="21.12366">
        <ele>423.248006</ele>
        <time>2022-04-23T10:21:57.536Z</time>
      </trkpt>
      <trkpt lat="42.0826" lon="21.12354">
        <ele>423.420309</ele>
        <time>2022-04-23T10:22:00.506Z</time>
      </trkpt>
      <trkpt lat="42.08253" lon="21.12341">
        <ele>423.579779</ele>
        <time>2022-04-23T10:22:03.540Z</time>
      </trkpt>
      <trkpt lat="42.08248" lon="21.12328">
        <ele>423.72338</ele>
        <time>2022-04-23T10:22:06.514Z</time>
      </trkpt>
      <trkpt lat="42.0824" lon="21.12315">
        <ele>423.878163</ele>
        <time>2022-04-23T10:22:09.486Z</time>
      </trkpt>
      <trkpt lat="42.08235" lon="21.12304">
        <ele>424.013366</ele>
        <time>2022-04-23T10:22:12.515Z</time>
      </trkpt>
      <trkpt lat="42.08229" lon="21.12292">
        <ele>424.152736</ele>
        <time>2022-04-23T10:22:16.500Z</time>
      </trkpt>
      <trkpt lat="42.08223" lon="21.1228">
        <ele>424.4529</ele>
        <time>2022-04-23T10:22:21.510Z</time>
      </trkpt>
      <trkpt lat="42.08216" lon="21.12269">
        <ele>424.899794</ele>
        <time>2022-04-23T10:22:27.523Z</time>
      </trkpt>
      <trkpt lat="42.0821" lon="21.12258">
        <ele>425.32403</ele>
        <time>2022-04-23T10:22:33.513Z</time>
      </trkpt>
      <trkpt lat="42.08205" lon="21.12248">
        <ele>425.718117</ele>
        <time>2022-04-23T10:22:40.512Z</time>
      </trkpt>
      <trkpt lat="42.08199" lon="21.12238">
        <ele>426.115234</ele>
        <time>2022-04-23T10:22:46.543Z</time>
      </trkpt>
      <trkpt lat="42.08193" lon="21.12228">
        <ele>426.516896</ele>
        <time>2022-04-23T10:22:52.508Z</time>
      </trkpt>
      <trkpt lat="42.08189" lon="21.12217">
        <ele>426.909148</ele>
        <time>2022-04-23T10:22:58.511Z</time>
      </trkpt>
      <trkpt lat="42.08185" lon="21.12205">
        <ele>427.312925</ele>
        <time>2022-04-23T10:23:04.508Z</time>
      </trkpt>
      <trkpt lat="42.08181" lon="21.12193">
        <ele>427.733313</ele>
        <time>2022-04-23T10:23:10.521Z</time>
      </trkpt>
      <trkpt lat="42.08179" lon="21.1218">
        <ele>428.129125</ele>
        <time>2022-04-23T10:23:16.488Z</time>
      </trkpt>
      <trkpt lat="42.08178" lon="21.12168">
        <ele>428.525234</ele>
        <time>2022-04-23T10:23:22.535Z</time>
      </trkpt>
      <trkpt lat="42.08177" lon="21.12153">
        <ele>428.97039</ele>
        <time>2022-04-23T10:23:29.521Z</time>
      </trkpt>
      <trkpt lat="42.08177" lon="21.12139">
        <ele>429.408097</ele>
        <time>2022-04-23T10:23:36.493Z</time>
      </trkpt>
      <trkpt lat="42.08174" lon="21.12128">
        <ele>429.792086</ele>
        <time>2022-04-23T10:23:41.491Z</time>
      </trkpt>
      <trkpt lat="42.0817" lon="21.12114">
        <ele>430.24487</ele>
        <time>2022-04-23T10:23:47.501Z</time>
      </trkpt>
      <trkpt lat="42.08164" lon="21.12102">
        <ele>430.706742</ele>
        <time>2022-04-23T10:23:53.496Z</time>
      </trkpt>
      <trkpt lat="42.08156" lon="21.12095">
        <ele>431.093017</ele>
        <time>2022-04-23T10:23:57.524Z</time>
      </trkpt>
      <trkpt lat="42.08149" lon="21.12086">
        <ele>431.523509</ele>
        <time>2022-04-23T10:24:01.509Z</time>
      </trkpt>
      <trkpt lat="42.08142" lon="21.12076">
        <ele>431.81926</ele>
        <time>2022-04-23T10:24:05.526Z</time>
      </trkpt>
      <trkpt lat="42.08134" lon="21.12066">
        <ele>431.887101</ele>
        <time>2022-04-23T10:24:09.491Z</time>
      </trkpt>
      <trkpt lat="42.08125" lon="21.12055">
        <ele>431.964616</ele>
        <time>2022-04-23T10:24:13.495Z</time>
      </trkpt>
      <trkpt lat="42.08118" lon="21.12047">
        <ele>432.026185</ele>
        <time>2022-04-23T10:24:16.515Z</time>
      </trkpt>
      <trkpt lat="42.08111" lon="21.12038">
        <ele>432.086414</ele>
        <time>2022-04-23T10:24:19.497Z</time>
      </trkpt>
      <trkpt lat="42.08104" lon="21.12028">
        <ele>432.1509</ele>
        <time>2022-04-23T10:24:22.517Z</time>
      </trkpt>
      <trkpt lat="42.08096" lon="21.12018">
        <ele>432.219313</ele>
        <time>2022-04-23T10:24:25.516Z</time>
      </trkpt>
      <trkpt lat="42.08088" lon="21.12008">
        <ele>432.288469</ele>
        <time>2022-04-23T10:24:28.534Z</time>
      </trkpt>
      <trkpt lat="42.08081" lon="21.11999">
        <ele>432.353039</ele>
        <time>2022-04-23T10:24:31.487Z</time>
      </trkpt>
      <trkpt lat="42.08073" lon="21.11989">
        <ele>432.420336</ele>
        <time>2022-04-23T10:24:34.502Z</time>
      </trkpt>
      <trkpt lat="42.08066" lon="21.1198">
        <ele>432.483588</ele>
        <time>2022-04-23T10:24:37.534Z</time>
      </trkpt>
      <trkpt lat="42.08059" lon="21.1197">
        <ele>432.546957</ele>
        <time>2022-04-23T10:24:40.517Z</time>
      </trkpt>
      <trkpt lat="42.08052" lon="21.11961">
        <ele>432.609483</ele>
        <time>2022-04-23T10:24:43.494Z</time>
      </trkpt>
      <trkpt lat="42.08045" lon="21.11952">
        <ele>432.670263</ele>
        <time>2022-04-23T10:24:46.514Z</time>
      </trkpt>
      <trkpt lat="42.08038" lon="21.11943">
        <ele>432.734058</ele>
        <time>2022-04-23T10:24:49.522Z</time>
      </trkpt>
      <trkpt lat="42.0803" lon="21.11934">
        <ele>432.797839</ele>
        <time>2022-04-23T10:24:52.494Z</time>
      </trkpt>
      <trkpt lat="42.08023" lon="21.11925">
        <ele>432.860536</ele>
        <time>2022-04-23T10:24:55.485Z</time>
      </trkpt>
      <trkpt lat="42.08016" lon="21.11917">
        <ele>432.918949</ele>
        <time>2022-04-23T10:24:58.496Z</time>
      </trkpt>
      <trkpt lat="42.08009" lon="21.11909">
        <ele>432.947449</ele>
        <time>2022-04-23T10:25:01.496Z</time>
      </trkpt>
      <trkpt lat="42.08002" lon="21.11901">
        <ele>432.956214</ele>
        <time>2022-04-23T10:25:04.526Z</time>
      </trkpt>
      <trkpt lat="42.07994" lon="21.11892">
        <ele>432.964682</ele>
        <time>2022-04-23T10:25:07.507Z</time>
      </trkpt>
      <trkpt lat="42.07987" lon="21.11884">
        <ele>432.973533</ele>
        <time>2022-04-23T10:25:10.527Z</time>
      </trkpt>
      <trkpt lat="42.0798" lon="21.11876">
        <ele>432.982045</ele>
        <time>2022-04-23T10:25:13.514Z</time>
      </trkpt>
      <trkpt lat="42.07973" lon="21.11868">
        <ele>432.990723</ele>
        <time>2022-04-23T10:25:16.570Z</time>
      </trkpt>
      <trkpt lat="42.07964" lon="21.1186">
        <ele>432.999971</ele>
        <time>2022-04-23T10:25:19.513Z</time>
      </trkpt>
      <trkpt lat="42.07955" lon="21.11854">
        <ele>433.009246</ele>
        <time>2022-04-23T10:25:22.499Z</time>
      </trkpt>
      <trkpt lat="42.07946" lon="21.1185">
        <ele>433.018198</ele>
        <time>2022-04-23T10:25:25.505Z</time>
      </trkpt>
      <trkpt lat="42.07934" lon="21.11846">
        <ele>433.028833</ele>
        <time>2022-04-23T10:25:28.526Z</time>
      </trkpt>
      <trkpt lat="42.07923" lon="21.11842">
        <ele>433.039699</ele>
        <time>2022-04-23T10:25:31.502Z</time>
      </trkpt>
      <trkpt lat="42.07912" lon="21.11839">
        <ele>433.050091</ele>
        <time>2022-04-23T10:25:34.501Z</time>
      </trkpt>
      <trkpt lat="42.079" lon="21.11835">
        <ele>433.060468</ele>
        <time>2022-04-23T10:25:37.536Z</time>
      </trkpt>
      <trkpt lat="42.0789" lon="21.11832">
        <ele>433.07049</ele>
        <time>2022-04-23T10:25:40.525Z</time>
      </trkpt>
      <trkpt lat="42.07878" lon="21.11828">
        <ele>433.081341</ele>
        <time>2022-04-23T10:25:43.500Z</time>
      </trkpt>
      <trkpt lat="42.07869" lon="21.11825">
        <ele>433.08955</ele>
        <time>2022-04-23T10:25:45.505Z</time>
      </trkpt>
      <trkpt lat="42.07857" lon="21.1182">
        <ele>433.101662</ele>
        <time>2022-04-23T10:25:48.531Z</time>
      </trkpt>
      <trkpt lat="42.07844" lon="21.11815">
        <ele>433.21979</ele>
        <time>2022-04-23T10:25:51.499Z</time>
      </trkpt>
      <trkpt lat="42.07835" lon="21.11813">
        <ele>433.348319</ele>
        <time>2022-04-23T10:25:53.522Z</time>
      </trkpt>
      <trkpt lat="42.07825" lon="21.1181">
        <ele>433.478405</ele>
        <time>2022-04-23T10:25:55.504Z</time>
      </trkpt>
      <trkpt lat="42.07816" lon="21.11807">
        <ele>433.604947</ele>
        <time>2022-04-23T10:25:57.520Z</time>
      </trkpt>
      <trkpt lat="42.07807" lon="21.11804">
        <ele>433.735904</ele>
        <time>2022-04-23T10:25:59.499Z</time>
      </trkpt>
      <trkpt lat="42.07798" lon="21.11801">
        <ele>433.864667</ele>
        <time>2022-04-23T10:26:01.504Z</time>
      </trkpt>
      <trkpt lat="42.07785" lon="21.11798">
        <ele>434.04462</ele>
        <time>2022-04-23T10:26:04.542Z</time>
      </trkpt>
      <trkpt lat="42.07774" lon="21.11793">
        <ele>434.191593</ele>
        <time>2022-04-23T10:26:07.526Z</time>
      </trkpt>
      <trkpt lat="42.07765" lon="21.11789">
        <ele>434.33004</ele>
        <time>2022-04-23T10:26:10.553Z</time>
      </trkpt>
      <trkpt lat="42.07755" lon="21.11786">
        <ele>434.469626</ele>
        <time>2022-04-23T10:26:13.509Z</time>
      </trkpt>
      <trkpt lat="42.07745" lon="21.11782">
        <ele>434.60762</ele>
        <time>2022-04-23T10:26:16.515Z</time>
      </trkpt>
      <trkpt lat="42.07735" lon="21.11778">
        <ele>434.753939</ele>
        <time>2022-04-23T10:26:19.505Z</time>
      </trkpt>
      <trkpt lat="42.07726" lon="21.11774">
        <ele>434.877166</ele>
        <time>2022-04-23T10:26:22.545Z</time>
      </trkpt>
      <trkpt lat="42.07716" lon="21.11772">
        <ele>435.017103</ele>
        <time>2022-04-23T10:26:25.519Z</time>
      </trkpt>
      <trkpt lat="42.07706" lon="21.11771">
        <ele>435.157656</ele>
        <time>2022-04-23T10:26:28.513Z</time>
      </trkpt>
      <trkpt lat="42.07695" lon="21.11771">
        <ele>435.299161</ele>
        <time>2022-04-23T10:26:31.516Z</time>
      </trkpt>
      <trkpt lat="42.07685" lon="21.11773">
        <ele>435.433448</ele>
        <time>2022-04-23T10:26:34.518Z</time>
      </trkpt>
      <trkpt lat="42.07676" lon="21.11774">
        <ele>435.555339</ele>
        <time>2022-04-23T10:26:37.508Z</time>
      </trkpt>
      <trkpt lat="42.07665" lon="21.11775">
        <ele>435.587339</ele>
        <time>2022-04-23T10:26:41.497Z</time>
      </trkpt>
      <trkpt lat="42.07654" lon="21.11775">
        <ele>435.617019</ele>
        <time>2022-04-23T10:26:45.504Z</time>
      </trkpt>
      <trkpt lat="42.07643" lon="21.11776">
        <ele>435.649965</ele>
        <time>2022-04-23T10:26:49.499Z</time>
      </trkpt>
      <trkpt lat="42.07632" lon="21.11777">
        <ele>435.682827</ele>
        <time>2022-04-23T10:26:53.510Z</time>
      </trkpt>
      <trkpt lat="42.0762" lon="21.11779">
        <ele>435.716653</ele>
        <time>2022-04-23T10:26:57.517Z</time>
      </trkpt>
      <trkpt lat="42.0761" lon="21.11781">
        <ele>435.74477</ele>
        <time>2022-04-23T10:27:00.517Z</time>
      </trkpt>
      <trkpt lat="42.076" lon="21.11785">
        <ele>435.774472</ele>
        <time>2022-04-23T10:27:03.516Z</time>
      </trkpt>
      <trkpt lat="42.0759" lon="21.11786">
        <ele>435.805609</ele>
        <time>2022-04-23T10:27:06.522Z</time>
      </trkpt>
      <trkpt lat="42.07579" lon="21.11787">
        <ele>435.835955</ele>
        <time>2022-04-23T10:27:09.509Z</time>
      </trkpt>
      <trkpt lat="42.07567" lon="21.11789">
        <ele>435.869659</ele>
        <time>2022-04-23T10:27:12.511Z</time>
      </trkpt>
      <trkpt lat="42.07556" lon="21.11791">
        <ele>435.903171</ele>
        <time>2022-04-23T10:27:15.523Z</time>
      </trkpt>
      <trkpt lat="42.07543" lon="21.11794">
        <ele>435.940055</ele>
        <time>2022-04-23T10:27:18.490Z</time>
      </trkpt>
      <trkpt lat="42.07534" lon="21.11796">
        <ele>435.966483</ele>
        <time>2022-04-23T10:27:20.506Z</time>
      </trkpt>
      <trkpt lat="42.07525" lon="21.11798">
        <ele>435.992625</ele>
        <time>2022-04-23T10:27:22.520Z</time>
      </trkpt>
      <trkpt lat="42.07512" lon="21.11802">
        <ele>436.031835</ele>
        <time>2022-04-23T10:27:25.550Z</time>
      </trkpt>
      <trkpt lat="42.07501" lon="21.11806">
        <ele>436.06459</ele>
        <time>2022-04-23T10:27:27.528Z</time>
      </trkpt>
      <trkpt lat="42.07489" lon="21.1181">
        <ele>436.103387</ele>
        <time>2022-04-23T10:27:29.520Z</time>
      </trkpt>
      <trkpt lat="42.07476" lon="21.11814">
        <ele>436.143268</ele>
        <time>2022-04-23T10:27:31.516Z</time>
      </trkpt>
      <trkpt lat="42.07463" lon="21.11817">
        <ele>436.18299</ele>
        <time>2022-04-23T10:27:33.516Z</time>
      </trkpt>
      <trkpt lat="42.07451" lon="21.11821">
        <ele>436.222272</ele>
        <time>2022-04-23T10:27:35.516Z</time>
      </trkpt>
      <trkpt lat="42.0744" lon="21.11826">
        <ele>436.257894</ele>
        <time>2022-04-23T10:27:37.516Z</time>
      </trkpt>
      <trkpt lat="42.0743" lon="21.1183">
        <ele>436.288851</ele>
        <time>2022-04-23T10:27:39.512Z</time>
      </trkpt>
      <trkpt lat="42.07418" lon="21.11834">
        <ele>436.327351</ele>
        <time>2022-04-23T10:27:42.522Z</time>
      </trkpt>
      <trkpt lat="42.07409" lon="21.11838">
        <ele>436.356621</ele>
        <time>2022-04-23T10:27:45.518Z</time>
      </trkpt>
      <trkpt lat="42.074" lon="21.11842">
        <ele>436.386403</ele>
        <time>2022-04-23T10:27:49.505Z</time>
      </trkpt>
      <trkpt lat="42.07391" lon="21.11849">
        <ele>436.417592</ele>
        <time>2022-04-23T10:27:53.539Z</time>
      </trkpt>
      <trkpt lat="42.07385" lon="21.11859">
        <ele>436.446076</ele>
        <time>2022-04-23T10:27:58.513Z</time>
      </trkpt>
      <trkpt lat="42.07392" lon="21.1185">
        <ele>436.474586</ele>
        <time>2022-04-23T10:28:04.537Z</time>
      </trkpt>
      <trkpt lat="42.0739" lon="21.11838">
        <ele>436.503371</ele>
        <time>2022-04-23T10:28:07.491Z</time>
      </trkpt>
      <trkpt lat="42.07387" lon="21.11823">
        <ele>436.537834</ele>
        <time>2022-04-23T10:28:11.548Z</time>
      </trkpt>
      <trkpt lat="42.07384" lon="21.11808">
        <ele>436.573797</ele>
        <time>2022-04-23T10:28:15.516Z</time>
      </trkpt>
      <trkpt lat="42.0738" lon="21.11796">
        <ele>436.604475</ele>
        <time>2022-04-23T10:28:19.593Z</time>
      </trkpt>
      <trkpt lat="42.07375" lon="21.11785">
        <ele>436.684288</ele>
        <time>2022-04-23T10:28:23.486Z</time>
      </trkpt>
      <trkpt lat="42.07368" lon="21.11775">
        <ele>436.912051</ele>
        <time>2022-04-23T10:28:28.627Z</time>
      </trkpt>
      <trkpt lat="42.0736" lon="21.11767">
        <ele>437.147898</ele>
        <time>2022-04-23T10:28:33.514Z</time>
      </trkpt>
      <trkpt lat="42.07368" lon="21.11785">
        <ele>437.500796</ele>
        <time>2022-04-23T10:36:44.507Z</time>
      </trkpt>
      <trkpt lat="42.07375" lon="21.11794">
        <ele>437.708492</ele>
        <time>2022-04-23T10:36:47.490Z</time>
      </trkpt>
      <trkpt lat="42.0738" lon="21.11804">
        <ele>437.925925</ele>
        <time>2022-04-23T10:36:50.495Z</time>
      </trkpt>
      <trkpt lat="42.07384" lon="21.11815">
        <ele>438.130859</ele>
        <time>2022-04-23T10:36:53.610Z</time>
      </trkpt>
      <trkpt lat="42.07383" lon="21.11827">
        <ele>438.335571</ele>
        <time>2022-04-23T10:36:56.513Z</time>
      </trkpt>
      <trkpt lat="42.07382" lon="21.1184">
        <ele>438.539644</ele>
        <time>2022-04-23T10:36:59.493Z</time>
      </trkpt>
      <trkpt lat="42.07381" lon="21.11853">
        <ele>438.758654</ele>
        <time>2022-04-23T10:37:02.508Z</time>
      </trkpt>
      <trkpt lat="42.07381" lon="21.11866">
        <ele>438.989024</ele>
        <time>2022-04-23T10:37:05.518Z</time>
      </trkpt>
      <trkpt lat="42.07381" lon="21.11881">
        <ele>439.232845</ele>
        <time>2022-04-23T10:37:08.567Z</time>
      </trkpt>
      <trkpt lat="42.0738" lon="21.11893">
        <ele>439.443109</ele>
        <time>2022-04-23T10:37:11.512Z</time>
      </trkpt>
      <trkpt lat="42.07378" lon="21.11907">
        <ele>439.686568</ele>
        <time>2022-04-23T10:37:15.541Z</time>
      </trkpt>
      <trkpt lat="42.07377" lon="21.1192">
        <ele>439.905731</ele>
        <time>2022-04-23T10:37:18.500Z</time>
      </trkpt>
      <trkpt lat="42.07379" lon="21.11934">
        <ele>440.146691</ele>
        <time>2022-04-23T10:37:21.498Z</time>
      </trkpt>
      <trkpt lat="42.0738" lon="21.11948">
        <ele>440.373141</ele>
        <time>2022-04-23T10:37:24.514Z</time>
      </trkpt>
      <trkpt lat="42.0738" lon="21.11961">
        <ele>440.602368</ele>
        <time>2022-04-23T10:37:27.514Z</time>
      </trkpt>
      <trkpt lat="42.07379" lon="21.11976">
        <ele>440.726197</ele>
        <time>2022-04-23T10:37:30.524Z</time>
      </trkpt>
      <trkpt lat="42.07377" lon="21.1199">
        <ele>440.769598</ele>
        <time>2022-04-23T10:37:33.556Z</time>
      </trkpt>
      <trkpt lat="42.07374" lon="21.12005">
        <ele>440.818616</ele>
        <time>2022-04-23T10:37:36.496Z</time>
      </trkpt>
      <trkpt lat="42.07372" lon="21.1202">
        <ele>440.867228</ele>
        <time>2022-04-23T10:37:39.519Z</time>
      </trkpt>
      <trkpt lat="42.0737" lon="21.12034">
        <ele>440.912818</ele>
        <time>2022-04-23T10:37:42.514Z</time>
      </trkpt>
      <trkpt lat="42.0737" lon="21.12048">
        <ele>440.956122</ele>
        <time>2022-04-23T10:37:45.503Z</time>
      </trkpt>
      <trkpt lat="42.07371" lon="21.12063">
        <ele>441.003021</ele>
        <time>2022-04-23T10:37:48.506Z</time>
      </trkpt>
      <trkpt lat="42.07367" lon="21.12077">
        <ele>441.047997</ele>
        <time>2022-04-23T10:37:51.510Z</time>
      </trkpt>
      <trkpt lat="42.07358" lon="21.12082">
        <ele>441.090785</ele>
        <time>2022-04-23T10:37:54.510Z</time>
      </trkpt>
      <trkpt lat="42.07349" lon="21.12084">
        <ele>441.129104</ele>
        <time>2022-04-23T10:37:57.513Z</time>
      </trkpt>
      <trkpt lat="42.07338" lon="21.12088">
        <ele>441.176262</ele>
        <time>2022-04-23T10:38:01.482Z</time>
      </trkpt>
      <trkpt lat="42.07329" lon="21.12089">
        <ele>441.216509</ele>
        <time>2022-04-23T10:38:04.491Z</time>
      </trkpt>
      <trkpt lat="42.07316" lon="21.12087">
        <ele>441.268563</ele>
        <time>2022-04-23T10:38:07.533Z</time>
      </trkpt>
      <trkpt lat="42.07303" lon="21.12087">
        <ele>441.324373</ele>
        <time>2022-04-23T10:38:10.512Z</time>
      </trkpt>
      <trkpt lat="42.07293" lon="21.12086">
        <ele>441.364691</ele>
        <time>2022-04-23T10:38:13.519Z</time>
      </trkpt>
      <trkpt lat="42.07284" lon="21.12085">
        <ele>441.405556</ele>
        <time>2022-04-23T10:38:16.485Z</time>
      </trkpt>
      <trkpt lat="42.07271" lon="21.12085">
        <ele>441.409296</ele>
        <time>2022-04-23T10:38:19.503Z</time>
      </trkpt>
      <trkpt lat="42.0726" lon="21.12083">
        <ele>441.102279</ele>
        <time>2022-04-23T10:38:21.501Z</time>
      </trkpt>
      <trkpt lat="42.07249" lon="21.12082">
        <ele>440.813572</ele>
        <time>2022-04-23T10:38:23.502Z</time>
      </trkpt>
      <trkpt lat="42.0724" lon="21.12081">
        <ele>440.539307</ele>
        <time>2022-04-23T10:38:25.506Z</time>
      </trkpt>
      <trkpt lat="42.07229" lon="21.12081">
        <ele>440.240099</ele>
        <time>2022-04-23T10:38:27.516Z</time>
      </trkpt>
      <trkpt lat="42.07217" lon="21.12081">
        <ele>439.918529</ele>
        <time>2022-04-23T10:38:29.503Z</time>
      </trkpt>
      <trkpt lat="42.07206" lon="21.1208">
        <ele>439.605235</ele>
        <time>2022-04-23T10:38:31.497Z</time>
      </trkpt>
      <trkpt lat="42.07195" lon="21.1208">
        <ele>439.303288</ele>
        <time>2022-04-23T10:38:33.549Z</time>
      </trkpt>
      <trkpt lat="42.07185" lon="21.1208">
        <ele>439.012532</ele>
        <time>2022-04-23T10:38:35.492Z</time>
      </trkpt>
      <trkpt lat="42.07174" lon="21.1208">
        <ele>438.718862</ele>
        <time>2022-04-23T10:38:37.502Z</time>
      </trkpt>
      <trkpt lat="42.07165" lon="21.12079">
        <ele>438.453137</ele>
        <time>2022-04-23T10:38:39.505Z</time>
      </trkpt>
      <trkpt lat="42.07155" lon="21.12079">
        <ele>438.181824</ele>
        <time>2022-04-23T10:38:41.515Z</time>
      </trkpt>
      <trkpt lat="42.07146" lon="21.12079">
        <ele>437.910606</ele>
        <time>2022-04-23T10:38:43.496Z</time>
      </trkpt>
      <trkpt lat="42.07136" lon="21.12078">
        <ele>437.642183</ele>
        <time>2022-04-23T10:38:45.509Z</time>
      </trkpt>
      <trkpt lat="42.07127" lon="21.12078">
        <ele>437.3849</ele>
        <time>2022-04-23T10:38:47.514Z</time>
      </trkpt>
      <trkpt lat="42.07117" lon="21.12078">
        <ele>437.107928</ele>
        <time>2022-04-23T10:38:49.508Z</time>
      </trkpt>
      <trkpt lat="42.07107" lon="21.12077">
        <ele>436.825071</ele>
        <time>2022-04-23T10:38:51.505Z</time>
      </trkpt>
      <trkpt lat="42.07097" lon="21.12076">
        <ele>436.54522</ele>
        <time>2022-04-23T10:38:53.501Z</time>
      </trkpt>
      <trkpt lat="42.07088" lon="21.12076">
        <ele>436.382918</ele>
        <time>2022-04-23T10:38:55.529Z</time>
      </trkpt>
      <trkpt lat="42.07078" lon="21.12076">
        <ele>436.302669</ele>
        <time>2022-04-23T10:38:57.554Z</time>
      </trkpt>
      <trkpt lat="42.07069" lon="21.12075">
        <ele>436.224063</ele>
        <time>2022-04-23T10:38:59.490Z</time>
      </trkpt>
      <trkpt lat="42.0706" lon="21.12074">
        <ele>436.141976</ele>
        <time>2022-04-23T10:39:01.551Z</time>
      </trkpt>
      <trkpt lat="42.0705" lon="21.12074">
        <ele>436.056552</ele>
        <time>2022-04-23T10:39:03.495Z</time>
      </trkpt>
      <trkpt lat="42.0704" lon="21.12074">
        <ele>435.974578</ele>
        <time>2022-04-23T10:39:05.515Z</time>
      </trkpt>
      <trkpt lat="42.07027" lon="21.12074">
        <ele>435.863272</ele>
        <time>2022-04-23T10:39:08.500Z</time>
      </trkpt>
      <trkpt lat="42.07015" lon="21.12073">
        <ele>435.760552</ele>
        <time>2022-04-23T10:39:11.508Z</time>
      </trkpt>
      <trkpt lat="42.07003" lon="21.12073">
        <ele>435.650099</ele>
        <time>2022-04-23T10:39:14.504Z</time>
      </trkpt>
      <trkpt lat="42.06994" lon="21.12073">
        <ele>435.572407</ele>
        <time>2022-04-23T10:39:16.521Z</time>
      </trkpt>
      <trkpt lat="42.06984" lon="21.12072">
        <ele>435.492146</ele>
        <time>2022-04-23T10:39:18.514Z</time>
      </trkpt>
      <trkpt lat="42.06972" lon="21.12072">
        <ele>435.382506</ele>
        <time>2022-04-23T10:39:21.545Z</time>
      </trkpt>
      <trkpt lat="42.06959" lon="21.12071">
        <ele>435.272024</ele>
        <time>2022-04-23T10:39:24.511Z</time>
      </trkpt>
      <trkpt lat="42.06946" lon="21.1207">
        <ele>435.158739</ele>
        <time>2022-04-23T10:39:27.570Z</time>
      </trkpt>
      <trkpt lat="42.06933" lon="21.1207">
        <ele>435.048287</ele>
        <time>2022-04-23T10:39:30.513Z</time>
      </trkpt>
      <trkpt lat="42.0692" lon="21.1207">
        <ele>434.933537</ele>
        <time>2022-04-23T10:39:33.501Z</time>
      </trkpt>
      <trkpt lat="42.0691" lon="21.1207">
        <ele>434.872818</ele>
        <time>2022-04-23T10:39:35.500Z</time>
      </trkpt>
      <trkpt lat="42.06901" lon="21.1207">
        <ele>434.8702</ele>
        <time>2022-04-23T10:39:37.512Z</time>
      </trkpt>
      <trkpt lat="42.06891" lon="21.1207">
        <ele>434.867605</ele>
        <time>2022-04-23T10:39:39.516Z</time>
      </trkpt>
      <trkpt lat="42.06882" lon="21.1207">
        <ele>434.865122</ele>
        <time>2022-04-23T10:39:41.534Z</time>
      </trkpt>
      <trkpt lat="42.06872" lon="21.12069">
        <ele>434.862256</ele>
        <time>2022-04-23T10:39:43.496Z</time>
      </trkpt>
      <trkpt lat="42.06861" lon="21.12069">
        <ele>434.859501</ele>
        <time>2022-04-23T10:39:45.507Z</time>
      </trkpt>
      <trkpt lat="42.06851" lon="21.12069">
        <ele>434.856637</ele>
        <time>2022-04-23T10:39:47.523Z</time>
      </trkpt>
      <trkpt lat="42.0684" lon="21.12069">
        <ele>434.853664</ele>
        <time>2022-04-23T10:39:49.505Z</time>
      </trkpt>
      <trkpt lat="42.06829" lon="21.12069">
        <ele>434.850745</ele>
        <time>2022-04-23T10:39:51.506Z</time>
      </trkpt>
      <trkpt lat="42.06819" lon="21.12069">
        <ele>434.847963</ele>
        <time>2022-04-23T10:39:53.510Z</time>
      </trkpt>
      <trkpt lat="42.06808" lon="21.12068">
        <ele>434.844987</ele>
        <time>2022-04-23T10:39:55.537Z</time>
      </trkpt>
      <trkpt lat="42.06797" lon="21.12067">
        <ele>434.841986</ele>
        <time>2022-04-23T10:39:57.518Z</time>
      </trkpt>
      <trkpt lat="42.06786" lon="21.12067">
        <ele>434.83893</ele>
        <time>2022-04-23T10:39:59.506Z</time>
      </trkpt>
      <trkpt lat="42.06775" lon="21.12066">
        <ele>434.835872</ele>
        <time>2022-04-23T10:40:01.517Z</time>
      </trkpt>
      <trkpt lat="42.06764" lon="21.12066">
        <ele>434.832953</ele>
        <time>2022-04-23T10:40:03.514Z</time>
      </trkpt>
      <trkpt lat="42.06753" lon="21.12066">
        <ele>434.829952</ele>
        <time>2022-04-23T10:40:05.492Z</time>
      </trkpt>
      <trkpt lat="42.06741" lon="21.12065">
        <ele>434.826705</ele>
        <time>2022-04-23T10:40:07.512Z</time>
      </trkpt>
      <trkpt lat="42.0673" lon="21.12065">
        <ele>434.750082</ele>
        <time>2022-04-23T10:40:09.513Z</time>
      </trkpt>
      <trkpt lat="42.06719" lon="21.12065">
        <ele>434.437181</ele>
        <time>2022-04-23T10:40:11.512Z</time>
      </trkpt>
      <trkpt lat="42.06707" lon="21.12067">
        <ele>434.134254</ele>
        <time>2022-04-23T10:40:13.514Z</time>
      </trkpt>
      <trkpt lat="42.06696" lon="21.12068">
        <ele>433.814013</ele>
        <time>2022-04-23T10:40:15.515Z</time>
      </trkpt>
      <trkpt lat="42.06683" lon="21.12072">
        <ele>433.469973</ele>
        <time>2022-04-23T10:40:17.508Z</time>
      </trkpt>
      <trkpt lat="42.06672" lon="21.12077">
        <ele>433.149288</ele>
        <time>2022-04-23T10:40:19.506Z</time>
      </trkpt>
      <trkpt lat="42.06661" lon="21.12081">
        <ele>432.847297</ele>
        <time>2022-04-23T10:40:21.518Z</time>
      </trkpt>
      <trkpt lat="42.06651" lon="21.12086">
        <ele>432.552267</ele>
        <time>2022-04-23T10:40:23.555Z</time>
      </trkpt>
      <trkpt lat="42.06641" lon="21.12092">
        <ele>432.263414</ele>
        <time>2022-04-23T10:40:25.497Z</time>
      </trkpt>
      <trkpt lat="42.0663" lon="21.12097">
        <ele>431.964102</ele>
        <time>2022-04-23T10:40:27.510Z</time>
      </trkpt>
      <trkpt lat="42.0662" lon="21.12102">
        <ele>431.672733</ele>
        <time>2022-04-23T10:40:29.511Z</time>
      </trkpt>
      <trkpt lat="42.06611" lon="21.12108">
        <ele>431.389132</ele>
        <time>2022-04-23T10:40:31.516Z</time>
      </trkpt>
      <trkpt lat="42.06601" lon="21.12114">
        <ele>431.097187</ele>
        <time>2022-04-23T10:40:33.509Z</time>
      </trkpt>
      <trkpt lat="42.06591" lon="21.1212">
        <ele>430.795577</ele>
        <time>2022-04-23T10:40:35.524Z</time>
      </trkpt>
      <trkpt lat="42.0658" lon="21.12126">
        <ele>430.483006</ele>
        <time>2022-04-23T10:40:37.523Z</time>
      </trkpt>
      <trkpt lat="42.06568" lon="21.12132">
        <ele>430.153914</ele>
        <time>2022-04-23T10:40:39.507Z</time>
      </trkpt>
      <trkpt lat="42.06558" lon="21.12138">
        <ele>430.034283</ele>
        <time>2022-04-23T10:40:41.504Z</time>
      </trkpt>
      <trkpt lat="42.06547" lon="21.12144">
        <ele>430.156754</ele>
        <time>2022-04-23T10:40:43.501Z</time>
      </trkpt>
      <trkpt lat="42.06537" lon="21.12149">
        <ele>430.277255</ele>
        <time>2022-04-23T10:40:45.509Z</time>
      </trkpt>
      <trkpt lat="42.06527" lon="21.12154">
        <ele>430.394379</ele>
        <time>2022-04-23T10:40:47.521Z</time>
      </trkpt>
      <trkpt lat="42.06518" lon="21.12158">
        <ele>430.505489</ele>
        <time>2022-04-23T10:40:49.514Z</time>
      </trkpt>
      <trkpt lat="42.06509" lon="21.12162">
        <ele>430.60884</ele>
        <time>2022-04-23T10:40:51.510Z</time>
      </trkpt>
      <trkpt lat="42.065" lon="21.12165">
        <ele>430.712399</ele>
        <time>2022-04-23T10:40:53.493Z</time>
      </trkpt>
      <trkpt lat="42.06487" lon="21.12169">
        <ele>430.857556</ele>
        <time>2022-04-23T10:40:56.495Z</time>
      </trkpt>
      <trkpt lat="42.06474" lon="21.12173">
        <ele>431.004497</ele>
        <time>2022-04-23T10:40:59.506Z</time>
      </trkpt>
      <trkpt lat="42.06462" lon="21.12175">
        <ele>431.141391</ele>
        <time>2022-04-23T10:41:02.500Z</time>
      </trkpt>
      <trkpt lat="42.06449" lon="21.12175">
        <ele>431.280413</ele>
        <time>2022-04-23T10:41:05.591Z</time>
      </trkpt>
      <trkpt lat="42.06439" lon="21.12172">
        <ele>431.387704</ele>
        <time>2022-04-23T10:41:07.520Z</time>
      </trkpt>
      <trkpt lat="42.0643" lon="21.1217">
        <ele>431.495428</ele>
        <time>2022-04-23T10:41:09.513Z</time>
      </trkpt>
      <trkpt lat="42.06421" lon="21.12168">
        <ele>431.598116</ele>
        <time>2022-04-23T10:41:11.539Z</time>
      </trkpt>
      <trkpt lat="42.06411" lon="21.12166">
        <ele>431.708686</ele>
        <time>2022-04-23T10:41:13.506Z</time>
      </trkpt>
      <trkpt lat="42.06401" lon="21.12165">
        <ele>431.814917</ele>
        <time>2022-04-23T10:41:15.490Z</time>
      </trkpt>
      <trkpt lat="42.0639" lon="21.12164">
        <ele>431.938582</ele>
        <time>2022-04-23T10:41:18.498Z</time>
      </trkpt>
      <trkpt lat="42.0638" lon="21.12165">
        <ele>432.125115</ele>
        <time>2022-04-23T10:41:21.502Z</time>
      </trkpt>
      <trkpt lat="42.0637" lon="21.12167">
        <ele>432.308899</ele>
        <time>2022-04-23T10:41:24.494Z</time>
      </trkpt>
      <trkpt lat="42.06361" lon="21.12169">
        <ele>432.500663</ele>
        <time>2022-04-23T10:41:27.536Z</time>
      </trkpt>
      <trkpt lat="42.06351" lon="21.12171">
        <ele>432.691473</ele>
        <time>2022-04-23T10:41:30.513Z</time>
      </trkpt>
      <trkpt lat="42.06342" lon="21.12172">
        <ele>432.88302</ele>
        <time>2022-04-23T10:41:33.502Z</time>
      </trkpt>
      <trkpt lat="42.06332" lon="21.1217">
        <ele>433.07283</ele>
        <time>2022-04-23T10:41:36.551Z</time>
      </trkpt>
      <trkpt lat="42.06322" lon="21.12161">
        <ele>433.312689</ele>
        <time>2022-04-23T10:41:40.521Z</time>
      </trkpt>
      <trkpt lat="42.06315" lon="21.12149">
        <ele>433.54735</ele>
        <time>2022-04-23T10:41:43.502Z</time>
      </trkpt>
      <trkpt lat="42.06309" lon="21.12136">
        <ele>433.775098</ele>
        <time>2022-04-23T10:41:46.497Z</time>
      </trkpt>
      <trkpt lat="42.06304" lon="21.12121">
        <ele>434.006907</ele>
        <time>2022-04-23T10:41:49.498Z</time>
      </trkpt>
      <trkpt lat="42.06298" lon="21.12107">
        <ele>434.24839</ele>
        <time>2022-04-23T10:41:52.516Z</time>
      </trkpt>
      <trkpt lat="42.06294" lon="21.12093">
        <ele>434.471028</ele>
        <time>2022-04-23T10:41:55.495Z</time>
      </trkpt>
      <trkpt lat="42.06291" lon="21.12078">
        <ele>434.692502</ele>
        <time>2022-04-23T10:41:58.525Z</time>
      </trkpt>
      <trkpt lat="42.06288" lon="21.12065">
        <ele>434.901572</ele>
        <time>2022-04-23T10:42:01.498Z</time>
      </trkpt>
      <trkpt lat="42.06286" lon="21.12051">
        <ele>435.107308</ele>
        <time>2022-04-23T10:42:04.536Z</time>
      </trkpt>
      <trkpt lat="42.06283" lon="21.12038">
        <ele>435.312122</ele>
        <time>2022-04-23T10:42:07.533Z</time>
      </trkpt>
      <trkpt lat="42.0628" lon="21.12024">
        <ele>435.518776</ele>
        <time>2022-04-23T10:42:10.539Z</time>
      </trkpt>
      <trkpt lat="42.06278" lon="21.1201">
        <ele>435.569916</ele>
        <time>2022-04-23T10:42:13.497Z</time>
      </trkpt>
      <trkpt lat="42.06275" lon="21.11995">
        <ele>435.607374</ele>
        <time>2022-04-23T10:42:16.537Z</time>
      </trkpt>
      <trkpt lat="42.06272" lon="21.11981">
        <ele>435.644193</ele>
        <time>2022-04-23T10:42:19.506Z</time>
      </trkpt>
      <trkpt lat="42.06269" lon="21.11967">
        <ele>435.680141</ele>
        <time>2022-04-23T10:42:22.501Z</time>
      </trkpt>
      <trkpt lat="42.06265" lon="21.11952">
        <ele>435.719633</ele>
        <time>2022-04-23T10:42:25.512Z</time>
      </trkpt>
      <trkpt lat="42.0626" lon="21.11938">
        <ele>435.758697</ele>
        <time>2022-04-23T10:42:28.511Z</time>
      </trkpt>
      <trkpt lat="42.06257" lon="21.11925">
        <ele>435.795025</ele>
        <time>2022-04-23T10:42:31.490Z</time>
      </trkpt>
      <trkpt lat="42.06251" lon="21.11912">
        <ele>435.833116</ele>
        <time>2022-04-23T10:42:34.538Z</time>
      </trkpt>
      <trkpt lat="42.06243" lon="21.11899">
        <ele>435.872523</ele>
        <time>2022-04-23T10:42:37.546Z</time>
      </trkpt>
      <trkpt lat="42.06236" lon="21.11887">
        <ele>435.911268</ele>
        <time>2022-04-23T10:42:40.497Z</time>
      </trkpt>
      <trkpt lat="42.06229" lon="21.11876">
        <ele>435.948306</ele>
        <time>2022-04-23T10:42:43.544Z</time>
      </trkpt>
      <trkpt lat="42.06221" lon="21.11863">
        <ele>435.989898</ele>
        <time>2022-04-23T10:42:46.514Z</time>
      </trkpt>
      <trkpt lat="42.06214" lon="21.11851">
        <ele>436.027647</ele>
        <time>2022-04-23T10:42:49.498Z</time>
      </trkpt>
      <trkpt lat="42.06207" lon="21.11841">
        <ele>436.063153</ele>
        <time>2022-04-23T10:42:52.520Z</time>
      </trkpt>
      <trkpt lat="42.06198" lon="21.11829">
        <ele>436.105161</ele>
        <time>2022-04-23T10:42:55.514Z</time>
      </trkpt>
      <trkpt lat="42.06188" lon="21.1182">
        <ele>436.119787</ele>
        <time>2022-04-23T10:42:58.481Z</time>
      </trkpt>
      <trkpt lat="42.06179" lon="21.11814">
        <ele>435.967795</ele>
        <time>2022-04-23T10:43:00.541Z</time>
      </trkpt>
      <trkpt lat="42.06169" lon="21.1181">
        <ele>435.812228</ele>
        <time>2022-04-23T10:43:02.500Z</time>
      </trkpt>
      <trkpt lat="42.06159" lon="21.11808">
        <ele>435.659207</ele>
        <time>2022-04-23T10:43:04.521Z</time>
      </trkpt>
      <trkpt lat="42.06149" lon="21.11805">
        <ele>435.501903</ele>
        <time>2022-04-23T10:43:06.505Z</time>
      </trkpt>
      <trkpt lat="42.06138" lon="21.11804">
        <ele>435.334244</ele>
        <time>2022-04-23T10:43:08.506Z</time>
      </trkpt>
      <trkpt lat="42.06126" lon="21.11803">
        <ele>435.156065</ele>
        <time>2022-04-23T10:43:10.504Z</time>
      </trkpt>
      <trkpt lat="42.06114" lon="21.11802">
        <ele>434.974382</ele>
        <time>2022-04-23T10:43:12.526Z</time>
      </trkpt>
      <trkpt lat="42.06103" lon="21.11799">
        <ele>434.798537</ele>
        <time>2022-04-23T10:43:14.523Z</time>
      </trkpt>
      <trkpt lat="42.06093" lon="21.11793">
        <ele>434.627789</ele>
        <time>2022-04-23T10:43:16.491Z</time>
      </trkpt>
      <trkpt lat="42.06082" lon="21.11786">
        <ele>434.45284</ele>
        <time>2022-04-23T10:43:18.513Z</time>
      </trkpt>
      <trkpt lat="42.06072" lon="21.11781">
        <ele>434.277827</ele>
        <time>2022-04-23T10:43:20.502Z</time>
      </trkpt>
      <trkpt lat="42.06062" lon="21.11776">
        <ele>434.119635</ele>
        <time>2022-04-23T10:43:22.506Z</time>
      </trkpt>
      <trkpt lat="42.06053" lon="21.11773">
        <ele>433.981159</ele>
        <time>2022-04-23T10:43:24.521Z</time>
      </trkpt>
      <trkpt lat="42.06041" lon="21.11768">
        <ele>433.797769</ele>
        <time>2022-04-23T10:43:27.540Z</time>
      </trkpt>
      <trkpt lat="42.06031" lon="21.11764">
        <ele>433.631694</ele>
        <time>2022-04-23T10:43:30.508Z</time>
      </trkpt>
      <trkpt lat="42.0602" lon="21.11762">
        <ele>433.465881</ele>
        <time>2022-04-23T10:43:33.528Z</time>
      </trkpt>
      <trkpt lat="42.06011" lon="21.11759">
        <ele>433.474549</ele>
        <time>2022-04-23T10:43:36.496Z</time>
      </trkpt>
      <trkpt lat="42.06" lon="21.11756">
        <ele>433.595146</ele>
        <time>2022-04-23T10:43:39.489Z</time>
      </trkpt>
      <trkpt lat="42.05988" lon="21.11754">
        <ele>433.726004</ele>
        <time>2022-04-23T10:43:42.506Z</time>
      </trkpt>
      <trkpt lat="42.05976" lon="21.11752">
        <ele>433.855876</ele>
        <time>2022-04-23T10:43:45.526Z</time>
      </trkpt>
      <trkpt lat="42.05965" lon="21.1175">
        <ele>433.983357</ele>
        <time>2022-04-23T10:43:48.513Z</time>
      </trkpt>
      <trkpt lat="42.05953" lon="21.11748">
        <ele>434.115208</ele>
        <time>2022-04-23T10:43:51.514Z</time>
      </trkpt>
      <trkpt lat="42.05941" lon="21.11748">
        <ele>434.247253</ele>
        <time>2022-04-23T10:43:54.505Z</time>
      </trkpt>
      <trkpt lat="42.0593" lon="21.11748">
        <ele>434.369385</ele>
        <time>2022-04-23T10:43:57.507Z</time>
      </trkpt>
      <trkpt lat="42.05919" lon="21.11747">
        <ele>434.489385</ele>
        <time>2022-04-23T10:44:00.505Z</time>
      </trkpt>
      <trkpt lat="42.05907" lon="21.11747">
        <ele>434.615942</ele>
        <time>2022-04-23T10:44:03.501Z</time>
      </trkpt>
      <trkpt lat="42.05896" lon="21.11746">
        <ele>434.743787</ele>
        <time>2022-04-23T10:44:06.512Z</time>
      </trkpt>
      <trkpt lat="42.05883" lon="21.11745">
        <ele>434.887013</ele>
        <time>2022-04-23T10:44:09.501Z</time>
      </trkpt>
      <trkpt lat="42.05871" lon="21.11745">
        <ele>435.014657</ele>
        <time>2022-04-23T10:44:12.501Z</time>
      </trkpt>
      <trkpt lat="42.05861" lon="21.11746">
        <ele>435.132526</ele>
        <time>2022-04-23T10:44:15.534Z</time>
      </trkpt>
      <trkpt lat="42.05848" lon="21.11748">
        <ele>435.274991</ele>
        <time>2022-04-23T10:44:18.491Z</time>
      </trkpt>
      <trkpt lat="42.05836" lon="21.11749">
        <ele>435.403559</ele>
        <time>2022-04-23T10:44:21.500Z</time>
      </trkpt>
      <trkpt lat="42.05822" lon="21.11751">
        <ele>435.514344</ele>
        <time>2022-04-23T10:44:24.504Z</time>
      </trkpt>
      <trkpt lat="42.05809" lon="21.11753">
        <ele>435.620812</ele>
        <time>2022-04-23T10:44:27.501Z</time>
      </trkpt>
      <trkpt lat="42.05797" lon="21.11755">
        <ele>435.726152</ele>
        <time>2022-04-23T10:44:30.530Z</time>
      </trkpt>
      <trkpt lat="42.05788" lon="21.11757">
        <ele>435.801514</ele>
        <time>2022-04-23T10:44:32.504Z</time>
      </trkpt>
      <trkpt lat="42.05779" lon="21.1176">
        <ele>435.876192</ele>
        <time>2022-04-23T10:44:34.497Z</time>
      </trkpt>
      <trkpt lat="42.05766" lon="21.11765">
        <ele>435.982958</ele>
        <time>2022-04-23T10:44:37.530Z</time>
      </trkpt>
      <trkpt lat="42.05754" lon="21.11769">
        <ele>436.087813</ele>
        <time>2022-04-23T10:44:40.500Z</time>
      </trkpt>
      <trkpt lat="42.05741" lon="21.11773">
        <ele>436.19484</ele>
        <time>2022-04-23T10:44:43.494Z</time>
      </trkpt>
      <trkpt lat="42.05729" lon="21.11777">
        <ele>436.294374</ele>
        <time>2022-04-23T10:44:46.516Z</time>
      </trkpt>
      <trkpt lat="42.05717" lon="21.1178">
        <ele>436.394671</ele>
        <time>2022-04-23T10:44:49.501Z</time>
      </trkpt>
      <trkpt lat="42.05706" lon="21.11782">
        <ele>436.490064</ele>
        <time>2022-04-23T10:44:52.494Z</time>
      </trkpt>
      <trkpt lat="42.05695" lon="21.11783">
        <ele>436.579166</ele>
        <time>2022-04-23T10:44:55.497Z</time>
      </trkpt>
      <trkpt lat="42.05686" lon="21.11783">
        <ele>436.658143</ele>
        <time>2022-04-23T10:44:58.507Z</time>
      </trkpt>
      <trkpt lat="42.05675" lon="21.11783">
        <ele>436.742913</ele>
        <time>2022-04-23T10:45:01.507Z</time>
      </trkpt>
      <trkpt lat="42.05663" lon="21.11783">
        <ele>436.845747</ele>
        <time>2022-04-23T10:45:04.505Z</time>
      </trkpt>
      <trkpt lat="42.05653" lon="21.11782">
        <ele>436.799971</ele>
        <time>2022-04-23T10:45:06.509Z</time>
      </trkpt>
      <trkpt lat="42.05641" lon="21.11779">
        <ele>436.673682</ele>
        <time>2022-04-23T10:45:09.512Z</time>
      </trkpt>
      <trkpt lat="42.05628" lon="21.11772">
        <ele>436.540156</ele>
        <time>2022-04-23T10:45:12.489Z</time>
      </trkpt>
      <trkpt lat="42.05618" lon="21.11768">
        <ele>436.438594</ele>
        <time>2022-04-23T10:45:14.495Z</time>
      </trkpt>
      <trkpt lat="42.05608" lon="21.11764">
        <ele>436.341839</ele>
        <time>2022-04-23T10:45:16.509Z</time>
      </trkpt>
      <trkpt lat="42.05599" lon="21.11759">
        <ele>436.246729</ele>
        <time>2022-04-23T10:45:18.521Z</time>
      </trkpt>
      <trkpt lat="42.0559" lon="21.11754">
        <ele>436.151519</ele>
        <time>2022-04-23T10:45:20.503Z</time>
      </trkpt>
      <trkpt lat="42.05578" lon="21.11749">
        <ele>436.028215</ele>
        <time>2022-04-23T10:45:23.496Z</time>
      </trkpt>
      <trkpt lat="42.05567" lon="21.11746">
        <ele>435.916039</ele>
        <time>2022-04-23T10:45:26.522Z</time>
      </trkpt>
      <trkpt lat="42.05555" lon="21.11742">
        <ele>435.798828</ele>
        <time>2022-04-23T10:45:29.494Z</time>
      </trkpt>
      <trkpt lat="42.05544" lon="21.11734">
        <ele>435.675657</ele>
        <time>2022-04-23T10:45:32.552Z</time>
      </trkpt>
      <trkpt lat="42.05533" lon="21.11724">
        <ele>435.550002</ele>
        <time>2022-04-23T10:45:35.525Z</time>
      </trkpt>
      <trkpt lat="42.05522" lon="21.11716">
        <ele>435.425112</ele>
        <time>2022-04-23T10:45:38.496Z</time>
      </trkpt>
      <trkpt lat="42.05513" lon="21.11712">
        <ele>435.335722</ele>
        <time>2022-04-23T10:45:40.510Z</time>
      </trkpt>
      <trkpt lat="42.05501" lon="21.11708">
        <ele>435.211669</ele>
        <time>2022-04-23T10:45:43.481Z</time>
      </trkpt>
      <trkpt lat="42.05489" lon="21.11705">
        <ele>435.120456</ele>
        <time>2022-04-23T10:45:46.516Z</time>
      </trkpt>
      <trkpt lat="42.05478" lon="21.11705">
        <ele>435.1438</ele>
        <time>2022-04-23T10:45:49.547Z</time>
      </trkpt>
      <trkpt lat="42.05467" lon="21.11705">
        <ele>435.165234</ele>
        <time>2022-04-23T10:45:52.483Z</time>
      </trkpt>
      <trkpt lat="42.05457" lon="21.11707">
        <ele>435.18697</ele>
        <time>2022-04-23T10:45:55.501Z</time>
      </trkpt>
      <trkpt lat="42.05447" lon="21.11709">
        <ele>435.209472</ele>
        <time>2022-04-23T10:45:58.503Z</time>
      </trkpt>
      <trkpt lat="42.05436" lon="21.11715">
        <ele>435.234263</ele>
        <time>2022-04-23T10:46:01.490Z</time>
      </trkpt>
      <trkpt lat="42.05425" lon="21.11722">
        <ele>435.260275</ele>
        <time>2022-04-23T10:46:04.485Z</time>
      </trkpt>
      <trkpt lat="42.05413" lon="21.11728">
        <ele>435.288173</ele>
        <time>2022-04-23T10:46:07.506Z</time>
      </trkpt>
      <trkpt lat="42.05402" lon="21.11734">
        <ele>435.312112</ele>
        <time>2022-04-23T10:46:10.505Z</time>
      </trkpt>
      <trkpt lat="42.05391" lon="21.11737">
        <ele>435.336659</ele>
        <time>2022-04-23T10:46:13.506Z</time>
      </trkpt>
      <trkpt lat="42.0538" lon="21.11741">
        <ele>435.359814</ele>
        <time>2022-04-23T10:46:16.496Z</time>
      </trkpt>
      <trkpt lat="42.05369" lon="21.11746">
        <ele>435.384164</ele>
        <time>2022-04-23T10:46:20.502Z</time>
      </trkpt>
      <trkpt lat="42.05358" lon="21.11749">
        <ele>435.40899</ele>
        <time>2022-04-23T10:46:24.506Z</time>
      </trkpt>
      <trkpt lat="42.05347" lon="21.11751">
        <ele>435.432846</ele>
        <time>2022-04-23T10:46:28.516Z</time>
      </trkpt>
      <trkpt lat="42.05335" lon="21.1175">
        <ele>435.458545</ele>
        <time>2022-04-23T10:46:32.506Z</time>
      </trkpt>
      <trkpt lat="42.05325" lon="21.11742">
        <ele>435.482219</ele>
        <time>2022-04-23T10:46:36.545Z</time>
      </trkpt>
      <trkpt lat="42.05318" lon="21.11732">
        <ele>435.485459</ele>
        <time>2022-04-23T10:46:39.497Z</time>
      </trkpt>
      <trkpt lat="42.05312" lon="21.11721">
        <ele>435.455647</ele>
        <time>2022-04-23T10:46:42.502Z</time>
      </trkpt>
      <trkpt lat="42.05308" lon="21.11707">
        <ele>435.422305</ele>
        <time>2022-04-23T10:46:45.555Z</time>
      </trkpt>
      <trkpt lat="42.05307" lon="21.11693">
        <ele>435.389479</ele>
        <time>2022-04-23T10:46:48.506Z</time>
      </trkpt>
      <trkpt lat="42.05306" lon="21.11679">
        <ele>435.358632</ele>
        <time>2022-04-23T10:46:51.513Z</time>
      </trkpt>
      <trkpt lat="42.05304" lon="21.11666">
        <ele>435.328594</ele>
        <time>2022-04-23T10:46:54.498Z</time>
      </trkpt>
      <trkpt lat="42.05299" lon="21.11651">
        <ele>435.292514</ele>
        <time>2022-04-23T10:46:58.511Z</time>
      </trkpt>
      <trkpt lat="42.05292" lon="21.11637">
        <ele>435.254673</ele>
        <time>2022-04-23T10:47:01.510Z</time>
      </trkpt>
      <trkpt lat="42.05284" lon="21.11628">
        <ele>435.223706</ele>
        <time>2022-04-23T10:47:03.493Z</time>
      </trkpt>
      <trkpt lat="42.05275" lon="21.1162">
        <ele>435.190688</ele>
        <time>2022-04-23T10:47:05.554Z</time>
      </trkpt>
      <trkpt lat="42.05264" lon="21.11614">
        <ele>435.15503</ele>
        <time>2022-04-23T10:47:07.515Z</time>
      </trkpt>
      <trkpt lat="42.05252" lon="21.11608">
        <ele>435.115141</ele>
        <time>2022-04-23T10:47:09.499Z</time>
      </trkpt>
      <trkpt lat="42.0524" lon="21.11604">
        <ele>435.079963</ele>
        <time>2022-04-23T10:47:11.497Z</time>
      </trkpt>
      <trkpt lat="42.0523" lon="21.11599">
        <ele>435.046398</ele>
        <time>2022-04-23T10:47:13.492Z</time>
      </trkpt>
      <trkpt lat="42.05219" lon="21.11595">
        <ele>435.011325</ele>
        <time>2022-04-23T10:47:15.498Z</time>
      </trkpt>
      <trkpt lat="42.05207" lon="21.11589">
        <ele>434.975469</ele>
        <time>2022-04-23T10:47:17.513Z</time>
      </trkpt>
      <trkpt lat="42.05196" lon="21.11582">
        <ele>435.121594</ele>
        <time>2022-04-23T10:47:19.509Z</time>
      </trkpt>
      <trkpt lat="42.05185" lon="21.11571">
        <ele>435.532303</ele>
        <time>2022-04-23T10:47:21.533Z</time>
      </trkpt>
      <trkpt lat="42.05176" lon="21.11558">
        <ele>435.923903</ele>
        <time>2022-04-23T10:47:23.507Z</time>
      </trkpt>
      <trkpt lat="42.0517" lon="21.11543">
        <ele>436.289352</ele>
        <time>2022-04-23T10:47:25.604Z</time>
      </trkpt>
      <trkpt lat="42.05166" lon="21.11528">
        <ele>436.653879</ele>
        <time>2022-04-23T10:47:27.497Z</time>
      </trkpt>
      <trkpt lat="42.05164" lon="21.11515">
        <ele>436.945575</ele>
        <time>2022-04-23T10:47:29.501Z</time>
      </trkpt>
      <trkpt lat="42.05161" lon="21.11502">
        <ele>437.232179</ele>
        <time>2022-04-23T10:47:31.540Z</time>
      </trkpt>
      <trkpt lat="42.05158" lon="21.11487">
        <ele>437.571979</ele>
        <time>2022-04-23T10:47:34.494Z</time>
      </trkpt>
      <trkpt lat="42.05156" lon="21.11475">
        <ele>437.841965</ele>
        <time>2022-04-23T10:47:37.514Z</time>
      </trkpt>
      <trkpt lat="42.05154" lon="21.11462">
        <ele>438.134248</ele>
        <time>2022-04-23T10:47:41.553Z</time>
      </trkpt>
      <trkpt lat="42.05152" lon="21.1145">
        <ele>438.428528</ele>
        <time>2022-04-23T10:47:45.498Z</time>
      </trkpt>
      <trkpt lat="42.05147" lon="21.11439">
        <ele>438.698117</ele>
        <time>2022-04-23T10:47:48.514Z</time>
      </trkpt>
      <trkpt lat="42.05142" lon="21.11429">
        <ele>438.970884</ele>
        <time>2022-04-23T10:47:51.507Z</time>
      </trkpt>
      <trkpt lat="42.05136" lon="21.11415">
        <ele>439.312357</ele>
        <time>2022-04-23T10:47:55.501Z</time>
      </trkpt>
      <trkpt lat="42.05131" lon="21.11403">
        <ele>439.622054</ele>
        <time>2022-04-23T10:47:59.510Z</time>
      </trkpt>
      <trkpt lat="42.05126" lon="21.11393">
        <ele>439.889777</ele>
        <time>2022-04-23T10:48:03.500Z</time>
      </trkpt>
      <trkpt lat="42.05121" lon="21.11382">
        <ele>440.179377</ele>
        <time>2022-04-23T10:48:07.491Z</time>
      </trkpt>
      <trkpt lat="42.05115" lon="21.11369">
        <ele>440.355897</ele>
        <time>2022-04-23T10:48:11.504Z</time>
      </trkpt>
      <trkpt lat="42.05109" lon="21.11359">
        <ele>440.445804</ele>
        <time>2022-04-23T10:48:14.514Z</time>
      </trkpt>
      <trkpt lat="42.05104" lon="21.11349">
        <ele>440.531153</ele>
        <time>2022-04-23T10:48:17.510Z</time>
      </trkpt>
      <trkpt lat="42.05097" lon="21.11337">
        <ele>440.636771</ele>
        <time>2022-04-23T10:48:21.532Z</time>
      </trkpt>
      <trkpt lat="42.0509" lon="21.11325">
        <ele>440.744016</ele>
        <time>2022-04-23T10:48:25.495Z</time>
      </trkpt>
      <trkpt lat="42.05083" lon="21.11313">
        <ele>440.847888</ele>
        <time>2022-04-23T10:48:29.501Z</time>
      </trkpt>
      <trkpt lat="42.05077" lon="21.11301">
        <ele>440.953152</ele>
        <time>2022-04-23T10:48:34.517Z</time>
      </trkpt>
      <trkpt lat="42.05071" lon="21.11289">
        <ele>441.04973</ele>
        <time>2022-04-23T10:48:37.509Z</time>
      </trkpt>
      <trkpt lat="42.05064" lon="21.11278">
        <ele>441.159585</ele>
        <time>2022-04-23T10:48:40.507Z</time>
      </trkpt>
      <trkpt lat="42.05058" lon="21.11267">
        <ele>441.251743</ele>
        <time>2022-04-23T10:48:43.518Z</time>
      </trkpt>
      <trkpt lat="42.05054" lon="21.11251">
        <ele>441.363902</ele>
        <time>2022-04-23T10:48:47.502Z</time>
      </trkpt>
      <trkpt lat="42.05052" lon="21.11239">
        <ele>441.451865</ele>
        <time>2022-04-23T10:48:50.502Z</time>
      </trkpt>
      <trkpt lat="42.05048" lon="21.11225">
        <ele>441.561152</ele>
        <time>2022-04-23T10:48:54.499Z</time>
      </trkpt>
      <trkpt lat="42.05044" lon="21.1121">
        <ele>441.672274</ele>
        <time>2022-04-23T10:48:58.491Z</time>
      </trkpt>
      <trkpt lat="42.05041" lon="21.11198">
        <ele>441.75957</ele>
        <time>2022-04-23T10:49:01.503Z</time>
      </trkpt>
      <trkpt lat="42.05038" lon="21.11186">
        <ele>441.847102</ele>
        <time>2022-04-23T10:49:04.486Z</time>
      </trkpt>
      <trkpt lat="42.05036" lon="21.11174">
        <ele>441.936956</ele>
        <time>2022-04-23T10:49:07.514Z</time>
      </trkpt>
      <trkpt lat="42.05031" lon="21.11161">
        <ele>441.946013</ele>
        <time>2022-04-23T10:49:10.518Z</time>
      </trkpt>
      <trkpt lat="42.05027" lon="21.11149">
        <ele>441.886419</ele>
        <time>2022-04-23T10:49:13.504Z</time>
      </trkpt>
      <trkpt lat="42.05023" lon="21.11138">
        <ele>441.829063</ele>
        <time>2022-04-23T10:49:16.509Z</time>
      </trkpt>
      <trkpt lat="42.05017" lon="21.11124">
        <ele>441.757205</ele>
        <time>2022-04-23T10:49:20.492Z</time>
      </trkpt>
      <trkpt lat="42.05011" lon="21.11113">
        <ele>441.693491</ele>
        <time>2022-04-23T10:49:23.508Z</time>
      </trkpt>
      <trkpt lat="42.05004" lon="21.11102">
        <ele>441.626345</ele>
        <time>2022-04-23T10:49:26.487Z</time>
      </trkpt>
      <trkpt lat="42.04998" lon="21.1109">
        <ele>441.557429</ele>
        <time>2022-04-23T10:49:29.513Z</time>
      </trkpt>
      <trkpt lat="42.04991" lon="21.11077">
        <ele>441.484813</ele>
        <time>2022-04-23T10:49:32.509Z</time>
      </trkpt>
      <trkpt lat="42.04984" lon="21.11065">
        <ele>441.412161</ele>
        <time>2022-04-23T10:49:35.512Z</time>
      </trkpt>
      <trkpt lat="42.04976" lon="21.11053">
        <ele>441.340846</ele>
        <time>2022-04-23T10:49:38.498Z</time>
      </trkpt>
      <trkpt lat="42.04968" lon="21.11042">
        <ele>441.267955</ele>
        <time>2022-04-23T10:49:41.552Z</time>
      </trkpt>
      <trkpt lat="42.04961" lon="21.11029">
        <ele>441.195663</ele>
        <time>2022-04-23T10:49:44.482Z</time>
      </trkpt>
      <trkpt lat="42.04953" lon="21.11017">
        <ele>441.120433</ele>
        <time>2022-04-23T10:49:47.515Z</time>
      </trkpt>
      <trkpt lat="42.04946" lon="21.11004">
        <ele>441.046642</ele>
        <time>2022-04-23T10:49:50.506Z</time>
      </trkpt>
      <trkpt lat="42.04939" lon="21.10991">
        <ele>440.969214</ele>
        <time>2022-04-23T10:49:53.513Z</time>
      </trkpt>
      <trkpt lat="42.04933" lon="21.1098">
        <ele>440.909941</ele>
        <time>2022-04-23T10:49:55.506Z</time>
      </trkpt>
      <trkpt lat="42.04926" lon="21.10967">
        <ele>440.848071</ele>
        <time>2022-04-23T10:49:58.515Z</time>
      </trkpt>
      <trkpt lat="42.04919" lon="21.10953">
        <ele>440.80342</ele>
        <time>2022-04-23T10:50:01.511Z</time>
      </trkpt>
      <trkpt lat="42.04911" lon="21.1094">
        <ele>440.76105</ele>
        <time>2022-04-23T10:50:04.488Z</time>
      </trkpt>
      <trkpt lat="42.04904" lon="21.10928">
        <ele>440.721132</ele>
        <time>2022-04-23T10:50:07.498Z</time>
      </trkpt>
      <trkpt lat="42.04897" lon="21.10916">
        <ele>440.681436</ele>
        <time>2022-04-23T10:50:10.551Z</time>
      </trkpt>
      <trkpt lat="42.04891" lon="21.10904">
        <ele>440.644664</ele>
        <time>2022-04-23T10:50:13.510Z</time>
      </trkpt>
      <trkpt lat="42.04884" lon="21.10893">
        <ele>440.606659</ele>
        <time>2022-04-23T10:50:16.513Z</time>
      </trkpt>
      <trkpt lat="42.04878" lon="21.1088">
        <ele>440.568408</ele>
        <time>2022-04-23T10:50:19.504Z</time>
      </trkpt>
      <trkpt lat="42.04872" lon="21.10868">
        <ele>440.529979</ele>
        <time>2022-04-23T10:50:22.507Z</time>
      </trkpt>
      <trkpt lat="42.04866" lon="21.10856">
        <ele>440.492327</ele>
        <time>2022-04-23T10:50:25.504Z</time>
      </trkpt>
      <trkpt lat="42.04859" lon="21.10844">
        <ele>440.452047</ele>
        <time>2022-04-23T10:50:28.501Z</time>
      </trkpt>
      <trkpt lat="42.04852" lon="21.10831">
        <ele>440.411731</ele>
        <time>2022-04-23T10:50:31.554Z</time>
      </trkpt>
      <trkpt lat="42.04845" lon="21.10818">
        <ele>440.369375</ele>
        <time>2022-04-23T10:50:34.535Z</time>
      </trkpt>
      <trkpt lat="42.04837" lon="21.10804">
        <ele>440.325147</ele>
        <time>2022-04-23T10:50:37.505Z</time>
      </trkpt>
      <trkpt lat="42.0483" lon="21.10791">
        <ele>440.282142</ele>
        <time>2022-04-23T10:50:40.502Z</time>
      </trkpt>
      <trkpt lat="42.04822" lon="21.10778">
        <ele>440.2408</ele>
        <time>2022-04-23T10:50:43.505Z</time>
      </trkpt>
      <trkpt lat="42.04815" lon="21.10765">
        <ele>440.56388</ele>
        <time>2022-04-23T10:50:46.499Z</time>
      </trkpt>
      <trkpt lat="42.04809" lon="21.10752">
        <ele>440.90662</ele>
        <time>2022-04-23T10:50:49.514Z</time>
      </trkpt>
      <trkpt lat="42.04803" lon="21.10738">
        <ele>441.242147</ele>
        <time>2022-04-23T10:50:52.508Z</time>
      </trkpt>
      <trkpt lat="42.04797" lon="21.10725">
        <ele>441.575199</ele>
        <time>2022-04-23T10:50:55.522Z</time>
      </trkpt>
      <trkpt lat="42.04792" lon="21.10709">
        <ele>441.945112</ele>
        <time>2022-04-23T10:50:58.498Z</time>
      </trkpt>
      <trkpt lat="42.04789" lon="21.10698">
        <ele>442.216214</ele>
        <time>2022-04-23T10:51:00.489Z</time>
      </trkpt>
      <trkpt lat="42.04784" lon="21.10686">
        <ele>442.50768</ele>
        <time>2022-04-23T10:51:02.509Z</time>
      </trkpt>
      <trkpt lat="42.0478" lon="21.10674">
        <ele>442.794654</ele>
        <time>2022-04-23T10:51:04.507Z</time>
      </trkpt>
      <trkpt lat="42.04776" lon="21.10662">
        <ele>443.072516</ele>
        <time>2022-04-23T10:51:06.513Z</time>
      </trkpt>
      <trkpt lat="42.04772" lon="21.1065">
        <ele>443.355617</ele>
        <time>2022-04-23T10:51:08.496Z</time>
      </trkpt>
      <trkpt lat="42.04767" lon="21.10639">
        <ele>443.624047</ele>
        <time>2022-04-23T10:51:10.523Z</time>
      </trkpt>
      <trkpt lat="42.0476" lon="21.1063">
        <ele>443.908997</ele>
        <time>2022-04-23T10:51:12.505Z</time>
      </trkpt>
      <trkpt lat="42.04753" lon="21.10621">
        <ele>444.184717</ele>
        <time>2022-04-23T10:51:14.530Z</time>
      </trkpt>
      <trkpt lat="42.04743" lon="21.1061">
        <ele>444.564731</ele>
        <time>2022-04-23T10:51:17.504Z</time>
      </trkpt>
      <trkpt lat="42.04735" lon="21.10603">
        <ele>444.834245</ele>
        <time>2022-04-23T10:51:19.496Z</time>
      </trkpt>
      <trkpt lat="42.04728" lon="21.10595">
        <ele>445.109141</ele>
        <time>2022-04-23T10:51:21.509Z</time>
      </trkpt>
      <trkpt lat="42.04719" lon="21.10581">
        <ele>445.460593</ele>
        <time>2022-04-23T10:51:24.504Z</time>
      </trkpt>
      <trkpt lat="42.04712" lon="21.10573">
        <ele>445.496435</ele>
        <time>2022-04-23T10:51:26.509Z</time>
      </trkpt>
      <trkpt lat="42.04705" lon="21.10564">
        <ele>445.533628</ele>
        <time>2022-04-23T10:51:28.494Z</time>
      </trkpt>
      <trkpt lat="42.04699" lon="21.10556">
        <ele>445.569675</ele>
        <time>2022-04-23T10:51:30.502Z</time>
      </trkpt>
      <trkpt lat="42.04689" lon="21.10544">
        <ele>445.621201</ele>
        <time>2022-04-23T10:51:33.511Z</time>
      </trkpt>
      <trkpt lat="42.0468" lon="21.10532">
        <ele>445.671939</ele>
        <time>2022-04-23T10:51:36.515Z</time>
      </trkpt>
      <trkpt lat="42.04671" lon="21.10521">
        <ele>445.72002</ele>
        <time>2022-04-23T10:51:39.497Z</time>
      </trkpt>
      <trkpt lat="42.04661" lon="21.10511">
        <ele>445.767901</ele>
        <time>2022-04-23T10:51:42.514Z</time>
      </trkpt>
      <trkpt lat="42.04652" lon="21.10501">
        <ele>445.815656</ele>
        <time>2022-04-23T10:51:45.501Z</time>
      </trkpt>
      <trkpt lat="42.04643" lon="21.10491">
        <ele>445.86257</ele>
        <time>2022-04-23T10:51:48.497Z</time>
      </trkpt>
      <trkpt lat="42.04633" lon="21.10481">
        <ele>445.911792</ele>
        <time>2022-04-23T10:51:51.497Z</time>
      </trkpt>
      <trkpt lat="42.04623" lon="21.10472">
        <ele>445.958147</ele>
        <time>2022-04-23T10:51:54.550Z</time>
      </trkpt>
      <trkpt lat="42.04614" lon="21.10463">
        <ele>446.002958</ele>
        <time>2022-04-23T10:51:57.499Z</time>
      </trkpt>
      <trkpt lat="42.04604" lon="21.10455">
        <ele>446.048141</ele>
        <time>2022-04-23T10:52:00.532Z</time>
      </trkpt>
      <trkpt lat="42.04594" lon="21.10447">
        <ele>446.0942</ele>
        <time>2022-04-23T10:52:03.509Z</time>
      </trkpt>
      <trkpt lat="42.04584" lon="21.10439">
        <ele>446.140703</ele>
        <time>2022-04-23T10:52:06.497Z</time>
      </trkpt>
      <trkpt lat="42.04574" lon="21.10431">
        <ele>446.184187</ele>
        <time>2022-04-23T10:52:09.518Z</time>
      </trkpt>
      <trkpt lat="42.04563" lon="21.10423">
        <ele>446.22667</ele>
        <time>2022-04-23T10:52:12.531Z</time>
      </trkpt>
      <trkpt lat="42.04553" lon="21.10415">
        <ele>446.266162</ele>
        <time>2022-04-23T10:52:15.511Z</time>
      </trkpt>
      <trkpt lat="42.04543" lon="21.10407">
        <ele>446.306413</ele>
        <time>2022-04-23T10:52:18.513Z</time>
      </trkpt>
      <trkpt lat="42.04532" lon="21.10399">
        <ele>446.34818</ele>
        <time>2022-04-23T10:52:21.494Z</time>
      </trkpt>
      <trkpt lat="42.04522" lon="21.10392">
        <ele>446.386004</ele>
        <time>2022-04-23T10:52:24.496Z</time>
      </trkpt>
      <trkpt lat="42.04511" lon="21.10385">
        <ele>446.426941</ele>
        <time>2022-04-23T10:52:27.515Z</time>
      </trkpt>
      <trkpt lat="42.04501" lon="21.10378">
        <ele>446.467268</ele>
        <time>2022-04-23T10:52:30.505Z</time>
      </trkpt>
      <trkpt lat="42.04489" lon="21.10371">
        <ele>446.512017</ele>
        <time>2022-04-23T10:52:33.505Z</time>
      </trkpt>
      <trkpt lat="42.04478" lon="21.10363">
        <ele>446.553484</ele>
        <time>2022-04-23T10:52:36.517Z</time>
      </trkpt>
      <trkpt lat="42.04468" lon="21.10356">
        <ele>446.590446</ele>
        <time>2022-04-23T10:52:39.490Z</time>
      </trkpt>
      <trkpt lat="42.04457" lon="21.10349">
        <ele>446.632941</ele>
        <time>2022-04-23T10:52:42.499Z</time>
      </trkpt>
      <trkpt lat="42.04446" lon="21.1034">
        <ele>446.675551</ele>
        <time>2022-04-23T10:52:45.500Z</time>
      </trkpt>
      <trkpt lat="42.04436" lon="21.10331">
        <ele>446.71836</ele>
        <time>2022-04-23T10:52:48.497Z</time>
      </trkpt>
      <trkpt lat="42.04428" lon="21.10324">
        <ele>446.750149</ele>
        <time>2022-04-23T10:52:50.526Z</time>
      </trkpt>
      <trkpt lat="42.0442" lon="21.10316">
        <ele>446.779851</ele>
        <time>2022-04-23T10:52:52.485Z</time>
      </trkpt>
      <trkpt lat="42.04412" lon="21.10307">
        <ele>446.78619</ele>
        <time>2022-04-23T10:52:54.518Z</time>
      </trkpt>
      <trkpt lat="42.04404" lon="21.10299">
        <ele>446.792112</ele>
        <time>2022-04-23T10:52:56.494Z</time>
      </trkpt>
      <trkpt lat="42.04396" lon="21.10291">
        <ele>446.798223</ele>
        <time>2022-04-23T10:52:58.506Z</time>
      </trkpt>
      <trkpt lat="42.04388" lon="21.10282">
        <ele>446.804667</ele>
        <time>2022-04-23T10:53:00.506Z</time>
      </trkpt>
      <trkpt lat="42.0438" lon="21.10273">
        <ele>446.811015</ele>
        <time>2022-04-23T10:53:02.538Z</time>
      </trkpt>
      <trkpt lat="42.04372" lon="21.10264">
        <ele>446.817259</ele>
        <time>2022-04-23T10:53:04.512Z</time>
      </trkpt>
      <trkpt lat="42.04364" lon="21.10256">
        <ele>446.823559</ele>
        <time>2022-04-23T10:53:06.504Z</time>
      </trkpt>
      <trkpt lat="42.04356" lon="21.10247">
        <ele>446.829795</ele>
        <time>2022-04-23T10:53:08.490Z</time>
      </trkpt>
      <trkpt lat="42.04349" lon="21.10238">
        <ele>446.835651</ele>
        <time>2022-04-23T10:53:10.506Z</time>
      </trkpt>
      <trkpt lat="42.04341" lon="21.10229">
        <ele>446.841923</ele>
        <time>2022-04-23T10:53:12.494Z</time>
      </trkpt>
      <trkpt lat="42.04333" lon="21.1022">
        <ele>446.848293</ele>
        <time>2022-04-23T10:53:14.579Z</time>
      </trkpt>
      <trkpt lat="42.04325" lon="21.10212">
        <ele>446.854557</ele>
        <time>2022-04-23T10:53:16.531Z</time>
      </trkpt>
      <trkpt lat="42.04317" lon="21.10203">
        <ele>446.860641</ele>
        <time>2022-04-23T10:53:18.516Z</time>
      </trkpt>
      <trkpt lat="42.04309" lon="21.10195">
        <ele>446.867153</ele>
        <time>2022-04-23T10:53:20.500Z</time>
      </trkpt>
      <trkpt lat="42.04301" lon="21.10186">
        <ele>446.873454</ele>
        <time>2022-04-23T10:53:22.507Z</time>
      </trkpt>
      <trkpt lat="42.04293" lon="21.10177">
        <ele>446.879718</ele>
        <time>2022-04-23T10:53:24.503Z</time>
      </trkpt>
      <trkpt lat="42.04285" lon="21.10169">
        <ele>446.885706</ele>
        <time>2022-04-23T10:53:26.508Z</time>
      </trkpt>
      <trkpt lat="42.04277" lon="21.10161">
        <ele>446.733376</ele>
        <time>2022-04-23T10:53:28.507Z</time>
      </trkpt>
      <trkpt lat="42.0427" lon="21.10152">
        <ele>446.474801</ele>
        <time>2022-04-23T10:53:30.512Z</time>
      </trkpt>
      <trkpt lat="42.04263" lon="21.10143">
        <ele>446.215424</ele>
        <time>2022-04-23T10:53:32.496Z</time>
      </trkpt>
      <trkpt lat="42.04256" lon="21.10134">
        <ele>445.937044</ele>
        <time>2022-04-23T10:53:34.497Z</time>
      </trkpt>
      <trkpt lat="42.04249" lon="21.10125">
        <ele>445.662263</ele>
        <time>2022-04-23T10:53:36.516Z</time>
      </trkpt>
      <trkpt lat="42.04242" lon="21.10115">
        <ele>445.386021</ele>
        <time>2022-04-23T10:53:38.489Z</time>
      </trkpt>
      <trkpt lat="42.04235" lon="21.10105">
        <ele>445.109425</ele>
        <time>2022-04-23T10:53:40.484Z</time>
      </trkpt>
      <trkpt lat="42.04229" lon="21.10096">
        <ele>444.859051</ele>
        <time>2022-04-23T10:53:42.585Z</time>
      </trkpt>
      <trkpt lat="42.04219" lon="21.10084">
        <ele>444.489963</ele>
        <time>2022-04-23T10:53:45.501Z</time>
      </trkpt>
      <trkpt lat="42.04211" lon="21.10076">
        <ele>444.213855</ele>
        <time>2022-04-23T10:53:47.505Z</time>
      </trkpt>
      <trkpt lat="42.04202" lon="21.10069">
        <ele>443.94666</ele>
        <time>2022-04-23T10:53:49.511Z</time>
      </trkpt>
      <trkpt lat="42.04194" lon="21.10063">
        <ele>443.674991</ele>
        <time>2022-04-23T10:53:51.495Z</time>
      </trkpt>
      <trkpt lat="42.04184" lon="21.10057">
        <ele>443.378879</ele>
        <time>2022-04-23T10:53:53.539Z</time>
      </trkpt>
      <trkpt lat="42.04174" lon="21.10052">
        <ele>443.096192</ele>
        <time>2022-04-23T10:53:55.504Z</time>
      </trkpt>
      <trkpt lat="42.04165" lon="21.10046">
        <ele>442.823528</ele>
        <time>2022-04-23T10:53:57.521Z</time>
      </trkpt>
      <trkpt lat="42.04156" lon="21.10041">
        <ele>442.547365</ele>
        <time>2022-04-23T10:53:59.509Z</time>
      </trkpt>
      <trkpt lat="42.04147" lon="21.10036">
        <ele>442.272306</ele>
        <time>2022-04-23T10:54:01.519Z</time>
      </trkpt>
      <trkpt lat="42.04137" lon="21.10032">
        <ele>442.004424</ele>
        <time>2022-04-23T10:54:03.499Z</time>
      </trkpt>
      <trkpt lat="42.04127" lon="21.1003">
        <ele>441.900632</ele>
        <time>2022-04-23T10:54:05.508Z</time>
      </trkpt>
      <trkpt lat="42.04117" lon="21.10027">
        <ele>441.845943</ele>
        <time>2022-04-23T10:54:07.486Z</time>
      </trkpt>
      <trkpt lat="42.04105" lon="21.10023">
        <ele>441.786468</ele>
        <time>2022-04-23T10:54:09.475Z</time>
      </trkpt>
      <trkpt lat="42.04094" lon="21.10018">
        <ele>441.725781</ele>
        <time>2022-04-23T10:54:11.473Z</time>
      </trkpt>
      <trkpt lat="42.04084" lon="21.10012">
        <ele>441.66999</ele>
        <time>2022-04-23T10:54:13.470Z</time>
      </trkpt>
      <trkpt lat="42.04074" lon="21.10005">
        <ele>441.614773</ele>
        <time>2022-04-23T10:54:15.532Z</time>
      </trkpt>
      <trkpt lat="42.04065" lon="21.09997">
        <ele>441.559487</ele>
        <time>2022-04-23T10:54:17.512Z</time>
      </trkpt>
      <trkpt lat="42.04056" lon="21.0999">
        <ele>441.506527</ele>
        <time>2022-04-23T10:54:19.517Z</time>
      </trkpt>
      <trkpt lat="42.04047" lon="21.09983">
        <ele>441.454336</ele>
        <time>2022-04-23T10:54:21.503Z</time>
      </trkpt>
      <trkpt lat="42.04039" lon="21.09976">
        <ele>441.402584</ele>
        <time>2022-04-23T10:54:23.499Z</time>
      </trkpt>
      <trkpt lat="42.0403" lon="21.09969">
        <ele>441.352627</ele>
        <time>2022-04-23T10:54:25.503Z</time>
      </trkpt>
      <trkpt lat="42.04023" lon="21.09961">
        <ele>441.304986</ele>
        <time>2022-04-23T10:54:27.514Z</time>
      </trkpt>
      <trkpt lat="42.04015" lon="21.09954">
        <ele>441.258809</ele>
        <time>2022-04-23T10:54:29.513Z</time>
      </trkpt>
      <trkpt lat="42.04007" lon="21.09948">
        <ele>441.212339</ele>
        <time>2022-04-23T10:54:31.504Z</time>
      </trkpt>
      <trkpt lat="42.03999" lon="21.09942">
        <ele>441.163741</ele>
        <time>2022-04-23T10:54:33.496Z</time>
      </trkpt>
      <trkpt lat="42.03991" lon="21.09935">
        <ele>441.11779</ele>
        <time>2022-04-23T10:54:35.501Z</time>
      </trkpt>
      <trkpt lat="42.03981" lon="21.09926">
        <ele>441.054524</ele>
        <time>2022-04-23T10:54:38.537Z</time>
      </trkpt>
      <trkpt lat="42.0397" lon="21.09916">
        <ele>441.030024</ele>
        <time>2022-04-23T10:54:41.505Z</time>
      </trkpt>
      <trkpt lat="42.0396" lon="21.09906">
        <ele>441.033572</ele>
        <time>2022-04-23T10:54:44.513Z</time>
      </trkpt>
      <trkpt lat="42.03952" lon="21.09899">
        <ele>441.036164</ele>
        <time>2022-04-23T10:54:46.502Z</time>
      </trkpt>
      <trkpt lat="42.03944" lon="21.09893">
        <ele>441.03883</ele>
        <time>2022-04-23T10:54:48.516Z</time>
      </trkpt>
      <trkpt lat="42.03935" lon="21.09886">
        <ele>441.041641</ele>
        <time>2022-04-23T10:54:50.500Z</time>
      </trkpt>
      <trkpt lat="42.03925" lon="21.09881">
        <ele>441.044599</ele>
        <time>2022-04-23T10:54:52.505Z</time>
      </trkpt>
      <trkpt lat="42.03914" lon="21.09876">
        <ele>441.047823</ele>
        <time>2022-04-23T10:54:54.504Z</time>
      </trkpt>
      <trkpt lat="42.03902" lon="21.09872">
        <ele>441.051219</ele>
        <time>2022-04-23T10:54:56.513Z</time>
      </trkpt>
      <trkpt lat="42.0389" lon="21.09869">
        <ele>441.054596</ele>
        <time>2022-04-23T10:54:58.485Z</time>
      </trkpt>
      <trkpt lat="42.03878" lon="21.09867">
        <ele>441.057968</ele>
        <time>2022-04-23T10:55:00.538Z</time>
      </trkpt>
      <trkpt lat="42.03866" lon="21.09865">
        <ele>441.06132</ele>
        <time>2022-04-23T10:55:02.498Z</time>
      </trkpt>
      <trkpt lat="42.03854" lon="21.09863">
        <ele>441.064645</ele>
        <time>2022-04-23T10:55:04.507Z</time>
      </trkpt>
      <trkpt lat="42.03842" lon="21.09862">
        <ele>441.0679</ele>
        <time>2022-04-23T10:55:06.492Z</time>
      </trkpt>
      <trkpt lat="42.03831" lon="21.09863">
        <ele>441.071207</ele>
        <time>2022-04-23T10:55:08.495Z</time>
      </trkpt>
      <trkpt lat="42.03821" lon="21.09864">
        <ele>441.073969</ele>
        <time>2022-04-23T10:55:10.503Z</time>
      </trkpt>
      <trkpt lat="42.03811" lon="21.09865">
        <ele>441.076735</ele>
        <time>2022-04-23T10:55:12.534Z</time>
      </trkpt>
      <trkpt lat="42.03801" lon="21.09869">
        <ele>441.001354</ele>
        <time>2022-04-23T10:55:14.493Z</time>
      </trkpt>
      <trkpt lat="42.03791" lon="21.09873">
        <ele>440.882039</ele>
        <time>2022-04-23T10:55:16.514Z</time>
      </trkpt>
      <trkpt lat="42.03782" lon="21.09877">
        <ele>440.769161</ele>
        <time>2022-04-23T10:55:18.534Z</time>
      </trkpt>
      <trkpt lat="42.03773" lon="21.0988">
        <ele>440.662248</ele>
        <time>2022-04-23T10:55:20.517Z</time>
      </trkpt>
      <trkpt lat="42.0376" lon="21.09883">
        <ele>440.513416</ele>
        <time>2022-04-23T10:55:23.496Z</time>
      </trkpt>
      <trkpt lat="42.03748" lon="21.09885">
        <ele>440.368655</ele>
        <time>2022-04-23T10:55:26.516Z</time>
      </trkpt>
      <trkpt lat="42.03735" lon="21.09887">
        <ele>440.220622</ele>
        <time>2022-04-23T10:55:29.510Z</time>
      </trkpt>
      <trkpt lat="42.03723" lon="21.09889">
        <ele>440.073544</ele>
        <time>2022-04-23T10:55:32.492Z</time>
      </trkpt>
      <trkpt lat="42.0371" lon="21.09891">
        <ele>439.918636</ele>
        <time>2022-04-23T10:55:35.516Z</time>
      </trkpt>
      <trkpt lat="42.03697" lon="21.09892">
        <ele>439.774813</ele>
        <time>2022-04-23T10:55:38.501Z</time>
      </trkpt>
      <trkpt lat="42.03687" lon="21.09893">
        <ele>439.648047</ele>
        <time>2022-04-23T10:55:41.519Z</time>
      </trkpt>
      <trkpt lat="42.03676" lon="21.09895">
        <ele>439.518329</ele>
        <time>2022-04-23T10:55:44.530Z</time>
      </trkpt>
      <trkpt lat="42.03662" lon="21.09897">
        <ele>439.360098</ele>
        <time>2022-04-23T10:55:47.506Z</time>
      </trkpt>
      <trkpt lat="42.03649" lon="21.09898">
        <ele>439.206732</ele>
        <time>2022-04-23T10:55:50.506Z</time>
      </trkpt>
      <trkpt lat="42.03639" lon="21.099">
        <ele>439.093893</ele>
        <time>2022-04-23T10:55:52.496Z</time>
      </trkpt>
      <trkpt lat="42.0363" lon="21.099">
        <ele>438.981793</ele>
        <time>2022-04-23T10:55:54.499Z</time>
      </trkpt>
      <trkpt lat="42.03621" lon="21.09898">
        <ele>439.062585</ele>
        <time>2022-04-23T10:55:56.517Z</time>
      </trkpt>
      <trkpt lat="42.03612" lon="21.09894">
        <ele>439.151872</ele>
        <time>2022-04-23T10:55:58.518Z</time>
      </trkpt>
      <trkpt lat="42.03603" lon="21.09888">
        <ele>439.244847</ele>
        <time>2022-04-23T10:56:00.500Z</time>
      </trkpt>
      <trkpt lat="42.03595" lon="21.09882">
        <ele>439.335486</ele>
        <time>2022-04-23T10:56:02.501Z</time>
      </trkpt>
      <trkpt lat="42.03584" lon="21.09874">
        <ele>439.451205</ele>
        <time>2022-04-23T10:56:05.515Z</time>
      </trkpt>
      <trkpt lat="42.03573" lon="21.09865">
        <ele>439.570551</ele>
        <time>2022-04-23T10:56:08.492Z</time>
      </trkpt>
      <trkpt lat="42.03565" lon="21.0986">
        <ele>439.656523</ele>
        <time>2022-04-23T10:56:10.517Z</time>
      </trkpt>
      <trkpt lat="42.03557" lon="21.09853">
        <ele>439.743498</ele>
        <time>2022-04-23T10:56:12.520Z</time>
      </trkpt>
      <trkpt lat="42.0355" lon="21.09847">
        <ele>439.832683</ele>
        <time>2022-04-23T10:56:14.493Z</time>
      </trkpt>
      <trkpt lat="42.03541" lon="21.0984">
        <ele>439.92591</ele>
        <time>2022-04-23T10:56:16.514Z</time>
      </trkpt>
      <trkpt lat="42.03533" lon="21.09833">
        <ele>440.017958</ele>
        <time>2022-04-23T10:56:18.508Z</time>
      </trkpt>
      <trkpt lat="42.03525" lon="21.09826">
        <ele>440.109507</ele>
        <time>2022-04-23T10:56:20.545Z</time>
      </trkpt>
      <trkpt lat="42.03516" lon="21.09819">
        <ele>440.206206</ele>
        <time>2022-04-23T10:56:22.512Z</time>
      </trkpt>
      <trkpt lat="42.03508" lon="21.09812">
        <ele>440.299891</ele>
        <time>2022-04-23T10:56:24.514Z</time>
      </trkpt>
      <trkpt lat="42.03495" lon="21.09805">
        <ele>440.427783</ele>
        <time>2022-04-23T10:56:27.513Z</time>
      </trkpt>
      <trkpt lat="42.03486" lon="21.09801">
        <ele>440.521084</ele>
        <time>2022-04-23T10:56:29.511Z</time>
      </trkpt>
      <trkpt lat="42.03477" lon="21.09797">
        <ele>440.611232</ele>
        <time>2022-04-23T10:56:31.545Z</time>
      </trkpt>
      <trkpt lat="42.03468" lon="21.09793">
        <ele>440.699606</ele>
        <time>2022-04-23T10:56:33.516Z</time>
      </trkpt>
      <trkpt lat="42.03457" lon="21.09791">
        <ele>440.765673</ele>
        <time>2022-04-23T10:56:35.504Z</time>
      </trkpt>
      <trkpt lat="42.03447" lon="21.09791">
        <ele>440.832828</ele>
        <time>2022-04-23T10:56:37.544Z</time>
      </trkpt>
      <trkpt lat="42.03436" lon="21.09792">
        <ele>440.899891</ele>
        <time>2022-04-23T10:56:39.512Z</time>
      </trkpt>
      <trkpt lat="42.03428" lon="21.09797">
        <ele>440.961569</ele>
        <time>2022-04-23T10:56:41.505Z</time>
      </trkpt>
      <trkpt lat="42.03419" lon="21.09804">
        <ele>441.024187</ele>
        <time>2022-04-23T10:56:43.511Z</time>
      </trkpt>
      <trkpt lat="42.0341" lon="21.0981">
        <ele>441.086277</ele>
        <time>2022-04-23T10:56:45.500Z</time>
      </trkpt>
      <trkpt lat="42.03401" lon="21.09814">
        <ele>441.149211</ele>
        <time>2022-04-23T10:56:47.501Z</time>
      </trkpt>
      <trkpt lat="42.03391" lon="21.09818">
        <ele>441.213344</ele>
        <time>2022-04-23T10:56:49.505Z</time>
      </trkpt>
      <trkpt lat="42.03382" lon="21.0982">
        <ele>441.276668</ele>
        <time>2022-04-23T10:56:51.502Z</time>
      </trkpt>
      <trkpt lat="42.03371" lon="21.09821">
        <ele>441.345874</ele>
        <time>2022-04-23T10:56:53.533Z</time>
      </trkpt>
      <trkpt lat="42.0336" lon="21.09821">
        <ele>441.413055</ele>
        <time>2022-04-23T10:56:55.513Z</time>
      </trkpt>
      <trkpt lat="42.0335" lon="21.09821">
        <ele>441.476374</ele>
        <time>2022-04-23T10:56:57.552Z</time>
      </trkpt>
      <trkpt lat="42.0334" lon="21.09822">
        <ele>441.540375</ele>
        <time>2022-04-23T10:56:59.538Z</time>
      </trkpt>
      <trkpt lat="42.03331" lon="21.09822">
        <ele>441.601164</ele>
        <time>2022-04-23T10:57:01.506Z</time>
      </trkpt>
      <trkpt lat="42.03322" lon="21.09822">
        <ele>441.661285</ele>
        <time>2022-04-23T10:57:03.506Z</time>
      </trkpt>
      <trkpt lat="42.03312" lon="21.09822">
        <ele>441.724667</ele>
        <time>2022-04-23T10:57:05.486Z</time>
      </trkpt>
      <trkpt lat="42.03302" lon="21.09821">
        <ele>441.78677</ele>
        <time>2022-04-23T10:57:07.520Z</time>
      </trkpt>
      <trkpt lat="42.03292" lon="21.0982">
        <ele>441.829834</ele>
        <time>2022-04-23T10:57:09.516Z</time>
      </trkpt>
      <trkpt lat="42.03282" lon="21.09818">
        <ele>441.766312</ele>
        <time>2022-04-23T10:57:11.502Z</time>
      </trkpt>
      <trkpt lat="42.03272" lon="21.09815">
        <ele>441.705706</ele>
        <time>2022-04-23T10:57:13.510Z</time>
      </trkpt>
      <trkpt lat="42.03263" lon="21.0981">
        <ele>441.643687</ele>
        <time>2022-04-23T10:57:15.544Z</time>
      </trkpt>
      <trkpt lat="42.03254" lon="21.09803">
        <ele>441.583615</ele>
        <time>2022-04-23T10:57:17.516Z</time>
      </trkpt>
      <trkpt lat="42.03246" lon="21.09796">
        <ele>441.523091</ele>
        <time>2022-04-23T10:57:19.541Z</time>
      </trkpt>
      <trkpt lat="42.03237" lon="21.09787">
        <ele>441.457056</ele>
        <time>2022-04-23T10:57:21.504Z</time>
      </trkpt>
      <trkpt lat="42.03229" lon="21.09777">
        <ele>441.390226</ele>
        <time>2022-04-23T10:57:23.500Z</time>
      </trkpt>
      <trkpt lat="42.03224" lon="21.09765">
        <ele>441.327533</ele>
        <time>2022-04-23T10:57:25.510Z</time>
      </trkpt>
      <trkpt lat="42.03221" lon="21.09753">
        <ele>441.269607</ele>
        <time>2022-04-23T10:57:27.498Z</time>
      </trkpt>
      <trkpt lat="42.03218" lon="21.0974">
        <ele>441.209809</ele>
        <time>2022-04-23T10:57:29.513Z</time>
      </trkpt>
      <trkpt lat="42.03217" lon="21.09728">
        <ele>441.15314</ele>
        <time>2022-04-23T10:57:31.524Z</time>
      </trkpt>
      <trkpt lat="42.03216" lon="21.0971">
        <ele>441.071411</ele>
        <time>2022-04-23T10:57:34.505Z</time>
      </trkpt>
      <trkpt lat="42.03216" lon="21.09698">
        <ele>441.017199</ele>
        <time>2022-04-23T10:57:36.555Z</time>
      </trkpt>
      <trkpt lat="42.03213" lon="21.0968">
        <ele>440.937428</ele>
        <time>2022-04-23T10:57:39.506Z</time>
      </trkpt>
      <trkpt lat="42.03212" lon="21.09668">
        <ele>440.87981</ele>
        <time>2022-04-23T10:57:41.504Z</time>
      </trkpt>
      <trkpt lat="42.0321" lon="21.09654">
        <ele>440.81997</ele>
        <time>2022-04-23T10:57:43.513Z</time>
      </trkpt>
      <trkpt lat="42.03208" lon="21.09642">
        <ele>440.760443</ele>
        <time>2022-04-23T10:57:45.501Z</time>
      </trkpt>
      <trkpt lat="42.03205" lon="21.09629">
        <ele>440.748006</ele>
        <time>2022-04-23T10:57:47.526Z</time>
      </trkpt>
      <trkpt lat="42.03202" lon="21.09617">
        <ele>440.748832</ele>
        <time>2022-04-23T10:57:49.513Z</time>
      </trkpt>
      <trkpt lat="42.03197" lon="21.09605">
        <ele>440.749694</ele>
        <time>2022-04-23T10:57:51.513Z</time>
      </trkpt>
      <trkpt lat="42.03193" lon="21.09593">
        <ele>440.750486</ele>
        <time>2022-04-23T10:57:53.553Z</time>
      </trkpt>
      <trkpt lat="42.03188" lon="21.09577">
        <ele>440.751599</ele>
        <time>2022-04-23T10:57:56.521Z</time>
      </trkpt>
      <trkpt lat="42.03183" lon="21.09566">
        <ele>440.75241</ele>
        <time>2022-04-23T10:57:58.502Z</time>
      </trkpt>
      <trkpt lat="42.03178" lon="21.09554">
        <ele>440.753273</ele>
        <time>2022-04-23T10:58:00.519Z</time>
      </trkpt>
      <trkpt lat="42.03172" lon="21.09541">
        <ele>440.754201</ele>
        <time>2022-04-23T10:58:02.502Z</time>
      </trkpt>
      <trkpt lat="42.03167" lon="21.09528">
        <ele>440.755124</ele>
        <time>2022-04-23T10:58:04.563Z</time>
      </trkpt>
      <trkpt lat="42.03162" lon="21.09515">
        <ele>440.756004</ele>
        <time>2022-04-23T10:58:06.525Z</time>
      </trkpt>
      <trkpt lat="42.03156" lon="21.09504">
        <ele>440.756891</ele>
        <time>2022-04-23T10:58:08.512Z</time>
      </trkpt>
      <trkpt lat="42.0315" lon="21.09493">
        <ele>440.757763</ele>
        <time>2022-04-23T10:58:10.524Z</time>
      </trkpt>
      <trkpt lat="42.03144" lon="21.09482">
        <ele>440.758581</ele>
        <time>2022-04-23T10:58:12.519Z</time>
      </trkpt>
      <trkpt lat="42.03136" lon="21.09468">
        <ele>440.75969</ele>
        <time>2022-04-23T10:58:15.548Z</time>
      </trkpt>
      <trkpt lat="42.03128" lon="21.09454">
        <ele>440.760822</ele>
        <time>2022-04-23T10:58:18.494Z</time>
      </trkpt>
      <trkpt lat="42.03124" lon="21.09443">
        <ele>440.761595</ele>
        <time>2022-04-23T10:58:20.509Z</time>
      </trkpt>
      <trkpt lat="42.0312" lon="21.09431">
        <ele>440.762393</ele>
        <time>2022-04-23T10:58:22.518Z</time>
      </trkpt>
      <trkpt lat="42.03116" lon="21.0942">
        <ele>440.714693</ele>
        <time>2022-04-23T10:58:24.588Z</time>
      </trkpt>
      <trkpt lat="42.03112" lon="21.09403">
        <ele>440.633639</ele>
        <time>2022-04-23T10:58:27.593Z</time>
      </trkpt>
      <trkpt lat="42.03108" lon="21.09388">
        <ele>440.55616</ele>
        <time>2022-04-23T10:58:30.510Z</time>
      </trkpt>
      <trkpt lat="42.03105" lon="21.09372">
        <ele>440.481048</ele>
        <time>2022-04-23T10:58:33.527Z</time>
      </trkpt>
      <trkpt lat="42.03101" lon="21.09355">
        <ele>440.39919</ele>
        <time>2022-04-23T10:58:36.504Z</time>
      </trkpt>
      <trkpt lat="42.03097" lon="21.09339">
        <ele>440.318289</ele>
        <time>2022-04-23T10:58:39.520Z</time>
      </trkpt>
      <trkpt lat="42.03094" lon="21.09327">
        <ele>440.261405</ele>
        <time>2022-04-23T10:58:41.500Z</time>
      </trkpt>
      <trkpt lat="42.03089" lon="21.09315">
        <ele>440.196239</ele>
        <time>2022-04-23T10:58:43.521Z</time>
      </trkpt>
      <trkpt lat="42.03086" lon="21.09301">
        <ele>440.129819</ele>
        <time>2022-04-23T10:58:45.510Z</time>
      </trkpt>
      <trkpt lat="42.03082" lon="21.09288">
        <ele>440.062083</ele>
        <time>2022-04-23T10:58:47.501Z</time>
      </trkpt>
      <trkpt lat="42.03078" lon="21.09274">
        <ele>439.992165</ele>
        <time>2022-04-23T10:58:49.513Z</time>
      </trkpt>
      <trkpt lat="42.03074" lon="21.0926">
        <ele>439.922086</ele>
        <time>2022-04-23T10:58:51.521Z</time>
      </trkpt>
      <trkpt lat="42.03068" lon="21.09248">
        <ele>439.858047</ele>
        <time>2022-04-23T10:58:53.581Z</time>
      </trkpt>
      <trkpt lat="42.03062" lon="21.09237">
        <ele>439.78914</ele>
        <time>2022-04-23T10:58:55.497Z</time>
      </trkpt>
      <trkpt lat="42.03051" lon="21.09231">
        <ele>439.719257</ele>
        <time>2022-04-23T10:58:57.512Z</time>
      </trkpt>
      <trkpt lat="42.0304" lon="21.09234">
        <ele>439.646981</ele>
        <time>2022-04-23T10:58:59.488Z</time>
      </trkpt>
      <trkpt lat="42.03031" lon="21.09241">
        <ele>439.488681</ele>
        <time>2022-04-23T10:59:01.571Z</time>
      </trkpt>
      <trkpt lat="42.03022" lon="21.09248">
        <ele>439.299843</ele>
        <time>2022-04-23T10:59:03.496Z</time>
      </trkpt>
      <trkpt lat="42.03012" lon="21.09255">
        <ele>439.105965</ele>
        <time>2022-04-23T10:59:05.518Z</time>
      </trkpt>
      <trkpt lat="42.03003" lon="21.09261">
        <ele>438.918296</ele>
        <time>2022-04-23T10:59:07.516Z</time>
      </trkpt>
      <trkpt lat="42.02993" lon="21.09265">
        <ele>438.729496</ele>
        <time>2022-04-23T10:59:09.500Z</time>
      </trkpt>
      <trkpt lat="42.02983" lon="21.09269">
        <ele>438.550391</ele>
        <time>2022-04-23T10:59:11.539Z</time>
      </trkpt>
      <trkpt lat="42.02972" lon="21.09273">
        <ele>438.349684</ele>
        <time>2022-04-23T10:59:13.524Z</time>
      </trkpt>
      <trkpt lat="42.02961" lon="21.09274">
        <ele>438.149391</ele>
        <time>2022-04-23T10:59:15.494Z</time>
      </trkpt>
      <trkpt lat="42.0295" lon="21.09275">
        <ele>437.965988</ele>
        <time>2022-04-23T10:59:17.503Z</time>
      </trkpt>
      <trkpt lat="42.02941" lon="21.09274">
        <ele>437.794757</ele>
        <time>2022-04-23T10:59:19.513Z</time>
      </trkpt>
      <trkpt lat="42.02932" lon="21.09273">
        <ele>437.630888</ele>
        <time>2022-04-23T10:59:21.505Z</time>
      </trkpt>
      <trkpt lat="42.02918" lon="21.09272">
        <ele>437.393177</ele>
        <time>2022-04-23T10:59:24.524Z</time>
      </trkpt>
      <trkpt lat="42.02909" lon="21.09271">
        <ele>437.229228</ele>
        <time>2022-04-23T10:59:26.572Z</time>
      </trkpt>
      <trkpt lat="42.02896" lon="21.09269">
        <ele>436.993652</ele>
        <time>2022-04-23T10:59:29.521Z</time>
      </trkpt>
      <trkpt lat="42.02883" lon="21.09267">
        <ele>436.753894</ele>
        <time>2022-04-23T10:59:32.502Z</time>
      </trkpt>
      <trkpt lat="42.02869" lon="21.09265">
        <ele>436.516046</ele>
        <time>2022-04-23T10:59:35.502Z</time>
      </trkpt>
      <trkpt lat="42.02856" lon="21.09261">
        <ele>436.587768</ele>
        <time>2022-04-23T10:59:38.500Z</time>
      </trkpt>
      <trkpt lat="42.02845" lon="21.09255">
        <ele>436.775173</ele>
        <time>2022-04-23T10:59:40.518Z</time>
      </trkpt>
      <trkpt lat="42.02834" lon="21.09248">
        <ele>436.97826</ele>
        <time>2022-04-23T10:59:42.527Z</time>
      </trkpt>
      <trkpt lat="42.02823" lon="21.0924">
        <ele>437.170287</ele>
        <time>2022-04-23T10:59:44.545Z</time>
      </trkpt>
      <trkpt lat="42.02813" lon="21.09234">
        <ele>437.347849</ele>
        <time>2022-04-23T10:59:46.537Z</time>
      </trkpt>
      <trkpt lat="42.02803" lon="21.09228">
        <ele>437.518049</ele>
        <time>2022-04-23T10:59:48.545Z</time>
      </trkpt>
      <trkpt lat="42.02794" lon="21.09222">
        <ele>437.687401</ele>
        <time>2022-04-23T10:59:50.542Z</time>
      </trkpt>
      <trkpt lat="42.02785" lon="21.09216">
        <ele>437.855311</ele>
        <time>2022-04-23T10:59:52.493Z</time>
      </trkpt>
      <trkpt lat="42.02775" lon="21.0921">
        <ele>438.021583</ele>
        <time>2022-04-23T10:59:54.559Z</time>
      </trkpt>
      <trkpt lat="42.02765" lon="21.09204">
        <ele>438.201649</ele>
        <time>2022-04-23T10:59:56.495Z</time>
      </trkpt>
      <trkpt lat="42.02755" lon="21.09198">
        <ele>438.377245</ele>
        <time>2022-04-23T10:59:58.511Z</time>
      </trkpt>
      <trkpt lat="42.02745" lon="21.09192">
        <ele>438.551859</ele>
        <time>2022-04-23T11:00:00.517Z</time>
      </trkpt>
      <trkpt lat="42.02735" lon="21.09187">
        <ele>438.729274</ele>
        <time>2022-04-23T11:00:02.534Z</time>
      </trkpt>
      <trkpt lat="42.02726" lon="21.09181">
        <ele>438.8931</ele>
        <time>2022-04-23T11:00:04.531Z</time>
      </trkpt>
      <trkpt lat="42.02717" lon="21.09176">
        <ele>439.039957</ele>
        <time>2022-04-23T11:00:06.507Z</time>
      </trkpt>
      <trkpt lat="42.02708" lon="21.0917">
        <ele>439.208255</ele>
        <time>2022-04-23T11:00:08.520Z</time>
      </trkpt>
      <trkpt lat="42.02699" lon="21.09162">
        <ele>439.350206</ele>
        <time>2022-04-23T11:00:10.535Z</time>
      </trkpt>
      <trkpt lat="42.02692" lon="21.09153">
        <ele>439.402721</ele>
        <time>2022-04-23T11:00:12.529Z</time>
      </trkpt>
      <trkpt lat="42.02686" lon="21.09142">
        <ele>439.453425</ele>
        <time>2022-04-23T11:00:14.543Z</time>
      </trkpt>
      <trkpt lat="42.02682" lon="21.0913">
        <ele>439.505162</ele>
        <time>2022-04-23T11:00:16.533Z</time>
      </trkpt>
      <trkpt lat="42.02679" lon="21.09118">
        <ele>439.553295</ele>
        <time>2022-04-23T11:00:18.517Z</time>
      </trkpt>
      <trkpt lat="42.02677" lon="21.09105">
        <ele>439.606071</ele>
        <time>2022-04-23T11:00:20.492Z</time>
      </trkpt>
      <trkpt lat="42.02676" lon="21.09091">
        <ele>439.660037</ele>
        <time>2022-04-23T11:00:22.510Z</time>
      </trkpt>
      <trkpt lat="42.02676" lon="21.09078">
        <ele>439.714201</ele>
        <time>2022-04-23T11:00:24.571Z</time>
      </trkpt>
      <trkpt lat="42.02677" lon="21.09063">
        <ele>439.771475</ele>
        <time>2022-04-23T11:00:26.574Z</time>
      </trkpt>
      <trkpt lat="42.02678" lon="21.09049">
        <ele>439.826514</ele>
        <time>2022-04-23T11:00:28.514Z</time>
      </trkpt>
      <trkpt lat="42.02679" lon="21.09036">
        <ele>439.876729</ele>
        <time>2022-04-23T11:00:30.547Z</time>
      </trkpt>
      <trkpt lat="42.02679" lon="21.09019">
        <ele>439.944502</ele>
        <time>2022-04-23T11:00:33.541Z</time>
      </trkpt>
      <trkpt lat="42.02681" lon="21.09003">
        <ele>440.006761</ele>
        <time>2022-04-23T11:00:36.509Z</time>
      </trkpt>
      <trkpt lat="42.0268" lon="21.08987">
        <ele>440.068399</ele>
        <time>2022-04-23T11:00:39.505Z</time>
      </trkpt>
      <trkpt lat="42.02678" lon="21.0897">
        <ele>440.133939</ele>
        <time>2022-04-23T11:00:42.523Z</time>
      </trkpt>
      <trkpt lat="42.02677" lon="21.08958">
        <ele>440.182223</ele>
        <time>2022-04-23T11:00:44.522Z</time>
      </trkpt>
      <trkpt lat="42.02675" lon="21.08946">
        <ele>440.230058</ele>
        <time>2022-04-23T11:00:46.519Z</time>
      </trkpt>
      <trkpt lat="42.02673" lon="21.08934">
        <ele>440.28108</ele>
        <time>2022-04-23T11:00:48.539Z</time>
      </trkpt>
      <trkpt lat="42.0267" lon="21.08921">
        <ele>440.419251</ele>
        <time>2022-04-23T11:00:50.517Z</time>
      </trkpt>
      <trkpt lat="42.02668" lon="21.08909">
        <ele>440.552619</ele>
        <time>2022-04-23T11:00:52.511Z</time>
      </trkpt>
      <trkpt lat="42.02666" lon="21.08897">
        <ele>440.685033</ele>
        <time>2022-04-23T11:00:54.545Z</time>
      </trkpt>
      <trkpt lat="42.02663" lon="21.08885">
        <ele>440.817713</ele>
        <time>2022-04-23T11:00:56.517Z</time>
      </trkpt>
      <trkpt lat="42.0266" lon="21.08872">
        <ele>440.959755</ele>
        <time>2022-04-23T11:00:58.502Z</time>
      </trkpt>
      <trkpt lat="42.02657" lon="21.08858">
        <ele>441.116989</ele>
        <time>2022-04-23T11:01:00.574Z</time>
      </trkpt>
      <trkpt lat="42.02654" lon="21.08846">
        <ele>441.257667</ele>
        <time>2022-04-23T11:01:02.518Z</time>
      </trkpt>
      <trkpt lat="42.02651" lon="21.08834">
        <ele>441.38876</ele>
        <time>2022-04-23T11:01:04.524Z</time>
      </trkpt>
      <trkpt lat="42.02647" lon="21.08818">
        <ele>441.567061</ele>
        <time>2022-04-23T11:01:07.549Z</time>
      </trkpt>
      <trkpt lat="42.02641" lon="21.08803">
        <ele>441.747887</ele>
        <time>2022-04-23T11:01:10.508Z</time>
      </trkpt>
      <trkpt lat="42.02637" lon="21.08792">
        <ele>441.883096</ele>
        <time>2022-04-23T11:01:12.555Z</time>
      </trkpt>
      <trkpt lat="42.02633" lon="21.0878">
        <ele>442.021488</ele>
        <time>2022-04-23T11:01:14.521Z</time>
      </trkpt>
      <trkpt lat="42.02628" lon="21.08764">
        <ele>442.20812</ele>
        <time>2022-04-23T11:01:17.516Z</time>
      </trkpt>
      <trkpt lat="42.02623" lon="21.08754">
        <ele>442.337049</ele>
        <time>2022-04-23T11:01:19.520Z</time>
      </trkpt>
      <trkpt lat="42.02619" lon="21.08742">
        <ele>442.468128</ele>
        <time>2022-04-23T11:01:21.539Z</time>
      </trkpt>
      <trkpt lat="42.02615" lon="21.08731">
        <ele>442.606219</ele>
        <time>2022-04-23T11:01:23.502Z</time>
      </trkpt>
      <trkpt lat="42.0261" lon="21.08719">
        <ele>442.747744</ele>
        <time>2022-04-23T11:01:25.501Z</time>
      </trkpt>
      <trkpt lat="42.02605" lon="21.08708">
        <ele>442.848788</ele>
        <time>2022-04-23T11:01:27.538Z</time>
      </trkpt>
      <trkpt lat="42.02601" lon="21.08696">
        <ele>442.779779</ele>
        <time>2022-04-23T11:01:29.508Z</time>
      </trkpt>
      <trkpt lat="42.02596" lon="21.08686">
        <ele>442.713057</ele>
        <time>2022-04-23T11:01:31.530Z</time>
      </trkpt>
      <trkpt lat="42.02589" lon="21.08672">
        <ele>442.619661</ele>
        <time>2022-04-23T11:01:34.545Z</time>
      </trkpt>
      <trkpt lat="42.02582" lon="21.08663">
        <ele>442.54959</ele>
        <time>2022-04-23T11:01:36.517Z</time>
      </trkpt>
      <trkpt lat="42.02577" lon="21.08653">
        <ele>442.48304</ele>
        <time>2022-04-23T11:01:38.511Z</time>
      </trkpt>
      <trkpt lat="42.02569" lon="21.08639">
        <ele>442.3848</ele>
        <time>2022-04-23T11:01:41.531Z</time>
      </trkpt>
      <trkpt lat="42.02562" lon="21.08623">
        <ele>442.280982</ele>
        <time>2022-04-23T11:01:44.506Z</time>
      </trkpt>
      <trkpt lat="42.02556" lon="21.0861">
        <ele>442.197567</ele>
        <time>2022-04-23T11:01:46.503Z</time>
      </trkpt>
      <trkpt lat="42.02551" lon="21.08597">
        <ele>442.119906</ele>
        <time>2022-04-23T11:01:48.533Z</time>
      </trkpt>
      <trkpt lat="42.02546" lon="21.08586">
        <ele>442.048921</ele>
        <time>2022-04-23T11:01:50.504Z</time>
      </trkpt>
      <trkpt lat="42.02542" lon="21.08574">
        <ele>441.976469</ele>
        <time>2022-04-23T11:01:52.517Z</time>
      </trkpt>
      <trkpt lat="42.02536" lon="21.08562">
        <ele>441.896916</ele>
        <time>2022-04-23T11:01:54.510Z</time>
      </trkpt>
      <trkpt lat="42.0253" lon="21.08551">
        <ele>441.821532</ele>
        <time>2022-04-23T11:01:56.539Z</time>
      </trkpt>
      <trkpt lat="42.02523" lon="21.08541">
        <ele>441.748265</ele>
        <time>2022-04-23T11:01:58.506Z</time>
      </trkpt>
      <trkpt lat="42.02517" lon="21.08531">
        <ele>441.67942</ele>
        <time>2022-04-23T11:02:00.529Z</time>
      </trkpt>
      <trkpt lat="42.02511" lon="21.08521">
        <ele>441.607562</ele>
        <time>2022-04-23T11:02:02.497Z</time>
      </trkpt>
      <trkpt lat="42.02507" lon="21.08511">
        <ele>441.540761</ele>
        <time>2022-04-23T11:02:04.523Z</time>
      </trkpt>
      <trkpt lat="42.025" lon="21.08495">
        <ele>441.460041</ele>
        <time>2022-04-23T11:02:07.517Z</time>
      </trkpt>
      <trkpt lat="42.02497" lon="21.08483">
        <ele>441.400955</ele>
        <time>2022-04-23T11:02:09.523Z</time>
      </trkpt>
      <trkpt lat="42.02494" lon="21.0847">
        <ele>441.339567</ele>
        <time>2022-04-23T11:02:11.513Z</time>
      </trkpt>
      <trkpt lat="42.02491" lon="21.08457">
        <ele>441.275171</ele>
        <time>2022-04-23T11:02:13.500Z</time>
      </trkpt>
      <trkpt lat="42.02487" lon="21.08443">
        <ele>441.207073</ele>
        <time>2022-04-23T11:02:15.537Z</time>
      </trkpt>
      <trkpt lat="42.02483" lon="21.08428">
        <ele>441.13488</ele>
        <time>2022-04-23T11:02:17.524Z</time>
      </trkpt>
      <trkpt lat="42.02475" lon="21.08414">
        <ele>441.057068</ele>
        <time>2022-04-23T11:02:19.506Z</time>
      </trkpt>
      <trkpt lat="42.02468" lon="21.08402">
        <ele>440.987532</ele>
        <time>2022-04-23T11:02:21.547Z</time>
      </trkpt>
      <trkpt lat="42.02461" lon="21.08393">
        <ele>440.926885</ele>
        <time>2022-04-23T11:02:23.514Z</time>
      </trkpt>
      <trkpt lat="42.02454" lon="21.08383">
        <ele>440.865117</ele>
        <time>2022-04-23T11:02:25.521Z</time>
      </trkpt>
      <trkpt lat="42.02449" lon="21.08372">
        <ele>440.804776</ele>
        <time>2022-04-23T11:02:27.525Z</time>
      </trkpt>
      <trkpt lat="42.02445" lon="21.0836">
        <ele>440.744858</ele>
        <time>2022-04-23T11:02:29.501Z</time>
      </trkpt>
      <trkpt lat="42.02438" lon="21.08344">
        <ele>440.663415</ele>
        <time>2022-04-23T11:02:32.511Z</time>
      </trkpt>
      <trkpt lat="42.02432" lon="21.08328">
        <ele>440.583266</ele>
        <time>2022-04-23T11:02:35.505Z</time>
      </trkpt>
      <trkpt lat="42.02426" lon="21.08314">
        <ele>440.506691</ele>
        <time>2022-04-23T11:02:38.495Z</time>
      </trkpt>
      <trkpt lat="42.02422" lon="21.08303">
        <ele>440.450468</ele>
        <time>2022-04-23T11:02:40.520Z</time>
      </trkpt>
      <trkpt lat="42.02416" lon="21.08291">
        <ele>440.431174</ele>
        <time>2022-04-23T11:02:42.576Z</time>
      </trkpt>
      <trkpt lat="42.02411" lon="21.08279">
        <ele>440.428184</ele>
        <time>2022-04-23T11:02:44.518Z</time>
      </trkpt>
      <trkpt lat="42.02406" lon="21.08267">
        <ele>440.425275</ele>
        <time>2022-04-23T11:02:46.501Z</time>
      </trkpt>
      <trkpt lat="42.02401" lon="21.08257">
        <ele>440.422535</ele>
        <time>2022-04-23T11:02:48.491Z</time>
      </trkpt>
      <trkpt lat="42.02395" lon="21.08242">
        <ele>440.418875</ele>
        <time>2022-04-23T11:02:51.496Z</time>
      </trkpt>
      <trkpt lat="42.02389" lon="21.08228">
        <ele>440.415431</ele>
        <time>2022-04-23T11:02:54.495Z</time>
      </trkpt>
      <trkpt lat="42.02383" lon="21.08214">
        <ele>440.411931</ele>
        <time>2022-04-23T11:02:57.535Z</time>
      </trkpt>
      <trkpt lat="42.02377" lon="21.082">
        <ele>440.408332</ele>
        <time>2022-04-23T11:03:00.493Z</time>
      </trkpt>
      <trkpt lat="42.02373" lon="21.08185">
        <ele>440.404932</ele>
        <time>2022-04-23T11:03:03.493Z</time>
      </trkpt>
      <trkpt lat="42.02369" lon="21.08171">
        <ele>440.401652</ele>
        <time>2022-04-23T11:03:06.514Z</time>
      </trkpt>
      <trkpt lat="42.02364" lon="21.08156">
        <ele>440.398282</ele>
        <time>2022-04-23T11:03:09.566Z</time>
      </trkpt>
      <trkpt lat="42.02361" lon="21.08142">
        <ele>440.395081</ele>
        <time>2022-04-23T11:03:12.501Z</time>
      </trkpt>
      <trkpt lat="42.02356" lon="21.08131">
        <ele>440.392243</ele>
        <time>2022-04-23T11:03:15.509Z</time>
      </trkpt>
      <trkpt lat="42.02351" lon="21.08118">
        <ele>440.389008</ele>
        <time>2022-04-23T11:03:19.587Z</time>
      </trkpt>
      <trkpt lat="42.0234" lon="21.08111">
        <ele>440.385577</ele>
        <time>2022-04-23T11:03:23.509Z</time>
      </trkpt>
      <trkpt lat="42.0233" lon="21.08117">
        <ele>440.382261</ele>
        <time>2022-04-23T11:03:26.499Z</time>
      </trkpt>
      <trkpt lat="42.0232" lon="21.08127">
        <ele>440.169758</ele>
        <time>2022-04-23T11:03:29.504Z</time>
      </trkpt>
      <trkpt lat="42.02312" lon="21.08133">
        <ele>439.887848</ele>
        <time>2022-04-23T11:03:31.600Z</time>
      </trkpt>
      <trkpt lat="42.02303" lon="21.08141">
        <ele>439.607942</ele>
        <time>2022-04-23T11:03:33.515Z</time>
      </trkpt>
      <trkpt lat="42.02294" lon="21.0815">
        <ele>439.294294</ele>
        <time>2022-04-23T11:03:35.533Z</time>
      </trkpt>
      <trkpt lat="42.02281" lon="21.08162">
        <ele>438.851306</ele>
        <time>2022-04-23T11:03:37.518Z</time>
      </trkpt>
      <trkpt lat="42.02267" lon="21.08173">
        <ele>438.403785</ele>
        <time>2022-04-23T11:03:39.498Z</time>
      </trkpt>
      <trkpt lat="42.02253" lon="21.08184">
        <ele>437.944293</ele>
        <time>2022-04-23T11:03:41.545Z</time>
      </trkpt>
      <trkpt lat="42.02242" lon="21.08196">
        <ele>437.544824</ele>
        <time>2022-04-23T11:03:43.500Z</time>
      </trkpt>
      <trkpt lat="42.0223" lon="21.08206">
        <ele>437.163127</ele>
        <time>2022-04-23T11:03:45.523Z</time>
      </trkpt>
      <trkpt lat="42.02219" lon="21.08217">
        <ele>436.775068</ele>
        <time>2022-04-23T11:03:47.537Z</time>
      </trkpt>
      <trkpt lat="42.02208" lon="21.08228">
        <ele>436.39644</ele>
        <time>2022-04-23T11:03:49.492Z</time>
      </trkpt>
      <trkpt lat="42.02197" lon="21.08238">
        <ele>436.029664</ele>
        <time>2022-04-23T11:03:51.508Z</time>
      </trkpt>
      <trkpt lat="42.02185" lon="21.08245">
        <ele>435.670927</ele>
        <time>2022-04-23T11:03:53.496Z</time>
      </trkpt>
      <trkpt lat="42.02173" lon="21.08247">
        <ele>435.385647</ele>
        <time>2022-04-23T11:03:55.509Z</time>
      </trkpt>
      <trkpt lat="42.02161" lon="21.08246">
        <ele>435.580011</ele>
        <time>2022-04-23T11:03:57.518Z</time>
      </trkpt>
      <trkpt lat="42.02149" lon="21.08244">
        <ele>435.781879</ele>
        <time>2022-04-23T11:03:59.502Z</time>
      </trkpt>
      <trkpt lat="42.02138" lon="21.08241">
        <ele>435.961966</ele>
        <time>2022-04-23T11:04:01.508Z</time>
      </trkpt>
      <trkpt lat="42.02129" lon="21.08237">
        <ele>436.114201</ele>
        <time>2022-04-23T11:04:03.509Z</time>
      </trkpt>
      <trkpt lat="42.02116" lon="21.0823">
        <ele>436.337718</ele>
        <time>2022-04-23T11:04:06.495Z</time>
      </trkpt>
      <trkpt lat="42.02106" lon="21.08222">
        <ele>436.532198</ele>
        <time>2022-04-23T11:04:09.526Z</time>
      </trkpt>
      <trkpt lat="42.02095" lon="21.08214">
        <ele>436.726078</ele>
        <time>2022-04-23T11:04:12.513Z</time>
      </trkpt>
      <trkpt lat="42.02086" lon="21.08205">
        <ele>436.912302</ele>
        <time>2022-04-23T11:04:15.505Z</time>
      </trkpt>
      <trkpt lat="42.02077" lon="21.08197">
        <ele>437.095806</ele>
        <time>2022-04-23T11:04:18.506Z</time>
      </trkpt>
      <trkpt lat="42.02066" lon="21.08187">
        <ele>437.299917</ele>
        <time>2022-04-23T11:04:21.502Z</time>
      </trkpt>
      <trkpt lat="42.02055" lon="21.08179">
        <ele>437.503636</ele>
        <time>2022-04-23T11:04:24.507Z</time>
      </trkpt>
      <trkpt lat="42.02045" lon="21.08171">
        <ele>437.696113</ele>
        <time>2022-04-23T11:04:27.507Z</time>
      </trkpt>
      <trkpt lat="42.02037" lon="21.08164">
        <ele>437.848342</ele>
        <time>2022-04-23T11:04:29.613Z</time>
      </trkpt>
      <trkpt lat="42.02028" lon="21.08159">
        <ele>437.998971</ele>
        <time>2022-04-23T11:04:31.498Z</time>
      </trkpt>
      <trkpt lat="42.02019" lon="21.08155">
        <ele>438.152379</ele>
        <time>2022-04-23T11:04:33.513Z</time>
      </trkpt>
      <trkpt lat="42.02009" lon="21.08151">
        <ele>438.267525</ele>
        <time>2022-04-23T11:04:35.487Z</time>
      </trkpt>
      <trkpt lat="42.01998" lon="21.08147">
        <ele>438.238137</ele>
        <time>2022-04-23T11:04:37.523Z</time>
      </trkpt>
      <trkpt lat="42.01989" lon="21.08145">
        <ele>438.210457</ele>
        <time>2022-04-23T11:04:39.497Z</time>
      </trkpt>
      <trkpt lat="42.01976" lon="21.08141">
        <ele>438.174511</ele>
        <time>2022-04-23T11:04:42.505Z</time>
      </trkpt>
      <trkpt lat="42.01963" lon="21.08135">
        <ele>438.137359</ele>
        <time>2022-04-23T11:04:45.492Z</time>
      </trkpt>
      <trkpt lat="42.01952" lon="21.08129">
        <ele>438.104177</ele>
        <time>2022-04-23T11:04:48.512Z</time>
      </trkpt>
      <trkpt lat="42.01942" lon="21.08121">
        <ele>438.071956</ele>
        <time>2022-04-23T11:04:51.510Z</time>
      </trkpt>
      <trkpt lat="42.01934" lon="21.08111">
        <ele>438.041358</ele>
        <time>2022-04-23T11:04:54.536Z</time>
      </trkpt>
      <trkpt lat="42.0193" lon="21.08095">
        <ele>438.007058</ele>
        <time>2022-04-23T11:04:57.535Z</time>
      </trkpt>
      <trkpt lat="42.01926" lon="21.08078">
        <ele>437.972027</ele>
        <time>2022-04-23T11:05:00.545Z</time>
      </trkpt>
      <trkpt lat="42.01923" lon="21.08063">
        <ele>437.938901</ele>
        <time>2022-04-23T11:05:03.513Z</time>
      </trkpt>
      <trkpt lat="42.0192" lon="21.08048">
        <ele>437.907664</ele>
        <time>2022-04-23T11:05:06.499Z</time>
      </trkpt>
      <trkpt lat="42.01914" lon="21.08032">
        <ele>437.872134</ele>
        <time>2022-04-23T11:05:09.509Z</time>
      </trkpt>
      <trkpt lat="42.0191" lon="21.08021">
        <ele>437.84663</ele>
        <time>2022-04-23T11:05:11.520Z</time>
      </trkpt>
      <trkpt lat="42.01906" lon="21.08009">
        <ele>437.818809</ele>
        <time>2022-04-23T11:05:13.506Z</time>
      </trkpt>
      <trkpt lat="42.01901" lon="21.07997">
        <ele>437.791713</ele>
        <time>2022-04-23T11:05:15.518Z</time>
      </trkpt>
      <trkpt lat="42.01895" lon="21.07981">
        <ele>437.787208</ele>
        <time>2022-04-23T11:05:18.500Z</time>
      </trkpt>
      <trkpt lat="42.01892" lon="21.0797">
        <ele>437.792828</ele>
        <time>2022-04-23T11:05:20.545Z</time>
      </trkpt>
      <trkpt lat="42.01889" lon="21.07958">
        <ele>437.798596</ele>
        <time>2022-04-23T11:05:22.513Z</time>
      </trkpt>
      <trkpt lat="42.01885" lon="21.07947">
        <ele>437.804144</ele>
        <time>2022-04-23T11:05:24.533Z</time>
      </trkpt>
      <trkpt lat="42.01879" lon="21.07932">
        <ele>437.81192</ele>
        <time>2022-04-23T11:05:27.510Z</time>
      </trkpt>
      <trkpt lat="42.01875" lon="21.07921">
        <ele>437.817522</ele>
        <time>2022-04-23T11:05:29.516Z</time>
      </trkpt>
      <trkpt lat="42.01871" lon="21.0791">
        <ele>437.823098</ele>
        <time>2022-04-23T11:05:31.505Z</time>
      </trkpt>
      <trkpt lat="42.01867" lon="21.07899">
        <ele>437.828653</ele>
        <time>2022-04-23T11:05:33.505Z</time>
      </trkpt>
      <trkpt lat="42.01861" lon="21.07885">
        <ele>437.835967</ele>
        <time>2022-04-23T11:05:36.496Z</time>
      </trkpt>
      <trkpt lat="42.01857" lon="21.07872">
        <ele>437.842623</ele>
        <time>2022-04-23T11:05:39.511Z</time>
      </trkpt>
      <trkpt lat="42.01851" lon="21.07857">
        <ele>437.850428</ele>
        <time>2022-04-23T11:05:42.516Z</time>
      </trkpt>
      <trkpt lat="42.01846" lon="21.07841">
        <ele>437.858267</ele>
        <time>2022-04-23T11:05:45.529Z</time>
      </trkpt>
      <trkpt lat="42.01843" lon="21.07829">
        <ele>437.864065</ele>
        <time>2022-04-23T11:05:47.518Z</time>
      </trkpt>
      <trkpt lat="42.0184" lon="21.07817">
        <ele>437.869941</ele>
        <time>2022-04-23T11:05:49.497Z</time>
      </trkpt>
      <trkpt lat="42.01837" lon="21.07805">
        <ele>437.875669</ele>
        <time>2022-04-23T11:05:51.509Z</time>
      </trkpt>
      <trkpt lat="42.01833" lon="21.07794">
        <ele>437.881245</ele>
        <time>2022-04-23T11:05:53.494Z</time>
      </trkpt>
      <trkpt lat="42.01829" lon="21.07783">
        <ele>437.886916</ele>
        <time>2022-04-23T11:05:55.482Z</time>
      </trkpt>
      <trkpt lat="42.01823" lon="21.07767">
        <ele>437.927277</ele>
        <time>2022-04-23T11:05:58.493Z</time>
      </trkpt>
      <trkpt lat="42.01818" lon="21.07752">
        <ele>438.016989</ele>
        <time>2022-04-23T11:06:01.507Z</time>
      </trkpt>
      <trkpt lat="42.01814" lon="21.07737">
        <ele>438.108401</ele>
        <time>2022-04-23T11:06:04.489Z</time>
      </trkpt>
      <trkpt lat="42.0181" lon="21.07726">
        <ele>438.17584</ele>
        <time>2022-04-23T11:06:06.484Z</time>
      </trkpt>
      <trkpt lat="42.01805" lon="21.07709">
        <ele>438.272591</ele>
        <time>2022-04-23T11:06:09.502Z</time>
      </trkpt>
      <trkpt lat="42.018" lon="21.07693">
        <ele>438.372815</ele>
        <time>2022-04-23T11:06:12.502Z</time>
      </trkpt>
      <trkpt lat="42.01795" lon="21.07682">
        <ele>438.440661</ele>
        <time>2022-04-23T11:06:14.517Z</time>
      </trkpt>
      <trkpt lat="42.01789" lon="21.07667">
        <ele>438.535441</ele>
        <time>2022-04-23T11:06:17.509Z</time>
      </trkpt>
      <trkpt lat="42.01785" lon="21.07653">
        <ele>438.618096</ele>
        <time>2022-04-23T11:06:20.506Z</time>
      </trkpt>
      <trkpt lat="42.01781" lon="21.07639">
        <ele>438.702411</ele>
        <time>2022-04-23T11:06:23.505Z</time>
      </trkpt>
      <trkpt lat="42.01776" lon="21.07625">
        <ele>438.787993</ele>
        <time>2022-04-23T11:06:26.524Z</time>
      </trkpt>
      <trkpt lat="42.01772" lon="21.07611">
        <ele>438.870517</ele>
        <time>2022-04-23T11:06:29.531Z</time>
      </trkpt>
      <trkpt lat="42.01767" lon="21.07597">
        <ele>438.957227</ele>
        <time>2022-04-23T11:06:32.514Z</time>
      </trkpt>
      <trkpt lat="42.01761" lon="21.07581">
        <ele>439.052508</ele>
        <time>2022-04-23T11:06:35.503Z</time>
      </trkpt>
      <trkpt lat="42.01757" lon="21.07566">
        <ele>439.144887</ele>
        <time>2022-04-23T11:06:38.501Z</time>
      </trkpt>
      <trkpt lat="42.01752" lon="21.07551">
        <ele>439.227597</ele>
        <time>2022-04-23T11:06:41.516Z</time>
      </trkpt>
      <trkpt lat="42.01748" lon="21.07535">
        <ele>439.215683</ele>
        <time>2022-04-23T11:06:44.519Z</time>
      </trkpt>
      <trkpt lat="42.01747" lon="21.07517">
        <ele>439.203291</ele>
        <time>2022-04-23T11:06:47.524Z</time>
      </trkpt>
      <trkpt lat="42.01749" lon="21.07505">
        <ele>439.194413</ele>
        <time>2022-04-23T11:06:49.553Z</time>
      </trkpt>
      <trkpt lat="42.01751" lon="21.07491">
        <ele>439.184859</ele>
        <time>2022-04-23T11:06:51.507Z</time>
      </trkpt>
      <trkpt lat="42.01754" lon="21.07478">
        <ele>439.175577</ele>
        <time>2022-04-23T11:06:53.510Z</time>
      </trkpt>
      <trkpt lat="42.01756" lon="21.07466">
        <ele>439.166296</ele>
        <time>2022-04-23T11:06:55.535Z</time>
      </trkpt>
      <trkpt lat="42.01759" lon="21.07454">
        <ele>439.157388</ele>
        <time>2022-04-23T11:06:57.558Z</time>
      </trkpt>
      <trkpt lat="42.01762" lon="21.07437">
        <ele>439.145563</ele>
        <time>2022-04-23T11:07:00.515Z</time>
      </trkpt>
      <trkpt lat="42.01763" lon="21.07422">
        <ele>439.135188</ele>
        <time>2022-04-23T11:07:03.555Z</time>
      </trkpt>
      <trkpt lat="42.01764" lon="21.07407">
        <ele>439.124467</ele>
        <time>2022-04-23T11:07:06.502Z</time>
      </trkpt>
      <trkpt lat="42.01767" lon="21.07391">
        <ele>439.112844</ele>
        <time>2022-04-23T11:07:09.504Z</time>
      </trkpt>
      <trkpt lat="42.0177" lon="21.07375">
        <ele>439.102009</ele>
        <time>2022-04-23T11:07:12.515Z</time>
      </trkpt>
      <trkpt lat="42.01772" lon="21.0736">
        <ele>439.090988</ele>
        <time>2022-04-23T11:07:15.495Z</time>
      </trkpt>
      <trkpt lat="42.01773" lon="21.07348">
        <ele>439.082556</ele>
        <time>2022-04-23T11:07:17.489Z</time>
      </trkpt>
      <trkpt lat="42.01772" lon="21.07334">
        <ele>439.073189</ele>
        <time>2022-04-23T11:07:19.505Z</time>
      </trkpt>
      <trkpt lat="42.01769" lon="21.07322">
        <ele>439.06411</ele>
        <time>2022-04-23T11:07:21.523Z</time>
      </trkpt>
      <trkpt lat="42.01765" lon="21.07311">
        <ele>439.058605</ele>
        <time>2022-04-23T11:07:23.521Z</time>
      </trkpt>
      <trkpt lat="42.01758" lon="21.07295">
        <ele>439.055898</ele>
        <time>2022-04-23T11:07:26.509Z</time>
      </trkpt>
      <trkpt lat="42.01752" lon="21.07287">
        <ele>439.054055</ele>
        <time>2022-04-23T11:07:28.499Z</time>
      </trkpt>
      <trkpt lat="42.01741" lon="21.07277">
        <ele>439.051356</ele>
        <time>2022-04-23T11:07:31.545Z</time>
      </trkpt>
      <trkpt lat="42.0173" lon="21.07268">
        <ele>439.048715</ele>
        <time>2022-04-23T11:07:34.509Z</time>
      </trkpt>
      <trkpt lat="42.0172" lon="21.07259">
        <ele>439.046293</ele>
        <time>2022-04-23T11:07:37.554Z</time>
      </trkpt>
      <trkpt lat="42.0171" lon="21.07251">
        <ele>439.043983</ele>
        <time>2022-04-23T11:07:40.502Z</time>
      </trkpt>
      <trkpt lat="42.01701" lon="21.07241">
        <ele>439.041579</ele>
        <time>2022-04-23T11:07:43.555Z</time>
      </trkpt>
      <trkpt lat="42.01691" lon="21.0723">
        <ele>439.039018</ele>
        <time>2022-04-23T11:07:46.519Z</time>
      </trkpt>
      <trkpt lat="42.01683" lon="21.07222">
        <ele>439.036881</ele>
        <time>2022-04-23T11:07:49.537Z</time>
      </trkpt>
      <trkpt lat="42.01673" lon="21.07212">
        <ele>439.034409</ele>
        <time>2022-04-23T11:07:52.514Z</time>
      </trkpt>
      <trkpt lat="42.01666" lon="21.07203">
        <ele>439.03245</ele>
        <time>2022-04-23T11:07:54.493Z</time>
      </trkpt>
      <trkpt lat="42.01659" lon="21.07195">
        <ele>439.030563</ele>
        <time>2022-04-23T11:07:56.540Z</time>
      </trkpt>
      <trkpt lat="42.01649" lon="21.07182">
        <ele>439.027694</ele>
        <time>2022-04-23T11:07:59.503Z</time>
      </trkpt>
      <trkpt lat="42.01645" lon="21.0717">
        <ele>439.025733</ele>
        <time>2022-04-23T11:08:01.509Z</time>
      </trkpt>
      <trkpt lat="42.01647" lon="21.07157">
        <ele>439.023742</ele>
        <time>2022-04-23T11:08:03.511Z</time>
      </trkpt>
      <trkpt lat="42.0165" lon="21.07146">
        <ele>439.083677</ele>
        <time>2022-04-23T11:08:05.500Z</time>
      </trkpt>
      <trkpt lat="42.01654" lon="21.0713">
        <ele>439.256388</ele>
        <time>2022-04-23T11:08:08.493Z</time>
      </trkpt>
      <trkpt lat="42.01659" lon="21.07113">
        <ele>439.439158</ele>
        <time>2022-04-23T11:08:11.522Z</time>
      </trkpt>
      <trkpt lat="42.01662" lon="21.07097">
        <ele>439.613219</ele>
        <time>2022-04-23T11:08:14.496Z</time>
      </trkpt>
      <trkpt lat="42.0166" lon="21.07081">
        <ele>439.776174</ele>
        <time>2022-04-23T11:08:17.501Z</time>
      </trkpt>
      <trkpt lat="42.01653" lon="21.07067">
        <ele>439.950035</ele>
        <time>2022-04-23T11:08:20.545Z</time>
      </trkpt>
      <trkpt lat="42.01645" lon="21.07055">
        <ele>440.1079</ele>
        <time>2022-04-23T11:08:23.518Z</time>
      </trkpt>
      <trkpt lat="42.01639" lon="21.07042">
        <ele>440.264722</ele>
        <time>2022-04-23T11:08:26.508Z</time>
      </trkpt>
      <trkpt lat="42.01632" lon="21.07029">
        <ele>440.435152</ele>
        <time>2022-04-23T11:08:29.505Z</time>
      </trkpt>
      <trkpt lat="42.01625" lon="21.07019">
        <ele>440.567728</ele>
        <time>2022-04-23T11:08:31.509Z</time>
      </trkpt>
      <trkpt lat="42.01618" lon="21.0701">
        <ele>440.703389</ele>
        <time>2022-04-23T11:08:33.534Z</time>
      </trkpt>
      <trkpt lat="42.01611" lon="21.07001">
        <ele>440.840463</ele>
        <time>2022-04-23T11:08:35.505Z</time>
      </trkpt>
      <trkpt lat="42.01605" lon="21.06991">
        <ele>440.970299</ele>
        <time>2022-04-23T11:08:37.522Z</time>
      </trkpt>
      <trkpt lat="42.016" lon="21.06977">
        <ele>441.123984</ele>
        <time>2022-04-23T11:08:40.490Z</time>
      </trkpt>
      <trkpt lat="42.01595" lon="21.06963">
        <ele>441.284974</ele>
        <time>2022-04-23T11:08:43.522Z</time>
      </trkpt>
      <trkpt lat="42.0159" lon="21.0695">
        <ele>441.430108</ele>
        <time>2022-04-23T11:08:46.484Z</time>
      </trkpt>
      <trkpt lat="42.01584" lon="21.06937">
        <ele>441.620155</ele>
        <time>2022-04-23T11:08:49.521Z</time>
      </trkpt>
      <trkpt lat="42.01578" lon="21.06927">
        <ele>441.775031</ele>
        <time>2022-04-23T11:08:51.515Z</time>
      </trkpt>
      <trkpt lat="42.01572" lon="21.06917">
        <ele>441.937272</ele>
        <time>2022-04-23T11:08:53.505Z</time>
      </trkpt>
      <trkpt lat="42.01565" lon="21.06903">
        <ele>442.148122</ele>
        <time>2022-04-23T11:08:56.539Z</time>
      </trkpt>
      <trkpt lat="42.01559" lon="21.06888">
        <ele>442.351492</ele>
        <time>2022-04-23T11:08:59.492Z</time>
      </trkpt>
      <trkpt lat="42.01554" lon="21.06873">
        <ele>442.559076</ele>
        <time>2022-04-23T11:09:02.545Z</time>
      </trkpt>
      <trkpt lat="42.01548" lon="21.0686">
        <ele>442.753176</ele>
        <time>2022-04-23T11:09:05.491Z</time>
      </trkpt>
      <trkpt lat="42.0154" lon="21.06847">
        <ele>442.95775</ele>
        <time>2022-04-23T11:09:08.483Z</time>
      </trkpt>
      <trkpt lat="42.01533" lon="21.0684">
        <ele>443.116363</ele>
        <time>2022-04-23T11:09:10.489Z</time>
      </trkpt>
      <trkpt lat="42.01525" lon="21.06832">
        <ele>443.274856</ele>
        <time>2022-04-23T11:09:12.509Z</time>
      </trkpt>
      <trkpt lat="42.01518" lon="21.06819">
        <ele>443.481015</ele>
        <time>2022-04-23T11:09:15.511Z</time>
      </trkpt>
      <trkpt lat="42.0151" lon="21.06808">
        <ele>443.665927</ele>
        <time>2022-04-23T11:09:18.537Z</time>
      </trkpt>
      <trkpt lat="42.01502" lon="21.06797">
        <ele>443.853131</ele>
        <time>2022-04-23T11:09:21.514Z</time>
      </trkpt>
      <trkpt lat="42.01493" lon="21.06785">
        <ele>444.072168</ele>
        <time>2022-04-23T11:09:24.504Z</time>
      </trkpt>
      <trkpt lat="42.01482" lon="21.06775">
        <ele>444.289021</ele>
        <time>2022-04-23T11:09:27.514Z</time>
      </trkpt>
      <trkpt lat="42.01474" lon="21.06764">
        <ele>444.481221</ele>
        <time>2022-04-23T11:09:30.506Z</time>
      </trkpt>
      <trkpt lat="42.01471" lon="21.06751">
        <ele>444.49781</ele>
        <time>2022-04-23T11:09:33.503Z</time>
      </trkpt>
      <trkpt lat="42.0147" lon="21.06738">
        <ele>444.487726</ele>
        <time>2022-04-23T11:09:36.567Z</time>
      </trkpt>
      <trkpt lat="42.01468" lon="21.06726">
        <ele>444.477851</ele>
        <time>2022-04-23T11:09:39.509Z</time>
      </trkpt>
      <trkpt lat="42.01467" lon="21.06713">
        <ele>444.467086</ele>
        <time>2022-04-23T11:09:42.491Z</time>
      </trkpt>
      <trkpt lat="42.01464" lon="21.06699">
        <ele>444.456358</ele>
        <time>2022-04-23T11:09:45.495Z</time>
      </trkpt>
      <trkpt lat="42.01463" lon="21.06685">
        <ele>444.44478</ele>
        <time>2022-04-23T11:09:48.504Z</time>
      </trkpt>
      <trkpt lat="42.01461" lon="21.06669">
        <ele>444.432334</ele>
        <time>2022-04-23T11:09:51.520Z</time>
      </trkpt>
      <trkpt lat="42.0146" lon="21.06654">
        <ele>444.420192</ele>
        <time>2022-04-23T11:09:54.497Z</time>
      </trkpt>
      <trkpt lat="42.01459" lon="21.06639">
        <ele>444.408711</ele>
        <time>2022-04-23T11:09:57.583Z</time>
      </trkpt>
      <trkpt lat="42.01456" lon="21.06624">
        <ele>444.39638</ele>
        <time>2022-04-23T11:10:00.503Z</time>
      </trkpt>
      <trkpt lat="42.01451" lon="21.06609">
        <ele>444.383219</ele>
        <time>2022-04-23T11:10:03.517Z</time>
      </trkpt>
      <trkpt lat="42.01446" lon="21.06598">
        <ele>444.373243</ele>
        <time>2022-04-23T11:10:05.523Z</time>
      </trkpt>
      <trkpt lat="42.01437" lon="21.06586">
        <ele>444.359741</ele>
        <time>2022-04-23T11:10:08.568Z</time>
      </trkpt>
      <trkpt lat="42.01427" lon="21.06578">
        <ele>444.347913</ele>
        <time>2022-04-23T11:10:11.518Z</time>
      </trkpt>
      <trkpt lat="42.01416" lon="21.06572">
        <ele>444.334714</ele>
        <time>2022-04-23T11:10:14.553Z</time>
      </trkpt>
      <trkpt lat="42.01407" lon="21.06569">
        <ele>444.325054</ele>
        <time>2022-04-23T11:10:16.496Z</time>
      </trkpt>
      <trkpt lat="42.01395" lon="21.06564">
        <ele>444.307616</ele>
        <time>2022-04-23T11:10:19.509Z</time>
      </trkpt>
      <trkpt lat="42.01384" lon="21.06556">
        <ele>444.283185</ele>
        <time>2022-04-23T11:10:22.502Z</time>
      </trkpt>
      <trkpt lat="42.01376" lon="21.0655">
        <ele>444.264817</ele>
        <time>2022-04-23T11:10:24.497Z</time>
      </trkpt>
      <trkpt lat="42.01368" lon="21.06542">
        <ele>444.246373</ele>
        <time>2022-04-23T11:10:26.510Z</time>
      </trkpt>
      <trkpt lat="42.01359" lon="21.06533">
        <ele>444.222689</ele>
        <time>2022-04-23T11:10:29.511Z</time>
      </trkpt>
      <trkpt lat="42.01348" lon="21.06523">
        <ele>444.198122</ele>
        <time>2022-04-23T11:10:32.504Z</time>
      </trkpt>
      <trkpt lat="42.01337" lon="21.06513">
        <ele>444.171269</ele>
        <time>2022-04-23T11:10:35.502Z</time>
      </trkpt>
      <trkpt lat="42.01329" lon="21.06505">
        <ele>444.152444</ele>
        <time>2022-04-23T11:10:37.533Z</time>
      </trkpt>
      <trkpt lat="42.01321" lon="21.06492">
        <ele>444.126215</ele>
        <time>2022-04-23T11:10:40.504Z</time>
      </trkpt>
      <trkpt lat="42.01314" lon="21.06482">
        <ele>444.107249</ele>
        <time>2022-04-23T11:10:42.534Z</time>
      </trkpt>
      <trkpt lat="42.01307" lon="21.06473">
        <ele>444.088143</ele>
        <time>2022-04-23T11:10:44.502Z</time>
      </trkpt>
      <trkpt lat="42.01297" lon="21.06461">
        <ele>444.062414</ele>
        <time>2022-04-23T11:10:47.525Z</time>
      </trkpt>
      <trkpt lat="42.01289" lon="21.06448">
        <ele>444.038191</ele>
        <time>2022-04-23T11:10:50.519Z</time>
      </trkpt>
      <trkpt lat="42.01281" lon="21.06435">
        <ele>444.012422</ele>
        <time>2022-04-23T11:10:53.483Z</time>
      </trkpt>
      <trkpt lat="42.01272" lon="21.06423">
        <ele>443.988264</ele>
        <time>2022-04-23T11:10:56.489Z</time>
      </trkpt>
      <trkpt lat="42.01262" lon="21.06412">
        <ele>443.962784</ele>
        <time>2022-04-23T11:10:59.505Z</time>
      </trkpt>
      <trkpt lat="42.01254" lon="21.06401">
        <ele>443.919987</ele>
        <time>2022-04-23T11:11:02.506Z</time>
      </trkpt>
      <trkpt lat="42.01244" lon="21.0639">
        <ele>443.876715</ele>
        <time>2022-04-23T11:11:05.516Z</time>
      </trkpt>
      <trkpt lat="42.01237" lon="21.06382">
        <ele>443.843922</ele>
        <time>2022-04-23T11:11:07.516Z</time>
      </trkpt>
      <trkpt lat="42.01229" lon="21.0637">
        <ele>443.798797</ele>
        <time>2022-04-23T11:11:10.494Z</time>
      </trkpt>
      <trkpt lat="42.01221" lon="21.06358">
        <ele>443.758271</ele>
        <time>2022-04-23T11:11:13.504Z</time>
      </trkpt>
      <trkpt lat="42.01215" lon="21.06345">
        <ele>443.716079</ele>
        <time>2022-04-23T11:11:16.503Z</time>
      </trkpt>
      <trkpt lat="42.01208" lon="21.06332">
        <ele>443.675811</ele>
        <time>2022-04-23T11:11:19.542Z</time>
      </trkpt>
      <trkpt lat="42.01202" lon="21.0632">
        <ele>443.636725</ele>
        <time>2022-04-23T11:11:22.502Z</time>
      </trkpt>
      <trkpt lat="42.01194" lon="21.06307">
        <ele>443.591178</ele>
        <time>2022-04-23T11:11:25.496Z</time>
      </trkpt>
      <trkpt lat="42.01187" lon="21.06298">
        <ele>443.557862</ele>
        <time>2022-04-23T11:11:27.515Z</time>
      </trkpt>
      <trkpt lat="42.01178" lon="21.06287">
        <ele>443.514399</ele>
        <time>2022-04-23T11:11:30.538Z</time>
      </trkpt>
      <trkpt lat="42.01168" lon="21.06275">
        <ele>443.467336</ele>
        <time>2022-04-23T11:11:33.504Z</time>
      </trkpt>
      <trkpt lat="42.01161" lon="21.06266">
        <ele>443.431894</ele>
        <time>2022-04-23T11:11:35.513Z</time>
      </trkpt>
      <trkpt lat="42.01151" lon="21.06255">
        <ele>443.385575</ele>
        <time>2022-04-23T11:11:38.486Z</time>
      </trkpt>
      <trkpt lat="42.01141" lon="21.06245">
        <ele>443.341447</ele>
        <time>2022-04-23T11:11:41.489Z</time>
      </trkpt>
      <trkpt lat="42.01133" lon="21.06234">
        <ele>443.410971</ele>
        <time>2022-04-23T11:11:45.511Z</time>
      </trkpt>
      <trkpt lat="42.01123" lon="21.06223">
        <ele>443.587572</ele>
        <time>2022-04-23T11:11:48.500Z</time>
      </trkpt>
      <trkpt lat="42.01116" lon="21.06216">
        <ele>443.719636</ele>
        <time>2022-04-23T11:11:50.498Z</time>
      </trkpt>
      <trkpt lat="42.01107" lon="21.06208">
        <ele>443.874148</ele>
        <time>2022-04-23T11:11:52.490Z</time>
      </trkpt>
      <trkpt lat="42.01098" lon="21.062">
        <ele>444.027359</ele>
        <time>2022-04-23T11:11:54.491Z</time>
      </trkpt>
      <trkpt lat="42.0109" lon="21.06192">
        <ele>444.161115</ele>
        <time>2022-04-23T11:11:56.496Z</time>
      </trkpt>
      <trkpt lat="42.0108" lon="21.06184">
        <ele>444.336135</ele>
        <time>2022-04-23T11:11:59.502Z</time>
      </trkpt>
      <trkpt lat="42.01071" lon="21.06175">
        <ele>444.494116</ele>
        <time>2022-04-23T11:12:02.506Z</time>
      </trkpt>
      <trkpt lat="42.01063" lon="21.06162">
        <ele>444.668997</ele>
        <time>2022-04-23T11:12:06.500Z</time>
      </trkpt>
      <trkpt lat="42.01052" lon="21.06151">
        <ele>444.861689</ele>
        <time>2022-04-23T11:12:09.530Z</time>
      </trkpt>
      <trkpt lat="42.01044" lon="21.06142">
        <ele>445.014474</ele>
        <time>2022-04-23T11:12:11.536Z</time>
      </trkpt>
      <trkpt lat="42.01035" lon="21.06132">
        <ele>445.179403</ele>
        <time>2022-04-23T11:12:14.521Z</time>
      </trkpt>
      <trkpt lat="42.01026" lon="21.06121">
        <ele>445.34117</ele>
        <time>2022-04-23T11:12:17.526Z</time>
      </trkpt>
      <trkpt lat="42.01015" lon="21.06111">
        <ele>445.532043</ele>
        <time>2022-04-23T11:12:20.538Z</time>
      </trkpt>
      <trkpt lat="42.01006" lon="21.06104">
        <ele>445.68142</ele>
        <time>2022-04-23T11:12:22.492Z</time>
      </trkpt>
      <trkpt lat="42.00997" lon="21.06094">
        <ele>445.846274</ele>
        <time>2022-04-23T11:12:25.496Z</time>
      </trkpt>
      <trkpt lat="42.00988" lon="21.06085">
        <ele>445.921005</ele>
        <time>2022-04-23T11:12:28.497Z</time>
      </trkpt>
      <trkpt lat="42.00979" lon="21.06075">
        <ele>445.971822</ele>
        <time>2022-04-23T11:12:31.514Z</time>
      </trkpt>
      <trkpt lat="42.00973" lon="21.06065">
        <ele>446.019123</ele>
        <time>2022-04-23T11:12:35.510Z</time>
      </trkpt>
      <trkpt lat="42.00967" lon="21.06054">
        <ele>446.062601</ele>
        <time>2022-04-23T11:12:39.498Z</time>
      </trkpt>
      <trkpt lat="42.00959" lon="21.06042">
        <ele>446.118277</ele>
        <time>2022-04-23T11:12:43.496Z</time>
      </trkpt>
      <trkpt lat="42.00952" lon="21.06028">
        <ele>446.174147</ele>
        <time>2022-04-23T11:12:46.515Z</time>
      </trkpt>
      <trkpt lat="42.00948" lon="21.06017">
        <ele>446.216403</ele>
        <time>2022-04-23T11:12:48.499Z</time>
      </trkpt>
      <trkpt lat="42.00943" lon="21.06004">
        <ele>446.265223</ele>
        <time>2022-04-23T11:12:50.506Z</time>
      </trkpt>
      <trkpt lat="42.00937" lon="21.05992">
        <ele>446.313711</ele>
        <time>2022-04-23T11:12:52.505Z</time>
      </trkpt>
      <trkpt lat="42.00931" lon="21.05982">
        <ele>446.359367</ele>
        <time>2022-04-23T11:12:54.496Z</time>
      </trkpt>
      <trkpt lat="42.00924" lon="21.05973">
        <ele>446.404124</ele>
        <time>2022-04-23T11:12:56.502Z</time>
      </trkpt>
      <trkpt lat="42.00916" lon="21.05964">
        <ele>446.450134</ele>
        <time>2022-04-23T11:12:58.520Z</time>
      </trkpt>
      <trkpt lat="42.00908" lon="21.05957">
        <ele>446.494541</ele>
        <time>2022-04-23T11:13:00.537Z</time>
      </trkpt>
      <trkpt lat="42.00898" lon="21.05949">
        <ele>446.545406</ele>
        <time>2022-04-23T11:13:02.505Z</time>
      </trkpt>
      <trkpt lat="42.0089" lon="21.05941">
        <ele>446.59214</ele>
        <time>2022-04-23T11:13:04.501Z</time>
      </trkpt>
      <trkpt lat="42.00881" lon="21.05933">
        <ele>446.638837</ele>
        <time>2022-04-23T11:13:06.546Z</time>
      </trkpt>
      <trkpt lat="42.00873" lon="21.05927">
        <ele>446.684493</ele>
        <time>2022-04-23T11:13:08.504Z</time>
      </trkpt>
      <trkpt lat="42.00865" lon="21.05921">
        <ele>446.767046</ele>
        <time>2022-04-23T11:13:10.501Z</time>
      </trkpt>
      <trkpt lat="42.00855" lon="21.05912">
        <ele>446.887962</ele>
        <time>2022-04-23T11:13:13.500Z</time>
      </trkpt>
      <trkpt lat="42.00847" lon="21.05905">
        <ele>447.000711</ele>
        <time>2022-04-23T11:13:16.497Z</time>
      </trkpt>
      <trkpt lat="42.00837" lon="21.05895">
        <ele>447.131745</ele>
        <time>2022-04-23T11:13:19.506Z</time>
      </trkpt>
      <trkpt lat="42.00826" lon="21.05886">
        <ele>447.26872</ele>
        <time>2022-04-23T11:13:22.521Z</time>
      </trkpt>
      <trkpt lat="42.00815" lon="21.05877">
        <ele>447.410949</ele>
        <time>2022-04-23T11:13:25.505Z</time>
      </trkpt>
      <trkpt lat="42.00805" lon="21.05868">
        <ele>447.544996</ele>
        <time>2022-04-23T11:13:28.514Z</time>
      </trkpt>
      <trkpt lat="42.00796" lon="21.05857">
        <ele>447.679325</ele>
        <time>2022-04-23T11:13:31.512Z</time>
      </trkpt>
      <trkpt lat="42.00787" lon="21.05845">
        <ele>447.816476</ele>
        <time>2022-04-23T11:13:34.497Z</time>
      </trkpt>
      <trkpt lat="42.00779" lon="21.05836">
        <ele>447.933754</ele>
        <time>2022-04-23T11:13:37.508Z</time>
      </trkpt>
      <trkpt lat="42.00772" lon="21.05827">
        <ele>448.03477</ele>
        <time>2022-04-23T11:13:39.514Z</time>
      </trkpt>
      <trkpt lat="42.00764" lon="21.05819">
        <ele>448.139401</ele>
        <time>2022-04-23T11:13:41.495Z</time>
      </trkpt>
      <trkpt lat="42.00758" lon="21.0581">
        <ele>448.241472</ele>
        <time>2022-04-23T11:13:43.500Z</time>
      </trkpt>
      <trkpt lat="42.00752" lon="21.05801">
        <ele>448.345027</ele>
        <time>2022-04-23T11:13:45.504Z</time>
      </trkpt>
      <trkpt lat="42.00744" lon="21.05787">
        <ele>448.480446</ele>
        <time>2022-04-23T11:13:48.499Z</time>
      </trkpt>
      <trkpt lat="42.00738" lon="21.05776">
        <ele>448.597022</ele>
        <time>2022-04-23T11:13:51.542Z</time>
      </trkpt>
      <trkpt lat="42.00728" lon="21.05765">
        <ele>448.601656</ele>
        <time>2022-04-23T11:13:54.482Z</time>
      </trkpt>
      <trkpt lat="42.00721" lon="21.05758">
        <ele>448.518595</ele>
        <time>2022-04-23T11:13:56.506Z</time>
      </trkpt>
      <trkpt lat="42.00714" lon="21.05751">
        <ele>448.435202</ele>
        <time>2022-04-23T11:13:58.517Z</time>
      </trkpt>
      <trkpt lat="42.00706" lon="21.05743">
        <ele>448.349198</ele>
        <time>2022-04-23T11:14:00.518Z</time>
      </trkpt>
      <trkpt lat="42.00695" lon="21.05735">
        <ele>448.229282</ele>
        <time>2022-04-23T11:14:03.511Z</time>
      </trkpt>
      <trkpt lat="42.00682" lon="21.05729">
        <ele>448.101499</ele>
        <time>2022-04-23T11:14:06.502Z</time>
      </trkpt>
      <trkpt lat="42.00673" lon="21.05724">
        <ele>448.012548</ele>
        <time>2022-04-23T11:14:08.540Z</time>
      </trkpt>
      <trkpt lat="42.00664" lon="21.0572">
        <ele>447.926091</ele>
        <time>2022-04-23T11:14:10.525Z</time>
      </trkpt>
      <trkpt lat="42.00652" lon="21.05714">
        <ele>447.806902</ele>
        <time>2022-04-23T11:14:13.493Z</time>
      </trkpt>
      <trkpt lat="42.0064" lon="21.05707">
        <ele>447.686251</ele>
        <time>2022-04-23T11:14:16.493Z</time>
      </trkpt>
      <trkpt lat="42.00631" lon="21.05702">
        <ele>447.599349</ele>
        <time>2022-04-23T11:14:18.500Z</time>
      </trkpt>
      <trkpt lat="42.00622" lon="21.05698">
        <ele>447.511069</ele>
        <time>2022-04-23T11:14:21.521Z</time>
      </trkpt>
      <trkpt lat="42.00611" lon="21.05694">
        <ele>447.406786</ele>
        <time>2022-04-23T11:14:24.515Z</time>
      </trkpt>
      <trkpt lat="42.00599" lon="21.05689">
        <ele>447.291039</ele>
        <time>2022-04-23T11:14:27.494Z</time>
      </trkpt>
      <trkpt lat="42.00587" lon="21.05685">
        <ele>447.180355</ele>
        <time>2022-04-23T11:14:30.517Z</time>
      </trkpt>
      <trkpt lat="42.00576" lon="21.05684">
        <ele>447.077137</ele>
        <time>2022-04-23T11:14:33.514Z</time>
      </trkpt>
      <trkpt lat="42.00563" lon="21.0569">
        <ele>447.174931</ele>
        <time>2022-04-23T11:14:36.504Z</time>
      </trkpt>
      <trkpt lat="42.00554" lon="21.05695">
        <ele>447.502147</ele>
        <time>2022-04-23T11:14:38.491Z</time>
      </trkpt>
      <trkpt lat="42.00543" lon="21.05699">
        <ele>447.849076</ele>
        <time>2022-04-23T11:14:40.490Z</time>
      </trkpt>
      <trkpt lat="42.00533" lon="21.05699">
        <ele>448.19096</ele>
        <time>2022-04-23T11:14:42.516Z</time>
      </trkpt>
      <trkpt lat="42.00519" lon="21.05696">
        <ele>448.62739</ele>
        <time>2022-04-23T11:14:45.505Z</time>
      </trkpt>
      <trkpt lat="42.00507" lon="21.05693">
        <ele>449.039789</ele>
        <time>2022-04-23T11:14:48.498Z</time>
      </trkpt>
      <trkpt lat="42.00495" lon="21.05688">
        <ele>449.428967</ele>
        <time>2022-04-23T11:14:51.524Z</time>
      </trkpt>
      <trkpt lat="42.00484" lon="21.05684">
        <ele>449.777635</ele>
        <time>2022-04-23T11:14:54.494Z</time>
      </trkpt>
      <trkpt lat="42.00474" lon="21.05678">
        <ele>450.134662</ele>
        <time>2022-04-23T11:14:57.522Z</time>
      </trkpt>
      <trkpt lat="42.00464" lon="21.05672">
        <ele>450.50801</ele>
        <time>2022-04-23T11:15:01.520Z</time>
      </trkpt>
      <trkpt lat="42.00455" lon="21.05665">
        <ele>450.81862</ele>
        <time>2022-04-23T11:15:04.531Z</time>
      </trkpt>
      <trkpt lat="42.00444" lon="21.0566">
        <ele>451.185111</ele>
        <time>2022-04-23T11:15:07.505Z</time>
      </trkpt>
      <trkpt lat="42.00434" lon="21.05654">
        <ele>451.530103</ele>
        <time>2022-04-23T11:15:10.496Z</time>
      </trkpt>
      <trkpt lat="42.00424" lon="21.05648">
        <ele>451.877016</ele>
        <time>2022-04-23T11:15:13.510Z</time>
      </trkpt>
      <trkpt lat="42.00414" lon="21.05652">
        <ele>452.225742</ele>
        <time>2022-04-23T11:15:16.500Z</time>
      </trkpt>
      <trkpt lat="42.00409" lon="21.05665">
        <ele>452.58246</ele>
        <time>2022-04-23T11:15:19.514Z</time>
      </trkpt>
      <trkpt lat="42.00401" lon="21.05672">
        <ele>452.613856</ele>
        <time>2022-04-23T11:15:22.487Z</time>
      </trkpt>
      <trkpt lat="42.00393" lon="21.05681">
        <ele>452.322369</ele>
        <time>2022-04-23T11:15:25.506Z</time>
      </trkpt>
      <trkpt lat="42.00384" lon="21.05693">
        <ele>451.956594</ele>
        <time>2022-04-23T11:15:28.491Z</time>
      </trkpt>
      <trkpt lat="42.00377" lon="21.05708">
        <ele>451.571983</ele>
        <time>2022-04-23T11:15:31.492Z</time>
      </trkpt>
      <trkpt lat="42.00371" lon="21.05717">
        <ele>451.302219</ele>
        <time>2022-04-23T11:15:33.512Z</time>
      </trkpt>
      <trkpt lat="42.00366" lon="21.05727">
        <ele>451.037587</ele>
        <time>2022-04-23T11:15:35.518Z</time>
      </trkpt>
      <trkpt lat="42.00359" lon="21.05737">
        <ele>450.764734</ele>
        <time>2022-04-23T11:15:37.512Z</time>
      </trkpt>
      <trkpt lat="42.00352" lon="21.05745">
        <ele>450.468254</ele>
        <time>2022-04-23T11:15:39.497Z</time>
      </trkpt>
      <trkpt lat="42.00344" lon="21.05753">
        <ele>450.189863</ele>
        <time>2022-04-23T11:15:41.513Z</time>
      </trkpt>
      <trkpt lat="42.00332" lon="21.05761">
        <ele>449.806535</ele>
        <time>2022-04-23T11:15:44.530Z</time>
      </trkpt>
      <trkpt lat="42.00322" lon="21.05763">
        <ele>449.501535</ele>
        <time>2022-04-23T11:15:46.512Z</time>
      </trkpt>
      <trkpt lat="42.00308" lon="21.05766">
        <ele>449.108412</ele>
        <time>2022-04-23T11:15:48.520Z</time>
      </trkpt>
      <trkpt lat="42.00297" lon="21.05766">
        <ele>448.77576</ele>
        <time>2022-04-23T11:15:50.544Z</time>
      </trkpt>
      <trkpt lat="42.00287" lon="21.05763">
        <ele>448.48103</ele>
        <time>2022-04-23T11:15:52.513Z</time>
      </trkpt>
      <trkpt lat="42.00278" lon="21.05761">
        <ele>448.202645</ele>
        <time>2022-04-23T11:15:54.504Z</time>
      </trkpt>
      <trkpt lat="42.00268" lon="21.05758">
        <ele>447.897538</ele>
        <time>2022-04-23T11:15:56.483Z</time>
      </trkpt>
      <trkpt lat="42.00257" lon="21.05755">
        <ele>447.579491</ele>
        <time>2022-04-23T11:15:58.510Z</time>
      </trkpt>
      <trkpt lat="42.00246" lon="21.05752">
        <ele>447.375543</ele>
        <time>2022-04-23T11:16:00.514Z</time>
      </trkpt>
      <trkpt lat="42.00237" lon="21.05749">
        <ele>447.217524</ele>
        <time>2022-04-23T11:16:02.557Z</time>
      </trkpt>
      <trkpt lat="42.00227" lon="21.05747">
        <ele>447.059152</ele>
        <time>2022-04-23T11:16:04.521Z</time>
      </trkpt>
      <trkpt lat="42.00215" lon="21.05747">
        <ele>446.878668</ele>
        <time>2022-04-23T11:16:06.494Z</time>
      </trkpt>
      <trkpt lat="42.00204" lon="21.05746">
        <ele>446.698011</ele>
        <time>2022-04-23T11:16:08.556Z</time>
      </trkpt>
      <trkpt lat="42.00193" lon="21.05745">
        <ele>446.519057</ele>
        <time>2022-04-23T11:16:10.516Z</time>
      </trkpt>
      <trkpt lat="42.00181" lon="21.05744">
        <ele>446.338466</ele>
        <time>2022-04-23T11:16:12.503Z</time>
      </trkpt>
      <trkpt lat="42.00171" lon="21.05743">
        <ele>446.17352</ele>
        <time>2022-04-23T11:16:14.540Z</time>
      </trkpt>
      <trkpt lat="42.00161" lon="21.05743">
        <ele>446.013527</ele>
        <time>2022-04-23T11:16:16.503Z</time>
      </trkpt>
      <trkpt lat="42.0015" lon="21.05742">
        <ele>445.850375</ele>
        <time>2022-04-23T11:16:18.502Z</time>
      </trkpt>
      <trkpt lat="42.0014" lon="21.05741">
        <ele>445.685509</ele>
        <time>2022-04-23T11:16:20.510Z</time>
      </trkpt>
      <trkpt lat="42.0013" lon="21.05741">
        <ele>445.532052</ele>
        <time>2022-04-23T11:16:22.503Z</time>
      </trkpt>
      <trkpt lat="42.00118" lon="21.05742">
        <ele>445.333954</ele>
        <time>2022-04-23T11:16:25.503Z</time>
      </trkpt>
      <trkpt lat="42.00107" lon="21.05742">
        <ele>445.15519</ele>
        <time>2022-04-23T11:16:28.543Z</time>
      </trkpt>
      <trkpt lat="42.00095" lon="21.0574">
        <ele>444.964422</ele>
        <time>2022-04-23T11:16:31.517Z</time>
      </trkpt>
      <trkpt lat="42.00083" lon="21.05739">
        <ele>444.785005</ele>
        <time>2022-04-23T11:16:34.501Z</time>
      </trkpt>
      <trkpt lat="42.0007" lon="21.05737">
        <ele>444.650519</ele>
        <time>2022-04-23T11:16:37.508Z</time>
      </trkpt>
      <trkpt lat="42.00061" lon="21.05737">
        <ele>444.639168</ele>
        <time>2022-04-23T11:16:39.531Z</time>
      </trkpt>
      <trkpt lat="42.00052" lon="21.05737">
        <ele>444.627818</ele>
        <time>2022-04-23T11:16:41.513Z</time>
      </trkpt>
      <trkpt lat="42.00039" lon="21.05736">
        <ele>444.611394</ele>
        <time>2022-04-23T11:16:44.517Z</time>
      </trkpt>
      <trkpt lat="42.00028" lon="21.05734">
        <ele>444.598746</ele>
        <time>2022-04-23T11:16:46.515Z</time>
      </trkpt>
      <trkpt lat="42.00017" lon="21.05733">
        <ele>444.58522</ele>
        <time>2022-04-23T11:16:48.500Z</time>
      </trkpt>
      <trkpt lat="42.00008" lon="21.05733">
        <ele>444.573001</ele>
        <time>2022-04-23T11:16:50.504Z</time>
      </trkpt>
      <trkpt lat="41.99995" lon="21.05733">
        <ele>444.556962</ele>
        <time>2022-04-23T11:16:53.494Z</time>
      </trkpt>
      <trkpt lat="41.99985" lon="21.05731">
        <ele>444.544626</ele>
        <time>2022-04-23T11:16:55.505Z</time>
      </trkpt>
      <trkpt lat="41.99974" lon="21.0573">
        <ele>444.531995</ele>
        <time>2022-04-23T11:16:57.559Z</time>
      </trkpt>
      <trkpt lat="41.99965" lon="21.05729">
        <ele>444.520232</ele>
        <time>2022-04-23T11:16:59.481Z</time>
      </trkpt>
      <trkpt lat="41.99956" lon="21.05727">
        <ele>444.5088</ele>
        <time>2022-04-23T11:17:01.520Z</time>
      </trkpt>
      <trkpt lat="41.99947" lon="21.05726">
        <ele>444.497367</ele>
        <time>2022-04-23T11:17:03.501Z</time>
      </trkpt>
      <trkpt lat="41.99936" lon="21.05724">
        <ele>444.483841</ele>
        <time>2022-04-23T11:17:06.505Z</time>
      </trkpt>
      <trkpt lat="41.99925" lon="21.05722">
        <ele>444.470624</ele>
        <time>2022-04-23T11:17:09.551Z</time>
      </trkpt>
      <trkpt lat="41.99915" lon="21.05719">
        <ele>444.45778</ele>
        <time>2022-04-23T11:17:12.508Z</time>
      </trkpt>
      <trkpt lat="41.99904" lon="21.05716">
        <ele>444.444305</ele>
        <time>2022-04-23T11:17:16.494Z</time>
      </trkpt>
      <trkpt lat="41.99892" lon="21.05715">
        <ele>444.463455</ele>
        <time>2022-04-23T11:17:19.496Z</time>
      </trkpt>
      <trkpt lat="41.99883" lon="21.05714">
        <ele>444.522446</ele>
        <time>2022-04-23T11:17:21.503Z</time>
      </trkpt>
      <trkpt lat="41.99871" lon="21.0571">
        <ele>444.602185</ele>
        <time>2022-04-23T11:17:24.530Z</time>
      </trkpt>
      <trkpt lat="41.9986" lon="21.05708">
        <ele>444.671711</ele>
        <time>2022-04-23T11:17:27.521Z</time>
      </trkpt>
      <trkpt lat="41.99851" lon="21.05705">
        <ele>444.731707</ele>
        <time>2022-04-23T11:17:29.541Z</time>
      </trkpt>
      <trkpt lat="41.9984" lon="21.05703">
        <ele>444.800194</ele>
        <time>2022-04-23T11:17:31.499Z</time>
      </trkpt>
      <trkpt lat="41.99831" lon="21.057">
        <ele>444.860529</ele>
        <time>2022-04-23T11:17:33.532Z</time>
      </trkpt>
      <trkpt lat="41.99819" lon="21.05697">
        <ele>444.935165</ele>
        <time>2022-04-23T11:17:36.554Z</time>
      </trkpt>
      <trkpt lat="41.9981" lon="21.05694">
        <ele>444.998415</ele>
        <time>2022-04-23T11:17:39.503Z</time>
      </trkpt>
      <trkpt lat="41.99798" lon="21.05691">
        <ele>445.073677</ele>
        <time>2022-04-23T11:17:43.499Z</time>
      </trkpt>
      <trkpt lat="41.99788" lon="21.05689">
        <ele>445.136202</ele>
        <time>2022-04-23T11:17:46.505Z</time>
      </trkpt>
      <trkpt lat="41.99778" lon="21.05686">
        <ele>445.201481</ele>
        <time>2022-04-23T11:17:49.521Z</time>
      </trkpt>
      <trkpt lat="41.99768" lon="21.05684">
        <ele>445.270447</ele>
        <time>2022-04-23T11:17:52.499Z</time>
      </trkpt>
      <trkpt lat="41.99757" lon="21.0568">
        <ele>445.338317</ele>
        <time>2022-04-23T11:17:55.498Z</time>
      </trkpt>
      <trkpt lat="41.99745" lon="21.05678">
        <ele>445.415837</ele>
        <time>2022-04-23T11:17:58.546Z</time>
      </trkpt>
      <trkpt lat="41.99734" lon="21.05676">
        <ele>445.487823</ele>
        <time>2022-04-23T11:18:01.508Z</time>
      </trkpt>
      <trkpt lat="41.99723" lon="21.05675">
        <ele>445.560496</ele>
        <time>2022-04-23T11:18:04.498Z</time>
      </trkpt>
      <trkpt lat="41.99711" lon="21.05675">
        <ele>445.516265</ele>
        <time>2022-04-23T11:18:07.512Z</time>
      </trkpt>
      <trkpt lat="41.99698" lon="21.05675">
        <ele>445.413867</ele>
        <time>2022-04-23T11:18:10.502Z</time>
      </trkpt>
      <trkpt lat="41.99687" lon="21.05674">
        <ele>445.325325</ele>
        <time>2022-04-23T11:18:13.511Z</time>
      </trkpt>
      <trkpt lat="41.99675" lon="21.05674">
        <ele>445.235351</ele>
        <time>2022-04-23T11:18:16.513Z</time>
      </trkpt>
      <trkpt lat="41.99662" lon="21.05672">
        <ele>445.132604</ele>
        <time>2022-04-23T11:18:19.505Z</time>
      </trkpt>
      <trkpt lat="41.99652" lon="21.05671">
        <ele>445.059039</ele>
        <time>2022-04-23T11:18:21.506Z</time>
      </trkpt>
      <trkpt lat="41.99643" lon="21.0567">
        <ele>444.986758</ele>
        <time>2022-04-23T11:18:23.541Z</time>
      </trkpt>
      <trkpt lat="41.99633" lon="21.0567">
        <ele>444.911513</ele>
        <time>2022-04-23T11:18:25.523Z</time>
      </trkpt>
      <trkpt lat="41.9962" lon="21.05669">
        <ele>444.809846</ele>
        <time>2022-04-23T11:18:28.532Z</time>
      </trkpt>
      <trkpt lat="41.99607" lon="21.05668">
        <ele>444.704203</ele>
        <time>2022-04-23T11:18:31.517Z</time>
      </trkpt>
      <trkpt lat="41.99597" lon="21.05667">
        <ele>444.628051</ele>
        <time>2022-04-23T11:18:33.513Z</time>
      </trkpt>
      <trkpt lat="41.99587" lon="21.05666">
        <ele>444.548767</ele>
        <time>2022-04-23T11:18:35.515Z</time>
      </trkpt>
      <trkpt lat="41.99577" lon="21.05666">
        <ele>444.476576</ele>
        <time>2022-04-23T11:18:37.510Z</time>
      </trkpt>
      <trkpt lat="41.99568" lon="21.05666">
        <ele>444.404433</ele>
        <time>2022-04-23T11:18:39.512Z</time>
      </trkpt>
      <trkpt lat="41.99556" lon="21.05665">
        <ele>444.310495</ele>
        <time>2022-04-23T11:18:42.514Z</time>
      </trkpt>
      <trkpt lat="41.99544" lon="21.05664">
        <ele>444.215725</ele>
        <time>2022-04-23T11:18:45.515Z</time>
      </trkpt>
      <trkpt lat="41.9953" lon="21.05662">
        <ele>444.350611</ele>
        <time>2022-04-23T11:18:48.560Z</time>
      </trkpt>
      <trkpt lat="41.9952" lon="21.05661">
        <ele>444.517982</ele>
        <time>2022-04-23T11:18:50.501Z</time>
      </trkpt>
      <trkpt lat="41.9951" lon="21.0566">
        <ele>444.680359</ele>
        <time>2022-04-23T11:18:52.509Z</time>
      </trkpt>
      <trkpt lat="41.99501" lon="21.0566">
        <ele>444.839045</ele>
        <time>2022-04-23T11:18:54.512Z</time>
      </trkpt>
      <trkpt lat="41.99488" lon="21.0566">
        <ele>445.056086</ele>
        <time>2022-04-23T11:18:57.531Z</time>
      </trkpt>
      <trkpt lat="41.99479" lon="21.0566">
        <ele>445.211312</ele>
        <time>2022-04-23T11:18:59.565Z</time>
      </trkpt>
      <trkpt lat="41.99469" lon="21.0566">
        <ele>445.369877</ele>
        <time>2022-04-23T11:19:01.511Z</time>
      </trkpt>
      <trkpt lat="41.99459" lon="21.0566">
        <ele>445.533468</ele>
        <time>2022-04-23T11:19:03.497Z</time>
      </trkpt>
      <trkpt lat="41.99449" lon="21.05659">
        <ele>445.697082</ele>
        <time>2022-04-23T11:19:05.513Z</time>
      </trkpt>
      <trkpt lat="41.9944" lon="21.05658">
        <ele>445.851359</ele>
        <time>2022-04-23T11:19:07.506Z</time>
      </trkpt>
      <trkpt lat="41.9943" lon="21.05656">
        <ele>446.026509</ele>
        <time>2022-04-23T11:19:09.513Z</time>
      </trkpt>
      <trkpt lat="41.99421" lon="21.05651">
        <ele>446.179643</ele>
        <time>2022-04-23T11:19:11.496Z</time>
      </trkpt>
      <trkpt lat="41.9941" lon="21.05643">
        <ele>446.395159</ele>
        <time>2022-04-23T11:19:14.504Z</time>
      </trkpt>
      <trkpt lat="41.99399" lon="21.05636">
        <ele>446.604527</ele>
        <time>2022-04-23T11:19:17.509Z</time>
      </trkpt>
      <trkpt lat="41.99387" lon="21.05628">
        <ele>446.826966</ele>
        <time>2022-04-23T11:19:20.511Z</time>
      </trkpt>
      <trkpt lat="41.99375" lon="21.05621">
        <ele>447.036728</ele>
        <time>2022-04-23T11:19:23.511Z</time>
      </trkpt>
      <trkpt lat="41.99367" lon="21.05615">
        <ele>447.187072</ele>
        <time>2022-04-23T11:19:25.509Z</time>
      </trkpt>
      <trkpt lat="41.99355" lon="21.05608">
        <ele>447.136893</ele>
        <time>2022-04-23T11:19:28.561Z</time>
      </trkpt>
      <trkpt lat="41.99346" lon="21.05604">
        <ele>447.101301</ele>
        <time>2022-04-23T11:19:30.499Z</time>
      </trkpt>
      <trkpt lat="41.99338" lon="21.05599">
        <ele>447.065849</ele>
        <time>2022-04-23T11:19:32.536Z</time>
      </trkpt>
      <trkpt lat="41.99326" lon="21.05592">
        <ele>447.016721</ele>
        <time>2022-04-23T11:19:35.516Z</time>
      </trkpt>
      <trkpt lat="41.99315" lon="21.05586">
        <ele>446.971229</ele>
        <time>2022-04-23T11:19:38.491Z</time>
      </trkpt>
      <trkpt lat="41.99306" lon="21.05584">
        <ele>446.935828</ele>
        <time>2022-04-23T11:19:40.498Z</time>
      </trkpt>
      <trkpt lat="41.99296" lon="21.05584">
        <ele>446.89775</ele>
        <time>2022-04-23T11:19:42.496Z</time>
      </trkpt>
      <trkpt lat="41.99284" lon="21.05592">
        <ele>446.846674</ele>
        <time>2022-04-23T11:19:45.513Z</time>
      </trkpt>
      <trkpt lat="41.99278" lon="21.05602">
        <ele>446.809888</ele>
        <time>2022-04-23T11:19:47.513Z</time>
      </trkpt>
      <trkpt lat="41.99273" lon="21.05612">
        <ele>446.774769</ele>
        <time>2022-04-23T11:19:49.524Z</time>
      </trkpt>
      <trkpt lat="41.99267" lon="21.05622">
        <ele>446.738721</ele>
        <time>2022-04-23T11:19:51.498Z</time>
      </trkpt>
      <trkpt lat="41.99261" lon="21.05632">
        <ele>446.702925</ele>
        <time>2022-04-23T11:19:53.504Z</time>
      </trkpt>
      <trkpt lat="41.99256" lon="21.05642">
        <ele>446.666906</ele>
        <time>2022-04-23T11:19:55.512Z</time>
      </trkpt>
      <trkpt lat="41.99251" lon="21.05652">
        <ele>446.631914</ele>
        <time>2022-04-23T11:19:57.521Z</time>
      </trkpt>
      <trkpt lat="41.99246" lon="21.05663">
        <ele>446.595945</ele>
        <time>2022-04-23T11:19:59.481Z</time>
      </trkpt>
      <trkpt lat="41.99241" lon="21.05674">
        <ele>446.556692</ele>
        <time>2022-04-23T11:20:01.488Z</time>
      </trkpt>
      <trkpt lat="41.99233" lon="21.05686">
        <ele>446.512367</ele>
        <time>2022-04-23T11:20:03.514Z</time>
      </trkpt>
      <trkpt lat="41.99226" lon="21.05698">
        <ele>446.402623</ele>
        <time>2022-04-23T11:20:05.503Z</time>
      </trkpt>
      <trkpt lat="41.9922" lon="21.0571">
        <ele>446.253474</ele>
        <time>2022-04-23T11:20:07.508Z</time>
      </trkpt>
      <trkpt lat="41.99214" lon="21.05722">
        <ele>446.108486</ele>
        <time>2022-04-23T11:20:09.512Z</time>
      </trkpt>
      <trkpt lat="41.99203" lon="21.05732">
        <ele>445.927236</ele>
        <time>2022-04-23T11:20:12.545Z</time>
      </trkpt>
      <trkpt lat="41.99193" lon="21.05737">
        <ele>445.781674</ele>
        <time>2022-04-23T11:20:14.502Z</time>
      </trkpt>
      <trkpt lat="41.99183" lon="21.0574">
        <ele>445.629302</ele>
        <time>2022-04-23T11:20:16.514Z</time>
      </trkpt>
      <trkpt lat="41.99171" lon="21.05744">
        <ele>445.470187</ele>
        <time>2022-04-23T11:20:18.506Z</time>
      </trkpt>
      <trkpt lat="41.99161" lon="21.05751">
        <ele>445.310965</ele>
        <time>2022-04-23T11:20:20.505Z</time>
      </trkpt>
      <trkpt lat="41.99151" lon="21.05758">
        <ele>445.154017</ele>
        <time>2022-04-23T11:20:22.492Z</time>
      </trkpt>
      <trkpt lat="41.99141" lon="21.05764">
        <ele>445.003627</ele>
        <time>2022-04-23T11:20:24.503Z</time>
      </trkpt>
      <trkpt lat="41.99132" lon="21.05767">
        <ele>444.871777</ele>
        <time>2022-04-23T11:20:26.501Z</time>
      </trkpt>
      <trkpt lat="41.99121" lon="21.05772">
        <ele>444.722759</ele>
        <time>2022-04-23T11:20:28.498Z</time>
      </trkpt>
      <trkpt lat="41.9911" lon="21.05777">
        <ele>444.560048</ele>
        <time>2022-04-23T11:20:30.508Z</time>
      </trkpt>
      <trkpt lat="41.99099" lon="21.05781">
        <ele>444.405681</ele>
        <time>2022-04-23T11:20:32.505Z</time>
      </trkpt>
      <trkpt lat="41.99089" lon="21.05785">
        <ele>444.265762</ele>
        <time>2022-04-23T11:20:34.494Z</time>
      </trkpt>
      <trkpt lat="41.99079" lon="21.0579">
        <ele>444.120647</ele>
        <time>2022-04-23T11:20:36.500Z</time>
      </trkpt>
      <trkpt lat="41.99069" lon="21.05795">
        <ele>443.977919</ele>
        <time>2022-04-23T11:20:38.489Z</time>
      </trkpt>
      <trkpt lat="41.99059" lon="21.058">
        <ele>443.843541</ele>
        <time>2022-04-23T11:20:40.497Z</time>
      </trkpt>
      <trkpt lat="41.99049" lon="21.05805">
        <ele>443.710027</ele>
        <time>2022-04-23T11:20:42.494Z</time>
      </trkpt>
      <trkpt lat="41.99039" lon="21.05809">
        <ele>443.577426</ele>
        <time>2022-04-23T11:20:44.497Z</time>
      </trkpt>
      <trkpt lat="41.99029" lon="21.05812">
        <ele>443.44597</ele>
        <time>2022-04-23T11:20:46.505Z</time>
      </trkpt>
      <trkpt lat="41.99018" lon="21.05814">
        <ele>443.311209</ele>
        <time>2022-04-23T11:20:48.488Z</time>
      </trkpt>
      <trkpt lat="41.99008" lon="21.05816">
        <ele>443.182279</ele>
        <time>2022-04-23T11:20:50.537Z</time>
      </trkpt>
      <trkpt lat="41.98998" lon="21.0582">
        <ele>443.051352</ele>
        <time>2022-04-23T11:20:52.477Z</time>
      </trkpt>
      <trkpt lat="41.98988" lon="21.05824">
        <ele>442.923328</ele>
        <time>2022-04-23T11:20:54.521Z</time>
      </trkpt>
      <trkpt lat="41.98978" lon="21.05827">
        <ele>442.802985</ele>
        <time>2022-04-23T11:20:56.554Z</time>
      </trkpt>
      <trkpt lat="41.98965" lon="21.05832">
        <ele>442.634854</ele>
        <time>2022-04-23T11:20:59.505Z</time>
      </trkpt>
      <trkpt lat="41.98956" lon="21.05835">
        <ele>442.514926</ele>
        <time>2022-04-23T11:21:01.504Z</time>
      </trkpt>
      <trkpt lat="41.98946" lon="21.05838">
        <ele>442.391478</ele>
        <time>2022-04-23T11:21:03.494Z</time>
      </trkpt>
      <trkpt lat="41.98937" lon="21.05842">
        <ele>442.271801</ele>
        <time>2022-04-23T11:21:05.516Z</time>
      </trkpt>
      <trkpt lat="41.98926" lon="21.05849">
        <ele>442.115216</ele>
        <time>2022-04-23T11:21:08.492Z</time>
      </trkpt>
      <trkpt lat="41.98914" lon="21.05858">
        <ele>441.949156</ele>
        <time>2022-04-23T11:21:11.526Z</time>
      </trkpt>
      <trkpt lat="41.98904" lon="21.05864">
        <ele>441.819424</ele>
        <time>2022-04-23T11:21:13.583Z</time>
      </trkpt>
      <trkpt lat="41.98894" lon="21.05866">
        <ele>441.907895</ele>
        <time>2022-04-23T11:21:15.508Z</time>
      </trkpt>
      <trkpt lat="41.98885" lon="21.05868">
        <ele>442.056794</ele>
        <time>2022-04-23T11:21:17.523Z</time>
      </trkpt>
      <trkpt lat="41.98872" lon="21.0587">
        <ele>442.253476</ele>
        <time>2022-04-23T11:21:20.507Z</time>
      </trkpt>
      <trkpt lat="41.98863" lon="21.05873">
        <ele>442.398374</ele>
        <time>2022-04-23T11:21:22.507Z</time>
      </trkpt>
      <trkpt lat="41.98853" lon="21.05875">
        <ele>442.546095</ele>
        <time>2022-04-23T11:21:24.499Z</time>
      </trkpt>
      <trkpt lat="41.98843" lon="21.05875">
        <ele>442.693874</ele>
        <time>2022-04-23T11:21:26.514Z</time>
      </trkpt>
      <trkpt lat="41.98833" lon="21.05874">
        <ele>442.849391</ele>
        <time>2022-04-23T11:21:28.526Z</time>
      </trkpt>
      <trkpt lat="41.98824" lon="21.05874">
        <ele>442.993856</ele>
        <time>2022-04-23T11:21:30.504Z</time>
      </trkpt>
      <trkpt lat="41.98814" lon="21.05875">
        <ele>443.135565</ele>
        <time>2022-04-23T11:21:32.509Z</time>
      </trkpt>
      <trkpt lat="41.98805" lon="21.05876">
        <ele>443.277633</ele>
        <time>2022-04-23T11:21:34.570Z</time>
      </trkpt>
      <trkpt lat="41.98792" lon="21.05878">
        <ele>443.472073</ele>
        <time>2022-04-23T11:21:37.501Z</time>
      </trkpt>
      <trkpt lat="41.98779" lon="21.05878">
        <ele>443.671281</ele>
        <time>2022-04-23T11:21:40.516Z</time>
      </trkpt>
      <trkpt lat="41.98769" lon="21.05879">
        <ele>443.819513</ele>
        <time>2022-04-23T11:21:42.487Z</time>
      </trkpt>
      <trkpt lat="41.98764" lon="21.05867">
        <ele>443.978066</ele>
        <time>2022-04-23T11:21:45.539Z</time>
      </trkpt>
      <trkpt lat="41.98763" lon="21.05853">
        <ele>444.147306</ele>
        <time>2022-04-23T11:21:51.481Z</time>
      </trkpt>
      <trkpt lat="41.98764" lon="21.0584">
        <ele>444.284483</ele>
        <time>2022-04-23T11:21:55.484Z</time>
      </trkpt>
      <trkpt lat="41.98765" lon="21.05826">
        <ele>444.452192</ele>
        <time>2022-04-23T11:21:59.521Z</time>
      </trkpt>
      <trkpt lat="41.98764" lon="21.05813">
        <ele>444.559134</ele>
        <time>2022-04-23T11:22:02.510Z</time>
      </trkpt>
      <trkpt lat="41.98764" lon="21.058">
        <ele>444.636173</ele>
        <time>2022-04-23T11:22:05.486Z</time>
      </trkpt>
      <trkpt lat="41.98764" lon="21.05785">
        <ele>444.719963</ele>
        <time>2022-04-23T11:22:08.513Z</time>
      </trkpt>
      <trkpt lat="41.98762" lon="21.0577">
        <ele>444.802758</ele>
        <time>2022-04-23T11:22:11.506Z</time>
      </trkpt>
      <trkpt lat="41.98762" lon="21.05756">
        <ele>444.88386</ele>
        <time>2022-04-23T11:22:14.500Z</time>
      </trkpt>
      <trkpt lat="41.98761" lon="21.05741">
        <ele>444.9644</ele>
        <time>2022-04-23T11:22:17.523Z</time>
      </trkpt>
      <trkpt lat="41.98761" lon="21.05726">
        <ele>445.05049</ele>
        <time>2022-04-23T11:22:20.514Z</time>
      </trkpt>
      <trkpt lat="41.98761" lon="21.05711">
        <ele>445.138242</ele>
        <time>2022-04-23T11:22:23.500Z</time>
      </trkpt>
      <trkpt lat="41.98759" lon="21.05694">
        <ele>445.232576</ele>
        <time>2022-04-23T11:22:26.510Z</time>
      </trkpt>
      <trkpt lat="41.98759" lon="21.05678">
        <ele>445.322663</ele>
        <time>2022-04-23T11:22:29.490Z</time>
      </trkpt>
      <trkpt lat="41.98759" lon="21.05662">
        <ele>445.413788</ele>
        <time>2022-04-23T11:22:32.508Z</time>
      </trkpt>
      <trkpt lat="41.98758" lon="21.05645">
        <ele>445.506821</ele>
        <time>2022-04-23T11:22:35.515Z</time>
      </trkpt>
      <trkpt lat="41.98758" lon="21.05628">
        <ele>445.603568</ele>
        <time>2022-04-23T11:22:38.488Z</time>
      </trkpt>
      <trkpt lat="41.98757" lon="21.05611">
        <ele>445.698845</ele>
        <time>2022-04-23T11:22:41.550Z</time>
      </trkpt>
      <trkpt lat="41.98756" lon="21.05595">
        <ele>445.788082</ele>
        <time>2022-04-23T11:22:44.505Z</time>
      </trkpt>
      <trkpt lat="41.98755" lon="21.05579">
        <ele>445.88019</ele>
        <time>2022-04-23T11:22:47.519Z</time>
      </trkpt>
      <trkpt lat="41.98753" lon="21.05562">
        <ele>445.918341</ele>
        <time>2022-04-23T11:22:50.519Z</time>
      </trkpt>
      <trkpt lat="41.98752" lon="21.05545">
        <ele>445.95264</ele>
        <time>2022-04-23T11:22:53.526Z</time>
      </trkpt>
      <trkpt lat="41.98752" lon="21.05529">
        <ele>445.986028</ele>
        <time>2022-04-23T11:22:56.513Z</time>
      </trkpt>
      <trkpt lat="41.98752" lon="21.05512">
        <ele>446.020425</ele>
        <time>2022-04-23T11:22:59.505Z</time>
      </trkpt>
      <trkpt lat="41.98752" lon="21.05495">
        <ele>446.055844</ele>
        <time>2022-04-23T11:23:02.521Z</time>
      </trkpt>
      <trkpt lat="41.98752" lon="21.05478">
        <ele>446.090009</ele>
        <time>2022-04-23T11:23:05.499Z</time>
      </trkpt>
      <trkpt lat="41.98752" lon="21.05462">
        <ele>446.123987</ele>
        <time>2022-04-23T11:23:08.498Z</time>
      </trkpt>
      <trkpt lat="41.98754" lon="21.05446">
        <ele>446.156323</ele>
        <time>2022-04-23T11:23:11.519Z</time>
      </trkpt>
      <trkpt lat="41.98757" lon="21.05431">
        <ele>446.187764</ele>
        <time>2022-04-23T11:23:14.513Z</time>
      </trkpt>
      <trkpt lat="41.98761" lon="21.05416">
        <ele>446.221573</ele>
        <time>2022-04-23T11:23:17.482Z</time>
      </trkpt>
      <trkpt lat="41.98765" lon="21.05399">
        <ele>446.257273</ele>
        <time>2022-04-23T11:23:20.547Z</time>
      </trkpt>
      <trkpt lat="41.98769" lon="21.05383">
        <ele>446.29084</ele>
        <time>2022-04-23T11:23:23.509Z</time>
      </trkpt>
      <trkpt lat="41.98773" lon="21.05368">
        <ele>446.324987</ele>
        <time>2022-04-23T11:23:26.526Z</time>
      </trkpt>
      <trkpt lat="41.98776" lon="21.05352">
        <ele>446.358281</ele>
        <time>2022-04-23T11:23:29.499Z</time>
      </trkpt>
      <trkpt lat="41.98779" lon="21.05336">
        <ele>446.394127</ele>
        <time>2022-04-23T11:23:32.543Z</time>
      </trkpt>
      <trkpt lat="41.98783" lon="21.0532">
        <ele>446.432555</ele>
        <time>2022-04-23T11:23:35.496Z</time>
      </trkpt>
      <trkpt lat="41.98786" lon="21.05305">
        <ele>446.469771</ele>
        <time>2022-04-23T11:23:38.526Z</time>
      </trkpt>
      <trkpt lat="41.98789" lon="21.05289">
        <ele>446.50859</ele>
        <time>2022-04-23T11:23:41.501Z</time>
      </trkpt>
      <trkpt lat="41.98791" lon="21.05274">
        <ele>446.545362</ele>
        <time>2022-04-23T11:23:44.520Z</time>
      </trkpt>
      <trkpt lat="41.98794" lon="21.05259">
        <ele>446.582577</ele>
        <time>2022-04-23T11:23:47.504Z</time>
      </trkpt>
      <trkpt lat="41.988" lon="21.05244">
        <ele>446.622985</ele>
        <time>2022-04-23T11:23:50.527Z</time>
      </trkpt>
      <trkpt lat="41.98807" lon="21.05229">
        <ele>446.664583</ele>
        <time>2022-04-23T11:23:53.512Z</time>
      </trkpt>
      <trkpt lat="41.9881" lon="21.05214">
        <ele>446.700573</ele>
        <time>2022-04-23T11:23:56.513Z</time>
      </trkpt>
      <trkpt lat="41.98813" lon="21.05199">
        <ele>446.738178</ele>
        <time>2022-04-23T11:23:59.508Z</time>
      </trkpt>
      <trkpt lat="41.98817" lon="21.05184">
        <ele>446.776351</ele>
        <time>2022-04-23T11:24:02.503Z</time>
      </trkpt>
      <trkpt lat="41.9882" lon="21.05169">
        <ele>446.812891</ele>
        <time>2022-04-23T11:24:05.534Z</time>
      </trkpt>
      <trkpt lat="41.98824" lon="21.05152">
        <ele>446.852962</ele>
        <time>2022-04-23T11:24:08.491Z</time>
      </trkpt>
      <trkpt lat="41.98828" lon="21.05136">
        <ele>446.893557</ele>
        <time>2022-04-23T11:24:11.482Z</time>
      </trkpt>
      <trkpt lat="41.98832" lon="21.05125">
        <ele>446.922777</ele>
        <time>2022-04-23T11:24:13.505Z</time>
      </trkpt>
      <trkpt lat="41.98836" lon="21.05108">
        <ele>447.013885</ele>
        <time>2022-04-23T11:24:16.505Z</time>
      </trkpt>
      <trkpt lat="41.9884" lon="21.05091">
        <ele>447.22058</ele>
        <time>2022-04-23T11:24:19.519Z</time>
      </trkpt>
      <trkpt lat="41.98844" lon="21.05074">
        <ele>447.429227</ele>
        <time>2022-04-23T11:24:22.487Z</time>
      </trkpt>
      <trkpt lat="41.98847" lon="21.05063">
        <ele>447.571925</ele>
        <time>2022-04-23T11:24:24.491Z</time>
      </trkpt>
      <trkpt lat="41.98851" lon="21.05052">
        <ele>447.716108</ele>
        <time>2022-04-23T11:24:26.541Z</time>
      </trkpt>
      <trkpt lat="41.98854" lon="21.05036">
        <ele>447.914794</ele>
        <time>2022-04-23T11:24:29.504Z</time>
      </trkpt>
      <trkpt lat="41.98857" lon="21.0502">
        <ele>448.102485</ele>
        <time>2022-04-23T11:24:32.553Z</time>
      </trkpt>
      <trkpt lat="41.98862" lon="21.05005">
        <ele>448.30297</ele>
        <time>2022-04-23T11:24:35.501Z</time>
      </trkpt>
      <trkpt lat="41.98865" lon="21.04988">
        <ele>448.50016</ele>
        <time>2022-04-23T11:24:38.542Z</time>
      </trkpt>
      <trkpt lat="41.98868" lon="21.04972">
        <ele>448.693331</ele>
        <time>2022-04-23T11:24:41.519Z</time>
      </trkpt>
      <trkpt lat="41.9887" lon="21.04956">
        <ele>448.890534</ele>
        <time>2022-04-23T11:24:44.493Z</time>
      </trkpt>
      <trkpt lat="41.98874" lon="21.04939">
        <ele>449.097347</ele>
        <time>2022-04-23T11:24:47.516Z</time>
      </trkpt>
      <trkpt lat="41.98877" lon="21.04922">
        <ele>449.303311</ele>
        <time>2022-04-23T11:24:50.523Z</time>
      </trkpt>
      <trkpt lat="41.9888" lon="21.04906">
        <ele>449.497826</ele>
        <time>2022-04-23T11:24:53.497Z</time>
      </trkpt>
      <trkpt lat="41.98883" lon="21.0489">
        <ele>449.694994</ele>
        <time>2022-04-23T11:24:56.511Z</time>
      </trkpt>
      <trkpt lat="41.98884" lon="21.04873">
        <ele>449.836814</ele>
        <time>2022-04-23T11:24:59.534Z</time>
      </trkpt>
      <trkpt lat="41.98885" lon="21.04857">
        <ele>449.914711</ele>
        <time>2022-04-23T11:25:02.541Z</time>
      </trkpt>
      <trkpt lat="41.98886" lon="21.04841">
        <ele>449.9901</ele>
        <time>2022-04-23T11:25:05.506Z</time>
      </trkpt>
      <trkpt lat="41.98886" lon="21.04825">
        <ele>450.063922</ele>
        <time>2022-04-23T11:25:08.496Z</time>
      </trkpt>
      <trkpt lat="41.98885" lon="21.04809">
        <ele>450.142042</ele>
        <time>2022-04-23T11:25:11.513Z</time>
      </trkpt>
      <trkpt lat="41.98886" lon="21.04792">
        <ele>450.219647</ele>
        <time>2022-04-23T11:25:14.502Z</time>
      </trkpt>
      <trkpt lat="41.98886" lon="21.04776">
        <ele>450.294866</ele>
        <time>2022-04-23T11:25:17.501Z</time>
      </trkpt>
      <trkpt lat="41.98886" lon="21.04761">
        <ele>450.368202</ele>
        <time>2022-04-23T11:25:20.512Z</time>
      </trkpt>
      <trkpt lat="41.98885" lon="21.04745">
        <ele>450.44201</ele>
        <time>2022-04-23T11:25:23.546Z</time>
      </trkpt>
      <trkpt lat="41.98885" lon="21.0473">
        <ele>450.512981</ele>
        <time>2022-04-23T11:25:26.514Z</time>
      </trkpt>
      <trkpt lat="41.98885" lon="21.04715">
        <ele>450.585384</ele>
        <time>2022-04-23T11:25:29.495Z</time>
      </trkpt>
      <trkpt lat="41.98885" lon="21.047">
        <ele>450.657292</ele>
        <time>2022-04-23T11:25:32.494Z</time>
      </trkpt>
      <trkpt lat="41.98885" lon="21.04685">
        <ele>450.72779</ele>
        <time>2022-04-23T11:25:35.511Z</time>
      </trkpt>
      <trkpt lat="41.98885" lon="21.0467">
        <ele>450.798276</ele>
        <time>2022-04-23T11:25:38.493Z</time>
      </trkpt>
      <trkpt lat="41.98885" lon="21.04655">
        <ele>450.868315</ele>
        <time>2022-04-23T11:25:41.521Z</time>
      </trkpt>
      <trkpt lat="41.98884" lon="21.0464">
        <ele>450.938872</ele>
        <time>2022-04-23T11:25:44.499Z</time>
      </trkpt>
      <trkpt lat="41.98884" lon="21.04625">
        <ele>451.05321</ele>
        <time>2022-04-23T11:25:47.525Z</time>
      </trkpt>
      <trkpt lat="41.98884" lon="21.04611">
        <ele>451.165809</ele>
        <time>2022-04-23T11:25:50.494Z</time>
      </trkpt>
      <trkpt lat="41.98884" lon="21.04596">
        <ele>451.283223</ele>
        <time>2022-04-23T11:25:53.501Z</time>
      </trkpt>
      <trkpt lat="41.98884" lon="21.04581">
        <ele>451.399687</ele>
        <time>2022-04-23T11:25:56.504Z</time>
      </trkpt>
      <trkpt lat="41.98883" lon="21.04567">
        <ele>451.505607</ele>
        <time>2022-04-23T11:25:59.493Z</time>
      </trkpt>
      <trkpt lat="41.98881" lon="21.04553">
        <ele>451.615886</ele>
        <time>2022-04-23T11:26:02.509Z</time>
      </trkpt>
      <trkpt lat="41.9888" lon="21.04539">
        <ele>451.730044</ele>
        <time>2022-04-23T11:26:05.510Z</time>
      </trkpt>
      <trkpt lat="41.98879" lon="21.04524">
        <ele>451.84596</ele>
        <time>2022-04-23T11:26:08.503Z</time>
      </trkpt>
      <trkpt lat="41.98879" lon="21.04509">
        <ele>451.966496</ele>
        <time>2022-04-23T11:26:11.504Z</time>
      </trkpt>
      <trkpt lat="41.98878" lon="21.04494">
        <ele>452.085866</ele>
        <time>2022-04-23T11:26:14.525Z</time>
      </trkpt>
      <trkpt lat="41.98877" lon="21.04479">
        <ele>452.196983</ele>
        <time>2022-04-23T11:26:17.499Z</time>
      </trkpt>
      <trkpt lat="41.98876" lon="21.04466">
        <ele>452.305848</ele>
        <time>2022-04-23T11:26:20.495Z</time>
      </trkpt>
      <trkpt lat="41.98875" lon="21.04451">
        <ele>452.416779</ele>
        <time>2022-04-23T11:26:23.507Z</time>
      </trkpt>
      <trkpt lat="41.98874" lon="21.04437">
        <ele>452.530291</ele>
        <time>2022-04-23T11:26:26.508Z</time>
      </trkpt>
      <trkpt lat="41.98873" lon="21.04422">
        <ele>452.648991</ele>
        <time>2022-04-23T11:26:29.535Z</time>
      </trkpt>
      <trkpt lat="41.98872" lon="21.04406">
        <ele>452.771928</ele>
        <time>2022-04-23T11:26:32.505Z</time>
      </trkpt>
      <trkpt lat="41.98871" lon="21.0439">
        <ele>452.86574</ele>
        <time>2022-04-23T11:26:35.494Z</time>
      </trkpt>
      <trkpt lat="41.9887" lon="21.04375">
        <ele>452.927051</ele>
        <time>2022-04-23T11:26:38.489Z</time>
      </trkpt>
      <trkpt lat="41.98869" lon="21.0436">
        <ele>452.987463</ele>
        <time>2022-04-23T11:26:41.497Z</time>
      </trkpt>
      <trkpt lat="41.98868" lon="21.04345">
        <ele>453.045427</ele>
        <time>2022-04-23T11:26:44.497Z</time>
      </trkpt>
      <trkpt lat="41.98867" lon="21.0433">
        <ele>453.104412</ele>
        <time>2022-04-23T11:26:47.514Z</time>
      </trkpt>
      <trkpt lat="41.98865" lon="21.04316">
        <ele>453.161841</ele>
        <time>2022-04-23T11:26:50.541Z</time>
      </trkpt>
      <trkpt lat="41.98864" lon="21.04301">
        <ele>453.219074</ele>
        <time>2022-04-23T11:26:53.503Z</time>
      </trkpt>
      <trkpt lat="41.98863" lon="21.04286">
        <ele>453.278993</ele>
        <time>2022-04-23T11:26:56.519Z</time>
      </trkpt>
      <trkpt lat="41.98862" lon="21.0427">
        <ele>453.340186</ele>
        <time>2022-04-23T11:26:59.498Z</time>
      </trkpt>
      <trkpt lat="41.9886" lon="21.04255">
        <ele>453.402732</ele>
        <time>2022-04-23T11:27:02.509Z</time>
      </trkpt>
      <trkpt lat="41.98859" lon="21.04239">
        <ele>453.465436</ele>
        <time>2022-04-23T11:27:05.517Z</time>
      </trkpt>
      <trkpt lat="41.98858" lon="21.04223">
        <ele>453.528582</ele>
        <time>2022-04-23T11:27:08.492Z</time>
      </trkpt>
      <trkpt lat="41.98856" lon="21.04206">
        <ele>453.593922</ele>
        <time>2022-04-23T11:27:11.516Z</time>
      </trkpt>
      <trkpt lat="41.98854" lon="21.04191">
        <ele>453.655114</ele>
        <time>2022-04-23T11:27:14.512Z</time>
      </trkpt>
      <trkpt lat="41.98853" lon="21.04175">
        <ele>453.718554</ele>
        <time>2022-04-23T11:27:17.514Z</time>
      </trkpt>
      <trkpt lat="41.98853" lon="21.04158">
        <ele>453.78374</ele>
        <time>2022-04-23T11:27:20.500Z</time>
      </trkpt>
      <trkpt lat="41.98852" lon="21.04142">
        <ele>453.625853</ele>
        <time>2022-04-23T11:27:23.558Z</time>
      </trkpt>
      <trkpt lat="41.98851" lon="21.04127">
        <ele>453.467382</ele>
        <time>2022-04-23T11:27:26.500Z</time>
      </trkpt>
      <trkpt lat="41.9885" lon="21.04111">
        <ele>453.306712</ele>
        <time>2022-04-23T11:27:29.535Z</time>
      </trkpt>
      <trkpt lat="41.98848" lon="21.04096">
        <ele>453.147751</ele>
        <time>2022-04-23T11:27:32.494Z</time>
      </trkpt>
      <trkpt lat="41.98847" lon="21.04081">
        <ele>452.99182</ele>
        <time>2022-04-23T11:27:35.503Z</time>
      </trkpt>
      <trkpt lat="41.98847" lon="21.04065">
        <ele>452.825614</ele>
        <time>2022-04-23T11:27:38.497Z</time>
      </trkpt>
      <trkpt lat="41.98846" lon="21.04049">
        <ele>452.663607</ele>
        <time>2022-04-23T11:27:41.482Z</time>
      </trkpt>
      <trkpt lat="41.98846" lon="21.04033">
        <ele>452.503926</ele>
        <time>2022-04-23T11:27:44.514Z</time>
      </trkpt>
      <trkpt lat="41.98847" lon="21.04018">
        <ele>452.345082</ele>
        <time>2022-04-23T11:27:47.526Z</time>
      </trkpt>
      <trkpt lat="41.98849" lon="21.04003">
        <ele>452.188348</ele>
        <time>2022-04-23T11:27:50.493Z</time>
      </trkpt>
      <trkpt lat="41.98851" lon="21.03988">
        <ele>452.028334</ele>
        <time>2022-04-23T11:27:53.512Z</time>
      </trkpt>
      <trkpt lat="41.98853" lon="21.03973">
        <ele>451.871583</ele>
        <time>2022-04-23T11:27:56.516Z</time>
      </trkpt>
      <trkpt lat="41.98855" lon="21.03958">
        <ele>451.719871</ele>
        <time>2022-04-23T11:27:59.508Z</time>
      </trkpt>
      <trkpt lat="41.98858" lon="21.03944">
        <ele>451.562833</ele>
        <time>2022-04-23T11:28:02.489Z</time>
      </trkpt>
      <trkpt lat="41.9886" lon="21.0393">
        <ele>451.415845</ele>
        <time>2022-04-23T11:28:05.524Z</time>
      </trkpt>
      <trkpt lat="41.98863" lon="21.03916">
        <ele>451.312671</ele>
        <time>2022-04-23T11:28:08.542Z</time>
      </trkpt>
      <trkpt lat="41.98866" lon="21.03902">
        <ele>451.428208</ele>
        <time>2022-04-23T11:28:11.495Z</time>
      </trkpt>
      <trkpt lat="41.98869" lon="21.03888">
        <ele>451.552446</ele>
        <time>2022-04-23T11:28:14.498Z</time>
      </trkpt>
      <trkpt lat="41.98872" lon="21.03873">
        <ele>451.675307</ele>
        <time>2022-04-23T11:28:17.515Z</time>
      </trkpt>
      <trkpt lat="41.98875" lon="21.03859">
        <ele>451.790777</ele>
        <time>2022-04-23T11:28:20.527Z</time>
      </trkpt>
      <trkpt lat="41.98878" lon="21.03846">
        <ele>451.903057</ele>
        <time>2022-04-23T11:28:23.503Z</time>
      </trkpt>
      <trkpt lat="41.98881" lon="21.03833">
        <ele>452.012689</ele>
        <time>2022-04-23T11:28:26.501Z</time>
      </trkpt>
      <trkpt lat="41.98884" lon="21.03821">
        <ele>452.121412</ele>
        <time>2022-04-23T11:28:29.506Z</time>
      </trkpt>
      <trkpt lat="41.98887" lon="21.03808">
        <ele>452.230603</ele>
        <time>2022-04-23T11:28:32.521Z</time>
      </trkpt>
      <trkpt lat="41.9889" lon="21.03795">
        <ele>452.339138</ele>
        <time>2022-04-23T11:28:35.508Z</time>
      </trkpt>
      <trkpt lat="41.98893" lon="21.03782">
        <ele>452.449103</ele>
        <time>2022-04-23T11:28:38.505Z</time>
      </trkpt>
      <trkpt lat="41.98896" lon="21.03769">
        <ele>452.562011</ele>
        <time>2022-04-23T11:28:41.495Z</time>
      </trkpt>
      <trkpt lat="41.98902" lon="21.03755">
        <ele>452.690847</ele>
        <time>2022-04-23T11:28:44.503Z</time>
      </trkpt>
      <trkpt lat="41.98907" lon="21.03742">
        <ele>452.813453</ele>
        <time>2022-04-23T11:28:47.520Z</time>
      </trkpt>
      <trkpt lat="41.9891" lon="21.03729">
        <ele>452.921987</ele>
        <time>2022-04-23T11:28:50.517Z</time>
      </trkpt>
      <trkpt lat="41.98913" lon="21.03716">
        <ele>453.033325</ele>
        <time>2022-04-23T11:28:53.590Z</time>
      </trkpt>
      <trkpt lat="41.98918" lon="21.03702">
        <ele>453.154237</ele>
        <time>2022-04-23T11:28:56.512Z</time>
      </trkpt>
      <trkpt lat="41.98922" lon="21.03688">
        <ele>453.256591</ele>
        <time>2022-04-23T11:28:59.502Z</time>
      </trkpt>
      <trkpt lat="41.98927" lon="21.03673">
        <ele>453.257199</ele>
        <time>2022-04-23T11:29:02.525Z</time>
      </trkpt>
      <trkpt lat="41.98932" lon="21.0366">
        <ele>453.257775</ele>
        <time>2022-04-23T11:29:05.501Z</time>
      </trkpt>
      <trkpt lat="41.98936" lon="21.03646">
        <ele>453.258335</ele>
        <time>2022-04-23T11:29:08.495Z</time>
      </trkpt>
      <trkpt lat="41.98939" lon="21.03633">
        <ele>453.258837</ele>
        <time>2022-04-23T11:29:11.512Z</time>
      </trkpt>
      <trkpt lat="41.98943" lon="21.03619">
        <ele>453.259408</ele>
        <time>2022-04-23T11:29:14.493Z</time>
      </trkpt>
      <trkpt lat="41.98947" lon="21.03604">
        <ele>453.259996</ele>
        <time>2022-04-23T11:29:17.511Z</time>
      </trkpt>
      <trkpt lat="41.98947" lon="21.03589">
        <ele>453.260564</ele>
        <time>2022-04-23T11:29:20.512Z</time>
      </trkpt>
      <trkpt lat="41.98934" lon="21.03582">
        <ele>453.261248</ele>
        <time>2022-04-23T11:29:23.487Z</time>
      </trkpt>
      <trkpt lat="41.98923" lon="21.0359">
        <ele>453.261862</ele>
        <time>2022-04-23T11:29:25.516Z</time>
      </trkpt>
      <trkpt lat="41.98916" lon="21.03598">
        <ele>453.262337</ele>
        <time>2022-04-23T11:29:27.513Z</time>
      </trkpt>
      <trkpt lat="41.98907" lon="21.03603">
        <ele>453.262827</ele>
        <time>2022-04-23T11:29:29.516Z</time>
      </trkpt>
      <trkpt lat="41.98898" lon="21.03607">
        <ele>453.263321</ele>
        <time>2022-04-23T11:29:31.522Z</time>
      </trkpt>
      <trkpt lat="41.98888" lon="21.03611">
        <ele>453.263828</ele>
        <time>2022-04-23T11:29:33.499Z</time>
      </trkpt>
      <trkpt lat="41.98878" lon="21.03615">
        <ele>453.264337</ele>
        <time>2022-04-23T11:29:35.502Z</time>
      </trkpt>
      <trkpt lat="41.98869" lon="21.03617">
        <ele>453.264801</ele>
        <time>2022-04-23T11:29:37.525Z</time>
      </trkpt>
      <trkpt lat="41.98858" lon="21.03619">
        <ele>453.265398</ele>
        <time>2022-04-23T11:29:40.499Z</time>
      </trkpt>
      <trkpt lat="41.98845" lon="21.03617">
        <ele>453.372447</ele>
        <time>2022-04-23T11:29:43.504Z</time>
      </trkpt>
      <trkpt lat="41.98835" lon="21.03615">
        <ele>453.480381</ele>
        <time>2022-04-23T11:29:45.488Z</time>
      </trkpt>
      <trkpt lat="41.98826" lon="21.03613">
        <ele>453.590556</ele>
        <time>2022-04-23T11:29:47.492Z</time>
      </trkpt>
      <trkpt lat="41.98813" lon="21.03609">
        <ele>453.742797</ele>
        <time>2022-04-23T11:29:50.499Z</time>
      </trkpt>
      <trkpt lat="41.988" lon="21.03604">
        <ele>453.888456</ele>
        <time>2022-04-23T11:29:53.519Z</time>
      </trkpt>
      <trkpt lat="41.98789" lon="21.03601">
        <ele>454.01978</ele>
        <time>2022-04-23T11:29:56.499Z</time>
      </trkpt>
      <trkpt lat="41.98778" lon="21.03597">
        <ele>454.147485</ele>
        <time>2022-04-23T11:29:59.495Z</time>
      </trkpt>
      <trkpt lat="41.98767" lon="21.03596">
        <ele>454.279573</ele>
        <time>2022-04-23T11:30:02.502Z</time>
      </trkpt>
      <trkpt lat="41.98756" lon="21.03599">
        <ele>454.407978</ele>
        <time>2022-04-23T11:30:05.495Z</time>
      </trkpt>
      <trkpt lat="41.98748" lon="21.03606">
        <ele>454.517139</ele>
        <time>2022-04-23T11:30:08.525Z</time>
      </trkpt>
      <trkpt lat="41.98742" lon="21.03616">
        <ele>454.625398</ele>
        <time>2022-04-23T11:30:12.511Z</time>
      </trkpt>
      <trkpt lat="41.98736" lon="21.03629">
        <ele>454.750463</ele>
        <time>2022-04-23T11:30:16.515Z</time>
      </trkpt>
      <trkpt lat="41.98733" lon="21.03643">
        <ele>454.877379</ele>
        <time>2022-04-23T11:30:20.501Z</time>
      </trkpt>
      <trkpt lat="41.9873" lon="21.03659">
        <ele>455.011085</ele>
        <time>2022-04-23T11:30:24.513Z</time>
      </trkpt>
      <trkpt lat="41.98729" lon="21.03672">
        <ele>455.118656</ele>
        <time>2022-04-23T11:30:26.523Z</time>
      </trkpt>
      <trkpt lat="41.98729" lon="21.03687">
        <ele>455.246797</ele>
        <time>2022-04-23T11:30:28.499Z</time>
      </trkpt>
      <trkpt lat="41.98731" lon="21.03703">
        <ele>455.136818</ele>
        <time>2022-04-23T11:30:30.509Z</time>
      </trkpt>
      <trkpt lat="41.98734" lon="21.03717">
        <ele>454.857108</ele>
        <time>2022-04-23T11:30:32.509Z</time>
      </trkpt>
      <trkpt lat="41.98734" lon="21.03733">
        <ele>454.558572</ele>
        <time>2022-04-23T11:30:35.528Z</time>
      </trkpt>
      <trkpt lat="41.98734" lon="21.03751">
        <ele>454.229039</ele>
        <time>2022-04-23T11:30:38.505Z</time>
      </trkpt>
      <trkpt lat="41.9873" lon="21.03768">
        <ele>453.893663</ele>
        <time>2022-04-23T11:30:41.506Z</time>
      </trkpt>
      <trkpt lat="41.98725" lon="21.03784">
        <ele>453.56964</ele>
        <time>2022-04-23T11:30:44.507Z</time>
      </trkpt>
      <trkpt lat="41.98718" lon="21.03797">
        <ele>453.285815</ele>
        <time>2022-04-23T11:30:47.507Z</time>
      </trkpt>
      <trkpt lat="41.98711" lon="21.03808">
        <ele>453.018242</ele>
        <time>2022-04-23T11:30:51.486Z</time>
      </trkpt>
      <trkpt lat="41.98704" lon="21.03816">
        <ele>452.79033</ele>
        <time>2022-04-23T11:30:54.525Z</time>
      </trkpt>
      <trkpt lat="41.98695" lon="21.03823">
        <ele>452.525804</ele>
        <time>2022-04-23T11:30:57.495Z</time>
      </trkpt>
      <trkpt lat="41.98685" lon="21.03831">
        <ele>452.249907</ele>
        <time>2022-04-23T11:31:00.467Z</time>
      </trkpt>
      <trkpt lat="41.98678" lon="21.03839">
        <ele>452.005685</ele>
        <time>2022-04-23T11:31:03.499Z</time>
      </trkpt>
      <trkpt lat="41.98671" lon="21.03847">
        <ele>451.770423</ele>
        <time>2022-04-23T11:31:06.537Z</time>
      </trkpt>
      <trkpt lat="41.98659" lon="21.03854">
        <ele>451.466678</ele>
        <time>2022-04-23T11:31:10.508Z</time>
      </trkpt>
      <trkpt lat="41.98649" lon="21.0386">
        <ele>451.191684</ele>
        <time>2022-04-23T11:31:13.518Z</time>
      </trkpt>
      <trkpt lat="41.98639" lon="21.03865">
        <ele>450.915373</ele>
        <time>2022-04-23T11:31:16.515Z</time>
      </trkpt>
      <trkpt lat="41.98628" lon="21.03871">
        <ele>450.843439</ele>
        <time>2022-04-23T11:31:19.526Z</time>
      </trkpt>
      <trkpt lat="41.98615" lon="21.03876">
        <ele>450.870816</ele>
        <time>2022-04-23T11:31:22.503Z</time>
      </trkpt>
      <trkpt lat="41.98603" lon="21.03881">
        <ele>450.897233</ele>
        <time>2022-04-23T11:31:25.484Z</time>
      </trkpt>
      <trkpt lat="41.98592" lon="21.03886">
        <ele>450.922251</ele>
        <time>2022-04-23T11:31:28.543Z</time>
      </trkpt>
      <trkpt lat="41.98581" lon="21.03892">
        <ele>450.947066</ele>
        <time>2022-04-23T11:31:31.595Z</time>
      </trkpt>
      <trkpt lat="41.98569" lon="21.03898">
        <ele>450.973083</ele>
        <time>2022-04-23T11:31:34.498Z</time>
      </trkpt>
      <trkpt lat="41.98557" lon="21.03906">
        <ele>451.001696</ele>
        <time>2022-04-23T11:31:37.574Z</time>
      </trkpt>
      <trkpt lat="41.98548" lon="21.0391">
        <ele>451.021323</ele>
        <time>2022-04-23T11:31:39.483Z</time>
      </trkpt>
      <trkpt lat="41.98536" lon="21.03916">
        <ele>451.048337</ele>
        <time>2022-04-23T11:31:42.487Z</time>
      </trkpt>
      <trkpt lat="41.98524" lon="21.03922">
        <ele>451.074744</ele>
        <time>2022-04-23T11:31:45.496Z</time>
      </trkpt>
      <trkpt lat="41.98516" lon="21.03927">
        <ele>451.094201</ele>
        <time>2022-04-23T11:31:47.560Z</time>
      </trkpt>
      <trkpt lat="41.98504" lon="21.03935">
        <ele>451.121418</ele>
        <time>2022-04-23T11:31:50.514Z</time>
      </trkpt>
      <trkpt lat="41.98493" lon="21.03941">
        <ele>451.146153</ele>
        <time>2022-04-23T11:31:53.547Z</time>
      </trkpt>
      <trkpt lat="41.98482" lon="21.03949">
        <ele>451.171928</ele>
        <time>2022-04-23T11:31:56.497Z</time>
      </trkpt>
      <trkpt lat="41.9847" lon="21.03956">
        <ele>451.199525</ele>
        <time>2022-04-23T11:31:59.516Z</time>
      </trkpt>
      <trkpt lat="41.98459" lon="21.03963">
        <ele>451.510742</ele>
        <time>2022-04-23T11:32:02.510Z</time>
      </trkpt>
      <trkpt lat="41.98448" lon="21.0397">
        <ele>451.830821</ele>
        <time>2022-04-23T11:32:05.511Z</time>
      </trkpt>
      <trkpt lat="41.98437" lon="21.03977">
        <ele>452.188249</ele>
        <time>2022-04-23T11:32:08.506Z</time>
      </trkpt>
      <trkpt lat="41.98426" lon="21.03986">
        <ele>452.543644</ele>
        <time>2022-04-23T11:32:11.506Z</time>
      </trkpt>
      <trkpt lat="41.98413" lon="21.03992">
        <ele>452.90763</ele>
        <time>2022-04-23T11:32:14.499Z</time>
      </trkpt>
      <trkpt lat="41.98401" lon="21.03996">
        <ele>453.253809</ele>
        <time>2022-04-23T11:32:17.503Z</time>
      </trkpt>
      <trkpt lat="41.98388" lon="21.03998">
        <ele>453.619501</ele>
        <time>2022-04-23T11:32:20.545Z</time>
      </trkpt>
      <trkpt lat="41.98376" lon="21.04001">
        <ele>453.966281</ele>
        <time>2022-04-23T11:32:23.502Z</time>
      </trkpt>
      <trkpt lat="41.98367" lon="21.04">
        <ele>454.217573</ele>
        <time>2022-04-23T11:32:25.582Z</time>
      </trkpt>
      <trkpt lat="41.98356" lon="21.03998">
        <ele>454.504578</ele>
        <time>2022-04-23T11:32:27.520Z</time>
      </trkpt>
      <trkpt lat="41.98346" lon="21.03998">
        <ele>454.789697</ele>
        <time>2022-04-23T11:32:29.503Z</time>
      </trkpt>
      <trkpt lat="41.98333" lon="21.03998">
        <ele>455.152313</ele>
        <time>2022-04-23T11:32:32.484Z</time>
      </trkpt>
      <trkpt lat="41.9832" lon="21.03999">
        <ele>455.503882</ele>
        <time>2022-04-23T11:32:35.517Z</time>
      </trkpt>
      <trkpt lat="41.98308" lon="21.03996">
        <ele>455.843394</ele>
        <time>2022-04-23T11:32:38.494Z</time>
      </trkpt>
      <trkpt lat="41.98299" lon="21.03994">
        <ele>456.098628</ele>
        <time>2022-04-23T11:32:40.504Z</time>
      </trkpt>
      <trkpt lat="41.98289" lon="21.03994">
        <ele>456.152222</ele>
        <time>2022-04-23T11:32:42.502Z</time>
      </trkpt>
      <trkpt lat="41.98277" lon="21.03996">
        <ele>456.103772</ele>
        <time>2022-04-23T11:32:45.522Z</time>
      </trkpt>
      <trkpt lat="41.98265" lon="21.03997">
        <ele>456.051424</ele>
        <time>2022-04-23T11:32:48.512Z</time>
      </trkpt>
      <trkpt lat="41.98256" lon="21.04003">
        <ele>456.013627</ele>
        <time>2022-04-23T11:32:51.501Z</time>
      </trkpt>
      <trkpt lat="41.98249" lon="21.04011">
        <ele>455.973934</ele>
        <time>2022-04-23T11:32:54.489Z</time>
      </trkpt>
      <trkpt lat="41.9824" lon="21.0402">
        <ele>455.92872</ele>
        <time>2022-04-23T11:32:57.512Z</time>
      </trkpt>
      <trkpt lat="41.98232" lon="21.04026">
        <ele>455.892299</ele>
        <time>2022-04-23T11:33:00.514Z</time>
      </trkpt>
      <trkpt lat="41.98221" lon="21.04022">
        <ele>455.84713</ele>
        <time>2022-04-23T11:33:04.524Z</time>
      </trkpt>
      <trkpt lat="41.98218" lon="21.04006">
        <ele>455.797592</ele>
        <time>2022-04-23T11:33:08.553Z</time>
      </trkpt>
      <trkpt lat="41.98216" lon="21.03993">
        <ele>455.756133</ele>
        <time>2022-04-23T11:33:11.512Z</time>
      </trkpt>
      <trkpt lat="41.98212" lon="21.03979">
        <ele>455.710216</ele>
        <time>2022-04-23T11:33:14.508Z</time>
      </trkpt>
      <trkpt lat="41.98206" lon="21.03965">
        <ele>455.663244</ele>
        <time>2022-04-23T11:33:17.504Z</time>
      </trkpt>
      <trkpt lat="41.982" lon="21.0395">
        <ele>455.610702</ele>
        <time>2022-04-23T11:33:20.506Z</time>
      </trkpt>
      <trkpt lat="41.98196" lon="21.03935">
        <ele>455.561075</ele>
        <time>2022-04-23T11:33:23.514Z</time>
      </trkpt>
      <trkpt lat="41.98192" lon="21.03921">
        <ele>455.516566</ele>
        <time>2022-04-23T11:33:26.509Z</time>
      </trkpt>
      <trkpt lat="41.98189" lon="21.03908">
        <ele>455.476051</ele>
        <time>2022-04-23T11:33:29.505Z</time>
      </trkpt>
      <trkpt lat="41.98187" lon="21.03896">
        <ele>455.457761</ele>
        <time>2022-04-23T11:33:32.506Z</time>
      </trkpt>
      <trkpt lat="41.98184" lon="21.03883">
        <ele>455.49737</ele>
        <time>2022-04-23T11:33:35.512Z</time>
      </trkpt>
      <trkpt lat="41.98181" lon="21.03869">
        <ele>455.541103</ele>
        <time>2022-04-23T11:33:38.485Z</time>
      </trkpt>
      <trkpt lat="41.98178" lon="21.03855">
        <ele>455.584551</ele>
        <time>2022-04-23T11:33:41.523Z</time>
      </trkpt>
      <trkpt lat="41.98175" lon="21.03841">
        <ele>455.626908</ele>
        <time>2022-04-23T11:33:44.552Z</time>
      </trkpt>
      <trkpt lat="41.98172" lon="21.03827">
        <ele>455.670878</ele>
        <time>2022-04-23T11:33:47.501Z</time>
      </trkpt>
      <trkpt lat="41.98169" lon="21.03814">
        <ele>455.711895</ele>
        <time>2022-04-23T11:33:50.492Z</time>
      </trkpt>
      <trkpt lat="41.98165" lon="21.03801">
        <ele>455.752629</ele>
        <time>2022-04-23T11:33:53.526Z</time>
      </trkpt>
      <trkpt lat="41.98163" lon="21.03786">
        <ele>455.798497</ele>
        <time>2022-04-23T11:33:57.511Z</time>
      </trkpt>
      <trkpt lat="41.98161" lon="21.03771">
        <ele>455.84335</ele>
        <time>2022-04-23T11:34:01.510Z</time>
      </trkpt>
      <trkpt lat="41.98159" lon="21.03759">
        <ele>455.879752</ele>
        <time>2022-04-23T11:34:04.496Z</time>
      </trkpt>
      <trkpt lat="41.98158" lon="21.03747">
        <ele>455.916094</ele>
        <time>2022-04-23T11:34:07.514Z</time>
      </trkpt>
      <trkpt lat="41.98156" lon="21.03735">
        <ele>455.953743</ele>
        <time>2022-04-23T11:34:10.512Z</time>
      </trkpt>
      <trkpt lat="41.98154" lon="21.03722">
        <ele>455.99385</ele>
        <time>2022-04-23T11:34:13.508Z</time>
      </trkpt>
      <trkpt lat="41.98152" lon="21.03709">
        <ele>456.034662</ele>
        <time>2022-04-23T11:34:16.497Z</time>
      </trkpt>
      <trkpt lat="41.98146" lon="21.03694">
        <ele>456.081927</ele>
        <time>2022-04-23T11:34:19.515Z</time>
      </trkpt>
      <trkpt lat="41.98145" lon="21.03682">
        <ele>456.119944</ele>
        <time>2022-04-23T11:34:22.497Z</time>
      </trkpt>
      <trkpt lat="41.98142" lon="21.0367">
        <ele>456.158125</ele>
        <time>2022-04-23T11:34:26.514Z</time>
      </trkpt>
      <trkpt lat="41.98139" lon="21.03658">
        <ele>456.310279</ele>
        <time>2022-04-23T11:34:31.515Z</time>
      </trkpt>
      <trkpt lat="41.98134" lon="21.03644">
        <ele>456.543084</ele>
        <time>2022-04-23T11:34:36.523Z</time>
      </trkpt>
      <trkpt lat="41.98129" lon="21.03633">
        <ele>456.759926</ele>
        <time>2022-04-23T11:34:40.520Z</time>
      </trkpt>
      <trkpt lat="41.98121" lon="21.03621">
        <ele>457.00664</ele>
        <time>2022-04-23T11:34:44.486Z</time>
      </trkpt>
      <trkpt lat="41.98114" lon="21.03608">
        <ele>457.252449</ele>
        <time>2022-04-23T11:34:48.512Z</time>
      </trkpt>
      <trkpt lat="41.98109" lon="21.03596">
        <ele>457.479427</ele>
        <time>2022-04-23T11:34:52.532Z</time>
      </trkpt>
      <trkpt lat="41.98106" lon="21.03584">
        <ele>457.673959</ele>
        <time>2022-04-23T11:34:56.508Z</time>
      </trkpt>
      <trkpt lat="41.98101" lon="21.03571">
        <ele>457.908605</ele>
        <time>2022-04-23T11:35:00.488Z</time>
      </trkpt>
      <trkpt lat="41.98095" lon="21.0356">
        <ele>458.124129</ele>
        <time>2022-04-23T11:35:03.495Z</time>
      </trkpt>
      <trkpt lat="41.98087" lon="21.0355">
        <ele>458.349446</ele>
        <time>2022-04-23T11:35:06.521Z</time>
      </trkpt>
      <trkpt lat="41.98079" lon="21.03538">
        <ele>458.612036</ele>
        <time>2022-04-23T11:35:09.502Z</time>
      </trkpt>
      <trkpt lat="41.98073" lon="21.03527">
        <ele>458.827333</ele>
        <time>2022-04-23T11:35:12.514Z</time>
      </trkpt>
      <trkpt lat="41.98066" lon="21.03516">
        <ele>459.057877</ele>
        <time>2022-04-23T11:35:15.504Z</time>
      </trkpt>
      <trkpt lat="41.9806" lon="21.03504">
        <ele>459.288312</ele>
        <time>2022-04-23T11:35:18.515Z</time>
      </trkpt>
      <trkpt lat="41.98053" lon="21.03491">
        <ele>459.532818</ele>
        <time>2022-04-23T11:35:22.513Z</time>
      </trkpt>
      <trkpt lat="41.98047" lon="21.03479">
        <ele>459.761942</ele>
        <time>2022-04-23T11:35:25.519Z</time>
      </trkpt>
      <trkpt lat="41.98042" lon="21.03466">
        <ele>459.985958</ele>
        <time>2022-04-23T11:35:28.503Z</time>
      </trkpt>
      <trkpt lat="41.98035" lon="21.03455">
        <ele>459.981613</ele>
        <time>2022-04-23T11:35:31.492Z</time>
      </trkpt>
      <trkpt lat="41.98029" lon="21.03443">
        <ele>459.977284</ele>
        <time>2022-04-23T11:35:35.521Z</time>
      </trkpt>
      <trkpt lat="41.98022" lon="21.03431">
        <ele>459.972809</ele>
        <time>2022-04-23T11:35:39.514Z</time>
      </trkpt>
      <trkpt lat="41.98016" lon="21.03422">
        <ele>459.969151</ele>
        <time>2022-04-23T11:35:42.502Z</time>
      </trkpt>
      <trkpt lat="41.98008" lon="21.03411">
        <ele>459.964321</ele>
        <time>2022-04-23T11:35:45.498Z</time>
      </trkpt>
      <trkpt lat="41.98" lon="21.03402">
        <ele>459.960431</ele>
        <time>2022-04-23T11:35:48.515Z</time>
      </trkpt>
      <trkpt lat="41.97993" lon="21.03394">
        <ele>459.956715</ele>
        <time>2022-04-23T11:35:52.509Z</time>
      </trkpt>
      <trkpt lat="41.97986" lon="21.03387">
        <ele>459.952836</ele>
        <time>2022-04-23T11:35:57.496Z</time>
      </trkpt>
      <trkpt lat="41.97976" lon="21.03378">
        <ele>459.948345</ele>
        <time>2022-04-23T11:36:02.509Z</time>
      </trkpt>
      <trkpt lat="41.97969" lon="21.0337">
        <ele>459.944342</ele>
        <time>2022-04-23T11:36:06.522Z</time>
      </trkpt>
      <trkpt lat="41.9796" lon="21.03361">
        <ele>459.9399</ele>
        <time>2022-04-23T11:36:10.501Z</time>
      </trkpt>
      <trkpt lat="41.97952" lon="21.03354">
        <ele>459.936024</ele>
        <time>2022-04-23T11:36:13.516Z</time>
      </trkpt>
      <trkpt lat="41.97945" lon="21.03346">
        <ele>459.932316</ele>
        <time>2022-04-23T11:36:16.504Z</time>
      </trkpt>
      <trkpt lat="41.97937" lon="21.03337">
        <ele>459.928363</ele>
        <time>2022-04-23T11:36:19.506Z</time>
      </trkpt>
      <trkpt lat="41.97927" lon="21.03331">
        <ele>459.924025</ele>
        <time>2022-04-23T11:36:23.498Z</time>
      </trkpt>
      <trkpt lat="41.97919" lon="21.03324">
        <ele>459.92002</ele>
        <time>2022-04-23T11:36:27.503Z</time>
      </trkpt>
      <trkpt lat="41.9791" lon="21.03319">
        <ele>459.916198</ele>
        <time>2022-04-23T11:36:32.502Z</time>
      </trkpt>
      <trkpt lat="41.97902" lon="21.03313">
        <ele>459.949776</ele>
        <time>2022-04-23T11:36:36.510Z</time>
      </trkpt>
      <trkpt lat="41.97893" lon="21.03307">
        <ele>460.076661</ele>
        <time>2022-04-23T11:36:40.505Z</time>
      </trkpt>
      <trkpt lat="41.97883" lon="21.03301">
        <ele>460.211913</ele>
        <time>2022-04-23T11:36:45.505Z</time>
      </trkpt>
      <trkpt lat="41.97874" lon="21.03292">
        <ele>460.348937</ele>
        <time>2022-04-23T11:36:49.511Z</time>
      </trkpt>
      <trkpt lat="41.97866" lon="21.03282">
        <ele>460.481576</ele>
        <time>2022-04-23T11:36:53.486Z</time>
      </trkpt>
      <trkpt lat="41.97859" lon="21.03274">
        <ele>460.597159</ele>
        <time>2022-04-23T11:36:57.507Z</time>
      </trkpt>
      <trkpt lat="41.97852" lon="21.03264">
        <ele>460.717691</ele>
        <time>2022-04-23T11:37:01.503Z</time>
      </trkpt>
      <trkpt lat="41.97847" lon="21.03254">
        <ele>460.832682</ele>
        <time>2022-04-23T11:37:06.515Z</time>
      </trkpt>
      <trkpt lat="41.9784" lon="21.03245">
        <ele>460.959682</ele>
        <time>2022-04-23T11:37:10.508Z</time>
      </trkpt>
      <trkpt lat="41.97833" lon="21.03235">
        <ele>461.080369</ele>
        <time>2022-04-23T11:37:14.545Z</time>
      </trkpt>
      <trkpt lat="41.97828" lon="21.03223">
        <ele>461.212385</ele>
        <time>2022-04-23T11:37:19.526Z</time>
      </trkpt>
      <trkpt lat="41.97823" lon="21.03212">
        <ele>461.329434</ele>
        <time>2022-04-23T11:37:24.504Z</time>
      </trkpt>
      <trkpt lat="41.97815" lon="21.03203">
        <ele>461.454877</ele>
        <time>2022-04-23T11:37:28.512Z</time>
      </trkpt>
      <trkpt lat="41.97805" lon="21.03197">
        <ele>461.589334</ele>
        <time>2022-04-23T11:37:32.513Z</time>
      </trkpt>
      <trkpt lat="41.97795" lon="21.03189">
        <ele>461.734389</ele>
        <time>2022-04-23T11:37:36.516Z</time>
      </trkpt>
      <trkpt lat="41.97787" lon="21.03184">
        <ele>461.848565</ele>
        <time>2022-04-23T11:37:39.555Z</time>
      </trkpt>
      <trkpt lat="41.97776" lon="21.03176">
        <ele>461.996837</ele>
        <time>2022-04-23T11:37:43.511Z</time>
      </trkpt>
      <trkpt lat="41.97767" lon="21.03169">
        <ele>462.127319</ele>
        <time>2022-04-23T11:37:46.517Z</time>
      </trkpt>
      <trkpt lat="41.97759" lon="21.03161">
        <ele>462.148884</ele>
        <time>2022-04-23T11:37:49.499Z</time>
      </trkpt>
      <trkpt lat="41.97749" lon="21.03151">
        <ele>462.152058</ele>
        <time>2022-04-23T11:37:53.496Z</time>
      </trkpt>
      <trkpt lat="41.97742" lon="21.03144">
        <ele>462.154465</ele>
        <time>2022-04-23T11:37:56.519Z</time>
      </trkpt>
      <trkpt lat="41.97733" lon="21.03136">
        <ele>462.157386</ele>
        <time>2022-04-23T11:38:00.512Z</time>
      </trkpt>
      <trkpt lat="41.97724" lon="21.03129">
        <ele>462.160048</ele>
        <time>2022-04-23T11:38:04.486Z</time>
      </trkpt>
      <trkpt lat="41.97714" lon="21.0312">
        <ele>462.163098</ele>
        <time>2022-04-23T11:38:08.503Z</time>
      </trkpt>
      <trkpt lat="41.97707" lon="21.03112">
        <ele>462.165568</ele>
        <time>2022-04-23T11:38:12.487Z</time>
      </trkpt>
      <trkpt lat="41.97699" lon="21.03102">
        <ele>462.168365</ele>
        <time>2022-04-23T11:38:16.493Z</time>
      </trkpt>
      <trkpt lat="41.97692" lon="21.03092">
        <ele>462.170989</ele>
        <time>2022-04-23T11:38:21.495Z</time>
      </trkpt>
      <trkpt lat="41.97684" lon="21.03083">
        <ele>462.173657</ele>
        <time>2022-04-23T11:38:25.500Z</time>
      </trkpt>
      <trkpt lat="41.97676" lon="21.03073">
        <ele>462.176432</ele>
        <time>2022-04-23T11:38:29.505Z</time>
      </trkpt>
      <trkpt lat="41.97668" lon="21.03063">
        <ele>462.179339</ele>
        <time>2022-04-23T11:38:33.497Z</time>
      </trkpt>
      <trkpt lat="41.97661" lon="21.03052">
        <ele>462.182067</ele>
        <time>2022-04-23T11:38:37.520Z</time>
      </trkpt>
      <trkpt lat="41.97654" lon="21.0304">
        <ele>462.185036</ele>
        <time>2022-04-23T11:38:41.512Z</time>
      </trkpt>
      <trkpt lat="41.97647" lon="21.03028">
        <ele>462.187965</ele>
        <time>2022-04-23T11:38:45.519Z</time>
      </trkpt>
      <trkpt lat="41.97641" lon="21.03019">
        <ele>462.190366</ele>
        <time>2022-04-23T11:38:48.516Z</time>
      </trkpt>
      <trkpt lat="41.97636" lon="21.03005">
        <ele>462.19336</ele>
        <time>2022-04-23T11:38:52.513Z</time>
      </trkpt>
      <trkpt lat="41.9763" lon="21.02992">
        <ele>462.056919</ele>
        <time>2022-04-23T11:38:56.512Z</time>
      </trkpt>
      <trkpt lat="41.97623" lon="21.02981">
        <ele>461.926497</ele>
        <time>2022-04-23T11:39:00.496Z</time>
      </trkpt>
      <trkpt lat="41.97617" lon="21.02969">
        <ele>461.801369</ele>
        <time>2022-04-23T11:39:04.504Z</time>
      </trkpt>
      <trkpt lat="41.97608" lon="21.02959">
        <ele>461.663769</ele>
        <time>2022-04-23T11:39:08.526Z</time>
      </trkpt>
      <trkpt lat="41.976" lon="21.02953">
        <ele>461.553649</ele>
        <time>2022-04-23T11:39:12.561Z</time>
      </trkpt>
      <trkpt lat="41.9759" lon="21.02946">
        <ele>461.421263</ele>
        <time>2022-04-23T11:39:17.530Z</time>
      </trkpt>
      <trkpt lat="41.97581" lon="21.02939">
        <ele>461.292707</ele>
        <time>2022-04-23T11:39:21.500Z</time>
      </trkpt>
      <trkpt lat="41.97572" lon="21.02931">
        <ele>461.164189</ele>
        <time>2022-04-23T11:39:25.502Z</time>
      </trkpt>
      <trkpt lat="41.97565" lon="21.02922">
        <ele>461.044873</ele>
        <time>2022-04-23T11:39:31.502Z</time>
      </trkpt>
      <trkpt lat="41.97556" lon="21.02913">
        <ele>460.914494</ele>
        <time>2022-04-23T11:39:36.504Z</time>
      </trkpt>
      <trkpt lat="41.97548" lon="21.02905">
        <ele>460.787898</ele>
        <time>2022-04-23T11:39:40.511Z</time>
      </trkpt>
      <trkpt lat="41.97539" lon="21.02895">
        <ele>460.649387</ele>
        <time>2022-04-23T11:39:45.497Z</time>
      </trkpt>
      <trkpt lat="41.9753" lon="21.02886">
        <ele>460.515187</ele>
        <time>2022-04-23T11:39:49.514Z</time>
      </trkpt>
      <trkpt lat="41.97522" lon="21.02878">
        <ele>460.39606</ele>
        <time>2022-04-23T11:39:52.502Z</time>
      </trkpt>
      <trkpt lat="41.97513" lon="21.02869">
        <ele>460.260978</ele>
        <time>2022-04-23T11:39:56.544Z</time>
      </trkpt>
      <trkpt lat="41.97505" lon="21.02859">
        <ele>460.12578</ele>
        <time>2022-04-23T11:40:00.489Z</time>
      </trkpt>
      <trkpt lat="41.97496" lon="21.02849">
        <ele>460.047227</ele>
        <time>2022-04-23T11:40:04.500Z</time>
      </trkpt>
      <trkpt lat="41.97488" lon="21.02838">
        <ele>460.130813</ele>
        <time>2022-04-23T11:40:08.499Z</time>
      </trkpt>
      <trkpt lat="41.97481" lon="21.0283">
        <ele>460.197153</ele>
        <time>2022-04-23T11:40:11.516Z</time>
      </trkpt>
      <trkpt lat="41.97475" lon="21.0282">
        <ele>460.267304</ele>
        <time>2022-04-23T11:40:14.502Z</time>
      </trkpt>
      <trkpt lat="41.97468" lon="21.02811">
        <ele>460.337314</ele>
        <time>2022-04-23T11:40:17.517Z</time>
      </trkpt>
      <trkpt lat="41.97459" lon="21.028">
        <ele>460.430277</ele>
        <time>2022-04-23T11:40:20.505Z</time>
      </trkpt>
      <trkpt lat="41.97449" lon="21.02788">
        <ele>460.52517</ele>
        <time>2022-04-23T11:40:23.495Z</time>
      </trkpt>
      <trkpt lat="41.97442" lon="21.02778">
        <ele>460.601939</ele>
        <time>2022-04-23T11:40:26.497Z</time>
      </trkpt>
      <trkpt lat="41.97435" lon="21.02768">
        <ele>460.674345</ele>
        <time>2022-04-23T11:40:29.510Z</time>
      </trkpt>
      <trkpt lat="41.97429" lon="21.02757">
        <ele>460.750095</ele>
        <time>2022-04-23T11:40:32.490Z</time>
      </trkpt>
      <trkpt lat="41.97421" lon="21.02745">
        <ele>460.834704</ele>
        <time>2022-04-23T11:40:35.497Z</time>
      </trkpt>
      <trkpt lat="41.97413" lon="21.02735">
        <ele>460.915076</ele>
        <time>2022-04-23T11:40:38.515Z</time>
      </trkpt>
      <trkpt lat="41.97405" lon="21.02726">
        <ele>460.994538</ele>
        <time>2022-04-23T11:40:41.492Z</time>
      </trkpt>
      <trkpt lat="41.97396" lon="21.02717">
        <ele>461.070034</ele>
        <time>2022-04-23T11:40:44.501Z</time>
      </trkpt>
      <trkpt lat="41.97388" lon="21.02707">
        <ele>461.150315</ele>
        <time>2022-04-23T11:40:47.513Z</time>
      </trkpt>
      <trkpt lat="41.97378" lon="21.02698">
        <ele>461.237048</ele>
        <time>2022-04-23T11:40:50.518Z</time>
      </trkpt>
      <trkpt lat="41.97371" lon="21.02688">
        <ele>461.312314</ele>
        <time>2022-04-23T11:40:53.518Z</time>
      </trkpt>
      <trkpt lat="41.97363" lon="21.02679">
        <ele>461.232082</ele>
        <time>2022-04-23T11:40:56.500Z</time>
      </trkpt>
      <trkpt lat="41.97357" lon="21.02668">
        <ele>461.082381</ele>
        <time>2022-04-23T11:40:59.508Z</time>
      </trkpt>
      <trkpt lat="41.9735" lon="21.02658">
        <ele>460.932402</ele>
        <time>2022-04-23T11:41:02.510Z</time>
      </trkpt>
      <trkpt lat="41.97344" lon="21.02646">
        <ele>460.779566</ele>
        <time>2022-04-23T11:41:05.504Z</time>
      </trkpt>
      <trkpt lat="41.97338" lon="21.02634">
        <ele>460.624734</ele>
        <time>2022-04-23T11:41:08.495Z</time>
      </trkpt>
      <trkpt lat="41.97331" lon="21.02623">
        <ele>460.473275</ele>
        <time>2022-04-23T11:41:11.504Z</time>
      </trkpt>
      <trkpt lat="41.97325" lon="21.02613">
        <ele>460.324391</ele>
        <time>2022-04-23T11:41:14.489Z</time>
      </trkpt>
      <trkpt lat="41.97317" lon="21.02602">
        <ele>460.163919</ele>
        <time>2022-04-23T11:41:17.524Z</time>
      </trkpt>
      <trkpt lat="41.9731" lon="21.02589">
        <ele>459.994458</ele>
        <time>2022-04-23T11:41:20.525Z</time>
      </trkpt>
      <trkpt lat="41.97304" lon="21.02575">
        <ele>459.821274</ele>
        <time>2022-04-23T11:41:23.504Z</time>
      </trkpt>
      <trkpt lat="41.97297" lon="21.02562">
        <ele>459.645071</ele>
        <time>2022-04-23T11:41:26.513Z</time>
      </trkpt>
      <trkpt lat="41.97291" lon="21.02551">
        <ele>459.493762</ele>
        <time>2022-04-23T11:41:29.505Z</time>
      </trkpt>
      <trkpt lat="41.97286" lon="21.0254">
        <ele>459.352596</ele>
        <time>2022-04-23T11:41:32.486Z</time>
      </trkpt>
      <trkpt lat="41.9728" lon="21.02526">
        <ele>459.178504</ele>
        <time>2022-04-23T11:41:36.512Z</time>
      </trkpt>
      <trkpt lat="41.97275" lon="21.02512">
        <ele>459.022254</ele>
        <time>2022-04-23T11:41:39.547Z</time>
      </trkpt>
      <trkpt lat="41.97275" lon="21.02497">
        <ele>458.855452</ele>
        <time>2022-04-23T11:41:42.518Z</time>
      </trkpt>
      <trkpt lat="41.97277" lon="21.0248">
        <ele>458.767439</ele>
        <time>2022-04-23T11:41:45.515Z</time>
      </trkpt>
      <trkpt lat="41.97279" lon="21.02465">
        <ele>458.860292</ele>
        <time>2022-04-23T11:41:48.487Z</time>
      </trkpt>
      <trkpt lat="41.97281" lon="21.02451">
        <ele>458.947469</ele>
        <time>2022-04-23T11:41:51.539Z</time>
      </trkpt>
      <trkpt lat="41.97283" lon="21.02437">
        <ele>459.030317</ele>
        <time>2022-04-23T11:41:54.497Z</time>
      </trkpt>
      <trkpt lat="41.97285" lon="21.02423">
        <ele>459.117942</ele>
        <time>2022-04-23T11:41:57.493Z</time>
      </trkpt>
      <trkpt lat="41.97287" lon="21.02409">
        <ele>459.204084</ele>
        <time>2022-04-23T11:42:00.504Z</time>
      </trkpt>
      <trkpt lat="41.97289" lon="21.02395">
        <ele>459.294245</ele>
        <time>2022-04-23T11:42:03.534Z</time>
      </trkpt>
      <trkpt lat="41.97292" lon="21.0238">
        <ele>459.384717</ele>
        <time>2022-04-23T11:42:06.500Z</time>
      </trkpt>
      <trkpt lat="41.97294" lon="21.02365">
        <ele>459.48041</ele>
        <time>2022-04-23T11:42:09.510Z</time>
      </trkpt>
      <trkpt lat="41.97296" lon="21.02349">
        <ele>459.574846</ele>
        <time>2022-04-23T11:42:12.514Z</time>
      </trkpt>
      <trkpt lat="41.97297" lon="21.02334">
        <ele>459.668804</ele>
        <time>2022-04-23T11:42:15.504Z</time>
      </trkpt>
      <trkpt lat="41.973" lon="21.02319">
        <ele>459.762755</ele>
        <time>2022-04-23T11:42:18.513Z</time>
      </trkpt>
      <trkpt lat="41.97302" lon="21.02304">
        <ele>459.85696</ele>
        <time>2022-04-23T11:42:21.497Z</time>
      </trkpt>
      <trkpt lat="41.97304" lon="21.02289">
        <ele>459.951504</ele>
        <time>2022-04-23T11:42:24.525Z</time>
      </trkpt>
      <trkpt lat="41.97308" lon="21.02273">
        <ele>460.048839</ele>
        <time>2022-04-23T11:42:27.519Z</time>
      </trkpt>
      <trkpt lat="41.97311" lon="21.02257">
        <ele>460.153629</ele>
        <time>2022-04-23T11:42:30.515Z</time>
      </trkpt>
      <trkpt lat="41.97315" lon="21.0224">
        <ele>460.252522</ele>
        <time>2022-04-23T11:42:33.504Z</time>
      </trkpt>
      <trkpt lat="41.97318" lon="21.02224">
        <ele>460.346242</ele>
        <time>2022-04-23T11:42:36.504Z</time>
      </trkpt>
      <trkpt lat="41.97322" lon="21.02208">
        <ele>460.440687</ele>
        <time>2022-04-23T11:42:39.490Z</time>
      </trkpt>
      <trkpt lat="41.97326" lon="21.02191">
        <ele>460.541228</ele>
        <time>2022-04-23T11:42:42.533Z</time>
      </trkpt>
      <trkpt lat="41.97328" lon="21.02179">
        <ele>460.608656</ele>
        <time>2022-04-23T11:42:44.493Z</time>
      </trkpt>
      <trkpt lat="41.97331" lon="21.02167">
        <ele>460.676861</ele>
        <time>2022-04-23T11:42:46.499Z</time>
      </trkpt>
      <trkpt lat="41.97334" lon="21.02151">
        <ele>460.769307</ele>
        <time>2022-04-23T11:42:49.516Z</time>
      </trkpt>
      <trkpt lat="41.97335" lon="21.02137">
        <ele>460.851933</ele>
        <time>2022-04-23T11:42:52.501Z</time>
      </trkpt>
      <trkpt lat="41.97337" lon="21.02121">
        <ele>460.941773</ele>
        <time>2022-04-23T11:42:55.497Z</time>
      </trkpt>
      <trkpt lat="41.97337" lon="21.02103">
        <ele>461.041321</ele>
        <time>2022-04-23T11:42:58.525Z</time>
      </trkpt>
      <trkpt lat="41.97337" lon="21.02091">
        <ele>461.110688</ele>
        <time>2022-04-23T11:43:00.498Z</time>
      </trkpt>
      <trkpt lat="41.97336" lon="21.02078">
        <ele>461.183435</ele>
        <time>2022-04-23T11:43:02.513Z</time>
      </trkpt>
      <trkpt lat="41.97335" lon="21.02061">
        <ele>461.276059</ele>
        <time>2022-04-23T11:43:05.534Z</time>
      </trkpt>
      <trkpt lat="41.97333" lon="21.02045">
        <ele>461.368087</ele>
        <time>2022-04-23T11:43:08.509Z</time>
      </trkpt>
      <trkpt lat="41.97332" lon="21.02033">
        <ele>461.438178</ele>
        <time>2022-04-23T11:43:10.505Z</time>
      </trkpt>
      <trkpt lat="41.9733" lon="21.02021">
        <ele>461.506937</ele>
        <time>2022-04-23T11:43:12.493Z</time>
      </trkpt>
      <trkpt lat="41.97328" lon="21.02008">
        <ele>461.527983</ele>
        <time>2022-04-23T11:43:14.495Z</time>
      </trkpt>
      <trkpt lat="41.97327" lon="21.01996">
        <ele>461.446487</ele>
        <time>2022-04-23T11:43:16.492Z</time>
      </trkpt>
      <trkpt lat="41.97326" lon="21.01978">
        <ele>461.330649</ele>
        <time>2022-04-23T11:43:19.498Z</time>
      </trkpt>
      <trkpt lat="41.97326" lon="21.01961">
        <ele>461.217624</ele>
        <time>2022-04-23T11:43:22.543Z</time>
      </trkpt>
      <trkpt lat="41.97326" lon="21.01944">
        <ele>461.103302</ele>
        <time>2022-04-23T11:43:25.511Z</time>
      </trkpt>
      <trkpt lat="41.97328" lon="21.01927">
        <ele>460.991145</ele>
        <time>2022-04-23T11:43:28.496Z</time>
      </trkpt>
      <trkpt lat="41.9733" lon="21.0191">
        <ele>460.880521</ele>
        <time>2022-04-23T11:43:31.517Z</time>
      </trkpt>
      <trkpt lat="41.97335" lon="21.01894">
        <ele>460.769989</ele>
        <time>2022-04-23T11:43:34.562Z</time>
      </trkpt>
      <trkpt lat="41.9734" lon="21.01881">
        <ele>460.672262</ele>
        <time>2022-04-23T11:43:37.523Z</time>
      </trkpt>
      <trkpt lat="41.97345" lon="21.01869">
        <ele>460.580768</ele>
        <time>2022-04-23T11:43:40.507Z</time>
      </trkpt>
      <trkpt lat="41.97351" lon="21.01858">
        <ele>460.488436</ele>
        <time>2022-04-23T11:43:43.510Z</time>
      </trkpt>
      <trkpt lat="41.97356" lon="21.01847">
        <ele>460.406041</ele>
        <time>2022-04-23T11:43:46.504Z</time>
      </trkpt>
      <trkpt lat="41.97361" lon="21.01837">
        <ele>460.326812</ele>
        <time>2022-04-23T11:43:49.509Z</time>
      </trkpt>
      <trkpt lat="41.97368" lon="21.01824">
        <ele>460.22239</ele>
        <time>2022-04-23T11:43:53.503Z</time>
      </trkpt>
      <trkpt lat="41.97374" lon="21.01814">
        <ele>460.139092</ele>
        <time>2022-04-23T11:43:56.542Z</time>
      </trkpt>
      <trkpt lat="41.97379" lon="21.01804">
        <ele>460.055264</ele>
        <time>2022-04-23T11:43:59.505Z</time>
      </trkpt>
      <trkpt lat="41.97385" lon="21.01792">
        <ele>459.961657</ele>
        <time>2022-04-23T11:44:02.557Z</time>
      </trkpt>
      <trkpt lat="41.97392" lon="21.01782">
        <ele>459.903607</ele>
        <time>2022-04-23T11:44:05.518Z</time>
      </trkpt>
      <trkpt lat="41.97398" lon="21.01771">
        <ele>459.844678</ele>
        <time>2022-04-23T11:44:08.514Z</time>
      </trkpt>
      <trkpt lat="41.97402" lon="21.01759">
        <ele>459.788443</ele>
        <time>2022-04-23T11:44:11.504Z</time>
      </trkpt>
      <trkpt lat="41.97408" lon="21.01746">
        <ele>459.725234</ele>
        <time>2022-04-23T11:44:14.517Z</time>
      </trkpt>
      <trkpt lat="41.97415" lon="21.01734">
        <ele>459.661085</ele>
        <time>2022-04-23T11:44:17.502Z</time>
      </trkpt>
      <trkpt lat="41.97421" lon="21.01721">
        <ele>459.594271</ele>
        <time>2022-04-23T11:44:20.509Z</time>
      </trkpt>
      <trkpt lat="41.97428" lon="21.01709">
        <ele>459.531184</ele>
        <time>2022-04-23T11:44:23.520Z</time>
      </trkpt>
      <trkpt lat="41.97434" lon="21.01698">
        <ele>459.471227</ele>
        <time>2022-04-23T11:44:26.500Z</time>
      </trkpt>
      <trkpt lat="41.97439" lon="21.01685">
        <ele>459.408925</ele>
        <time>2022-04-23T11:44:29.509Z</time>
      </trkpt>
      <trkpt lat="41.97446" lon="21.01672">
        <ele>459.342074</ele>
        <time>2022-04-23T11:44:32.519Z</time>
      </trkpt>
      <trkpt lat="41.97453" lon="21.0166">
        <ele>459.276868</ele>
        <time>2022-04-23T11:44:35.544Z</time>
      </trkpt>
      <trkpt lat="41.97459" lon="21.01647">
        <ele>459.213472</ele>
        <time>2022-04-23T11:44:38.524Z</time>
      </trkpt>
      <trkpt lat="41.97465" lon="21.01634">
        <ele>459.145427</ele>
        <time>2022-04-23T11:44:41.524Z</time>
      </trkpt>
      <trkpt lat="41.97471" lon="21.01621">
        <ele>459.079379</ele>
        <time>2022-04-23T11:44:44.508Z</time>
      </trkpt>
      <trkpt lat="41.97477" lon="21.01607">
        <ele>459.010179</ele>
        <time>2022-04-23T11:44:47.565Z</time>
      </trkpt>
      <trkpt lat="41.97484" lon="21.01594">
        <ele>458.941622</ele>
        <time>2022-04-23T11:44:50.493Z</time>
      </trkpt>
      <trkpt lat="41.97491" lon="21.01581">
        <ele>458.825327</ele>
        <time>2022-04-23T11:44:53.557Z</time>
      </trkpt>
      <trkpt lat="41.97498" lon="21.01568">
        <ele>458.695814</ele>
        <time>2022-04-23T11:44:56.532Z</time>
      </trkpt>
      <trkpt lat="41.97505" lon="21.01554">
        <ele>458.561265</ele>
        <time>2022-04-23T11:44:59.506Z</time>
      </trkpt>
      <trkpt lat="41.97512" lon="21.01541">
        <ele>458.432437</ele>
        <time>2022-04-23T11:45:02.513Z</time>
      </trkpt>
      <trkpt lat="41.97518" lon="21.01528">
        <ele>458.317379</ele>
        <time>2022-04-23T11:45:05.534Z</time>
      </trkpt>
      <trkpt lat="41.97524" lon="21.01515">
        <ele>458.195127</ele>
        <time>2022-04-23T11:45:08.512Z</time>
      </trkpt>
      <trkpt lat="41.9753" lon="21.01503">
        <ele>458.07645</ele>
        <time>2022-04-23T11:45:11.507Z</time>
      </trkpt>
      <trkpt lat="41.97537" lon="21.01491">
        <ele>457.954633</ele>
        <time>2022-04-23T11:45:14.506Z</time>
      </trkpt>
      <trkpt lat="41.97544" lon="21.01479">
        <ele>457.8334</ele>
        <time>2022-04-23T11:45:17.518Z</time>
      </trkpt>
      <trkpt lat="41.97551" lon="21.01467">
        <ele>457.713635</ele>
        <time>2022-04-23T11:45:20.508Z</time>
      </trkpt>
      <trkpt lat="41.97558" lon="21.01458">
        <ele>457.60508</ele>
        <time>2022-04-23T11:45:23.494Z</time>
      </trkpt>
      <trkpt lat="41.97566" lon="21.01448">
        <ele>457.495042</ele>
        <time>2022-04-23T11:45:26.514Z</time>
      </trkpt>
      <trkpt lat="41.97573" lon="21.01435">
        <ele>457.368789</ele>
        <time>2022-04-23T11:45:30.496Z</time>
      </trkpt>
      <trkpt lat="41.9758" lon="21.01422">
        <ele>457.243176</ele>
        <time>2022-04-23T11:45:34.505Z</time>
      </trkpt>
      <trkpt lat="41.97587" lon="21.0141">
        <ele>457.115595</ele>
        <time>2022-04-23T11:45:38.533Z</time>
      </trkpt>
      <trkpt lat="41.97593" lon="21.01399">
        <ele>457.012891</ele>
        <time>2022-04-23T11:45:41.512Z</time>
      </trkpt>
      <trkpt lat="41.97599" lon="21.01389">
        <ele>457.07998</ele>
        <time>2022-04-23T11:45:44.510Z</time>
      </trkpt>
      <trkpt lat="41.97605" lon="21.01379">
        <ele>457.157034</ele>
        <time>2022-04-23T11:45:47.520Z</time>
      </trkpt>
      <trkpt lat="41.97612" lon="21.01368">
        <ele>457.24018</ele>
        <time>2022-04-23T11:45:50.501Z</time>
      </trkpt>
      <trkpt lat="41.97617" lon="21.01357">
        <ele>457.315376</ele>
        <time>2022-04-23T11:45:53.529Z</time>
      </trkpt>
      <trkpt lat="41.97623" lon="21.01347">
        <ele>457.387808</ele>
        <time>2022-04-23T11:45:56.522Z</time>
      </trkpt>
      <trkpt lat="41.9763" lon="21.01334">
        <ele>457.479598</ele>
        <time>2022-04-23T11:46:00.562Z</time>
      </trkpt>
      <trkpt lat="41.97637" lon="21.01321">
        <ele>457.570026</ele>
        <time>2022-04-23T11:46:04.519Z</time>
      </trkpt>
      <trkpt lat="41.97643" lon="21.01308">
        <ele>457.662395</ele>
        <time>2022-04-23T11:46:08.508Z</time>
      </trkpt>
      <trkpt lat="41.97648" lon="21.01297">
        <ele>457.735553</ele>
        <time>2022-04-23T11:46:11.535Z</time>
      </trkpt>
      <trkpt lat="41.97653" lon="21.01283">
        <ele>457.827209</ele>
        <time>2022-04-23T11:46:15.525Z</time>
      </trkpt>
      <trkpt lat="41.97658" lon="21.01272">
        <ele>457.896995</ele>
        <time>2022-04-23T11:46:18.529Z</time>
      </trkpt>
      <trkpt lat="41.97663" lon="21.01261">
        <ele>457.973787</ele>
        <time>2022-04-23T11:46:21.488Z</time>
      </trkpt>
      <trkpt lat="41.97667" lon="21.01248">
        <ele>458.05335</ele>
        <time>2022-04-23T11:46:24.503Z</time>
      </trkpt>
      <trkpt lat="41.97671" lon="21.01236">
        <ele>458.131653</ele>
        <time>2022-04-23T11:46:27.522Z</time>
      </trkpt>
      <trkpt lat="41.97676" lon="21.01223">
        <ele>458.2094</ele>
        <time>2022-04-23T11:46:30.508Z</time>
      </trkpt>
      <trkpt lat="41.97681" lon="21.0121">
        <ele>458.294599</ele>
        <time>2022-04-23T11:46:33.511Z</time>
      </trkpt>
      <trkpt lat="41.97687" lon="21.01198">
        <ele>458.379047</ele>
        <time>2022-04-23T11:46:36.511Z</time>
      </trkpt>
      <trkpt lat="41.97693" lon="21.01187">
        <ele>458.60517</ele>
        <time>2022-04-23T11:46:39.511Z</time>
      </trkpt>
      <trkpt lat="41.97699" lon="21.01175">
        <ele>458.887348</ele>
        <time>2022-04-23T11:46:42.512Z</time>
      </trkpt>
      <trkpt lat="41.97705" lon="21.01164">
        <ele>459.159915</ele>
        <time>2022-04-23T11:46:45.498Z</time>
      </trkpt>
      <trkpt lat="41.97711" lon="21.01151">
        <ele>459.470204</ele>
        <time>2022-04-23T11:46:49.497Z</time>
      </trkpt>
      <trkpt lat="41.97716" lon="21.01137">
        <ele>459.788208</ele>
        <time>2022-04-23T11:46:53.496Z</time>
      </trkpt>
      <trkpt lat="41.97722" lon="21.01125">
        <ele>460.074074</ele>
        <time>2022-04-23T11:46:56.507Z</time>
      </trkpt>
      <trkpt lat="41.97728" lon="21.01112">
        <ele>460.39067</ele>
        <time>2022-04-23T11:46:59.515Z</time>
      </trkpt>
      <trkpt lat="41.97733" lon="21.01101">
        <ele>460.651745</ele>
        <time>2022-04-23T11:47:02.512Z</time>
      </trkpt>
      <trkpt lat="41.97739" lon="21.01087">
        <ele>460.97418</ele>
        <time>2022-04-23T11:47:06.496Z</time>
      </trkpt>
      <trkpt lat="41.97745" lon="21.01074">
        <ele>461.287856</ele>
        <time>2022-04-23T11:47:10.511Z</time>
      </trkpt>
      <trkpt lat="41.9775" lon="21.01062">
        <ele>461.557233</ele>
        <time>2022-04-23T11:47:13.496Z</time>
      </trkpt>
      <trkpt lat="41.97754" lon="21.0105">
        <ele>461.821431</ele>
        <time>2022-04-23T11:47:16.510Z</time>
      </trkpt>
      <trkpt lat="41.97758" lon="21.01037">
        <ele>462.095623</ele>
        <time>2022-04-23T11:47:19.519Z</time>
      </trkpt>
      <trkpt lat="41.97762" lon="21.01026">
        <ele>462.359627</ele>
        <time>2022-04-23T11:47:22.541Z</time>
      </trkpt>
      <trkpt lat="41.97766" lon="21.01011">
        <ele>462.676283</ele>
        <time>2022-04-23T11:47:26.518Z</time>
      </trkpt>
      <trkpt lat="41.97769" lon="21.00997">
        <ele>462.969746</ele>
        <time>2022-04-23T11:47:29.529Z</time>
      </trkpt>
      <trkpt lat="41.97772" lon="21.00983">
        <ele>463.254465</ele>
        <time>2022-04-23T11:47:32.524Z</time>
      </trkpt>
      <trkpt lat="41.97774" lon="21.0097">
        <ele>463.59906</ele>
        <time>2022-04-23T11:47:35.514Z</time>
      </trkpt>
      <trkpt lat="41.97775" lon="21.00956">
        <ele>463.941738</ele>
        <time>2022-04-23T11:47:38.506Z</time>
      </trkpt>
      <trkpt lat="41.97776" lon="21.00942">
        <ele>464.304678</ele>
        <time>2022-04-23T11:47:41.514Z</time>
      </trkpt>
      <trkpt lat="41.97778" lon="21.0093">
        <ele>464.627037</ele>
        <time>2022-04-23T11:47:44.549Z</time>
      </trkpt>
      <trkpt lat="41.97779" lon="21.00917">
        <ele>464.966343</ele>
        <time>2022-04-23T11:47:47.527Z</time>
      </trkpt>
      <trkpt lat="41.97781" lon="21.00903">
        <ele>465.316589</ele>
        <time>2022-04-23T11:47:50.514Z</time>
      </trkpt>
      <trkpt lat="41.97783" lon="21.0089">
        <ele>465.667979</ele>
        <time>2022-04-23T11:47:53.513Z</time>
      </trkpt>
      <trkpt lat="41.97785" lon="21.00877">
        <ele>466.007563</ele>
        <time>2022-04-23T11:47:56.519Z</time>
      </trkpt>
      <trkpt lat="41.97788" lon="21.00864">
        <ele>466.348916</ele>
        <time>2022-04-23T11:47:59.516Z</time>
      </trkpt>
      <trkpt lat="41.9779" lon="21.00851">
        <ele>466.686918</ele>
        <time>2022-04-23T11:48:02.526Z</time>
      </trkpt>
      <trkpt lat="41.97795" lon="21.00839">
        <ele>467.048767</ele>
        <time>2022-04-23T11:48:05.501Z</time>
      </trkpt>
      <trkpt lat="41.978" lon="21.00826">
        <ele>467.432572</ele>
        <time>2022-04-23T11:48:08.515Z</time>
      </trkpt>
      <trkpt lat="41.97806" lon="21.00813">
        <ele>467.824573</ele>
        <time>2022-04-23T11:48:11.490Z</time>
      </trkpt>
      <trkpt lat="41.97813" lon="21.00801">
        <ele>468.224265</ele>
        <time>2022-04-23T11:48:14.497Z</time>
      </trkpt>
      <trkpt lat="41.9782" lon="21.0079">
        <ele>468.587718</ele>
        <time>2022-04-23T11:48:17.519Z</time>
      </trkpt>
      <trkpt lat="41.97827" lon="21.0078">
        <ele>468.950025</ele>
        <time>2022-04-23T11:48:20.519Z</time>
      </trkpt>
      <trkpt lat="41.97835" lon="21.00769">
        <ele>469.332141</ele>
        <time>2022-04-23T11:48:23.538Z</time>
      </trkpt>
      <trkpt lat="41.97843" lon="21.00759">
        <ele>469.326026</ele>
        <time>2022-04-23T11:48:26.510Z</time>
      </trkpt>
      <trkpt lat="41.97851" lon="21.00747">
        <ele>469.088499</ele>
        <time>2022-04-23T11:48:29.523Z</time>
      </trkpt>
      <trkpt lat="41.97859" lon="21.00734">
        <ele>468.824703</ele>
        <time>2022-04-23T11:48:32.532Z</time>
      </trkpt>
      <trkpt lat="41.97866" lon="21.00721">
        <ele>468.569652</ele>
        <time>2022-04-23T11:48:35.520Z</time>
      </trkpt>
      <trkpt lat="41.97873" lon="21.00708">
        <ele>468.323424</ele>
        <time>2022-04-23T11:48:38.510Z</time>
      </trkpt>
      <trkpt lat="41.97879" lon="21.00695">
        <ele>468.086319</ele>
        <time>2022-04-23T11:48:41.510Z</time>
      </trkpt>
      <trkpt lat="41.97885" lon="21.00682">
        <ele>467.850056</ele>
        <time>2022-04-23T11:48:44.499Z</time>
      </trkpt>
      <trkpt lat="41.97892" lon="21.0067">
        <ele>467.611268</ele>
        <time>2022-04-23T11:48:47.519Z</time>
      </trkpt>
      <trkpt lat="41.97899" lon="21.00656">
        <ele>467.35613</ele>
        <time>2022-04-23T11:48:50.521Z</time>
      </trkpt>
      <trkpt lat="41.97905" lon="21.00643">
        <ele>467.112656</ele>
        <time>2022-04-23T11:48:53.513Z</time>
      </trkpt>
      <trkpt lat="41.9791" lon="21.00629">
        <ele>466.870736</ele>
        <time>2022-04-23T11:48:56.492Z</time>
      </trkpt>
      <trkpt lat="41.97915" lon="21.00615">
        <ele>466.628463</ele>
        <time>2022-04-23T11:48:59.516Z</time>
      </trkpt>
      <trkpt lat="41.97919" lon="21.00601">
        <ele>466.39579</ele>
        <time>2022-04-23T11:49:02.527Z</time>
      </trkpt>
      <trkpt lat="41.97923" lon="21.00589">
        <ele>466.187366</ele>
        <time>2022-04-23T11:49:05.509Z</time>
      </trkpt>
      <trkpt lat="41.97927" lon="21.00573">
        <ele>465.938977</ele>
        <time>2022-04-23T11:49:08.548Z</time>
      </trkpt>
      <trkpt lat="41.9793" lon="21.00558">
        <ele>465.723609</ele>
        <time>2022-04-23T11:49:11.517Z</time>
      </trkpt>
      <trkpt lat="41.97934" lon="21.00543">
        <ele>465.748335</ele>
        <time>2022-04-23T11:49:14.488Z</time>
      </trkpt>
      <trkpt lat="41.97937" lon="21.00528">
        <ele>465.772369</ele>
        <time>2022-04-23T11:49:17.553Z</time>
      </trkpt>
      <trkpt lat="41.97937" lon="21.00513">
        <ele>465.795953</ele>
        <time>2022-04-23T11:49:20.515Z</time>
      </trkpt>
      <trkpt lat="41.97937" lon="21.00498">
        <ele>465.818207</ele>
        <time>2022-04-23T11:49:23.521Z</time>
      </trkpt>
      <trkpt lat="41.9794" lon="21.00485">
        <ele>465.840116</ele>
        <time>2022-04-23T11:49:26.554Z</time>
      </trkpt>
      <trkpt lat="41.97944" lon="21.00471">
        <ele>465.863496</ele>
        <time>2022-04-23T11:49:29.496Z</time>
      </trkpt>
      <trkpt lat="41.97947" lon="21.00455">
        <ele>465.888822</ele>
        <time>2022-04-23T11:49:32.495Z</time>
      </trkpt>
      <trkpt lat="41.97952" lon="21.0044">
        <ele>465.914832</ele>
        <time>2022-04-23T11:49:35.525Z</time>
      </trkpt>
      <trkpt lat="41.97956" lon="21.00425">
        <ele>465.940198</ele>
        <time>2022-04-23T11:49:38.510Z</time>
      </trkpt>
      <trkpt lat="41.9796" lon="21.0041">
        <ele>465.964817</ele>
        <time>2022-04-23T11:49:41.482Z</time>
      </trkpt>
      <trkpt lat="41.97964" lon="21.00396">
        <ele>465.98766</ele>
        <time>2022-04-23T11:49:44.521Z</time>
      </trkpt>
      <trkpt lat="41.97967" lon="21.00381">
        <ele>466.012709</ele>
        <time>2022-04-23T11:49:47.498Z</time>
      </trkpt>
      <trkpt lat="41.9797" lon="21.00367">
        <ele>466.035407</ele>
        <time>2022-04-23T11:49:50.502Z</time>
      </trkpt>
      <trkpt lat="41.97974" lon="21.00355">
        <ele>466.056414</ele>
        <time>2022-04-23T11:49:53.497Z</time>
      </trkpt>
      <trkpt lat="41.97978" lon="21.00342">
        <ele>466.077937</ele>
        <time>2022-04-23T11:49:56.506Z</time>
      </trkpt>
      <trkpt lat="41.97981" lon="21.00327">
        <ele>466.098185</ele>
        <time>2022-04-23T11:50:00.498Z</time>
      </trkpt>
      <trkpt lat="41.97984" lon="21.00315">
        <ele>466.09278</ele>
        <time>2022-04-23T11:50:03.510Z</time>
      </trkpt>
      <trkpt lat="41.97988" lon="21.00304">
        <ele>466.087493</ele>
        <time>2022-04-23T11:50:06.494Z</time>
      </trkpt>
      <trkpt lat="41.97991" lon="21.00291">
        <ele>466.081907</ele>
        <time>2022-04-23T11:50:09.497Z</time>
      </trkpt>
      <trkpt lat="41.97995" lon="21.00278">
        <ele>466.075719</ele>
        <time>2022-04-23T11:50:12.513Z</time>
      </trkpt>
      <trkpt lat="41.97998" lon="21.00264">
        <ele>466.069533</ele>
        <time>2022-04-23T11:50:15.507Z</time>
      </trkpt>
      <trkpt lat="41.98002" lon="21.00251">
        <ele>466.063562</ele>
        <time>2022-04-23T11:50:18.495Z</time>
      </trkpt>
      <trkpt lat="41.98005" lon="21.00237">
        <ele>466.057295</ele>
        <time>2022-04-23T11:50:21.499Z</time>
      </trkpt>
      <trkpt lat="41.98009" lon="21.00222">
        <ele>466.050702</ele>
        <time>2022-04-23T11:50:24.512Z</time>
      </trkpt>
      <trkpt lat="41.98013" lon="21.00209">
        <ele>466.044435</ele>
        <time>2022-04-23T11:50:27.501Z</time>
      </trkpt>
      <trkpt lat="41.98016" lon="21.00196">
        <ele>466.038728</ele>
        <time>2022-04-23T11:50:30.504Z</time>
      </trkpt>
      <trkpt lat="41.9802" lon="21.00183">
        <ele>466.032813</ele>
        <time>2022-04-23T11:50:33.497Z</time>
      </trkpt>
      <trkpt lat="41.98025" lon="21.00171">
        <ele>466.02707</ele>
        <time>2022-04-23T11:50:36.506Z</time>
      </trkpt>
      <trkpt lat="41.9803" lon="21.00159">
        <ele>466.021268</ele>
        <time>2022-04-23T11:50:39.486Z</time>
      </trkpt>
      <trkpt lat="41.98034" lon="21.00148">
        <ele>466.015591</ele>
        <time>2022-04-23T11:50:42.517Z</time>
      </trkpt>
      <trkpt lat="41.98038" lon="21.00135">
        <ele>466.009911</ele>
        <time>2022-04-23T11:50:45.501Z</time>
      </trkpt>
      <trkpt lat="41.98042" lon="21.00123">
        <ele>466.004192</ele>
        <time>2022-04-23T11:50:48.504Z</time>
      </trkpt>
      <trkpt lat="41.98048" lon="21.00111">
        <ele>465.997872</ele>
        <time>2022-04-23T11:50:51.510Z</time>
      </trkpt>
      <trkpt lat="41.98054" lon="21.00098">
        <ele>466.090802</ele>
        <time>2022-04-23T11:50:54.501Z</time>
      </trkpt>
      <trkpt lat="41.98059" lon="21.00084">
        <ele>466.225159</ele>
        <time>2022-04-23T11:50:57.513Z</time>
      </trkpt>
      <trkpt lat="41.98064" lon="21.00072">
        <ele>466.353554</ele>
        <time>2022-04-23T11:51:00.495Z</time>
      </trkpt>
      <trkpt lat="41.98069" lon="21.0006">
        <ele>466.475418</ele>
        <time>2022-04-23T11:51:03.512Z</time>
      </trkpt>
      <trkpt lat="41.98074" lon="21.00048">
        <ele>466.60209</ele>
        <time>2022-04-23T11:51:06.505Z</time>
      </trkpt>
      <trkpt lat="41.9808" lon="21.00036">
        <ele>466.729287</ele>
        <time>2022-04-23T11:51:09.489Z</time>
      </trkpt>
      <trkpt lat="41.98085" lon="21.00023">
        <ele>466.863644</ele>
        <time>2022-04-23T11:51:12.507Z</time>
      </trkpt>
      <trkpt lat="41.9809" lon="21.00011">
        <ele>466.991235</ele>
        <time>2022-04-23T11:51:15.525Z</time>
      </trkpt>
      <trkpt lat="41.98094" lon="20.99999">
        <ele>467.118025</ele>
        <time>2022-04-23T11:51:18.486Z</time>
      </trkpt>
      <trkpt lat="41.981" lon="20.99985">
        <ele>467.258745</ele>
        <time>2022-04-23T11:51:21.516Z</time>
      </trkpt>
      <trkpt lat="41.98107" lon="20.99972">
        <ele>467.402692</ele>
        <time>2022-04-23T11:51:24.510Z</time>
      </trkpt>
      <trkpt lat="41.98113" lon="20.99958">
        <ele>467.550358</ele>
        <time>2022-04-23T11:51:27.498Z</time>
      </trkpt>
      <trkpt lat="41.98119" lon="20.99945">
        <ele>467.689926</ele>
        <time>2022-04-23T11:51:30.521Z</time>
      </trkpt>
      <trkpt lat="41.98126" lon="20.99932">
        <ele>467.833873</ele>
        <time>2022-04-23T11:51:33.558Z</time>
      </trkpt>
      <trkpt lat="41.98133" lon="20.99918">
        <ele>467.982109</ele>
        <time>2022-04-23T11:51:36.515Z</time>
      </trkpt>
      <trkpt lat="41.98139" lon="20.99906">
        <ele>468.124313</ele>
        <time>2022-04-23T11:51:39.512Z</time>
      </trkpt>
      <trkpt lat="41.98145" lon="20.99894">
        <ele>468.223837</ele>
        <time>2022-04-23T11:51:42.534Z</time>
      </trkpt>
      <trkpt lat="41.98151" lon="20.99883">
        <ele>468.288274</ele>
        <time>2022-04-23T11:51:45.520Z</time>
      </trkpt>
      <trkpt lat="41.98157" lon="20.99871">
        <ele>468.352143</ele>
        <time>2022-04-23T11:51:48.509Z</time>
      </trkpt>
      <trkpt lat="41.98162" lon="20.99859">
        <ele>468.413152</ele>
        <time>2022-04-23T11:51:51.492Z</time>
      </trkpt>
      <trkpt lat="41.98166" lon="20.99847">
        <ele>468.475794</ele>
        <time>2022-04-23T11:51:54.513Z</time>
      </trkpt>
      <trkpt lat="41.98171" lon="20.99836">
        <ele>468.537692</ele>
        <time>2022-04-23T11:51:57.522Z</time>
      </trkpt>
      <trkpt lat="41.98176" lon="20.99824">
        <ele>468.600843</ele>
        <time>2022-04-23T11:52:00.495Z</time>
      </trkpt>
      <trkpt lat="41.98182" lon="20.99811">
        <ele>468.669698</ele>
        <time>2022-04-23T11:52:03.487Z</time>
      </trkpt>
      <trkpt lat="41.98187" lon="20.99798">
        <ele>468.735826</ele>
        <time>2022-04-23T11:52:06.519Z</time>
      </trkpt>
      <trkpt lat="41.98193" lon="20.99786">
        <ele>468.802484</ele>
        <time>2022-04-23T11:52:09.504Z</time>
      </trkpt>
      <trkpt lat="41.982" lon="20.99774">
        <ele>468.874644</ele>
        <time>2022-04-23T11:52:12.513Z</time>
      </trkpt>
      <trkpt lat="41.98208" lon="20.99762">
        <ele>468.947551</ele>
        <time>2022-04-23T11:52:15.505Z</time>
      </trkpt>
      <trkpt lat="41.98215" lon="20.99749">
        <ele>469.021951</ele>
        <time>2022-04-23T11:52:18.502Z</time>
      </trkpt>
      <trkpt lat="41.98223" lon="20.99737">
        <ele>469.096471</ele>
        <time>2022-04-23T11:52:21.513Z</time>
      </trkpt>
      <trkpt lat="41.98229" lon="20.99724">
        <ele>469.16945</ele>
        <time>2022-04-23T11:52:24.523Z</time>
      </trkpt>
      <trkpt lat="41.98236" lon="20.99712">
        <ele>469.23458</ele>
        <time>2022-04-23T11:52:27.508Z</time>
      </trkpt>
      <trkpt lat="41.98243" lon="20.99701">
        <ele>469.303804</ele>
        <time>2022-04-23T11:52:30.514Z</time>
      </trkpt>
      <trkpt lat="41.98248" lon="20.99689">
        <ele>469.238489</ele>
        <time>2022-04-23T11:52:33.507Z</time>
      </trkpt>
      <trkpt lat="41.98253" lon="20.99676">
        <ele>469.154498</ele>
        <time>2022-04-23T11:52:36.514Z</time>
      </trkpt>
      <trkpt lat="41.98259" lon="20.99662">
        <ele>469.064686</ele>
        <time>2022-04-23T11:52:39.524Z</time>
      </trkpt>
      <trkpt lat="41.98265" lon="20.99649">
        <ele>468.972398</ele>
        <time>2022-04-23T11:52:42.502Z</time>
      </trkpt>
      <trkpt lat="41.98272" lon="20.99636">
        <ele>468.8822</ele>
        <time>2022-04-23T11:52:45.547Z</time>
      </trkpt>
      <trkpt lat="41.98279" lon="20.99623">
        <ele>468.789718</ele>
        <time>2022-04-23T11:52:48.517Z</time>
      </trkpt>
      <trkpt lat="41.98286" lon="20.9961">
        <ele>468.703205</ele>
        <time>2022-04-23T11:52:51.488Z</time>
      </trkpt>
      <trkpt lat="41.98292" lon="20.99599">
        <ele>468.621228</ele>
        <time>2022-04-23T11:52:54.507Z</time>
      </trkpt>
      <trkpt lat="41.98298" lon="20.99587">
        <ele>468.542038</ele>
        <time>2022-04-23T11:52:57.533Z</time>
      </trkpt>
      <trkpt lat="41.98305" lon="20.99576">
        <ele>468.460092</ele>
        <time>2022-04-23T11:53:00.494Z</time>
      </trkpt>
      <trkpt lat="41.98312" lon="20.99565">
        <ele>468.377003</ele>
        <time>2022-04-23T11:53:03.506Z</time>
      </trkpt>
      <trkpt lat="41.98319" lon="20.99554">
        <ele>468.292473</ele>
        <time>2022-04-23T11:53:06.517Z</time>
      </trkpt>
      <trkpt lat="41.98326" lon="20.99542">
        <ele>468.20572</ele>
        <time>2022-04-23T11:53:09.498Z</time>
      </trkpt>
      <trkpt lat="41.98334" lon="20.99531">
        <ele>468.118892</ele>
        <time>2022-04-23T11:53:12.532Z</time>
      </trkpt>
      <trkpt lat="41.98341" lon="20.9952">
        <ele>468.033572</ele>
        <time>2022-04-23T11:53:15.554Z</time>
      </trkpt>
      <trkpt lat="41.98349" lon="20.99508">
        <ele>467.94717</ele>
        <time>2022-04-23T11:53:18.506Z</time>
      </trkpt>
      <trkpt lat="41.98355" lon="20.99497">
        <ele>467.988867</ele>
        <time>2022-04-23T11:53:21.507Z</time>
      </trkpt>
      <trkpt lat="41.98362" lon="20.99485">
        <ele>468.066085</ele>
        <time>2022-04-23T11:53:24.501Z</time>
      </trkpt>
      <trkpt lat="41.98369" lon="20.99475">
        <ele>468.139155</ele>
        <time>2022-04-23T11:53:27.514Z</time>
      </trkpt>
      <trkpt lat="41.98376" lon="20.99464">
        <ele>468.216163</ele>
        <time>2022-04-23T11:53:30.543Z</time>
      </trkpt>
      <trkpt lat="41.98384" lon="20.99453">
        <ele>468.292202</ele>
        <time>2022-04-23T11:53:33.497Z</time>
      </trkpt>
      <trkpt lat="41.9839" lon="20.99443">
        <ele>468.362801</ele>
        <time>2022-04-23T11:53:36.482Z</time>
      </trkpt>
      <trkpt lat="41.98397" lon="20.99433">
        <ele>468.435481</ele>
        <time>2022-04-23T11:53:39.520Z</time>
      </trkpt>
      <trkpt lat="41.98406" lon="20.99423">
        <ele>468.515269</ele>
        <time>2022-04-23T11:53:42.495Z</time>
      </trkpt>
      <trkpt lat="41.98414" lon="20.99412">
        <ele>468.595739</ele>
        <time>2022-04-23T11:53:45.501Z</time>
      </trkpt>
      <trkpt lat="41.9842" lon="20.99402">
        <ele>468.665361</ele>
        <time>2022-04-23T11:53:48.489Z</time>
      </trkpt>
      <trkpt lat="41.98428" lon="20.99389">
        <ele>468.748872</ele>
        <time>2022-04-23T11:53:52.514Z</time>
      </trkpt>
      <trkpt lat="41.98434" lon="20.99377">
        <ele>468.828608</ele>
        <time>2022-04-23T11:53:55.498Z</time>
      </trkpt>
      <trkpt lat="41.98442" lon="20.99364">
        <ele>468.912969</ele>
        <time>2022-04-23T11:53:58.514Z</time>
      </trkpt>
      <trkpt lat="41.98448" lon="20.99352">
        <ele>468.993127</ele>
        <time>2022-04-23T11:54:01.509Z</time>
      </trkpt>
      <trkpt lat="41.98455" lon="20.9934">
        <ele>469.072026</ele>
        <time>2022-04-23T11:54:04.490Z</time>
      </trkpt>
      <trkpt lat="41.98462" lon="20.99328">
        <ele>469.149274</ele>
        <time>2022-04-23T11:54:07.510Z</time>
      </trkpt>
      <trkpt lat="41.98469" lon="20.99317">
        <ele>469.369477</ele>
        <time>2022-04-23T11:54:10.496Z</time>
      </trkpt>
      <trkpt lat="41.98476" lon="20.99307">
        <ele>469.758483</ele>
        <time>2022-04-23T11:54:13.492Z</time>
      </trkpt>
      <trkpt lat="41.98483" lon="20.99298">
        <ele>470.130243</ele>
        <time>2022-04-23T11:54:16.523Z</time>
      </trkpt>
      <trkpt lat="41.98491" lon="20.99289">
        <ele>470.520613</ele>
        <time>2022-04-23T11:54:19.496Z</time>
      </trkpt>
      <trkpt lat="41.98499" lon="20.99278">
        <ele>470.944688</ele>
        <time>2022-04-23T11:54:22.503Z</time>
      </trkpt>
      <trkpt lat="41.98508" lon="20.99268">
        <ele>471.402488</ele>
        <time>2022-04-23T11:54:26.508Z</time>
      </trkpt>
      <trkpt lat="41.98516" lon="20.99259">
        <ele>471.79189</ele>
        <time>2022-04-23T11:54:29.480Z</time>
      </trkpt>
      <trkpt lat="41.98523" lon="20.99248">
        <ele>472.200787</ele>
        <time>2022-04-23T11:54:32.494Z</time>
      </trkpt>
      <trkpt lat="41.98528" lon="20.99238">
        <ele>472.556631</ele>
        <time>2022-04-23T11:54:35.508Z</time>
      </trkpt>
      <trkpt lat="41.98531" lon="20.99225">
        <ele>472.915011</ele>
        <time>2022-04-23T11:54:39.513Z</time>
      </trkpt>
      <trkpt lat="41.98528" lon="20.99211">
        <ele>473.332586</ele>
        <time>2022-04-23T11:54:43.485Z</time>
      </trkpt>
      <trkpt lat="41.98525" lon="20.992">
        <ele>473.679745</ele>
        <time>2022-04-23T11:54:46.522Z</time>
      </trkpt>
      <trkpt lat="41.9852" lon="20.99187">
        <ele>474.075307</ele>
        <time>2022-04-23T11:54:49.480Z</time>
      </trkpt>
      <trkpt lat="41.98516" lon="20.99175">
        <ele>474.469378</ele>
        <time>2022-04-23T11:54:52.493Z</time>
      </trkpt>
      <trkpt lat="41.98511" lon="20.99162">
        <ele>474.852289</ele>
        <time>2022-04-23T11:54:55.493Z</time>
      </trkpt>
      <trkpt lat="41.98507" lon="20.9915">
        <ele>475.223655</ele>
        <time>2022-04-23T11:54:58.486Z</time>
      </trkpt>
      <trkpt lat="41.98504" lon="20.99138">
        <ele>475.600891</ele>
        <time>2022-04-23T11:55:01.506Z</time>
      </trkpt>
      <trkpt lat="41.98501" lon="20.99125">
        <ele>475.964705</ele>
        <time>2022-04-23T11:55:04.510Z</time>
      </trkpt>
      <trkpt lat="41.98498" lon="20.99113">
        <ele>476.240156</ele>
        <time>2022-04-23T11:55:07.493Z</time>
      </trkpt>
      <trkpt lat="41.98493" lon="20.99102">
        <ele>476.493687</ele>
        <time>2022-04-23T11:55:10.493Z</time>
      </trkpt>
      <trkpt lat="41.98487" lon="20.99093">
        <ele>476.73395</ele>
        <time>2022-04-23T11:55:13.497Z</time>
      </trkpt>
      <trkpt lat="41.9848" lon="20.99084">
        <ele>476.992849</ele>
        <time>2022-04-23T11:55:16.498Z</time>
      </trkpt>
      <trkpt lat="41.98473" lon="20.99074">
        <ele>477.275761</ele>
        <time>2022-04-23T11:55:19.495Z</time>
      </trkpt>
      <trkpt lat="41.98465" lon="20.99066">
        <ele>477.533536</ele>
        <time>2022-04-23T11:55:22.491Z</time>
      </trkpt>
      <trkpt lat="41.98457" lon="20.99057">
        <ele>477.80087</ele>
        <time>2022-04-23T11:55:25.481Z</time>
      </trkpt>
      <trkpt lat="41.98449" lon="20.99051">
        <ele>478.063905</ele>
        <time>2022-04-23T11:55:28.495Z</time>
      </trkpt>
      <trkpt lat="41.98441" lon="20.99044">
        <ele>478.305386</ele>
        <time>2022-04-23T11:55:31.524Z</time>
      </trkpt>
      <trkpt lat="41.98432" lon="20.99035">
        <ele>478.608903</ele>
        <time>2022-04-23T11:55:35.478Z</time>
      </trkpt>
      <trkpt lat="41.98423" lon="20.99027">
        <ele>478.902449</ele>
        <time>2022-04-23T11:55:39.515Z</time>
      </trkpt>
      <trkpt lat="41.98414" lon="20.99019">
        <ele>479.198209</ele>
        <time>2022-04-23T11:55:43.499Z</time>
      </trkpt>
      <trkpt lat="41.98406" lon="20.99012">
        <ele>479.438606</ele>
        <time>2022-04-23T11:55:46.513Z</time>
      </trkpt>
      <trkpt lat="41.98396" lon="20.99003">
        <ele>479.75542</ele>
        <time>2022-04-23T11:55:50.533Z</time>
      </trkpt>
      <trkpt lat="41.98387" lon="20.98995">
        <ele>480.061483</ele>
        <time>2022-04-23T11:55:54.531Z</time>
      </trkpt>
      <trkpt lat="41.98379" lon="20.98987">
        <ele>480.324121</ele>
        <time>2022-04-23T11:55:57.535Z</time>
      </trkpt>
      <trkpt lat="41.98371" lon="20.9898">
        <ele>480.571286</ele>
        <time>2022-04-23T11:56:00.504Z</time>
      </trkpt>
      <trkpt lat="41.98364" lon="20.98973">
        <ele>480.816293</ele>
        <time>2022-04-23T11:56:03.503Z</time>
      </trkpt>
      <trkpt lat="41.98356" lon="20.98965">
        <ele>480.936944</ele>
        <time>2022-04-23T11:56:06.496Z</time>
      </trkpt>
      <trkpt lat="41.98347" lon="20.98957">
        <ele>481.060497</ele>
        <time>2022-04-23T11:56:09.521Z</time>
      </trkpt>
      <trkpt lat="41.98339" lon="20.9895">
        <ele>481.166762</ele>
        <time>2022-04-23T11:56:12.492Z</time>
      </trkpt>
      <trkpt lat="41.98332" lon="20.98943">
        <ele>481.276863</ele>
        <time>2022-04-23T11:56:15.513Z</time>
      </trkpt>
      <trkpt lat="41.98323" lon="20.98935">
        <ele>481.391294</ele>
        <time>2022-04-23T11:56:19.516Z</time>
      </trkpt>
      <trkpt lat="41.98314" lon="20.98925">
        <ele>481.531599</ele>
        <time>2022-04-23T11:56:23.510Z</time>
      </trkpt>
      <trkpt lat="41.98306" lon="20.98919">
        <ele>481.63858</ele>
        <time>2022-04-23T11:56:26.497Z</time>
      </trkpt>
      <trkpt lat="41.98298" lon="20.98912">
        <ele>481.750135</ele>
        <time>2022-04-23T11:56:29.517Z</time>
      </trkpt>
      <trkpt lat="41.98289" lon="20.98904">
        <ele>481.866481</ele>
        <time>2022-04-23T11:56:32.510Z</time>
      </trkpt>
      <trkpt lat="41.98281" lon="20.98896">
        <ele>481.985706</ele>
        <time>2022-04-23T11:56:36.510Z</time>
      </trkpt>
      <trkpt lat="41.98272" lon="20.98888">
        <ele>482.115518</ele>
        <time>2022-04-23T11:56:40.509Z</time>
      </trkpt>
      <trkpt lat="41.98263" lon="20.98879">
        <ele>482.245379</ele>
        <time>2022-04-23T11:56:44.503Z</time>
      </trkpt>
      <trkpt lat="41.98254" lon="20.98869">
        <ele>482.378648</ele>
        <time>2022-04-23T11:56:48.515Z</time>
      </trkpt>
      <trkpt lat="41.98247" lon="20.98861">
        <ele>482.484894</ele>
        <time>2022-04-23T11:56:51.496Z</time>
      </trkpt>
      <trkpt lat="41.98241" lon="20.98852">
        <ele>482.592199</ele>
        <time>2022-04-23T11:56:54.515Z</time>
      </trkpt>
      <trkpt lat="41.98234" lon="20.98842">
        <ele>482.700981</ele>
        <time>2022-04-23T11:56:58.495Z</time>
      </trkpt>
      <trkpt lat="41.98229" lon="20.9883">
        <ele>482.824189</ele>
        <time>2022-04-23T11:57:04.513Z</time>
      </trkpt>
      <trkpt lat="41.98224" lon="20.98817">
        <ele>482.86276</ele>
        <time>2022-04-23T11:57:09.510Z</time>
      </trkpt>
      <trkpt lat="41.98218" lon="20.98807">
        <ele>482.71247</ele>
        <time>2022-04-23T11:57:13.506Z</time>
      </trkpt>
      <trkpt lat="41.98213" lon="20.98795">
        <ele>482.553369</ele>
        <time>2022-04-23T11:57:17.536Z</time>
      </trkpt>
      <trkpt lat="41.98208" lon="20.98783">
        <ele>482.389114</ele>
        <time>2022-04-23T11:57:21.505Z</time>
      </trkpt>
      <trkpt lat="41.98203" lon="20.98772">
        <ele>482.243275</ele>
        <time>2022-04-23T11:57:26.497Z</time>
      </trkpt>
      <trkpt lat="41.98197" lon="20.98759">
        <ele>482.066134</ele>
        <time>2022-04-23T11:57:32.498Z</time>
      </trkpt>
      <trkpt lat="41.98192" lon="20.98749">
        <ele>481.922521</ele>
        <time>2022-04-23T11:57:36.495Z</time>
      </trkpt>
      <trkpt lat="41.98186" lon="20.98739">
        <ele>481.770295</ele>
        <time>2022-04-23T11:57:40.532Z</time>
      </trkpt>
      <trkpt lat="41.98181" lon="20.98727">
        <ele>481.613183</ele>
        <time>2022-04-23T11:57:44.500Z</time>
      </trkpt>
      <trkpt lat="41.98175" lon="20.98717">
        <ele>481.455279</ele>
        <time>2022-04-23T11:57:48.490Z</time>
      </trkpt>
      <trkpt lat="41.98169" lon="20.98706">
        <ele>481.305635</ele>
        <time>2022-04-23T11:57:53.519Z</time>
      </trkpt>
      <trkpt lat="41.98165" lon="20.98693">
        <ele>481.139006</ele>
        <time>2022-04-23T11:57:58.514Z</time>
      </trkpt>
      <trkpt lat="41.9816" lon="20.98682">
        <ele>480.988585</ele>
        <time>2022-04-23T11:58:02.521Z</time>
      </trkpt>
      <trkpt lat="41.98154" lon="20.98671">
        <ele>480.825083</ele>
        <time>2022-04-23T11:58:06.535Z</time>
      </trkpt>
      <trkpt lat="41.98149" lon="20.98659">
        <ele>480.666832</ele>
        <time>2022-04-23T11:58:10.553Z</time>
      </trkpt>
      <trkpt lat="41.98144" lon="20.98648">
        <ele>480.512221</ele>
        <time>2022-04-23T11:58:14.515Z</time>
      </trkpt>
      <trkpt lat="41.98137" lon="20.98637">
        <ele>480.350685</ele>
        <time>2022-04-23T11:58:18.540Z</time>
      </trkpt>
      <trkpt lat="41.98131" lon="20.98624">
        <ele>480.170268</ele>
        <time>2022-04-23T11:58:22.510Z</time>
      </trkpt>
      <trkpt lat="41.98126" lon="20.98614">
        <ele>480.153902</ele>
        <time>2022-04-23T11:58:25.513Z</time>
      </trkpt>
      <trkpt lat="41.9812" lon="20.98601">
        <ele>480.354547</ele>
        <time>2022-04-23T11:58:29.512Z</time>
      </trkpt>
      <trkpt lat="41.98115" lon="20.9859">
        <ele>480.542279</ele>
        <time>2022-04-23T11:58:33.507Z</time>
      </trkpt>
      <trkpt lat="41.98109" lon="20.98577">
        <ele>480.748365</ele>
        <time>2022-04-23T11:58:38.515Z</time>
      </trkpt>
      <trkpt lat="41.98104" lon="20.98566">
        <ele>480.924046</ele>
        <time>2022-04-23T11:58:42.523Z</time>
      </trkpt>
      <trkpt lat="41.98099" lon="20.98553">
        <ele>481.12603</ele>
        <time>2022-04-23T11:58:47.578Z</time>
      </trkpt>
      <trkpt lat="41.98093" lon="20.98542">
        <ele>481.315368</ele>
        <time>2022-04-23T11:58:52.508Z</time>
      </trkpt>
      <trkpt lat="41.98087" lon="20.98531">
        <ele>481.492621</ele>
        <time>2022-04-23T11:58:56.501Z</time>
      </trkpt>
      <trkpt lat="41.98081" lon="20.9852">
        <ele>481.679846</ele>
        <time>2022-04-23T11:59:00.489Z</time>
      </trkpt>
      <trkpt lat="41.98076" lon="20.98509">
        <ele>481.862344</ele>
        <time>2022-04-23T11:59:04.506Z</time>
      </trkpt>
      <trkpt lat="41.98071" lon="20.98496">
        <ele>482.05343</ele>
        <time>2022-04-23T11:59:09.540Z</time>
      </trkpt>
      <trkpt lat="41.98066" lon="20.98484">
        <ele>482.248935</ele>
        <time>2022-04-23T11:59:14.491Z</time>
      </trkpt>
      <trkpt lat="41.9806" lon="20.98474">
        <ele>482.427462</ele>
        <time>2022-04-23T11:59:18.532Z</time>
      </trkpt>
      <trkpt lat="41.98055" lon="20.98463">
        <ele>482.600415</ele>
        <time>2022-04-23T11:59:22.504Z</time>
      </trkpt>
      <trkpt lat="41.9805" lon="20.98452">
        <ele>482.780789</ele>
        <time>2022-04-23T11:59:27.542Z</time>
      </trkpt>
      <trkpt lat="41.98046" lon="20.9844">
        <ele>482.959698</ele>
        <time>2022-04-23T11:59:32.515Z</time>
      </trkpt>
      <trkpt lat="41.98041" lon="20.98429">
        <ele>483.132754</ele>
        <time>2022-04-23T11:59:36.502Z</time>
      </trkpt>
      <trkpt lat="41.98036" lon="20.98418">
        <ele>483.319055</ele>
        <time>2022-04-23T11:59:40.508Z</time>
      </trkpt>
      <trkpt lat="41.98032" lon="20.98405">
        <ele>483.359537</ele>
        <time>2022-04-23T11:59:44.489Z</time>
      </trkpt>
      <trkpt lat="41.98027" lon="20.98393">
        <ele>483.273287</ele>
        <time>2022-04-23T11:59:48.508Z</time>
      </trkpt>
      <trkpt lat="41.98022" lon="20.98379">
        <ele>483.178655</ele>
        <time>2022-04-23T11:59:52.491Z</time>
      </trkpt>
      <trkpt lat="41.98018" lon="20.98365">
        <ele>483.091206</ele>
        <time>2022-04-23T11:59:56.502Z</time>
      </trkpt>
      <trkpt lat="41.98016" lon="20.98354">
        <ele>483.018142</ele>
        <time>2022-04-23T11:59:59.520Z</time>
      </trkpt>
      <trkpt lat="41.98012" lon="20.98338">
        <ele>482.922146</ele>
        <time>2022-04-23T12:00:03.527Z</time>
      </trkpt>
      <trkpt lat="41.98008" lon="20.98326">
        <ele>482.841407</ele>
        <time>2022-04-23T12:00:06.496Z</time>
      </trkpt>
      <trkpt lat="41.98005" lon="20.98315">
        <ele>482.766121</ele>
        <time>2022-04-23T12:00:09.551Z</time>
      </trkpt>
      <trkpt lat="41.98001" lon="20.98303">
        <ele>482.691396</ele>
        <time>2022-04-23T12:00:12.504Z</time>
      </trkpt>
      <trkpt lat="41.97997" lon="20.98288">
        <ele>482.594617</ele>
        <time>2022-04-23T12:00:16.549Z</time>
      </trkpt>
      <trkpt lat="41.97994" lon="20.98276">
        <ele>482.518747</ele>
        <time>2022-04-23T12:00:19.503Z</time>
      </trkpt>
      <trkpt lat="41.9799" lon="20.98262">
        <ele>482.428732</ele>
        <time>2022-04-23T12:00:23.506Z</time>
      </trkpt>
      <trkpt lat="41.97987" lon="20.98247">
        <ele>482.333882</ele>
        <time>2022-04-23T12:00:27.518Z</time>
      </trkpt>
      <trkpt lat="41.97982" lon="20.98232">
        <ele>482.23708</ele>
        <time>2022-04-23T12:00:31.533Z</time>
      </trkpt>
      <trkpt lat="41.9798" lon="20.9822">
        <ele>482.160088</ele>
        <time>2022-04-23T12:00:35.498Z</time>
      </trkpt>
      <trkpt lat="41.97978" lon="20.98207">
        <ele>482.081115</ele>
        <time>2022-04-23T12:00:39.507Z</time>
      </trkpt>
      <trkpt lat="41.97974" lon="20.98195">
        <ele>482.002916</ele>
        <time>2022-04-23T12:00:42.510Z</time>
      </trkpt>
      <trkpt lat="41.9797" lon="20.98183">
        <ele>481.920875</ele>
        <time>2022-04-23T12:00:45.533Z</time>
      </trkpt>
      <trkpt lat="41.97966" lon="20.98171">
        <ele>481.827719</ele>
        <time>2022-04-23T12:00:48.512Z</time>
      </trkpt>
      <trkpt lat="41.97962" lon="20.98158">
        <ele>481.737323</ele>
        <time>2022-04-23T12:00:51.508Z</time>
      </trkpt>
      <trkpt lat="41.97959" lon="20.98147">
        <ele>481.653441</ele>
        <time>2022-04-23T12:00:54.512Z</time>
      </trkpt>
      <trkpt lat="41.97956" lon="20.98133">
        <ele>481.556356</ele>
        <time>2022-04-23T12:00:58.498Z</time>
      </trkpt>
      <trkpt lat="41.97952" lon="20.98121">
        <ele>481.463358</ele>
        <time>2022-04-23T12:01:01.494Z</time>
      </trkpt>
      <trkpt lat="41.97947" lon="20.98108">
        <ele>481.369743</ele>
        <time>2022-04-23T12:01:04.488Z</time>
      </trkpt>
      <trkpt lat="41.97944" lon="20.98095">
        <ele>481.278188</ele>
        <time>2022-04-23T12:01:07.527Z</time>
      </trkpt>
      <trkpt lat="41.9794" lon="20.98084">
        <ele>481.194284</ele>
        <time>2022-04-23T12:01:10.524Z</time>
      </trkpt>
      <trkpt lat="41.97937" lon="20.98072">
        <ele>481.107216</ele>
        <time>2022-04-23T12:01:13.513Z</time>
      </trkpt>
      <trkpt lat="41.97934" lon="20.98059">
        <ele>481.01946</ele>
        <time>2022-04-23T12:01:16.518Z</time>
      </trkpt>
      <trkpt lat="41.97931" lon="20.98047">
        <ele>480.932986</ele>
        <time>2022-04-23T12:01:19.525Z</time>
      </trkpt>
      <trkpt lat="41.97928" lon="20.98035">
        <ele>480.844331</ele>
        <time>2022-04-23T12:01:22.505Z</time>
      </trkpt>
      <trkpt lat="41.97924" lon="20.98023">
        <ele>480.757858</ele>
        <time>2022-04-23T12:01:25.506Z</time>
      </trkpt>
      <trkpt lat="41.97921" lon="20.9801">
        <ele>480.665947</ele>
        <time>2022-04-23T12:01:28.499Z</time>
      </trkpt>
      <trkpt lat="41.97918" lon="20.97998">
        <ele>480.577601</ele>
        <time>2022-04-23T12:01:31.501Z</time>
      </trkpt>
      <trkpt lat="41.97915" lon="20.97985">
        <ele>480.483829</ele>
        <time>2022-04-23T12:01:34.502Z</time>
      </trkpt>
      <trkpt lat="41.9791" lon="20.97971">
        <ele>480.380058</ele>
        <time>2022-04-23T12:01:37.521Z</time>
      </trkpt>
      <trkpt lat="41.97906" lon="20.97958">
        <ele>480.320812</ele>
        <time>2022-04-23T12:01:40.484Z</time>
      </trkpt>
      <trkpt lat="41.97903" lon="20.97944">
        <ele>480.422211</ele>
        <time>2022-04-23T12:01:43.483Z</time>
      </trkpt>
      <trkpt lat="41.97899" lon="20.97933">
        <ele>480.511955</ele>
        <time>2022-04-23T12:01:46.491Z</time>
      </trkpt>
      <trkpt lat="41.97896" lon="20.97921">
        <ele>480.606241</ele>
        <time>2022-04-23T12:01:49.506Z</time>
      </trkpt>
      <trkpt lat="41.97892" lon="20.97908">
        <ele>480.703875</ele>
        <time>2022-04-23T12:01:52.533Z</time>
      </trkpt>
      <trkpt lat="41.97889" lon="20.97895">
        <ele>480.801561</ele>
        <time>2022-04-23T12:01:55.504Z</time>
      </trkpt>
      <trkpt lat="41.97885" lon="20.97882">
        <ele>480.904241</ele>
        <time>2022-04-23T12:01:58.522Z</time>
      </trkpt>
      <trkpt lat="41.97882" lon="20.97868">
        <ele>481.005049</ele>
        <time>2022-04-23T12:02:01.485Z</time>
      </trkpt>
      <trkpt lat="41.97878" lon="20.97855">
        <ele>481.106487</ele>
        <time>2022-04-23T12:02:04.489Z</time>
      </trkpt>
      <trkpt lat="41.97874" lon="20.97842">
        <ele>481.208966</ele>
        <time>2022-04-23T12:02:07.503Z</time>
      </trkpt>
      <trkpt lat="41.9787" lon="20.97829">
        <ele>481.31099</ele>
        <time>2022-04-23T12:02:10.551Z</time>
      </trkpt>
      <trkpt lat="41.97868" lon="20.97816">
        <ele>481.403537</ele>
        <time>2022-04-23T12:02:13.500Z</time>
      </trkpt>
      <trkpt lat="41.97863" lon="20.97801">
        <ele>481.51937</ele>
        <time>2022-04-23T12:02:17.501Z</time>
      </trkpt>
      <trkpt lat="41.97859" lon="20.9779">
        <ele>481.610557</ele>
        <time>2022-04-23T12:02:20.494Z</time>
      </trkpt>
      <trkpt lat="41.97853" lon="20.9778">
        <ele>481.702237</ele>
        <time>2022-04-23T12:02:23.504Z</time>
      </trkpt>
      <trkpt lat="41.97848" lon="20.97769">
        <ele>481.797966</ele>
        <time>2022-04-23T12:02:26.494Z</time>
      </trkpt>
      <trkpt lat="41.97841" lon="20.97759">
        <ele>481.894789</ele>
        <time>2022-04-23T12:02:29.492Z</time>
      </trkpt>
      <trkpt lat="41.97835" lon="20.97748">
        <ele>481.989352</ele>
        <time>2022-04-23T12:02:32.491Z</time>
      </trkpt>
      <trkpt lat="41.9783" lon="20.97739">
        <ele>482.197363</ele>
        <time>2022-04-23T12:02:35.481Z</time>
      </trkpt>
      <trkpt lat="41.97825" lon="20.97728">
        <ele>482.59737</ele>
        <time>2022-04-23T12:02:38.536Z</time>
      </trkpt>
      <trkpt lat="41.97819" lon="20.97716">
        <ele>483.014985</ele>
        <time>2022-04-23T12:02:41.494Z</time>
      </trkpt>
      <trkpt lat="41.97812" lon="20.97705">
        <ele>483.459882</ele>
        <time>2022-04-23T12:02:44.481Z</time>
      </trkpt>
      <trkpt lat="41.97807" lon="20.97695">
        <ele>483.848524</ele>
        <time>2022-04-23T12:02:47.508Z</time>
      </trkpt>
      <trkpt lat="41.97801" lon="20.97684">
        <ele>484.25646</ele>
        <time>2022-04-23T12:02:50.505Z</time>
      </trkpt>
      <trkpt lat="41.97794" lon="20.97674">
        <ele>484.677353</ele>
        <time>2022-04-23T12:02:53.486Z</time>
      </trkpt>
      <trkpt lat="41.97788" lon="20.97664">
        <ele>485.065333</ele>
        <time>2022-04-23T12:02:56.489Z</time>
      </trkpt>
      <trkpt lat="41.97783" lon="20.97653">
        <ele>485.46366</ele>
        <time>2022-04-23T12:02:59.499Z</time>
      </trkpt>
      <trkpt lat="41.97777" lon="20.97642">
        <ele>485.891087</ele>
        <time>2022-04-23T12:03:02.478Z</time>
      </trkpt>
      <trkpt lat="41.97771" lon="20.97631">
        <ele>486.325852</ele>
        <time>2022-04-23T12:03:05.494Z</time>
      </trkpt>
      <trkpt lat="41.97764" lon="20.97618">
        <ele>486.805183</ele>
        <time>2022-04-23T12:03:09.503Z</time>
      </trkpt>
      <trkpt lat="41.97757" lon="20.97606">
        <ele>487.294352</ele>
        <time>2022-04-23T12:03:13.513Z</time>
      </trkpt>
      <trkpt lat="41.97751" lon="20.97594">
        <ele>487.71009</ele>
        <time>2022-04-23T12:03:16.495Z</time>
      </trkpt>
      <trkpt lat="41.97745" lon="20.97584">
        <ele>488.125419</ele>
        <time>2022-04-23T12:03:19.500Z</time>
      </trkpt>
      <trkpt lat="41.97739" lon="20.97574">
        <ele>488.505837</ele>
        <time>2022-04-23T12:03:22.517Z</time>
      </trkpt>
      <trkpt lat="41.97734" lon="20.97564">
        <ele>488.886277</ele>
        <time>2022-04-23T12:03:25.508Z</time>
      </trkpt>
      <trkpt lat="41.97728" lon="20.97554">
        <ele>489.266696</ele>
        <time>2022-04-23T12:03:28.520Z</time>
      </trkpt>
      <trkpt lat="41.97722" lon="20.97543">
        <ele>489.434531</ele>
        <time>2022-04-23T12:03:31.504Z</time>
      </trkpt>
      <trkpt lat="41.97715" lon="20.97531">
        <ele>489.321283</ele>
        <time>2022-04-23T12:03:34.491Z</time>
      </trkpt>
      <trkpt lat="41.97709" lon="20.97521">
        <ele>489.222433</ele>
        <time>2022-04-23T12:03:37.545Z</time>
      </trkpt>
      <trkpt lat="41.97705" lon="20.97508">
        <ele>489.123071</ele>
        <time>2022-04-23T12:03:41.507Z</time>
      </trkpt>
      <trkpt lat="41.97703" lon="20.97494">
        <ele>489.010761</ele>
        <time>2022-04-23T12:03:45.494Z</time>
      </trkpt>
      <trkpt lat="41.97704" lon="20.97479">
        <ele>488.902797</ele>
        <time>2022-04-23T12:03:49.513Z</time>
      </trkpt>
      <trkpt lat="41.97706" lon="20.97467">
        <ele>488.811208</ele>
        <time>2022-04-23T12:03:52.506Z</time>
      </trkpt>
      <trkpt lat="41.97708" lon="20.97455">
        <ele>488.718896</ele>
        <time>2022-04-23T12:03:55.522Z</time>
      </trkpt>
      <trkpt lat="41.97711" lon="20.9744">
        <ele>488.600248</ele>
        <time>2022-04-23T12:03:59.539Z</time>
      </trkpt>
      <trkpt lat="41.97714" lon="20.97428">
        <ele>488.507473</ele>
        <time>2022-04-23T12:04:02.536Z</time>
      </trkpt>
      <trkpt lat="41.97717" lon="20.97417">
        <ele>488.417446</ele>
        <time>2022-04-23T12:04:05.495Z</time>
      </trkpt>
      <trkpt lat="41.9772" lon="20.97402">
        <ele>488.303328</ele>
        <time>2022-04-23T12:04:09.513Z</time>
      </trkpt>
      <trkpt lat="41.97724" lon="20.9739">
        <ele>488.209214</ele>
        <time>2022-04-23T12:04:12.506Z</time>
      </trkpt>
      <trkpt lat="41.97728" lon="20.97376">
        <ele>488.091312</ele>
        <time>2022-04-23T12:04:16.502Z</time>
      </trkpt>
      <trkpt lat="41.9773" lon="20.97363">
        <ele>487.998463</ele>
        <time>2022-04-23T12:04:19.525Z</time>
      </trkpt>
      <trkpt lat="41.97733" lon="20.9735">
        <ele>487.895588</ele>
        <time>2022-04-23T12:04:22.523Z</time>
      </trkpt>
      <trkpt lat="41.97737" lon="20.97336">
        <ele>487.780441</ele>
        <time>2022-04-23T12:04:26.508Z</time>
      </trkpt>
      <trkpt lat="41.97741" lon="20.97322">
        <ele>487.764239</ele>
        <time>2022-04-23T12:04:30.518Z</time>
      </trkpt>
      <trkpt lat="41.97744" lon="20.97307">
        <ele>488.488163</ele>
        <time>2022-04-23T12:04:34.500Z</time>
      </trkpt>
      <trkpt lat="41.97745" lon="20.97295">
        <ele>489.081626</ele>
        <time>2022-04-23T12:04:37.517Z</time>
      </trkpt>
      <trkpt lat="41.97748" lon="20.9728">
        <ele>489.808126</ele>
        <time>2022-04-23T12:04:41.505Z</time>
      </trkpt>
      <trkpt lat="41.97748" lon="20.97266">
        <ele>490.489769</ele>
        <time>2022-04-23T12:04:45.519Z</time>
      </trkpt>
      <trkpt lat="41.97745" lon="20.97253">
        <ele>491.147071</ele>
        <time>2022-04-23T12:04:49.543Z</time>
      </trkpt>
      <trkpt lat="41.97743" lon="20.9724">
        <ele>491.801754</ele>
        <time>2022-04-23T12:04:53.514Z</time>
      </trkpt>
      <trkpt lat="41.97743" lon="20.97226">
        <ele>492.468137</ele>
        <time>2022-04-23T12:04:57.526Z</time>
      </trkpt>
      <trkpt lat="41.97742" lon="20.97212">
        <ele>493.184635</ele>
        <time>2022-04-23T12:05:01.502Z</time>
      </trkpt>
      <trkpt lat="41.9774" lon="20.97197">
        <ele>493.8851</ele>
        <time>2022-04-23T12:05:05.513Z</time>
      </trkpt>
      <trkpt lat="41.9774" lon="20.97181">
        <ele>494.648751</ele>
        <time>2022-04-23T12:05:09.510Z</time>
      </trkpt>
      <trkpt lat="41.97739" lon="20.97166">
        <ele>495.388024</ele>
        <time>2022-04-23T12:05:13.504Z</time>
      </trkpt>
      <trkpt lat="41.97738" lon="20.97151">
        <ele>496.115949</ele>
        <time>2022-04-23T12:05:17.525Z</time>
      </trkpt>
      <trkpt lat="41.97736" lon="20.97136">
        <ele>496.880372</ele>
        <time>2022-04-23T12:05:21.495Z</time>
      </trkpt>
      <trkpt lat="41.97736" lon="20.97122">
        <ele>497.552087</ele>
        <time>2022-04-23T12:05:25.491Z</time>
      </trkpt>
      <trkpt lat="41.97736" lon="20.97106">
        <ele>498.330212</ele>
        <time>2022-04-23T12:05:29.524Z</time>
      </trkpt>
      <trkpt lat="41.97734" lon="20.97091">
        <ele>499.031682</ele>
        <time>2022-04-23T12:05:32.542Z</time>
      </trkpt>
      <trkpt lat="41.97733" lon="20.97076">
        <ele>499.203607</ele>
        <time>2022-04-23T12:05:36.524Z</time>
      </trkpt>
      <trkpt lat="41.97732" lon="20.97063">
        <ele>498.945878</ele>
        <time>2022-04-23T12:05:40.506Z</time>
      </trkpt>
      <trkpt lat="41.9773" lon="20.97049">
        <ele>498.659797</ele>
        <time>2022-04-23T12:05:44.489Z</time>
      </trkpt>
      <trkpt lat="41.97724" lon="20.97037">
        <ele>498.372708</ele>
        <time>2022-04-23T12:05:50.597Z</time>
      </trkpt>
      <trkpt lat="41.97717" lon="20.97026">
        <ele>498.085704</ele>
        <time>2022-04-23T12:05:55.577Z</time>
      </trkpt>
      <trkpt lat="41.97711" lon="20.97014">
        <ele>497.811095</ele>
        <time>2022-04-23T12:06:00.569Z</time>
      </trkpt>
      <trkpt lat="41.97719" lon="20.97003">
        <ele>497.510584</ele>
        <time>2022-04-23T12:06:05.534Z</time>
      </trkpt>
      <trkpt lat="41.97729" lon="20.96994">
        <ele>497.193604</ele>
        <time>2022-04-23T12:06:09.497Z</time>
      </trkpt>
      <trkpt lat="41.97737" lon="20.96988">
        <ele>496.952855</ele>
        <time>2022-04-23T12:06:12.506Z</time>
      </trkpt>
      <trkpt lat="41.97747" lon="20.96981">
        <ele>496.65132</ele>
        <time>2022-04-23T12:06:15.506Z</time>
      </trkpt>
      <trkpt lat="41.97757" lon="20.96976">
        <ele>496.377471</ele>
        <time>2022-04-23T12:06:18.526Z</time>
      </trkpt>
      <trkpt lat="41.97766" lon="20.96972">
        <ele>496.112424</ele>
        <time>2022-04-23T12:06:21.495Z</time>
      </trkpt>
      <trkpt lat="41.97775" lon="20.96967">
        <ele>495.868537</ele>
        <time>2022-04-23T12:06:24.506Z</time>
      </trkpt>
      <trkpt lat="41.97786" lon="20.96961">
        <ele>495.560157</ele>
        <time>2022-04-23T12:06:28.537Z</time>
      </trkpt>
      <trkpt lat="41.97795" lon="20.96957">
        <ele>495.31215</ele>
        <time>2022-04-23T12:06:31.532Z</time>
      </trkpt>
      <trkpt lat="41.97804" lon="20.96953">
        <ele>495.065363</ele>
        <time>2022-04-23T12:06:34.542Z</time>
      </trkpt>
      <trkpt lat="41.97812" lon="20.96949">
        <ele>494.817912</ele>
        <time>2022-04-23T12:06:37.498Z</time>
      </trkpt>
      <trkpt lat="41.97823" lon="20.96943">
        <ele>494.610146</ele>
        <time>2022-04-23T12:06:41.491Z</time>
      </trkpt>
      <trkpt lat="41.97832" lon="20.96939">
        <ele>494.610146</ele>
        <time>2022-04-23T12:06:44.530Z</time>
      </trkpt>
      <trkpt lat="41.97842" lon="20.96934">
        <ele>494.610146</ele>
        <time>2022-04-23T12:06:47.521Z</time>
      </trkpt>
      <trkpt lat="41.97851" lon="20.9693">
        <ele>494.610146</ele>
        <time>2022-04-23T12:06:50.508Z</time>
      </trkpt>
      <trkpt lat="41.97861" lon="20.96925">
        <ele>494.610146</ele>
        <time>2022-04-23T12:06:53.533Z</time>
      </trkpt>
      <trkpt lat="41.97872" lon="20.9692">
        <ele>494.610146</ele>
        <time>2022-04-23T12:06:56.504Z</time>
      </trkpt>
      <trkpt lat="41.97881" lon="20.96914">
        <ele>494.610146</ele>
        <time>2022-04-23T12:06:59.515Z</time>
      </trkpt>
      <trkpt lat="41.9789" lon="20.96908">
        <ele>494.610146</ele>
        <time>2022-04-23T12:07:02.522Z</time>
      </trkpt>
      <trkpt lat="41.97901" lon="20.96902">
        <ele>494.610146</ele>
        <time>2022-04-23T12:07:06.493Z</time>
      </trkpt>
      <trkpt lat="41.97909" lon="20.96897">
        <ele>494.610146</ele>
        <time>2022-04-23T12:07:09.564Z</time>
      </trkpt>
      <trkpt lat="41.9792" lon="20.96892">
        <ele>494.610146</ele>
        <time>2022-04-23T12:07:13.518Z</time>
      </trkpt>
      <trkpt lat="41.9793" lon="20.96886">
        <ele>494.610146</ele>
        <time>2022-04-23T12:07:17.510Z</time>
      </trkpt>
      <trkpt lat="41.9794" lon="20.9688">
        <ele>494.610146</ele>
        <time>2022-04-23T12:07:21.507Z</time>
      </trkpt>
      <trkpt lat="41.97949" lon="20.96876">
        <ele>494.610146</ele>
        <time>2022-04-23T12:07:26.493Z</time>
      </trkpt>
      <trkpt lat="41.97958" lon="20.96876">
        <ele>494.610146</ele>
        <time>2022-04-23T12:07:33.510Z</time>
      </trkpt>
      <trkpt lat="41.9796" lon="20.96888">
        <ele>494.610146</ele>
        <time>2022-04-23T12:07:40.481Z</time>
      </trkpt>
      <trkpt lat="41.97963" lon="20.96901">
        <ele>494.610146</ele>
        <time>2022-04-23T12:07:53.532Z</time>
      </trkpt>
      <trkpt lat="41.9797" lon="20.96915">
        <ele>494.610146</ele>
        <time>2022-04-23T12:08:38.166Z</time>
      </trkpt>
    </trkseg>
  </trk>
</gpx>